<?xml version="1.0" encoding="UTF-8"?>
<gpx xmlns="http://www.topografix.com/GPX/1/1"
     creator="GpsDumpMac 0.36"
     version="1.1"
     xmlns:xsi="http://www.w3.org/2001/XMLSchema-instance"
     xsi:schemaLocation="http://www.topografix.com/GPX/1/1 http://www.topografix.com/GPX/1/1/gpx.xsd">
  <metadata>
    <link href="http://www.gethome.no/stein.sorensen/">
      <text>GPS dump for www.flightlog.org</text>
    </link>
    <time>2015-05-26T16:49:18Z</time>
    <bounds minlat="40.145733" minlon="-5.280817" maxlat="40.255700" maxlon="-4.883750"/>
  </metadata>
  <trk>
    <name>Track 001</name>
    <trkseg>
      <trkpt lat="40.252383" lon="-4.887333">
        <ele>1000.0</ele>
        <time>2015-05-23T11:59:00Z</time>
      </trkpt>
      <trkpt lat="40.252317" lon="-4.887150">
        <ele>994.0</ele>
        <time>2015-05-23T11:59:02Z</time>
      </trkpt>
      <trkpt lat="40.252267" lon="-4.886933">
        <ele>991.0</ele>
        <time>2015-05-23T11:59:04Z</time>
      </trkpt>
      <trkpt lat="40.252283" lon="-4.886733">
        <ele>989.0</ele>
        <time>2015-05-23T11:59:06Z</time>
      </trkpt>
      <trkpt lat="40.252333" lon="-4.886550">
        <ele>987.0</ele>
        <time>2015-05-23T11:59:08Z</time>
      </trkpt>
      <trkpt lat="40.252400" lon="-4.886383">
        <ele>982.0</ele>
        <time>2015-05-23T11:59:10Z</time>
      </trkpt>
      <trkpt lat="40.252483" lon="-4.886133">
        <ele>977.0</ele>
        <time>2015-05-23T11:59:12Z</time>
      </trkpt>
      <trkpt lat="40.252500" lon="-4.885883">
        <ele>977.0</ele>
        <time>2015-05-23T11:59:14Z</time>
      </trkpt>
      <trkpt lat="40.252467" lon="-4.885700">
        <ele>975.0</ele>
        <time>2015-05-23T11:59:16Z</time>
      </trkpt>
      <trkpt lat="40.252400" lon="-4.885483">
        <ele>970.0</ele>
        <time>2015-05-23T11:59:18Z</time>
      </trkpt>
      <trkpt lat="40.252283" lon="-4.885267">
        <ele>968.0</ele>
        <time>2015-05-23T11:59:20Z</time>
      </trkpt>
      <trkpt lat="40.252167" lon="-4.885150">
        <ele>973.0</ele>
        <time>2015-05-23T11:59:22Z</time>
      </trkpt>
      <trkpt lat="40.252100" lon="-4.885050">
        <ele>973.0</ele>
        <time>2015-05-23T11:59:24Z</time>
      </trkpt>
      <trkpt lat="40.251967" lon="-4.884950">
        <ele>968.0</ele>
        <time>2015-05-23T11:59:26Z</time>
      </trkpt>
      <trkpt lat="40.251817" lon="-4.884883">
        <ele>966.0</ele>
        <time>2015-05-23T11:59:28Z</time>
      </trkpt>
      <trkpt lat="40.251700" lon="-4.884833">
        <ele>964.0</ele>
        <time>2015-05-23T11:59:30Z</time>
      </trkpt>
      <trkpt lat="40.251567" lon="-4.884817">
        <ele>960.0</ele>
        <time>2015-05-23T11:59:32Z</time>
      </trkpt>
      <trkpt lat="40.251450" lon="-4.884833">
        <ele>959.0</ele>
        <time>2015-05-23T11:59:34Z</time>
      </trkpt>
      <trkpt lat="40.251317" lon="-4.884850">
        <ele>954.0</ele>
        <time>2015-05-23T11:59:36Z</time>
      </trkpt>
      <trkpt lat="40.251167" lon="-4.884900">
        <ele>949.0</ele>
        <time>2015-05-23T11:59:38Z</time>
      </trkpt>
      <trkpt lat="40.251017" lon="-4.884950">
        <ele>948.0</ele>
        <time>2015-05-23T11:59:40Z</time>
      </trkpt>
      <trkpt lat="40.250900" lon="-4.884983">
        <ele>950.0</ele>
        <time>2015-05-23T11:59:42Z</time>
      </trkpt>
      <trkpt lat="40.250800" lon="-4.885033">
        <ele>950.0</ele>
        <time>2015-05-23T11:59:44Z</time>
      </trkpt>
      <trkpt lat="40.250667" lon="-4.885067">
        <ele>947.0</ele>
        <time>2015-05-23T11:59:46Z</time>
      </trkpt>
      <trkpt lat="40.250550" lon="-4.885117">
        <ele>943.0</ele>
        <time>2015-05-23T11:59:48Z</time>
      </trkpt>
      <trkpt lat="40.250433" lon="-4.885183">
        <ele>940.0</ele>
        <time>2015-05-23T11:59:50Z</time>
      </trkpt>
      <trkpt lat="40.250317" lon="-4.885283">
        <ele>939.0</ele>
        <time>2015-05-23T11:59:52Z</time>
      </trkpt>
      <trkpt lat="40.250233" lon="-4.885417">
        <ele>937.0</ele>
        <time>2015-05-23T11:59:54Z</time>
      </trkpt>
      <trkpt lat="40.250117" lon="-4.885550">
        <ele>935.0</ele>
        <time>2015-05-23T11:59:56Z</time>
      </trkpt>
      <trkpt lat="40.250000" lon="-4.885667">
        <ele>933.0</ele>
        <time>2015-05-23T11:59:58Z</time>
      </trkpt>
      <trkpt lat="40.249867" lon="-4.885783">
        <ele>930.0</ele>
        <time>2015-05-23T12:00:00Z</time>
      </trkpt>
      <trkpt lat="40.249733" lon="-4.885867">
        <ele>929.0</ele>
        <time>2015-05-23T12:00:02Z</time>
      </trkpt>
      <trkpt lat="40.249583" lon="-4.885950">
        <ele>929.0</ele>
        <time>2015-05-23T12:00:04Z</time>
      </trkpt>
      <trkpt lat="40.249450" lon="-4.885967">
        <ele>927.0</ele>
        <time>2015-05-23T12:00:06Z</time>
      </trkpt>
      <trkpt lat="40.249300" lon="-4.885950">
        <ele>925.0</ele>
        <time>2015-05-23T12:00:08Z</time>
      </trkpt>
      <trkpt lat="40.249150" lon="-4.885967">
        <ele>923.0</ele>
        <time>2015-05-23T12:00:10Z</time>
      </trkpt>
      <trkpt lat="40.249000" lon="-4.885950">
        <ele>922.0</ele>
        <time>2015-05-23T12:00:12Z</time>
      </trkpt>
      <trkpt lat="40.248867" lon="-4.885900">
        <ele>919.0</ele>
        <time>2015-05-23T12:00:14Z</time>
      </trkpt>
      <trkpt lat="40.248717" lon="-4.885833">
        <ele>916.0</ele>
        <time>2015-05-23T12:00:16Z</time>
      </trkpt>
      <trkpt lat="40.248583" lon="-4.885717">
        <ele>913.0</ele>
        <time>2015-05-23T12:00:18Z</time>
      </trkpt>
      <trkpt lat="40.248483" lon="-4.885533">
        <ele>910.0</ele>
        <time>2015-05-23T12:00:20Z</time>
      </trkpt>
      <trkpt lat="40.248433" lon="-4.885333">
        <ele>908.0</ele>
        <time>2015-05-23T12:00:22Z</time>
      </trkpt>
      <trkpt lat="40.248350" lon="-4.885150">
        <ele>906.0</ele>
        <time>2015-05-23T12:00:24Z</time>
      </trkpt>
      <trkpt lat="40.248233" lon="-4.885000">
        <ele>904.0</ele>
        <time>2015-05-23T12:00:26Z</time>
      </trkpt>
      <trkpt lat="40.248167" lon="-4.884850">
        <ele>905.0</ele>
        <time>2015-05-23T12:00:28Z</time>
      </trkpt>
      <trkpt lat="40.248083" lon="-4.884717">
        <ele>905.0</ele>
        <time>2015-05-23T12:00:30Z</time>
      </trkpt>
      <trkpt lat="40.247983" lon="-4.884617">
        <ele>907.0</ele>
        <time>2015-05-23T12:00:32Z</time>
      </trkpt>
      <trkpt lat="40.247850" lon="-4.884583">
        <ele>911.0</ele>
        <time>2015-05-23T12:00:34Z</time>
      </trkpt>
      <trkpt lat="40.247717" lon="-4.884583">
        <ele>914.0</ele>
        <time>2015-05-23T12:00:36Z</time>
      </trkpt>
      <trkpt lat="40.247600" lon="-4.884550">
        <ele>916.0</ele>
        <time>2015-05-23T12:00:38Z</time>
      </trkpt>
      <trkpt lat="40.247517" lon="-4.884417">
        <ele>919.0</ele>
        <time>2015-05-23T12:00:40Z</time>
      </trkpt>
      <trkpt lat="40.247500" lon="-4.884350">
        <ele>921.0</ele>
        <time>2015-05-23T12:00:42Z</time>
      </trkpt>
      <trkpt lat="40.247483" lon="-4.884217">
        <ele>919.0</ele>
        <time>2015-05-23T12:00:44Z</time>
      </trkpt>
      <trkpt lat="40.247533" lon="-4.883983">
        <ele>918.0</ele>
        <time>2015-05-23T12:00:46Z</time>
      </trkpt>
      <trkpt lat="40.247600" lon="-4.883833">
        <ele>923.0</ele>
        <time>2015-05-23T12:00:48Z</time>
      </trkpt>
      <trkpt lat="40.247717" lon="-4.883767">
        <ele>923.0</ele>
        <time>2015-05-23T12:00:50Z</time>
      </trkpt>
      <trkpt lat="40.247917" lon="-4.883750">
        <ele>919.0</ele>
        <time>2015-05-23T12:00:52Z</time>
      </trkpt>
      <trkpt lat="40.248150" lon="-4.883767">
        <ele>924.0</ele>
        <time>2015-05-23T12:00:54Z</time>
      </trkpt>
      <trkpt lat="40.248333" lon="-4.883750">
        <ele>931.0</ele>
        <time>2015-05-23T12:00:56Z</time>
      </trkpt>
      <trkpt lat="40.248533" lon="-4.883783">
        <ele>934.0</ele>
        <time>2015-05-23T12:00:58Z</time>
      </trkpt>
      <trkpt lat="40.248767" lon="-4.883950">
        <ele>938.0</ele>
        <time>2015-05-23T12:01:00Z</time>
      </trkpt>
      <trkpt lat="40.248900" lon="-4.884117">
        <ele>942.0</ele>
        <time>2015-05-23T12:01:02Z</time>
      </trkpt>
      <trkpt lat="40.249033" lon="-4.884333">
        <ele>942.0</ele>
        <time>2015-05-23T12:01:04Z</time>
      </trkpt>
      <trkpt lat="40.249083" lon="-4.884700">
        <ele>942.0</ele>
        <time>2015-05-23T12:01:06Z</time>
      </trkpt>
      <trkpt lat="40.249050" lon="-4.885050">
        <ele>949.0</ele>
        <time>2015-05-23T12:01:08Z</time>
      </trkpt>
      <trkpt lat="40.249000" lon="-4.885267">
        <ele>956.0</ele>
        <time>2015-05-23T12:01:10Z</time>
      </trkpt>
      <trkpt lat="40.248883" lon="-4.885433">
        <ele>957.0</ele>
        <time>2015-05-23T12:01:12Z</time>
      </trkpt>
      <trkpt lat="40.248717" lon="-4.885500">
        <ele>957.0</ele>
        <time>2015-05-23T12:01:14Z</time>
      </trkpt>
      <trkpt lat="40.248567" lon="-4.885500">
        <ele>958.0</ele>
        <time>2015-05-23T12:01:16Z</time>
      </trkpt>
      <trkpt lat="40.248400" lon="-4.885500">
        <ele>958.0</ele>
        <time>2015-05-23T12:01:18Z</time>
      </trkpt>
      <trkpt lat="40.248217" lon="-4.885450">
        <ele>959.0</ele>
        <time>2015-05-23T12:01:20Z</time>
      </trkpt>
      <trkpt lat="40.248133" lon="-4.885300">
        <ele>963.0</ele>
        <time>2015-05-23T12:01:22Z</time>
      </trkpt>
      <trkpt lat="40.248083" lon="-4.885167">
        <ele>967.0</ele>
        <time>2015-05-23T12:01:24Z</time>
      </trkpt>
      <trkpt lat="40.248017" lon="-4.885017">
        <ele>971.0</ele>
        <time>2015-05-23T12:01:26Z</time>
      </trkpt>
      <trkpt lat="40.248033" lon="-4.884850">
        <ele>974.0</ele>
        <time>2015-05-23T12:01:28Z</time>
      </trkpt>
      <trkpt lat="40.248133" lon="-4.884717">
        <ele>973.0</ele>
        <time>2015-05-23T12:01:30Z</time>
      </trkpt>
      <trkpt lat="40.248317" lon="-4.884650">
        <ele>972.0</ele>
        <time>2015-05-23T12:01:32Z</time>
      </trkpt>
      <trkpt lat="40.248517" lon="-4.884667">
        <ele>974.0</ele>
        <time>2015-05-23T12:01:34Z</time>
      </trkpt>
      <trkpt lat="40.248700" lon="-4.884767">
        <ele>981.0</ele>
        <time>2015-05-23T12:01:36Z</time>
      </trkpt>
      <trkpt lat="40.248817" lon="-4.884917">
        <ele>986.0</ele>
        <time>2015-05-23T12:01:38Z</time>
      </trkpt>
      <trkpt lat="40.248883" lon="-4.885200">
        <ele>988.0</ele>
        <time>2015-05-23T12:01:40Z</time>
      </trkpt>
      <trkpt lat="40.248867" lon="-4.885483">
        <ele>995.0</ele>
        <time>2015-05-23T12:01:42Z</time>
      </trkpt>
      <trkpt lat="40.248800" lon="-4.885667">
        <ele>1001.0</ele>
        <time>2015-05-23T12:01:44Z</time>
      </trkpt>
      <trkpt lat="40.248683" lon="-4.885817">
        <ele>1004.0</ele>
        <time>2015-05-23T12:01:46Z</time>
      </trkpt>
      <trkpt lat="40.248550" lon="-4.885867">
        <ele>1005.0</ele>
        <time>2015-05-23T12:01:48Z</time>
      </trkpt>
      <trkpt lat="40.248417" lon="-4.885750">
        <ele>1006.0</ele>
        <time>2015-05-23T12:01:50Z</time>
      </trkpt>
      <trkpt lat="40.248367" lon="-4.885617">
        <ele>1011.0</ele>
        <time>2015-05-23T12:01:52Z</time>
      </trkpt>
      <trkpt lat="40.248317" lon="-4.885483">
        <ele>1014.0</ele>
        <time>2015-05-23T12:01:54Z</time>
      </trkpt>
      <trkpt lat="40.248300" lon="-4.885267">
        <ele>1014.0</ele>
        <time>2015-05-23T12:01:56Z</time>
      </trkpt>
      <trkpt lat="40.248333" lon="-4.885033">
        <ele>1017.0</ele>
        <time>2015-05-23T12:01:58Z</time>
      </trkpt>
      <trkpt lat="40.248417" lon="-4.884883">
        <ele>1021.0</ele>
        <time>2015-05-23T12:02:00Z</time>
      </trkpt>
      <trkpt lat="40.248583" lon="-4.884767">
        <ele>1021.0</ele>
        <time>2015-05-23T12:02:02Z</time>
      </trkpt>
      <trkpt lat="40.248783" lon="-4.884717">
        <ele>1023.0</ele>
        <time>2015-05-23T12:02:04Z</time>
      </trkpt>
      <trkpt lat="40.249000" lon="-4.884700">
        <ele>1028.0</ele>
        <time>2015-05-23T12:02:06Z</time>
      </trkpt>
      <trkpt lat="40.249183" lon="-4.884750">
        <ele>1035.0</ele>
        <time>2015-05-23T12:02:08Z</time>
      </trkpt>
      <trkpt lat="40.249367" lon="-4.884867">
        <ele>1040.0</ele>
        <time>2015-05-23T12:02:10Z</time>
      </trkpt>
      <trkpt lat="40.249500" lon="-4.885033">
        <ele>1044.0</ele>
        <time>2015-05-23T12:02:12Z</time>
      </trkpt>
      <trkpt lat="40.249617" lon="-4.885250">
        <ele>1047.0</ele>
        <time>2015-05-23T12:02:14Z</time>
      </trkpt>
      <trkpt lat="40.249633" lon="-4.885567">
        <ele>1051.0</ele>
        <time>2015-05-23T12:02:16Z</time>
      </trkpt>
      <trkpt lat="40.249583" lon="-4.885833">
        <ele>1061.0</ele>
        <time>2015-05-23T12:02:18Z</time>
      </trkpt>
      <trkpt lat="40.249533" lon="-4.886033">
        <ele>1070.0</ele>
        <time>2015-05-23T12:02:20Z</time>
      </trkpt>
      <trkpt lat="40.249417" lon="-4.886133">
        <ele>1076.0</ele>
        <time>2015-05-23T12:02:22Z</time>
      </trkpt>
      <trkpt lat="40.249300" lon="-4.886067">
        <ele>1080.0</ele>
        <time>2015-05-23T12:02:24Z</time>
      </trkpt>
      <trkpt lat="40.249300" lon="-4.885900">
        <ele>1086.0</ele>
        <time>2015-05-23T12:02:26Z</time>
      </trkpt>
      <trkpt lat="40.249333" lon="-4.885783">
        <ele>1090.0</ele>
        <time>2015-05-23T12:02:28Z</time>
      </trkpt>
      <trkpt lat="40.249367" lon="-4.885617">
        <ele>1092.0</ele>
        <time>2015-05-23T12:02:30Z</time>
      </trkpt>
      <trkpt lat="40.249500" lon="-4.885450">
        <ele>1096.0</ele>
        <time>2015-05-23T12:02:32Z</time>
      </trkpt>
      <trkpt lat="40.249683" lon="-4.885417">
        <ele>1103.0</ele>
        <time>2015-05-23T12:02:34Z</time>
      </trkpt>
      <trkpt lat="40.249867" lon="-4.885433">
        <ele>1110.0</ele>
        <time>2015-05-23T12:02:36Z</time>
      </trkpt>
      <trkpt lat="40.250033" lon="-4.885517">
        <ele>1116.0</ele>
        <time>2015-05-23T12:02:38Z</time>
      </trkpt>
      <trkpt lat="40.250167" lon="-4.885700">
        <ele>1120.0</ele>
        <time>2015-05-23T12:02:40Z</time>
      </trkpt>
      <trkpt lat="40.250250" lon="-4.885933">
        <ele>1124.0</ele>
        <time>2015-05-23T12:02:42Z</time>
      </trkpt>
      <trkpt lat="40.250317" lon="-4.886183">
        <ele>1130.0</ele>
        <time>2015-05-23T12:02:44Z</time>
      </trkpt>
      <trkpt lat="40.250317" lon="-4.886450">
        <ele>1135.0</ele>
        <time>2015-05-23T12:02:46Z</time>
      </trkpt>
      <trkpt lat="40.250283" lon="-4.886717">
        <ele>1139.0</ele>
        <time>2015-05-23T12:02:48Z</time>
      </trkpt>
      <trkpt lat="40.250167" lon="-4.886967">
        <ele>1142.0</ele>
        <time>2015-05-23T12:02:50Z</time>
      </trkpt>
      <trkpt lat="40.250000" lon="-4.887067">
        <ele>1150.0</ele>
        <time>2015-05-23T12:02:52Z</time>
      </trkpt>
      <trkpt lat="40.249950" lon="-4.887167">
        <ele>1159.0</ele>
        <time>2015-05-23T12:02:54Z</time>
      </trkpt>
      <trkpt lat="40.249900" lon="-4.887317">
        <ele>1160.0</ele>
        <time>2015-05-23T12:02:56Z</time>
      </trkpt>
      <trkpt lat="40.249733" lon="-4.887433">
        <ele>1158.0</ele>
        <time>2015-05-23T12:02:58Z</time>
      </trkpt>
      <trkpt lat="40.249567" lon="-4.887417">
        <ele>1164.0</ele>
        <time>2015-05-23T12:03:00Z</time>
      </trkpt>
      <trkpt lat="40.249500" lon="-4.887283">
        <ele>1170.0</ele>
        <time>2015-05-23T12:03:02Z</time>
      </trkpt>
      <trkpt lat="40.249467" lon="-4.887117">
        <ele>1174.0</ele>
        <time>2015-05-23T12:03:04Z</time>
      </trkpt>
      <trkpt lat="40.249500" lon="-4.886950">
        <ele>1177.0</ele>
        <time>2015-05-23T12:03:06Z</time>
      </trkpt>
      <trkpt lat="40.249633" lon="-4.886800">
        <ele>1179.0</ele>
        <time>2015-05-23T12:03:08Z</time>
      </trkpt>
      <trkpt lat="40.249833" lon="-4.886683">
        <ele>1184.0</ele>
        <time>2015-05-23T12:03:10Z</time>
      </trkpt>
      <trkpt lat="40.250017" lon="-4.886667">
        <ele>1187.0</ele>
        <time>2015-05-23T12:03:12Z</time>
      </trkpt>
      <trkpt lat="40.250250" lon="-4.886750">
        <ele>1188.0</ele>
        <time>2015-05-23T12:03:14Z</time>
      </trkpt>
      <trkpt lat="40.250450" lon="-4.886933">
        <ele>1191.0</ele>
        <time>2015-05-23T12:03:16Z</time>
      </trkpt>
      <trkpt lat="40.250583" lon="-4.887150">
        <ele>1196.0</ele>
        <time>2015-05-23T12:03:18Z</time>
      </trkpt>
      <trkpt lat="40.250700" lon="-4.887350">
        <ele>1201.0</ele>
        <time>2015-05-23T12:03:20Z</time>
      </trkpt>
      <trkpt lat="40.250833" lon="-4.887533">
        <ele>1204.0</ele>
        <time>2015-05-23T12:03:22Z</time>
      </trkpt>
      <trkpt lat="40.250917" lon="-4.887783">
        <ele>1207.0</ele>
        <time>2015-05-23T12:03:24Z</time>
      </trkpt>
      <trkpt lat="40.250900" lon="-4.888000">
        <ele>1210.0</ele>
        <time>2015-05-23T12:03:26Z</time>
      </trkpt>
      <trkpt lat="40.250833" lon="-4.888150">
        <ele>1213.0</ele>
        <time>2015-05-23T12:03:28Z</time>
      </trkpt>
      <trkpt lat="40.250700" lon="-4.888200">
        <ele>1215.0</ele>
        <time>2015-05-23T12:03:30Z</time>
      </trkpt>
      <trkpt lat="40.250600" lon="-4.888217">
        <ele>1219.0</ele>
        <time>2015-05-23T12:03:32Z</time>
      </trkpt>
      <trkpt lat="40.250500" lon="-4.888183">
        <ele>1225.0</ele>
        <time>2015-05-23T12:03:34Z</time>
      </trkpt>
      <trkpt lat="40.250433" lon="-4.888083">
        <ele>1228.0</ele>
        <time>2015-05-23T12:03:36Z</time>
      </trkpt>
      <trkpt lat="40.250450" lon="-4.887950">
        <ele>1232.0</ele>
        <time>2015-05-23T12:03:38Z</time>
      </trkpt>
      <trkpt lat="40.250550" lon="-4.887817">
        <ele>1233.0</ele>
        <time>2015-05-23T12:03:40Z</time>
      </trkpt>
      <trkpt lat="40.250750" lon="-4.887717">
        <ele>1238.0</ele>
        <time>2015-05-23T12:03:42Z</time>
      </trkpt>
      <trkpt lat="40.250950" lon="-4.887700">
        <ele>1246.0</ele>
        <time>2015-05-23T12:03:44Z</time>
      </trkpt>
      <trkpt lat="40.251133" lon="-4.887783">
        <ele>1252.0</ele>
        <time>2015-05-23T12:03:46Z</time>
      </trkpt>
      <trkpt lat="40.251333" lon="-4.887867">
        <ele>1256.0</ele>
        <time>2015-05-23T12:03:48Z</time>
      </trkpt>
      <trkpt lat="40.251517" lon="-4.888000">
        <ele>1261.0</ele>
        <time>2015-05-23T12:03:50Z</time>
      </trkpt>
      <trkpt lat="40.251617" lon="-4.888250">
        <ele>1263.0</ele>
        <time>2015-05-23T12:03:52Z</time>
      </trkpt>
      <trkpt lat="40.251600" lon="-4.888517">
        <ele>1269.0</ele>
        <time>2015-05-23T12:03:54Z</time>
      </trkpt>
      <trkpt lat="40.251550" lon="-4.888700">
        <ele>1276.0</ele>
        <time>2015-05-23T12:03:56Z</time>
      </trkpt>
      <trkpt lat="40.251450" lon="-4.888817">
        <ele>1280.0</ele>
        <time>2015-05-23T12:03:58Z</time>
      </trkpt>
      <trkpt lat="40.251317" lon="-4.888867">
        <ele>1284.0</ele>
        <time>2015-05-23T12:04:00Z</time>
      </trkpt>
      <trkpt lat="40.251250" lon="-4.888817">
        <ele>1289.0</ele>
        <time>2015-05-23T12:04:02Z</time>
      </trkpt>
      <trkpt lat="40.251217" lon="-4.888750">
        <ele>1292.0</ele>
        <time>2015-05-23T12:04:04Z</time>
      </trkpt>
      <trkpt lat="40.251217" lon="-4.888600">
        <ele>1293.0</ele>
        <time>2015-05-23T12:04:06Z</time>
      </trkpt>
      <trkpt lat="40.251300" lon="-4.888400">
        <ele>1296.0</ele>
        <time>2015-05-23T12:04:08Z</time>
      </trkpt>
      <trkpt lat="40.251483" lon="-4.888283">
        <ele>1302.0</ele>
        <time>2015-05-23T12:04:10Z</time>
      </trkpt>
      <trkpt lat="40.251650" lon="-4.888300">
        <ele>1311.0</ele>
        <time>2015-05-23T12:04:12Z</time>
      </trkpt>
      <trkpt lat="40.251783" lon="-4.888417">
        <ele>1315.0</ele>
        <time>2015-05-23T12:04:14Z</time>
      </trkpt>
      <trkpt lat="40.251917" lon="-4.888617">
        <ele>1319.0</ele>
        <time>2015-05-23T12:04:16Z</time>
      </trkpt>
      <trkpt lat="40.251950" lon="-4.888883">
        <ele>1324.0</ele>
        <time>2015-05-23T12:04:18Z</time>
      </trkpt>
      <trkpt lat="40.251900" lon="-4.889100">
        <ele>1333.0</ele>
        <time>2015-05-23T12:04:20Z</time>
      </trkpt>
      <trkpt lat="40.251800" lon="-4.889217">
        <ele>1338.0</ele>
        <time>2015-05-23T12:04:22Z</time>
      </trkpt>
      <trkpt lat="40.251683" lon="-4.889267">
        <ele>1344.0</ele>
        <time>2015-05-23T12:04:24Z</time>
      </trkpt>
      <trkpt lat="40.251567" lon="-4.889233">
        <ele>1348.0</ele>
        <time>2015-05-23T12:04:26Z</time>
      </trkpt>
      <trkpt lat="40.251517" lon="-4.889133">
        <ele>1352.0</ele>
        <time>2015-05-23T12:04:28Z</time>
      </trkpt>
      <trkpt lat="40.251517" lon="-4.888983">
        <ele>1356.0</ele>
        <time>2015-05-23T12:04:30Z</time>
      </trkpt>
      <trkpt lat="40.251600" lon="-4.888800">
        <ele>1360.0</ele>
        <time>2015-05-23T12:04:32Z</time>
      </trkpt>
      <trkpt lat="40.251750" lon="-4.888633">
        <ele>1364.0</ele>
        <time>2015-05-23T12:04:34Z</time>
      </trkpt>
      <trkpt lat="40.251967" lon="-4.888517">
        <ele>1369.0</ele>
        <time>2015-05-23T12:04:36Z</time>
      </trkpt>
      <trkpt lat="40.252217" lon="-4.888500">
        <ele>1378.0</ele>
        <time>2015-05-23T12:04:38Z</time>
      </trkpt>
      <trkpt lat="40.252417" lon="-4.888550">
        <ele>1389.0</ele>
        <time>2015-05-23T12:04:40Z</time>
      </trkpt>
      <trkpt lat="40.252583" lon="-4.888667">
        <ele>1396.0</ele>
        <time>2015-05-23T12:04:42Z</time>
      </trkpt>
      <trkpt lat="40.252683" lon="-4.888867">
        <ele>1401.0</ele>
        <time>2015-05-23T12:04:44Z</time>
      </trkpt>
      <trkpt lat="40.252667" lon="-4.889050">
        <ele>1406.0</ele>
        <time>2015-05-23T12:04:46Z</time>
      </trkpt>
      <trkpt lat="40.252550" lon="-4.889150">
        <ele>1410.0</ele>
        <time>2015-05-23T12:04:48Z</time>
      </trkpt>
      <trkpt lat="40.252450" lon="-4.889183">
        <ele>1419.0</ele>
        <time>2015-05-23T12:04:50Z</time>
      </trkpt>
      <trkpt lat="40.252383" lon="-4.889200">
        <ele>1428.0</ele>
        <time>2015-05-23T12:04:52Z</time>
      </trkpt>
      <trkpt lat="40.252350" lon="-4.889100">
        <ele>1431.0</ele>
        <time>2015-05-23T12:04:54Z</time>
      </trkpt>
      <trkpt lat="40.252317" lon="-4.888850">
        <ele>1437.0</ele>
        <time>2015-05-23T12:04:56Z</time>
      </trkpt>
      <trkpt lat="40.252333" lon="-4.888633">
        <ele>1449.0</ele>
        <time>2015-05-23T12:04:58Z</time>
      </trkpt>
      <trkpt lat="40.252417" lon="-4.888450">
        <ele>1458.0</ele>
        <time>2015-05-23T12:05:00Z</time>
      </trkpt>
      <trkpt lat="40.252567" lon="-4.888267">
        <ele>1465.0</ele>
        <time>2015-05-23T12:05:02Z</time>
      </trkpt>
      <trkpt lat="40.252717" lon="-4.888133">
        <ele>1478.0</ele>
        <time>2015-05-23T12:05:04Z</time>
      </trkpt>
      <trkpt lat="40.252867" lon="-4.888083">
        <ele>1488.0</ele>
        <time>2015-05-23T12:05:06Z</time>
      </trkpt>
      <trkpt lat="40.253017" lon="-4.888100">
        <ele>1495.0</ele>
        <time>2015-05-23T12:05:08Z</time>
      </trkpt>
      <trkpt lat="40.253133" lon="-4.888267">
        <ele>1500.0</ele>
        <time>2015-05-23T12:05:10Z</time>
      </trkpt>
      <trkpt lat="40.253150" lon="-4.888483">
        <ele>1509.0</ele>
        <time>2015-05-23T12:05:12Z</time>
      </trkpt>
      <trkpt lat="40.253100" lon="-4.888633">
        <ele>1518.0</ele>
        <time>2015-05-23T12:05:14Z</time>
      </trkpt>
      <trkpt lat="40.253017" lon="-4.888783">
        <ele>1528.0</ele>
        <time>2015-05-23T12:05:16Z</time>
      </trkpt>
      <trkpt lat="40.252933" lon="-4.888917">
        <ele>1538.0</ele>
        <time>2015-05-23T12:05:18Z</time>
      </trkpt>
      <trkpt lat="40.252817" lon="-4.888950">
        <ele>1549.0</ele>
        <time>2015-05-23T12:05:20Z</time>
      </trkpt>
      <trkpt lat="40.252717" lon="-4.888950">
        <ele>1560.0</ele>
        <time>2015-05-23T12:05:22Z</time>
      </trkpt>
      <trkpt lat="40.252633" lon="-4.888850">
        <ele>1570.0</ele>
        <time>2015-05-23T12:05:24Z</time>
      </trkpt>
      <trkpt lat="40.252617" lon="-4.888650">
        <ele>1578.0</ele>
        <time>2015-05-23T12:05:26Z</time>
      </trkpt>
      <trkpt lat="40.252667" lon="-4.888383">
        <ele>1586.0</ele>
        <time>2015-05-23T12:05:28Z</time>
      </trkpt>
      <trkpt lat="40.252817" lon="-4.888183">
        <ele>1595.0</ele>
        <time>2015-05-23T12:05:30Z</time>
      </trkpt>
      <trkpt lat="40.253017" lon="-4.888117">
        <ele>1607.0</ele>
        <time>2015-05-23T12:05:32Z</time>
      </trkpt>
      <trkpt lat="40.253167" lon="-4.888150">
        <ele>1619.0</ele>
        <time>2015-05-23T12:05:34Z</time>
      </trkpt>
      <trkpt lat="40.253267" lon="-4.888283">
        <ele>1628.0</ele>
        <time>2015-05-23T12:05:36Z</time>
      </trkpt>
      <trkpt lat="40.253367" lon="-4.888517">
        <ele>1638.0</ele>
        <time>2015-05-23T12:05:38Z</time>
      </trkpt>
      <trkpt lat="40.253367" lon="-4.888733">
        <ele>1651.0</ele>
        <time>2015-05-23T12:05:40Z</time>
      </trkpt>
      <trkpt lat="40.253300" lon="-4.888867">
        <ele>1666.0</ele>
        <time>2015-05-23T12:05:42Z</time>
      </trkpt>
      <trkpt lat="40.253200" lon="-4.888950">
        <ele>1677.0</ele>
        <time>2015-05-23T12:05:44Z</time>
      </trkpt>
      <trkpt lat="40.253050" lon="-4.888950">
        <ele>1687.0</ele>
        <time>2015-05-23T12:05:46Z</time>
      </trkpt>
      <trkpt lat="40.252900" lon="-4.888867">
        <ele>1700.0</ele>
        <time>2015-05-23T12:05:48Z</time>
      </trkpt>
      <trkpt lat="40.252833" lon="-4.888717">
        <ele>1711.0</ele>
        <time>2015-05-23T12:05:50Z</time>
      </trkpt>
      <trkpt lat="40.252783" lon="-4.888483">
        <ele>1720.0</ele>
        <time>2015-05-23T12:05:52Z</time>
      </trkpt>
      <trkpt lat="40.252833" lon="-4.888250">
        <ele>1731.0</ele>
        <time>2015-05-23T12:05:54Z</time>
      </trkpt>
      <trkpt lat="40.252967" lon="-4.888083">
        <ele>1739.0</ele>
        <time>2015-05-23T12:05:56Z</time>
      </trkpt>
      <trkpt lat="40.253100" lon="-4.888017">
        <ele>1751.0</ele>
        <time>2015-05-23T12:05:58Z</time>
      </trkpt>
      <trkpt lat="40.253233" lon="-4.888067">
        <ele>1761.0</ele>
        <time>2015-05-23T12:06:00Z</time>
      </trkpt>
      <trkpt lat="40.253383" lon="-4.888200">
        <ele>1768.0</ele>
        <time>2015-05-23T12:06:02Z</time>
      </trkpt>
      <trkpt lat="40.253450" lon="-4.888433">
        <ele>1781.0</ele>
        <time>2015-05-23T12:06:04Z</time>
      </trkpt>
      <trkpt lat="40.253467" lon="-4.888633">
        <ele>1793.0</ele>
        <time>2015-05-23T12:06:06Z</time>
      </trkpt>
      <trkpt lat="40.253433" lon="-4.888867">
        <ele>1803.0</ele>
        <time>2015-05-23T12:06:08Z</time>
      </trkpt>
      <trkpt lat="40.253333" lon="-4.889050">
        <ele>1817.0</ele>
        <time>2015-05-23T12:06:10Z</time>
      </trkpt>
      <trkpt lat="40.253233" lon="-4.889117">
        <ele>1831.0</ele>
        <time>2015-05-23T12:06:12Z</time>
      </trkpt>
      <trkpt lat="40.253100" lon="-4.889133">
        <ele>1840.0</ele>
        <time>2015-05-23T12:06:14Z</time>
      </trkpt>
      <trkpt lat="40.252950" lon="-4.889017">
        <ele>1845.0</ele>
        <time>2015-05-23T12:06:16Z</time>
      </trkpt>
      <trkpt lat="40.252817" lon="-4.888800">
        <ele>1854.0</ele>
        <time>2015-05-23T12:06:18Z</time>
      </trkpt>
      <trkpt lat="40.252750" lon="-4.888600">
        <ele>1866.0</ele>
        <time>2015-05-23T12:06:20Z</time>
      </trkpt>
      <trkpt lat="40.252783" lon="-4.888417">
        <ele>1876.0</ele>
        <time>2015-05-23T12:06:22Z</time>
      </trkpt>
      <trkpt lat="40.252917" lon="-4.888283">
        <ele>1887.0</ele>
        <time>2015-05-23T12:06:24Z</time>
      </trkpt>
      <trkpt lat="40.253033" lon="-4.888217">
        <ele>1900.0</ele>
        <time>2015-05-23T12:06:26Z</time>
      </trkpt>
      <trkpt lat="40.253133" lon="-4.888150">
        <ele>1906.0</ele>
        <time>2015-05-23T12:06:28Z</time>
      </trkpt>
      <trkpt lat="40.253317" lon="-4.888117">
        <ele>1913.0</ele>
        <time>2015-05-23T12:06:30Z</time>
      </trkpt>
      <trkpt lat="40.253483" lon="-4.888233">
        <ele>1923.0</ele>
        <time>2015-05-23T12:06:32Z</time>
      </trkpt>
      <trkpt lat="40.253567" lon="-4.888433">
        <ele>1932.0</ele>
        <time>2015-05-23T12:06:34Z</time>
      </trkpt>
      <trkpt lat="40.253633" lon="-4.888683">
        <ele>1940.0</ele>
        <time>2015-05-23T12:06:36Z</time>
      </trkpt>
      <trkpt lat="40.253633" lon="-4.888950">
        <ele>1951.0</ele>
        <time>2015-05-23T12:06:38Z</time>
      </trkpt>
      <trkpt lat="40.253583" lon="-4.889167">
        <ele>1962.0</ele>
        <time>2015-05-23T12:06:40Z</time>
      </trkpt>
      <trkpt lat="40.253450" lon="-4.889317">
        <ele>1972.0</ele>
        <time>2015-05-23T12:06:42Z</time>
      </trkpt>
      <trkpt lat="40.253250" lon="-4.889383">
        <ele>1983.0</ele>
        <time>2015-05-23T12:06:44Z</time>
      </trkpt>
      <trkpt lat="40.253083" lon="-4.889333">
        <ele>1993.0</ele>
        <time>2015-05-23T12:06:46Z</time>
      </trkpt>
      <trkpt lat="40.252917" lon="-4.889217">
        <ele>2001.0</ele>
        <time>2015-05-23T12:06:48Z</time>
      </trkpt>
      <trkpt lat="40.252750" lon="-4.889050">
        <ele>2010.0</ele>
        <time>2015-05-23T12:06:50Z</time>
      </trkpt>
      <trkpt lat="40.252633" lon="-4.888867">
        <ele>2020.0</ele>
        <time>2015-05-23T12:06:52Z</time>
      </trkpt>
      <trkpt lat="40.252617" lon="-4.888700">
        <ele>2027.0</ele>
        <time>2015-05-23T12:06:54Z</time>
      </trkpt>
      <trkpt lat="40.252650" lon="-4.888517">
        <ele>2032.0</ele>
        <time>2015-05-23T12:06:56Z</time>
      </trkpt>
      <trkpt lat="40.252750" lon="-4.888367">
        <ele>2038.0</ele>
        <time>2015-05-23T12:06:58Z</time>
      </trkpt>
      <trkpt lat="40.252883" lon="-4.888383">
        <ele>2044.0</ele>
        <time>2015-05-23T12:07:00Z</time>
      </trkpt>
      <trkpt lat="40.252983" lon="-4.888533">
        <ele>2049.0</ele>
        <time>2015-05-23T12:07:02Z</time>
      </trkpt>
      <trkpt lat="40.253033" lon="-4.888767">
        <ele>2055.0</ele>
        <time>2015-05-23T12:07:04Z</time>
      </trkpt>
      <trkpt lat="40.253017" lon="-4.889033">
        <ele>2061.0</ele>
        <time>2015-05-23T12:07:06Z</time>
      </trkpt>
      <trkpt lat="40.252900" lon="-4.889283">
        <ele>2066.0</ele>
        <time>2015-05-23T12:07:08Z</time>
      </trkpt>
      <trkpt lat="40.252683" lon="-4.889467">
        <ele>2073.0</ele>
        <time>2015-05-23T12:07:10Z</time>
      </trkpt>
      <trkpt lat="40.252483" lon="-4.889600">
        <ele>2081.0</ele>
        <time>2015-05-23T12:07:12Z</time>
      </trkpt>
      <trkpt lat="40.252250" lon="-4.889683">
        <ele>2086.0</ele>
        <time>2015-05-23T12:07:14Z</time>
      </trkpt>
      <trkpt lat="40.252017" lon="-4.889633">
        <ele>2089.0</ele>
        <time>2015-05-23T12:07:16Z</time>
      </trkpt>
      <trkpt lat="40.251833" lon="-4.889550">
        <ele>2092.0</ele>
        <time>2015-05-23T12:07:18Z</time>
      </trkpt>
      <trkpt lat="40.251733" lon="-4.889417">
        <ele>2093.0</ele>
        <time>2015-05-23T12:07:20Z</time>
      </trkpt>
      <trkpt lat="40.251650" lon="-4.889250">
        <ele>2094.0</ele>
        <time>2015-05-23T12:07:22Z</time>
      </trkpt>
      <trkpt lat="40.251617" lon="-4.889083">
        <ele>2099.0</ele>
        <time>2015-05-23T12:07:24Z</time>
      </trkpt>
      <trkpt lat="40.251617" lon="-4.888917">
        <ele>2100.0</ele>
        <time>2015-05-23T12:07:26Z</time>
      </trkpt>
      <trkpt lat="40.251617" lon="-4.888750">
        <ele>2098.0</ele>
        <time>2015-05-23T12:07:28Z</time>
      </trkpt>
      <trkpt lat="40.251667" lon="-4.888633">
        <ele>2097.0</ele>
        <time>2015-05-23T12:07:30Z</time>
      </trkpt>
      <trkpt lat="40.251767" lon="-4.888667">
        <ele>2096.0</ele>
        <time>2015-05-23T12:07:32Z</time>
      </trkpt>
      <trkpt lat="40.251867" lon="-4.888750">
        <ele>2099.0</ele>
        <time>2015-05-23T12:07:34Z</time>
      </trkpt>
      <trkpt lat="40.251883" lon="-4.888900">
        <ele>2099.0</ele>
        <time>2015-05-23T12:07:36Z</time>
      </trkpt>
      <trkpt lat="40.251817" lon="-4.889133">
        <ele>2098.0</ele>
        <time>2015-05-23T12:07:38Z</time>
      </trkpt>
      <trkpt lat="40.251717" lon="-4.889400">
        <ele>2099.0</ele>
        <time>2015-05-23T12:07:40Z</time>
      </trkpt>
      <trkpt lat="40.251600" lon="-4.889633">
        <ele>2102.0</ele>
        <time>2015-05-23T12:07:42Z</time>
      </trkpt>
      <trkpt lat="40.251433" lon="-4.889817">
        <ele>2103.0</ele>
        <time>2015-05-23T12:07:44Z</time>
      </trkpt>
      <trkpt lat="40.251233" lon="-4.889933">
        <ele>2104.0</ele>
        <time>2015-05-23T12:07:46Z</time>
      </trkpt>
      <trkpt lat="40.251050" lon="-4.889967">
        <ele>2105.0</ele>
        <time>2015-05-23T12:07:48Z</time>
      </trkpt>
      <trkpt lat="40.250867" lon="-4.889900">
        <ele>2105.0</ele>
        <time>2015-05-23T12:07:50Z</time>
      </trkpt>
      <trkpt lat="40.250700" lon="-4.889800">
        <ele>2109.0</ele>
        <time>2015-05-23T12:07:52Z</time>
      </trkpt>
      <trkpt lat="40.250583" lon="-4.889667">
        <ele>2111.0</ele>
        <time>2015-05-23T12:07:54Z</time>
      </trkpt>
      <trkpt lat="40.250500" lon="-4.889500">
        <ele>2111.0</ele>
        <time>2015-05-23T12:07:56Z</time>
      </trkpt>
      <trkpt lat="40.250433" lon="-4.889367">
        <ele>2110.0</ele>
        <time>2015-05-23T12:07:58Z</time>
      </trkpt>
      <trkpt lat="40.250400" lon="-4.889167">
        <ele>2104.0</ele>
        <time>2015-05-23T12:08:00Z</time>
      </trkpt>
      <trkpt lat="40.250400" lon="-4.888983">
        <ele>2105.0</ele>
        <time>2015-05-23T12:08:02Z</time>
      </trkpt>
      <trkpt lat="40.250433" lon="-4.888883">
        <ele>2106.0</ele>
        <time>2015-05-23T12:08:04Z</time>
      </trkpt>
      <trkpt lat="40.250483" lon="-4.888817">
        <ele>2107.0</ele>
        <time>2015-05-23T12:08:06Z</time>
      </trkpt>
      <trkpt lat="40.250550" lon="-4.888750">
        <ele>2109.0</ele>
        <time>2015-05-23T12:08:08Z</time>
      </trkpt>
      <trkpt lat="40.250617" lon="-4.888750">
        <ele>2108.0</ele>
        <time>2015-05-23T12:08:10Z</time>
      </trkpt>
      <trkpt lat="40.250717" lon="-4.888783">
        <ele>2106.0</ele>
        <time>2015-05-23T12:08:12Z</time>
      </trkpt>
      <trkpt lat="40.250817" lon="-4.888900">
        <ele>2104.0</ele>
        <time>2015-05-23T12:08:14Z</time>
      </trkpt>
      <trkpt lat="40.250900" lon="-4.889033">
        <ele>2105.0</ele>
        <time>2015-05-23T12:08:16Z</time>
      </trkpt>
      <trkpt lat="40.250967" lon="-4.889200">
        <ele>2105.0</ele>
        <time>2015-05-23T12:08:18Z</time>
      </trkpt>
      <trkpt lat="40.250983" lon="-4.889400">
        <ele>2105.0</ele>
        <time>2015-05-23T12:08:20Z</time>
      </trkpt>
      <trkpt lat="40.250950" lon="-4.889633">
        <ele>2105.0</ele>
        <time>2015-05-23T12:08:22Z</time>
      </trkpt>
      <trkpt lat="40.250867" lon="-4.889883">
        <ele>2105.0</ele>
        <time>2015-05-23T12:08:24Z</time>
      </trkpt>
      <trkpt lat="40.250767" lon="-4.890117">
        <ele>2102.0</ele>
        <time>2015-05-23T12:08:26Z</time>
      </trkpt>
      <trkpt lat="40.250617" lon="-4.890367">
        <ele>2101.0</ele>
        <time>2015-05-23T12:08:28Z</time>
      </trkpt>
      <trkpt lat="40.250417" lon="-4.890567">
        <ele>2101.0</ele>
        <time>2015-05-23T12:08:30Z</time>
      </trkpt>
      <trkpt lat="40.250233" lon="-4.890733">
        <ele>2100.0</ele>
        <time>2015-05-23T12:08:32Z</time>
      </trkpt>
      <trkpt lat="40.250017" lon="-4.890917">
        <ele>2097.0</ele>
        <time>2015-05-23T12:08:34Z</time>
      </trkpt>
      <trkpt lat="40.249767" lon="-4.891050">
        <ele>2094.0</ele>
        <time>2015-05-23T12:08:36Z</time>
      </trkpt>
      <trkpt lat="40.249517" lon="-4.891117">
        <ele>2095.0</ele>
        <time>2015-05-23T12:08:38Z</time>
      </trkpt>
      <trkpt lat="40.249283" lon="-4.891117">
        <ele>2095.0</ele>
        <time>2015-05-23T12:08:40Z</time>
      </trkpt>
      <trkpt lat="40.249067" lon="-4.891117">
        <ele>2096.0</ele>
        <time>2015-05-23T12:08:42Z</time>
      </trkpt>
      <trkpt lat="40.248833" lon="-4.891133">
        <ele>2095.0</ele>
        <time>2015-05-23T12:08:44Z</time>
      </trkpt>
      <trkpt lat="40.248600" lon="-4.891200">
        <ele>2089.0</ele>
        <time>2015-05-23T12:08:46Z</time>
      </trkpt>
      <trkpt lat="40.248367" lon="-4.891233">
        <ele>2083.0</ele>
        <time>2015-05-23T12:08:48Z</time>
      </trkpt>
      <trkpt lat="40.248133" lon="-4.891217">
        <ele>2075.0</ele>
        <time>2015-05-23T12:08:50Z</time>
      </trkpt>
      <trkpt lat="40.247867" lon="-4.891283">
        <ele>2064.0</ele>
        <time>2015-05-23T12:08:52Z</time>
      </trkpt>
      <trkpt lat="40.247617" lon="-4.891433">
        <ele>2054.0</ele>
        <time>2015-05-23T12:08:54Z</time>
      </trkpt>
      <trkpt lat="40.247383" lon="-4.891533">
        <ele>2045.0</ele>
        <time>2015-05-23T12:08:56Z</time>
      </trkpt>
      <trkpt lat="40.247150" lon="-4.891650">
        <ele>2034.0</ele>
        <time>2015-05-23T12:08:58Z</time>
      </trkpt>
      <trkpt lat="40.246917" lon="-4.891750">
        <ele>2025.0</ele>
        <time>2015-05-23T12:09:00Z</time>
      </trkpt>
      <trkpt lat="40.246683" lon="-4.891883">
        <ele>2018.0</ele>
        <time>2015-05-23T12:09:02Z</time>
      </trkpt>
      <trkpt lat="40.246517" lon="-4.892100">
        <ele>2010.0</ele>
        <time>2015-05-23T12:09:04Z</time>
      </trkpt>
      <trkpt lat="40.246367" lon="-4.892333">
        <ele>2001.0</ele>
        <time>2015-05-23T12:09:06Z</time>
      </trkpt>
      <trkpt lat="40.246267" lon="-4.892600">
        <ele>1992.0</ele>
        <time>2015-05-23T12:09:08Z</time>
      </trkpt>
      <trkpt lat="40.246267" lon="-4.892883">
        <ele>1987.0</ele>
        <time>2015-05-23T12:09:10Z</time>
      </trkpt>
      <trkpt lat="40.246250" lon="-4.893067">
        <ele>1982.0</ele>
        <time>2015-05-23T12:09:12Z</time>
      </trkpt>
      <trkpt lat="40.246283" lon="-4.893250">
        <ele>1972.0</ele>
        <time>2015-05-23T12:09:14Z</time>
      </trkpt>
      <trkpt lat="40.246383" lon="-4.893450">
        <ele>1962.0</ele>
        <time>2015-05-23T12:09:16Z</time>
      </trkpt>
      <trkpt lat="40.246467" lon="-4.893600">
        <ele>1957.0</ele>
        <time>2015-05-23T12:09:18Z</time>
      </trkpt>
      <trkpt lat="40.246567" lon="-4.893717">
        <ele>1951.0</ele>
        <time>2015-05-23T12:09:20Z</time>
      </trkpt>
      <trkpt lat="40.246683" lon="-4.893817">
        <ele>1943.0</ele>
        <time>2015-05-23T12:09:22Z</time>
      </trkpt>
      <trkpt lat="40.246817" lon="-4.893917">
        <ele>1937.0</ele>
        <time>2015-05-23T12:09:24Z</time>
      </trkpt>
      <trkpt lat="40.246933" lon="-4.894017">
        <ele>1931.0</ele>
        <time>2015-05-23T12:09:26Z</time>
      </trkpt>
      <trkpt lat="40.247050" lon="-4.894117">
        <ele>1925.0</ele>
        <time>2015-05-23T12:09:28Z</time>
      </trkpt>
      <trkpt lat="40.247183" lon="-4.894200">
        <ele>1918.0</ele>
        <time>2015-05-23T12:09:30Z</time>
      </trkpt>
      <trkpt lat="40.247333" lon="-4.894300">
        <ele>1912.0</ele>
        <time>2015-05-23T12:09:32Z</time>
      </trkpt>
      <trkpt lat="40.247483" lon="-4.894367">
        <ele>1906.0</ele>
        <time>2015-05-23T12:09:34Z</time>
      </trkpt>
      <trkpt lat="40.247650" lon="-4.894433">
        <ele>1901.0</ele>
        <time>2015-05-23T12:09:36Z</time>
      </trkpt>
      <trkpt lat="40.247817" lon="-4.894500">
        <ele>1895.0</ele>
        <time>2015-05-23T12:09:38Z</time>
      </trkpt>
      <trkpt lat="40.247983" lon="-4.894550">
        <ele>1888.0</ele>
        <time>2015-05-23T12:09:40Z</time>
      </trkpt>
      <trkpt lat="40.248200" lon="-4.894567">
        <ele>1878.0</ele>
        <time>2015-05-23T12:09:42Z</time>
      </trkpt>
      <trkpt lat="40.248400" lon="-4.894583">
        <ele>1871.0</ele>
        <time>2015-05-23T12:09:44Z</time>
      </trkpt>
      <trkpt lat="40.248567" lon="-4.894567">
        <ele>1866.0</ele>
        <time>2015-05-23T12:09:46Z</time>
      </trkpt>
      <trkpt lat="40.248717" lon="-4.894517">
        <ele>1856.0</ele>
        <time>2015-05-23T12:09:48Z</time>
      </trkpt>
      <trkpt lat="40.248900" lon="-4.894483">
        <ele>1844.0</ele>
        <time>2015-05-23T12:09:50Z</time>
      </trkpt>
      <trkpt lat="40.249100" lon="-4.894467">
        <ele>1837.0</ele>
        <time>2015-05-23T12:09:52Z</time>
      </trkpt>
      <trkpt lat="40.249267" lon="-4.894433">
        <ele>1830.0</ele>
        <time>2015-05-23T12:09:54Z</time>
      </trkpt>
      <trkpt lat="40.249467" lon="-4.894350">
        <ele>1824.0</ele>
        <time>2015-05-23T12:09:56Z</time>
      </trkpt>
      <trkpt lat="40.249633" lon="-4.894250">
        <ele>1826.0</ele>
        <time>2015-05-23T12:09:58Z</time>
      </trkpt>
      <trkpt lat="40.249717" lon="-4.894183">
        <ele>1825.0</ele>
        <time>2015-05-23T12:10:00Z</time>
      </trkpt>
      <trkpt lat="40.249833" lon="-4.894083">
        <ele>1820.0</ele>
        <time>2015-05-23T12:10:02Z</time>
      </trkpt>
      <trkpt lat="40.249983" lon="-4.893933">
        <ele>1819.0</ele>
        <time>2015-05-23T12:10:04Z</time>
      </trkpt>
      <trkpt lat="40.250100" lon="-4.893833">
        <ele>1824.0</ele>
        <time>2015-05-23T12:10:06Z</time>
      </trkpt>
      <trkpt lat="40.250217" lon="-4.893767">
        <ele>1824.0</ele>
        <time>2015-05-23T12:10:08Z</time>
      </trkpt>
      <trkpt lat="40.250367" lon="-4.893667">
        <ele>1819.0</ele>
        <time>2015-05-23T12:10:10Z</time>
      </trkpt>
      <trkpt lat="40.250533" lon="-4.893500">
        <ele>1815.0</ele>
        <time>2015-05-23T12:10:12Z</time>
      </trkpt>
      <trkpt lat="40.250717" lon="-4.893383">
        <ele>1815.0</ele>
        <time>2015-05-23T12:10:14Z</time>
      </trkpt>
      <trkpt lat="40.250883" lon="-4.893300">
        <ele>1814.0</ele>
        <time>2015-05-23T12:10:16Z</time>
      </trkpt>
      <trkpt lat="40.251083" lon="-4.893267">
        <ele>1810.0</ele>
        <time>2015-05-23T12:10:18Z</time>
      </trkpt>
      <trkpt lat="40.251300" lon="-4.893217">
        <ele>1806.0</ele>
        <time>2015-05-23T12:10:20Z</time>
      </trkpt>
      <trkpt lat="40.251483" lon="-4.893167">
        <ele>1805.0</ele>
        <time>2015-05-23T12:10:22Z</time>
      </trkpt>
      <trkpt lat="40.251683" lon="-4.893150">
        <ele>1801.0</ele>
        <time>2015-05-23T12:10:24Z</time>
      </trkpt>
      <trkpt lat="40.251883" lon="-4.893150">
        <ele>1798.0</ele>
        <time>2015-05-23T12:10:26Z</time>
      </trkpt>
      <trkpt lat="40.252050" lon="-4.893183">
        <ele>1798.0</ele>
        <time>2015-05-23T12:10:28Z</time>
      </trkpt>
      <trkpt lat="40.252217" lon="-4.893217">
        <ele>1794.0</ele>
        <time>2015-05-23T12:10:30Z</time>
      </trkpt>
      <trkpt lat="40.252400" lon="-4.893300">
        <ele>1789.0</ele>
        <time>2015-05-23T12:10:32Z</time>
      </trkpt>
      <trkpt lat="40.252583" lon="-4.893367">
        <ele>1788.0</ele>
        <time>2015-05-23T12:10:34Z</time>
      </trkpt>
      <trkpt lat="40.252733" lon="-4.893450">
        <ele>1786.0</ele>
        <time>2015-05-23T12:10:36Z</time>
      </trkpt>
      <trkpt lat="40.252900" lon="-4.893550">
        <ele>1782.0</ele>
        <time>2015-05-23T12:10:38Z</time>
      </trkpt>
      <trkpt lat="40.253067" lon="-4.893667">
        <ele>1780.0</ele>
        <time>2015-05-23T12:10:40Z</time>
      </trkpt>
      <trkpt lat="40.253217" lon="-4.893783">
        <ele>1778.0</ele>
        <time>2015-05-23T12:10:42Z</time>
      </trkpt>
      <trkpt lat="40.253350" lon="-4.893917">
        <ele>1773.0</ele>
        <time>2015-05-23T12:10:44Z</time>
      </trkpt>
      <trkpt lat="40.253517" lon="-4.894100">
        <ele>1770.0</ele>
        <time>2015-05-23T12:10:46Z</time>
      </trkpt>
      <trkpt lat="40.253650" lon="-4.894283">
        <ele>1772.0</ele>
        <time>2015-05-23T12:10:48Z</time>
      </trkpt>
      <trkpt lat="40.253733" lon="-4.894467">
        <ele>1771.0</ele>
        <time>2015-05-23T12:10:50Z</time>
      </trkpt>
      <trkpt lat="40.253800" lon="-4.894667">
        <ele>1768.0</ele>
        <time>2015-05-23T12:10:52Z</time>
      </trkpt>
      <trkpt lat="40.253800" lon="-4.894933">
        <ele>1766.0</ele>
        <time>2015-05-23T12:10:54Z</time>
      </trkpt>
      <trkpt lat="40.253750" lon="-4.895150">
        <ele>1766.0</ele>
        <time>2015-05-23T12:10:56Z</time>
      </trkpt>
      <trkpt lat="40.253667" lon="-4.895350">
        <ele>1763.0</ele>
        <time>2015-05-23T12:10:58Z</time>
      </trkpt>
      <trkpt lat="40.253567" lon="-4.895550">
        <ele>1759.0</ele>
        <time>2015-05-23T12:11:00Z</time>
      </trkpt>
      <trkpt lat="40.253483" lon="-4.895800">
        <ele>1754.0</ele>
        <time>2015-05-23T12:11:02Z</time>
      </trkpt>
      <trkpt lat="40.253400" lon="-4.896033">
        <ele>1750.0</ele>
        <time>2015-05-23T12:11:04Z</time>
      </trkpt>
      <trkpt lat="40.253267" lon="-4.896267">
        <ele>1745.0</ele>
        <time>2015-05-23T12:11:06Z</time>
      </trkpt>
      <trkpt lat="40.253117" lon="-4.896483">
        <ele>1742.0</ele>
        <time>2015-05-23T12:11:08Z</time>
      </trkpt>
      <trkpt lat="40.252933" lon="-4.896683">
        <ele>1739.0</ele>
        <time>2015-05-23T12:11:10Z</time>
      </trkpt>
      <trkpt lat="40.252750" lon="-4.896783">
        <ele>1740.0</ele>
        <time>2015-05-23T12:11:12Z</time>
      </trkpt>
      <trkpt lat="40.252550" lon="-4.896850">
        <ele>1741.0</ele>
        <time>2015-05-23T12:11:14Z</time>
      </trkpt>
      <trkpt lat="40.252333" lon="-4.896817">
        <ele>1740.0</ele>
        <time>2015-05-23T12:11:16Z</time>
      </trkpt>
      <trkpt lat="40.252133" lon="-4.896683">
        <ele>1740.0</ele>
        <time>2015-05-23T12:11:18Z</time>
      </trkpt>
      <trkpt lat="40.251950" lon="-4.896550">
        <ele>1741.0</ele>
        <time>2015-05-23T12:11:20Z</time>
      </trkpt>
      <trkpt lat="40.251800" lon="-4.896367">
        <ele>1738.0</ele>
        <time>2015-05-23T12:11:22Z</time>
      </trkpt>
      <trkpt lat="40.251650" lon="-4.896100">
        <ele>1735.0</ele>
        <time>2015-05-23T12:11:24Z</time>
      </trkpt>
      <trkpt lat="40.251517" lon="-4.895850">
        <ele>1737.0</ele>
        <time>2015-05-23T12:11:26Z</time>
      </trkpt>
      <trkpt lat="40.251450" lon="-4.895633">
        <ele>1737.0</ele>
        <time>2015-05-23T12:11:28Z</time>
      </trkpt>
      <trkpt lat="40.251433" lon="-4.895383">
        <ele>1733.0</ele>
        <time>2015-05-23T12:11:30Z</time>
      </trkpt>
      <trkpt lat="40.251483" lon="-4.895133">
        <ele>1731.0</ele>
        <time>2015-05-23T12:11:32Z</time>
      </trkpt>
      <trkpt lat="40.251567" lon="-4.894967">
        <ele>1730.0</ele>
        <time>2015-05-23T12:11:34Z</time>
      </trkpt>
      <trkpt lat="40.251683" lon="-4.894833">
        <ele>1724.0</ele>
        <time>2015-05-23T12:11:36Z</time>
      </trkpt>
      <trkpt lat="40.251850" lon="-4.894650">
        <ele>1720.0</ele>
        <time>2015-05-23T12:11:38Z</time>
      </trkpt>
      <trkpt lat="40.252017" lon="-4.894567">
        <ele>1723.0</ele>
        <time>2015-05-23T12:11:40Z</time>
      </trkpt>
      <trkpt lat="40.252167" lon="-4.894633">
        <ele>1721.0</ele>
        <time>2015-05-23T12:11:42Z</time>
      </trkpt>
      <trkpt lat="40.252333" lon="-4.894717">
        <ele>1718.0</ele>
        <time>2015-05-23T12:11:44Z</time>
      </trkpt>
      <trkpt lat="40.252517" lon="-4.894750">
        <ele>1716.0</ele>
        <time>2015-05-23T12:11:46Z</time>
      </trkpt>
      <trkpt lat="40.252667" lon="-4.894800">
        <ele>1715.0</ele>
        <time>2015-05-23T12:11:48Z</time>
      </trkpt>
      <trkpt lat="40.252833" lon="-4.894783">
        <ele>1712.0</ele>
        <time>2015-05-23T12:11:50Z</time>
      </trkpt>
      <trkpt lat="40.252983" lon="-4.894683">
        <ele>1712.0</ele>
        <time>2015-05-23T12:11:52Z</time>
      </trkpt>
      <trkpt lat="40.253083" lon="-4.894533">
        <ele>1711.0</ele>
        <time>2015-05-23T12:11:54Z</time>
      </trkpt>
      <trkpt lat="40.253200" lon="-4.894350">
        <ele>1707.0</ele>
        <time>2015-05-23T12:11:56Z</time>
      </trkpt>
      <trkpt lat="40.253317" lon="-4.894150">
        <ele>1705.0</ele>
        <time>2015-05-23T12:11:58Z</time>
      </trkpt>
      <trkpt lat="40.253383" lon="-4.893983">
        <ele>1703.0</ele>
        <time>2015-05-23T12:12:00Z</time>
      </trkpt>
      <trkpt lat="40.253483" lon="-4.893783">
        <ele>1699.0</ele>
        <time>2015-05-23T12:12:02Z</time>
      </trkpt>
      <trkpt lat="40.253567" lon="-4.893567">
        <ele>1695.0</ele>
        <time>2015-05-23T12:12:04Z</time>
      </trkpt>
      <trkpt lat="40.253617" lon="-4.893367">
        <ele>1693.0</ele>
        <time>2015-05-23T12:12:06Z</time>
      </trkpt>
      <trkpt lat="40.253617" lon="-4.893167">
        <ele>1689.0</ele>
        <time>2015-05-23T12:12:08Z</time>
      </trkpt>
      <trkpt lat="40.253633" lon="-4.892917">
        <ele>1684.0</ele>
        <time>2015-05-23T12:12:10Z</time>
      </trkpt>
      <trkpt lat="40.253617" lon="-4.892683">
        <ele>1683.0</ele>
        <time>2015-05-23T12:12:12Z</time>
      </trkpt>
      <trkpt lat="40.253550" lon="-4.892500">
        <ele>1684.0</ele>
        <time>2015-05-23T12:12:14Z</time>
      </trkpt>
      <trkpt lat="40.253467" lon="-4.892333">
        <ele>1685.0</ele>
        <time>2015-05-23T12:12:16Z</time>
      </trkpt>
      <trkpt lat="40.253433" lon="-4.892117">
        <ele>1686.0</ele>
        <time>2015-05-23T12:12:18Z</time>
      </trkpt>
      <trkpt lat="40.253500" lon="-4.891883">
        <ele>1685.0</ele>
        <time>2015-05-23T12:12:20Z</time>
      </trkpt>
      <trkpt lat="40.253683" lon="-4.891700">
        <ele>1684.0</ele>
        <time>2015-05-23T12:12:22Z</time>
      </trkpt>
      <trkpt lat="40.253883" lon="-4.891517">
        <ele>1686.0</ele>
        <time>2015-05-23T12:12:24Z</time>
      </trkpt>
      <trkpt lat="40.254067" lon="-4.891383">
        <ele>1686.0</ele>
        <time>2015-05-23T12:12:26Z</time>
      </trkpt>
      <trkpt lat="40.254300" lon="-4.891350">
        <ele>1683.0</ele>
        <time>2015-05-23T12:12:28Z</time>
      </trkpt>
      <trkpt lat="40.254533" lon="-4.891350">
        <ele>1682.0</ele>
        <time>2015-05-23T12:12:30Z</time>
      </trkpt>
      <trkpt lat="40.254750" lon="-4.891383">
        <ele>1682.0</ele>
        <time>2015-05-23T12:12:32Z</time>
      </trkpt>
      <trkpt lat="40.254950" lon="-4.891467">
        <ele>1682.0</ele>
        <time>2015-05-23T12:12:34Z</time>
      </trkpt>
      <trkpt lat="40.255117" lon="-4.891583">
        <ele>1682.0</ele>
        <time>2015-05-23T12:12:36Z</time>
      </trkpt>
      <trkpt lat="40.255267" lon="-4.891733">
        <ele>1681.0</ele>
        <time>2015-05-23T12:12:38Z</time>
      </trkpt>
      <trkpt lat="40.255367" lon="-4.891950">
        <ele>1681.0</ele>
        <time>2015-05-23T12:12:40Z</time>
      </trkpt>
      <trkpt lat="40.255417" lon="-4.892133">
        <ele>1680.0</ele>
        <time>2015-05-23T12:12:42Z</time>
      </trkpt>
      <trkpt lat="40.255467" lon="-4.892367">
        <ele>1673.0</ele>
        <time>2015-05-23T12:12:44Z</time>
      </trkpt>
      <trkpt lat="40.255500" lon="-4.892683">
        <ele>1669.0</ele>
        <time>2015-05-23T12:12:46Z</time>
      </trkpt>
      <trkpt lat="40.255467" lon="-4.892900">
        <ele>1670.0</ele>
        <time>2015-05-23T12:12:48Z</time>
      </trkpt>
      <trkpt lat="40.255417" lon="-4.893083">
        <ele>1669.0</ele>
        <time>2015-05-23T12:12:50Z</time>
      </trkpt>
      <trkpt lat="40.255300" lon="-4.893267">
        <ele>1666.0</ele>
        <time>2015-05-23T12:12:52Z</time>
      </trkpt>
      <trkpt lat="40.255150" lon="-4.893400">
        <ele>1667.0</ele>
        <time>2015-05-23T12:12:54Z</time>
      </trkpt>
      <trkpt lat="40.255067" lon="-4.893483">
        <ele>1670.0</ele>
        <time>2015-05-23T12:12:56Z</time>
      </trkpt>
      <trkpt lat="40.254983" lon="-4.893517">
        <ele>1669.0</ele>
        <time>2015-05-23T12:12:58Z</time>
      </trkpt>
      <trkpt lat="40.254850" lon="-4.893533">
        <ele>1666.0</ele>
        <time>2015-05-23T12:13:00Z</time>
      </trkpt>
      <trkpt lat="40.254733" lon="-4.893483">
        <ele>1665.0</ele>
        <time>2015-05-23T12:13:02Z</time>
      </trkpt>
      <trkpt lat="40.254667" lon="-4.893433">
        <ele>1665.0</ele>
        <time>2015-05-23T12:13:04Z</time>
      </trkpt>
      <trkpt lat="40.254617" lon="-4.893350">
        <ele>1664.0</ele>
        <time>2015-05-23T12:13:06Z</time>
      </trkpt>
      <trkpt lat="40.254550" lon="-4.893217">
        <ele>1663.0</ele>
        <time>2015-05-23T12:13:08Z</time>
      </trkpt>
      <trkpt lat="40.254550" lon="-4.893050">
        <ele>1665.0</ele>
        <time>2015-05-23T12:13:10Z</time>
      </trkpt>
      <trkpt lat="40.254567" lon="-4.892917">
        <ele>1666.0</ele>
        <time>2015-05-23T12:13:12Z</time>
      </trkpt>
      <trkpt lat="40.254567" lon="-4.892733">
        <ele>1665.0</ele>
        <time>2015-05-23T12:13:14Z</time>
      </trkpt>
      <trkpt lat="40.254567" lon="-4.892550">
        <ele>1665.0</ele>
        <time>2015-05-23T12:13:16Z</time>
      </trkpt>
      <trkpt lat="40.254617" lon="-4.892383">
        <ele>1661.0</ele>
        <time>2015-05-23T12:13:18Z</time>
      </trkpt>
      <trkpt lat="40.254683" lon="-4.892183">
        <ele>1658.0</ele>
        <time>2015-05-23T12:13:20Z</time>
      </trkpt>
      <trkpt lat="40.254767" lon="-4.891983">
        <ele>1658.0</ele>
        <time>2015-05-23T12:13:22Z</time>
      </trkpt>
      <trkpt lat="40.254883" lon="-4.891817">
        <ele>1658.0</ele>
        <time>2015-05-23T12:13:24Z</time>
      </trkpt>
      <trkpt lat="40.254983" lon="-4.891650">
        <ele>1654.0</ele>
        <time>2015-05-23T12:13:26Z</time>
      </trkpt>
      <trkpt lat="40.255100" lon="-4.891483">
        <ele>1648.0</ele>
        <time>2015-05-23T12:13:28Z</time>
      </trkpt>
      <trkpt lat="40.255250" lon="-4.891400">
        <ele>1641.0</ele>
        <time>2015-05-23T12:13:30Z</time>
      </trkpt>
      <trkpt lat="40.255433" lon="-4.891417">
        <ele>1635.0</ele>
        <time>2015-05-23T12:13:32Z</time>
      </trkpt>
      <trkpt lat="40.255583" lon="-4.891533">
        <ele>1630.0</ele>
        <time>2015-05-23T12:13:34Z</time>
      </trkpt>
      <trkpt lat="40.255667" lon="-4.891733">
        <ele>1622.0</ele>
        <time>2015-05-23T12:13:36Z</time>
      </trkpt>
      <trkpt lat="40.255700" lon="-4.891983">
        <ele>1613.0</ele>
        <time>2015-05-23T12:13:38Z</time>
      </trkpt>
      <trkpt lat="40.255650" lon="-4.892250">
        <ele>1606.0</ele>
        <time>2015-05-23T12:13:40Z</time>
      </trkpt>
      <trkpt lat="40.255600" lon="-4.892500">
        <ele>1604.0</ele>
        <time>2015-05-23T12:13:42Z</time>
      </trkpt>
      <trkpt lat="40.255550" lon="-4.892717">
        <ele>1602.0</ele>
        <time>2015-05-23T12:13:44Z</time>
      </trkpt>
      <trkpt lat="40.255500" lon="-4.892917">
        <ele>1598.0</ele>
        <time>2015-05-23T12:13:46Z</time>
      </trkpt>
      <trkpt lat="40.255450" lon="-4.893133">
        <ele>1595.0</ele>
        <time>2015-05-23T12:13:48Z</time>
      </trkpt>
      <trkpt lat="40.255417" lon="-4.893350">
        <ele>1593.0</ele>
        <time>2015-05-23T12:13:50Z</time>
      </trkpt>
      <trkpt lat="40.255383" lon="-4.893533">
        <ele>1589.0</ele>
        <time>2015-05-23T12:13:52Z</time>
      </trkpt>
      <trkpt lat="40.255367" lon="-4.893783">
        <ele>1585.0</ele>
        <time>2015-05-23T12:13:54Z</time>
      </trkpt>
      <trkpt lat="40.255333" lon="-4.894050">
        <ele>1586.0</ele>
        <time>2015-05-23T12:13:56Z</time>
      </trkpt>
      <trkpt lat="40.255300" lon="-4.894267">
        <ele>1586.0</ele>
        <time>2015-05-23T12:13:58Z</time>
      </trkpt>
      <trkpt lat="40.255283" lon="-4.894483">
        <ele>1585.0</ele>
        <time>2015-05-23T12:14:00Z</time>
      </trkpt>
      <trkpt lat="40.255267" lon="-4.894750">
        <ele>1580.0</ele>
        <time>2015-05-23T12:14:02Z</time>
      </trkpt>
      <trkpt lat="40.255233" lon="-4.895017">
        <ele>1576.0</ele>
        <time>2015-05-23T12:14:04Z</time>
      </trkpt>
      <trkpt lat="40.255217" lon="-4.895267">
        <ele>1573.0</ele>
        <time>2015-05-23T12:14:06Z</time>
      </trkpt>
      <trkpt lat="40.255200" lon="-4.895500">
        <ele>1573.0</ele>
        <time>2015-05-23T12:14:08Z</time>
      </trkpt>
      <trkpt lat="40.255233" lon="-4.895750">
        <ele>1572.0</ele>
        <time>2015-05-23T12:14:10Z</time>
      </trkpt>
      <trkpt lat="40.255267" lon="-4.896017">
        <ele>1571.0</ele>
        <time>2015-05-23T12:14:12Z</time>
      </trkpt>
      <trkpt lat="40.255233" lon="-4.896267">
        <ele>1572.0</ele>
        <time>2015-05-23T12:14:14Z</time>
      </trkpt>
      <trkpt lat="40.255150" lon="-4.896417">
        <ele>1573.0</ele>
        <time>2015-05-23T12:14:16Z</time>
      </trkpt>
      <trkpt lat="40.255017" lon="-4.896533">
        <ele>1573.0</ele>
        <time>2015-05-23T12:14:18Z</time>
      </trkpt>
      <trkpt lat="40.254867" lon="-4.896567">
        <ele>1572.0</ele>
        <time>2015-05-23T12:14:20Z</time>
      </trkpt>
      <trkpt lat="40.254733" lon="-4.896500">
        <ele>1571.0</ele>
        <time>2015-05-23T12:14:22Z</time>
      </trkpt>
      <trkpt lat="40.254600" lon="-4.896433">
        <ele>1571.0</ele>
        <time>2015-05-23T12:14:24Z</time>
      </trkpt>
      <trkpt lat="40.254500" lon="-4.896350">
        <ele>1568.0</ele>
        <time>2015-05-23T12:14:26Z</time>
      </trkpt>
      <trkpt lat="40.254417" lon="-4.896233">
        <ele>1561.0</ele>
        <time>2015-05-23T12:14:28Z</time>
      </trkpt>
      <trkpt lat="40.254300" lon="-4.896117">
        <ele>1554.0</ele>
        <time>2015-05-23T12:14:30Z</time>
      </trkpt>
      <trkpt lat="40.254167" lon="-4.896067">
        <ele>1548.0</ele>
        <time>2015-05-23T12:14:32Z</time>
      </trkpt>
      <trkpt lat="40.254033" lon="-4.896117">
        <ele>1542.0</ele>
        <time>2015-05-23T12:14:34Z</time>
      </trkpt>
      <trkpt lat="40.253900" lon="-4.896200">
        <ele>1537.0</ele>
        <time>2015-05-23T12:14:36Z</time>
      </trkpt>
      <trkpt lat="40.253767" lon="-4.896367">
        <ele>1533.0</ele>
        <time>2015-05-23T12:14:38Z</time>
      </trkpt>
      <trkpt lat="40.253667" lon="-4.896617">
        <ele>1533.0</ele>
        <time>2015-05-23T12:14:40Z</time>
      </trkpt>
      <trkpt lat="40.253567" lon="-4.896867">
        <ele>1533.0</ele>
        <time>2015-05-23T12:14:42Z</time>
      </trkpt>
      <trkpt lat="40.253450" lon="-4.897067">
        <ele>1531.0</ele>
        <time>2015-05-23T12:14:44Z</time>
      </trkpt>
      <trkpt lat="40.253333" lon="-4.897317">
        <ele>1529.0</ele>
        <time>2015-05-23T12:14:46Z</time>
      </trkpt>
      <trkpt lat="40.253183" lon="-4.897550">
        <ele>1528.0</ele>
        <time>2015-05-23T12:14:48Z</time>
      </trkpt>
      <trkpt lat="40.253050" lon="-4.897767">
        <ele>1529.0</ele>
        <time>2015-05-23T12:14:50Z</time>
      </trkpt>
      <trkpt lat="40.252933" lon="-4.897967">
        <ele>1528.0</ele>
        <time>2015-05-23T12:14:52Z</time>
      </trkpt>
      <trkpt lat="40.252767" lon="-4.898217">
        <ele>1528.0</ele>
        <time>2015-05-23T12:14:54Z</time>
      </trkpt>
      <trkpt lat="40.252600" lon="-4.898417">
        <ele>1536.0</ele>
        <time>2015-05-23T12:14:56Z</time>
      </trkpt>
      <trkpt lat="40.252467" lon="-4.898533">
        <ele>1546.0</ele>
        <time>2015-05-23T12:14:58Z</time>
      </trkpt>
      <trkpt lat="40.252333" lon="-4.898567">
        <ele>1550.0</ele>
        <time>2015-05-23T12:15:00Z</time>
      </trkpt>
      <trkpt lat="40.252217" lon="-4.898500">
        <ele>1554.0</ele>
        <time>2015-05-23T12:15:02Z</time>
      </trkpt>
      <trkpt lat="40.252150" lon="-4.898417">
        <ele>1559.0</ele>
        <time>2015-05-23T12:15:04Z</time>
      </trkpt>
      <trkpt lat="40.252133" lon="-4.898300">
        <ele>1559.0</ele>
        <time>2015-05-23T12:15:06Z</time>
      </trkpt>
      <trkpt lat="40.252150" lon="-4.898133">
        <ele>1559.0</ele>
        <time>2015-05-23T12:15:08Z</time>
      </trkpt>
      <trkpt lat="40.252200" lon="-4.898017">
        <ele>1563.0</ele>
        <time>2015-05-23T12:15:10Z</time>
      </trkpt>
      <trkpt lat="40.252333" lon="-4.897967">
        <ele>1562.0</ele>
        <time>2015-05-23T12:15:12Z</time>
      </trkpt>
      <trkpt lat="40.252533" lon="-4.897950">
        <ele>1561.0</ele>
        <time>2015-05-23T12:15:14Z</time>
      </trkpt>
      <trkpt lat="40.252750" lon="-4.898017">
        <ele>1563.0</ele>
        <time>2015-05-23T12:15:16Z</time>
      </trkpt>
      <trkpt lat="40.252900" lon="-4.898150">
        <ele>1566.0</ele>
        <time>2015-05-23T12:15:18Z</time>
      </trkpt>
      <trkpt lat="40.253067" lon="-4.898383">
        <ele>1565.0</ele>
        <time>2015-05-23T12:15:20Z</time>
      </trkpt>
      <trkpt lat="40.253167" lon="-4.898717">
        <ele>1565.0</ele>
        <time>2015-05-23T12:15:22Z</time>
      </trkpt>
      <trkpt lat="40.253233" lon="-4.899033">
        <ele>1567.0</ele>
        <time>2015-05-23T12:15:24Z</time>
      </trkpt>
      <trkpt lat="40.253233" lon="-4.899317">
        <ele>1568.0</ele>
        <time>2015-05-23T12:15:26Z</time>
      </trkpt>
      <trkpt lat="40.253150" lon="-4.899633">
        <ele>1566.0</ele>
        <time>2015-05-23T12:15:28Z</time>
      </trkpt>
      <trkpt lat="40.253017" lon="-4.899933">
        <ele>1567.0</ele>
        <time>2015-05-23T12:15:30Z</time>
      </trkpt>
      <trkpt lat="40.252867" lon="-4.900133">
        <ele>1571.0</ele>
        <time>2015-05-23T12:15:32Z</time>
      </trkpt>
      <trkpt lat="40.252683" lon="-4.900317">
        <ele>1573.0</ele>
        <time>2015-05-23T12:15:34Z</time>
      </trkpt>
      <trkpt lat="40.252500" lon="-4.900467">
        <ele>1577.0</ele>
        <time>2015-05-23T12:15:36Z</time>
      </trkpt>
      <trkpt lat="40.252317" lon="-4.900500">
        <ele>1581.0</ele>
        <time>2015-05-23T12:15:38Z</time>
      </trkpt>
      <trkpt lat="40.252183" lon="-4.900450">
        <ele>1587.0</ele>
        <time>2015-05-23T12:15:40Z</time>
      </trkpt>
      <trkpt lat="40.252117" lon="-4.900367">
        <ele>1592.0</ele>
        <time>2015-05-23T12:15:42Z</time>
      </trkpt>
      <trkpt lat="40.252083" lon="-4.900250">
        <ele>1597.0</ele>
        <time>2015-05-23T12:15:44Z</time>
      </trkpt>
      <trkpt lat="40.252117" lon="-4.900133">
        <ele>1601.0</ele>
        <time>2015-05-23T12:15:46Z</time>
      </trkpt>
      <trkpt lat="40.252250" lon="-4.900083">
        <ele>1606.0</ele>
        <time>2015-05-23T12:15:48Z</time>
      </trkpt>
      <trkpt lat="40.252417" lon="-4.900167">
        <ele>1611.0</ele>
        <time>2015-05-23T12:15:50Z</time>
      </trkpt>
      <trkpt lat="40.252550" lon="-4.900350">
        <ele>1617.0</ele>
        <time>2015-05-23T12:15:52Z</time>
      </trkpt>
      <trkpt lat="40.252633" lon="-4.900650">
        <ele>1620.0</ele>
        <time>2015-05-23T12:15:54Z</time>
      </trkpt>
      <trkpt lat="40.252583" lon="-4.900983">
        <ele>1623.0</ele>
        <time>2015-05-23T12:15:56Z</time>
      </trkpt>
      <trkpt lat="40.252450" lon="-4.901250">
        <ele>1626.0</ele>
        <time>2015-05-23T12:15:58Z</time>
      </trkpt>
      <trkpt lat="40.252267" lon="-4.901400">
        <ele>1627.0</ele>
        <time>2015-05-23T12:16:00Z</time>
      </trkpt>
      <trkpt lat="40.252067" lon="-4.901433">
        <ele>1629.0</ele>
        <time>2015-05-23T12:16:02Z</time>
      </trkpt>
      <trkpt lat="40.251917" lon="-4.901367">
        <ele>1635.0</ele>
        <time>2015-05-23T12:16:04Z</time>
      </trkpt>
      <trkpt lat="40.251850" lon="-4.901250">
        <ele>1641.0</ele>
        <time>2015-05-23T12:16:06Z</time>
      </trkpt>
      <trkpt lat="40.251850" lon="-4.901117">
        <ele>1646.0</ele>
        <time>2015-05-23T12:16:08Z</time>
      </trkpt>
      <trkpt lat="40.251950" lon="-4.901050">
        <ele>1650.0</ele>
        <time>2015-05-23T12:16:10Z</time>
      </trkpt>
      <trkpt lat="40.252117" lon="-4.901083">
        <ele>1655.0</ele>
        <time>2015-05-23T12:16:12Z</time>
      </trkpt>
      <trkpt lat="40.252250" lon="-4.901233">
        <ele>1661.0</ele>
        <time>2015-05-23T12:16:14Z</time>
      </trkpt>
      <trkpt lat="40.252367" lon="-4.901467">
        <ele>1663.0</ele>
        <time>2015-05-23T12:16:16Z</time>
      </trkpt>
      <trkpt lat="40.252400" lon="-4.901800">
        <ele>1666.0</ele>
        <time>2015-05-23T12:16:18Z</time>
      </trkpt>
      <trkpt lat="40.252333" lon="-4.902133">
        <ele>1672.0</ele>
        <time>2015-05-23T12:16:20Z</time>
      </trkpt>
      <trkpt lat="40.252200" lon="-4.902383">
        <ele>1676.0</ele>
        <time>2015-05-23T12:16:22Z</time>
      </trkpt>
      <trkpt lat="40.252017" lon="-4.902617">
        <ele>1677.0</ele>
        <time>2015-05-23T12:16:24Z</time>
      </trkpt>
      <trkpt lat="40.251800" lon="-4.902767">
        <ele>1681.0</ele>
        <time>2015-05-23T12:16:26Z</time>
      </trkpt>
      <trkpt lat="40.251600" lon="-4.902800">
        <ele>1686.0</ele>
        <time>2015-05-23T12:16:28Z</time>
      </trkpt>
      <trkpt lat="40.251450" lon="-4.902750">
        <ele>1688.0</ele>
        <time>2015-05-23T12:16:30Z</time>
      </trkpt>
      <trkpt lat="40.251333" lon="-4.902650">
        <ele>1690.0</ele>
        <time>2015-05-23T12:16:32Z</time>
      </trkpt>
      <trkpt lat="40.251317" lon="-4.902500">
        <ele>1694.0</ele>
        <time>2015-05-23T12:16:34Z</time>
      </trkpt>
      <trkpt lat="40.251400" lon="-4.902400">
        <ele>1699.0</ele>
        <time>2015-05-23T12:16:36Z</time>
      </trkpt>
      <trkpt lat="40.251517" lon="-4.902400">
        <ele>1704.0</ele>
        <time>2015-05-23T12:16:38Z</time>
      </trkpt>
      <trkpt lat="40.251683" lon="-4.902533">
        <ele>1706.0</ele>
        <time>2015-05-23T12:16:40Z</time>
      </trkpt>
      <trkpt lat="40.251800" lon="-4.902800">
        <ele>1710.0</ele>
        <time>2015-05-23T12:16:42Z</time>
      </trkpt>
      <trkpt lat="40.251833" lon="-4.903117">
        <ele>1715.0</ele>
        <time>2015-05-23T12:16:44Z</time>
      </trkpt>
      <trkpt lat="40.251783" lon="-4.903417">
        <ele>1719.0</ele>
        <time>2015-05-23T12:16:46Z</time>
      </trkpt>
      <trkpt lat="40.251650" lon="-4.903700">
        <ele>1721.0</ele>
        <time>2015-05-23T12:16:48Z</time>
      </trkpt>
      <trkpt lat="40.251433" lon="-4.903917">
        <ele>1723.0</ele>
        <time>2015-05-23T12:16:50Z</time>
      </trkpt>
      <trkpt lat="40.251217" lon="-4.904000">
        <ele>1727.0</ele>
        <time>2015-05-23T12:16:52Z</time>
      </trkpt>
      <trkpt lat="40.251033" lon="-4.903983">
        <ele>1730.0</ele>
        <time>2015-05-23T12:16:54Z</time>
      </trkpt>
      <trkpt lat="40.250883" lon="-4.903917">
        <ele>1732.0</ele>
        <time>2015-05-23T12:16:56Z</time>
      </trkpt>
      <trkpt lat="40.250800" lon="-4.903783">
        <ele>1733.0</ele>
        <time>2015-05-23T12:16:58Z</time>
      </trkpt>
      <trkpt lat="40.250800" lon="-4.903633">
        <ele>1735.0</ele>
        <time>2015-05-23T12:17:00Z</time>
      </trkpt>
      <trkpt lat="40.250883" lon="-4.903533">
        <ele>1739.0</ele>
        <time>2015-05-23T12:17:02Z</time>
      </trkpt>
      <trkpt lat="40.250983" lon="-4.903550">
        <ele>1742.0</ele>
        <time>2015-05-23T12:17:04Z</time>
      </trkpt>
      <trkpt lat="40.251117" lon="-4.903617">
        <ele>1744.0</ele>
        <time>2015-05-23T12:17:06Z</time>
      </trkpt>
      <trkpt lat="40.251233" lon="-4.903800">
        <ele>1746.0</ele>
        <time>2015-05-23T12:17:08Z</time>
      </trkpt>
      <trkpt lat="40.251300" lon="-4.904067">
        <ele>1751.0</ele>
        <time>2015-05-23T12:17:10Z</time>
      </trkpt>
      <trkpt lat="40.251283" lon="-4.904400">
        <ele>1754.0</ele>
        <time>2015-05-23T12:17:12Z</time>
      </trkpt>
      <trkpt lat="40.251183" lon="-4.904700">
        <ele>1758.0</ele>
        <time>2015-05-23T12:17:14Z</time>
      </trkpt>
      <trkpt lat="40.251033" lon="-4.904967">
        <ele>1762.0</ele>
        <time>2015-05-23T12:17:16Z</time>
      </trkpt>
      <trkpt lat="40.250817" lon="-4.905133">
        <ele>1764.0</ele>
        <time>2015-05-23T12:17:18Z</time>
      </trkpt>
      <trkpt lat="40.250600" lon="-4.905150">
        <ele>1765.0</ele>
        <time>2015-05-23T12:17:20Z</time>
      </trkpt>
      <trkpt lat="40.250433" lon="-4.905083">
        <ele>1768.0</ele>
        <time>2015-05-23T12:17:22Z</time>
      </trkpt>
      <trkpt lat="40.250333" lon="-4.904983">
        <ele>1770.0</ele>
        <time>2015-05-23T12:17:24Z</time>
      </trkpt>
      <trkpt lat="40.250300" lon="-4.904900">
        <ele>1772.0</ele>
        <time>2015-05-23T12:17:26Z</time>
      </trkpt>
      <trkpt lat="40.250333" lon="-4.904800">
        <ele>1770.0</ele>
        <time>2015-05-23T12:17:28Z</time>
      </trkpt>
      <trkpt lat="40.250450" lon="-4.904750">
        <ele>1773.0</ele>
        <time>2015-05-23T12:17:30Z</time>
      </trkpt>
      <trkpt lat="40.250533" lon="-4.904767">
        <ele>1777.0</ele>
        <time>2015-05-23T12:17:32Z</time>
      </trkpt>
      <trkpt lat="40.250633" lon="-4.904867">
        <ele>1777.0</ele>
        <time>2015-05-23T12:17:34Z</time>
      </trkpt>
      <trkpt lat="40.250783" lon="-4.905067">
        <ele>1777.0</ele>
        <time>2015-05-23T12:17:36Z</time>
      </trkpt>
      <trkpt lat="40.250850" lon="-4.905317">
        <ele>1784.0</ele>
        <time>2015-05-23T12:17:38Z</time>
      </trkpt>
      <trkpt lat="40.250850" lon="-4.905567">
        <ele>1788.0</ele>
        <time>2015-05-23T12:17:40Z</time>
      </trkpt>
      <trkpt lat="40.250783" lon="-4.905883">
        <ele>1790.0</ele>
        <time>2015-05-23T12:17:42Z</time>
      </trkpt>
      <trkpt lat="40.250633" lon="-4.906183">
        <ele>1796.0</ele>
        <time>2015-05-23T12:17:44Z</time>
      </trkpt>
      <trkpt lat="40.250433" lon="-4.906383">
        <ele>1803.0</ele>
        <time>2015-05-23T12:17:46Z</time>
      </trkpt>
      <trkpt lat="40.250233" lon="-4.906500">
        <ele>1806.0</ele>
        <time>2015-05-23T12:17:48Z</time>
      </trkpt>
      <trkpt lat="40.250000" lon="-4.906533">
        <ele>1805.0</ele>
        <time>2015-05-23T12:17:50Z</time>
      </trkpt>
      <trkpt lat="40.249850" lon="-4.906433">
        <ele>1805.0</ele>
        <time>2015-05-23T12:17:52Z</time>
      </trkpt>
      <trkpt lat="40.249783" lon="-4.906300">
        <ele>1805.0</ele>
        <time>2015-05-23T12:17:54Z</time>
      </trkpt>
      <trkpt lat="40.249800" lon="-4.906217">
        <ele>1805.0</ele>
        <time>2015-05-23T12:17:56Z</time>
      </trkpt>
      <trkpt lat="40.249833" lon="-4.906117">
        <ele>1804.0</ele>
        <time>2015-05-23T12:17:58Z</time>
      </trkpt>
      <trkpt lat="40.249883" lon="-4.906033">
        <ele>1803.0</ele>
        <time>2015-05-23T12:18:00Z</time>
      </trkpt>
      <trkpt lat="40.249950" lon="-4.905983">
        <ele>1805.0</ele>
        <time>2015-05-23T12:18:02Z</time>
      </trkpt>
      <trkpt lat="40.250017" lon="-4.905967">
        <ele>1806.0</ele>
        <time>2015-05-23T12:18:04Z</time>
      </trkpt>
      <trkpt lat="40.250117" lon="-4.905933">
        <ele>1804.0</ele>
        <time>2015-05-23T12:18:06Z</time>
      </trkpt>
      <trkpt lat="40.250250" lon="-4.905917">
        <ele>1801.0</ele>
        <time>2015-05-23T12:18:08Z</time>
      </trkpt>
      <trkpt lat="40.250367" lon="-4.905900">
        <ele>1801.0</ele>
        <time>2015-05-23T12:18:10Z</time>
      </trkpt>
      <trkpt lat="40.250467" lon="-4.905917">
        <ele>1799.0</ele>
        <time>2015-05-23T12:18:12Z</time>
      </trkpt>
      <trkpt lat="40.250617" lon="-4.905950">
        <ele>1795.0</ele>
        <time>2015-05-23T12:18:14Z</time>
      </trkpt>
      <trkpt lat="40.250783" lon="-4.905933">
        <ele>1800.0</ele>
        <time>2015-05-23T12:18:16Z</time>
      </trkpt>
      <trkpt lat="40.250883" lon="-4.905950">
        <ele>1809.0</ele>
        <time>2015-05-23T12:18:18Z</time>
      </trkpt>
      <trkpt lat="40.250950" lon="-4.906000">
        <ele>1812.0</ele>
        <time>2015-05-23T12:18:20Z</time>
      </trkpt>
      <trkpt lat="40.251050" lon="-4.906083">
        <ele>1813.0</ele>
        <time>2015-05-23T12:18:22Z</time>
      </trkpt>
      <trkpt lat="40.251117" lon="-4.906267">
        <ele>1816.0</ele>
        <time>2015-05-23T12:18:24Z</time>
      </trkpt>
      <trkpt lat="40.251117" lon="-4.906517">
        <ele>1819.0</ele>
        <time>2015-05-23T12:18:26Z</time>
      </trkpt>
      <trkpt lat="40.251017" lon="-4.906783">
        <ele>1820.0</ele>
        <time>2015-05-23T12:18:28Z</time>
      </trkpt>
      <trkpt lat="40.250833" lon="-4.907000">
        <ele>1820.0</ele>
        <time>2015-05-23T12:18:30Z</time>
      </trkpt>
      <trkpt lat="40.250600" lon="-4.907150">
        <ele>1822.0</ele>
        <time>2015-05-23T12:18:32Z</time>
      </trkpt>
      <trkpt lat="40.250400" lon="-4.907200">
        <ele>1826.0</ele>
        <time>2015-05-23T12:18:34Z</time>
      </trkpt>
      <trkpt lat="40.250233" lon="-4.907150">
        <ele>1830.0</ele>
        <time>2015-05-23T12:18:36Z</time>
      </trkpt>
      <trkpt lat="40.250133" lon="-4.907050">
        <ele>1834.0</ele>
        <time>2015-05-23T12:18:38Z</time>
      </trkpt>
      <trkpt lat="40.250067" lon="-4.906933">
        <ele>1836.0</ele>
        <time>2015-05-23T12:18:40Z</time>
      </trkpt>
      <trkpt lat="40.250067" lon="-4.906817">
        <ele>1838.0</ele>
        <time>2015-05-23T12:18:42Z</time>
      </trkpt>
      <trkpt lat="40.250133" lon="-4.906733">
        <ele>1838.0</ele>
        <time>2015-05-23T12:18:44Z</time>
      </trkpt>
      <trkpt lat="40.250250" lon="-4.906717">
        <ele>1840.0</ele>
        <time>2015-05-23T12:18:46Z</time>
      </trkpt>
      <trkpt lat="40.250333" lon="-4.906750">
        <ele>1844.0</ele>
        <time>2015-05-23T12:18:48Z</time>
      </trkpt>
      <trkpt lat="40.250433" lon="-4.906800">
        <ele>1846.0</ele>
        <time>2015-05-23T12:18:50Z</time>
      </trkpt>
      <trkpt lat="40.250533" lon="-4.906867">
        <ele>1846.0</ele>
        <time>2015-05-23T12:18:52Z</time>
      </trkpt>
      <trkpt lat="40.250633" lon="-4.906867">
        <ele>1848.0</ele>
        <time>2015-05-23T12:18:54Z</time>
      </trkpt>
      <trkpt lat="40.250717" lon="-4.906850">
        <ele>1847.0</ele>
        <time>2015-05-23T12:18:56Z</time>
      </trkpt>
      <trkpt lat="40.250817" lon="-4.906867">
        <ele>1847.0</ele>
        <time>2015-05-23T12:18:58Z</time>
      </trkpt>
      <trkpt lat="40.250900" lon="-4.906967">
        <ele>1846.0</ele>
        <time>2015-05-23T12:19:00Z</time>
      </trkpt>
      <trkpt lat="40.250967" lon="-4.907167">
        <ele>1845.0</ele>
        <time>2015-05-23T12:19:02Z</time>
      </trkpt>
      <trkpt lat="40.251017" lon="-4.907383">
        <ele>1845.0</ele>
        <time>2015-05-23T12:19:04Z</time>
      </trkpt>
      <trkpt lat="40.251033" lon="-4.907633">
        <ele>1846.0</ele>
        <time>2015-05-23T12:19:06Z</time>
      </trkpt>
      <trkpt lat="40.251017" lon="-4.907917">
        <ele>1850.0</ele>
        <time>2015-05-23T12:19:08Z</time>
      </trkpt>
      <trkpt lat="40.250950" lon="-4.908183">
        <ele>1854.0</ele>
        <time>2015-05-23T12:19:10Z</time>
      </trkpt>
      <trkpt lat="40.250833" lon="-4.908417">
        <ele>1854.0</ele>
        <time>2015-05-23T12:19:12Z</time>
      </trkpt>
      <trkpt lat="40.250650" lon="-4.908633">
        <ele>1853.0</ele>
        <time>2015-05-23T12:19:14Z</time>
      </trkpt>
      <trkpt lat="40.250450" lon="-4.908767">
        <ele>1855.0</ele>
        <time>2015-05-23T12:19:16Z</time>
      </trkpt>
      <trkpt lat="40.250250" lon="-4.908800">
        <ele>1859.0</ele>
        <time>2015-05-23T12:19:18Z</time>
      </trkpt>
      <trkpt lat="40.250050" lon="-4.908783">
        <ele>1859.0</ele>
        <time>2015-05-23T12:19:20Z</time>
      </trkpt>
      <trkpt lat="40.249883" lon="-4.908683">
        <ele>1858.0</ele>
        <time>2015-05-23T12:19:22Z</time>
      </trkpt>
      <trkpt lat="40.249783" lon="-4.908500">
        <ele>1857.0</ele>
        <time>2015-05-23T12:19:24Z</time>
      </trkpt>
      <trkpt lat="40.249750" lon="-4.908333">
        <ele>1857.0</ele>
        <time>2015-05-23T12:19:26Z</time>
      </trkpt>
      <trkpt lat="40.249750" lon="-4.908217">
        <ele>1855.0</ele>
        <time>2015-05-23T12:19:28Z</time>
      </trkpt>
      <trkpt lat="40.249800" lon="-4.908083">
        <ele>1850.0</ele>
        <time>2015-05-23T12:19:30Z</time>
      </trkpt>
      <trkpt lat="40.249850" lon="-4.907983">
        <ele>1846.0</ele>
        <time>2015-05-23T12:19:32Z</time>
      </trkpt>
      <trkpt lat="40.249917" lon="-4.907917">
        <ele>1843.0</ele>
        <time>2015-05-23T12:19:34Z</time>
      </trkpt>
      <trkpt lat="40.250033" lon="-4.907883">
        <ele>1838.0</ele>
        <time>2015-05-23T12:19:36Z</time>
      </trkpt>
      <trkpt lat="40.250200" lon="-4.907900">
        <ele>1833.0</ele>
        <time>2015-05-23T12:19:38Z</time>
      </trkpt>
      <trkpt lat="40.250350" lon="-4.907967">
        <ele>1829.0</ele>
        <time>2015-05-23T12:19:40Z</time>
      </trkpt>
      <trkpt lat="40.250533" lon="-4.908050">
        <ele>1826.0</ele>
        <time>2015-05-23T12:19:42Z</time>
      </trkpt>
      <trkpt lat="40.250750" lon="-4.908217">
        <ele>1827.0</ele>
        <time>2015-05-23T12:19:44Z</time>
      </trkpt>
      <trkpt lat="40.250917" lon="-4.908400">
        <ele>1832.0</ele>
        <time>2015-05-23T12:19:46Z</time>
      </trkpt>
      <trkpt lat="40.251000" lon="-4.908633">
        <ele>1836.0</ele>
        <time>2015-05-23T12:19:48Z</time>
      </trkpt>
      <trkpt lat="40.250967" lon="-4.908900">
        <ele>1838.0</ele>
        <time>2015-05-23T12:19:50Z</time>
      </trkpt>
      <trkpt lat="40.250867" lon="-4.909167">
        <ele>1841.0</ele>
        <time>2015-05-23T12:19:52Z</time>
      </trkpt>
      <trkpt lat="40.250683" lon="-4.909433">
        <ele>1843.0</ele>
        <time>2015-05-23T12:19:54Z</time>
      </trkpt>
      <trkpt lat="40.250417" lon="-4.909583">
        <ele>1848.0</ele>
        <time>2015-05-23T12:19:56Z</time>
      </trkpt>
      <trkpt lat="40.250200" lon="-4.909667">
        <ele>1855.0</ele>
        <time>2015-05-23T12:19:58Z</time>
      </trkpt>
      <trkpt lat="40.250017" lon="-4.909650">
        <ele>1859.0</ele>
        <time>2015-05-23T12:20:00Z</time>
      </trkpt>
      <trkpt lat="40.249867" lon="-4.909533">
        <ele>1860.0</ele>
        <time>2015-05-23T12:20:02Z</time>
      </trkpt>
      <trkpt lat="40.249850" lon="-4.909367">
        <ele>1859.0</ele>
        <time>2015-05-23T12:20:04Z</time>
      </trkpt>
      <trkpt lat="40.249900" lon="-4.909217">
        <ele>1858.0</ele>
        <time>2015-05-23T12:20:06Z</time>
      </trkpt>
      <trkpt lat="40.250017" lon="-4.909117">
        <ele>1854.0</ele>
        <time>2015-05-23T12:20:08Z</time>
      </trkpt>
      <trkpt lat="40.250150" lon="-4.909033">
        <ele>1851.0</ele>
        <time>2015-05-23T12:20:10Z</time>
      </trkpt>
      <trkpt lat="40.250283" lon="-4.908950">
        <ele>1850.0</ele>
        <time>2015-05-23T12:20:12Z</time>
      </trkpt>
      <trkpt lat="40.250467" lon="-4.908917">
        <ele>1851.0</ele>
        <time>2015-05-23T12:20:14Z</time>
      </trkpt>
      <trkpt lat="40.250633" lon="-4.908933">
        <ele>1855.0</ele>
        <time>2015-05-23T12:20:16Z</time>
      </trkpt>
      <trkpt lat="40.250800" lon="-4.909017">
        <ele>1855.0</ele>
        <time>2015-05-23T12:20:18Z</time>
      </trkpt>
      <trkpt lat="40.250967" lon="-4.909200">
        <ele>1855.0</ele>
        <time>2015-05-23T12:20:20Z</time>
      </trkpt>
      <trkpt lat="40.251100" lon="-4.909400">
        <ele>1857.0</ele>
        <time>2015-05-23T12:20:22Z</time>
      </trkpt>
      <trkpt lat="40.251200" lon="-4.909683">
        <ele>1858.0</ele>
        <time>2015-05-23T12:20:24Z</time>
      </trkpt>
      <trkpt lat="40.251250" lon="-4.910000">
        <ele>1862.0</ele>
        <time>2015-05-23T12:20:26Z</time>
      </trkpt>
      <trkpt lat="40.251217" lon="-4.910250">
        <ele>1864.0</ele>
        <time>2015-05-23T12:20:28Z</time>
      </trkpt>
      <trkpt lat="40.251083" lon="-4.910500">
        <ele>1862.0</ele>
        <time>2015-05-23T12:20:30Z</time>
      </trkpt>
      <trkpt lat="40.250900" lon="-4.910717">
        <ele>1862.0</ele>
        <time>2015-05-23T12:20:32Z</time>
      </trkpt>
      <trkpt lat="40.250750" lon="-4.910933">
        <ele>1863.0</ele>
        <time>2015-05-23T12:20:34Z</time>
      </trkpt>
      <trkpt lat="40.250617" lon="-4.911167">
        <ele>1861.0</ele>
        <time>2015-05-23T12:20:36Z</time>
      </trkpt>
      <trkpt lat="40.250450" lon="-4.911350">
        <ele>1858.0</ele>
        <time>2015-05-23T12:20:38Z</time>
      </trkpt>
      <trkpt lat="40.250233" lon="-4.911450">
        <ele>1857.0</ele>
        <time>2015-05-23T12:20:40Z</time>
      </trkpt>
      <trkpt lat="40.250033" lon="-4.911533">
        <ele>1861.0</ele>
        <time>2015-05-23T12:20:42Z</time>
      </trkpt>
      <trkpt lat="40.249867" lon="-4.911550">
        <ele>1861.0</ele>
        <time>2015-05-23T12:20:44Z</time>
      </trkpt>
      <trkpt lat="40.249700" lon="-4.911483">
        <ele>1860.0</ele>
        <time>2015-05-23T12:20:46Z</time>
      </trkpt>
      <trkpt lat="40.249583" lon="-4.911350">
        <ele>1859.0</ele>
        <time>2015-05-23T12:20:48Z</time>
      </trkpt>
      <trkpt lat="40.249533" lon="-4.911233">
        <ele>1858.0</ele>
        <time>2015-05-23T12:20:50Z</time>
      </trkpt>
      <trkpt lat="40.249467" lon="-4.911133">
        <ele>1855.0</ele>
        <time>2015-05-23T12:20:52Z</time>
      </trkpt>
      <trkpt lat="40.249400" lon="-4.911017">
        <ele>1853.0</ele>
        <time>2015-05-23T12:20:54Z</time>
      </trkpt>
      <trkpt lat="40.249350" lon="-4.910900">
        <ele>1853.0</ele>
        <time>2015-05-23T12:20:56Z</time>
      </trkpt>
      <trkpt lat="40.249333" lon="-4.910800">
        <ele>1854.0</ele>
        <time>2015-05-23T12:20:58Z</time>
      </trkpt>
      <trkpt lat="40.249317" lon="-4.910700">
        <ele>1853.0</ele>
        <time>2015-05-23T12:21:00Z</time>
      </trkpt>
      <trkpt lat="40.249300" lon="-4.910567">
        <ele>1853.0</ele>
        <time>2015-05-23T12:21:02Z</time>
      </trkpt>
      <trkpt lat="40.249350" lon="-4.910417">
        <ele>1855.0</ele>
        <time>2015-05-23T12:21:04Z</time>
      </trkpt>
      <trkpt lat="40.249450" lon="-4.910333">
        <ele>1857.0</ele>
        <time>2015-05-23T12:21:06Z</time>
      </trkpt>
      <trkpt lat="40.249550" lon="-4.910250">
        <ele>1857.0</ele>
        <time>2015-05-23T12:21:08Z</time>
      </trkpt>
      <trkpt lat="40.249633" lon="-4.910133">
        <ele>1856.0</ele>
        <time>2015-05-23T12:21:10Z</time>
      </trkpt>
      <trkpt lat="40.249683" lon="-4.910017">
        <ele>1857.0</ele>
        <time>2015-05-23T12:21:12Z</time>
      </trkpt>
      <trkpt lat="40.249717" lon="-4.909867">
        <ele>1860.0</ele>
        <time>2015-05-23T12:21:14Z</time>
      </trkpt>
      <trkpt lat="40.249717" lon="-4.909733">
        <ele>1866.0</ele>
        <time>2015-05-23T12:21:16Z</time>
      </trkpt>
      <trkpt lat="40.249700" lon="-4.909617">
        <ele>1872.0</ele>
        <time>2015-05-23T12:21:18Z</time>
      </trkpt>
      <trkpt lat="40.249700" lon="-4.909500">
        <ele>1873.0</ele>
        <time>2015-05-23T12:21:20Z</time>
      </trkpt>
      <trkpt lat="40.249783" lon="-4.909367">
        <ele>1871.0</ele>
        <time>2015-05-23T12:21:22Z</time>
      </trkpt>
      <trkpt lat="40.249850" lon="-4.909233">
        <ele>1873.0</ele>
        <time>2015-05-23T12:21:24Z</time>
      </trkpt>
      <trkpt lat="40.249867" lon="-4.909067">
        <ele>1874.0</ele>
        <time>2015-05-23T12:21:26Z</time>
      </trkpt>
      <trkpt lat="40.249800" lon="-4.908950">
        <ele>1873.0</ele>
        <time>2015-05-23T12:21:28Z</time>
      </trkpt>
      <trkpt lat="40.249700" lon="-4.908833">
        <ele>1870.0</ele>
        <time>2015-05-23T12:21:30Z</time>
      </trkpt>
      <trkpt lat="40.249533" lon="-4.908717">
        <ele>1867.0</ele>
        <time>2015-05-23T12:21:32Z</time>
      </trkpt>
      <trkpt lat="40.249383" lon="-4.908567">
        <ele>1867.0</ele>
        <time>2015-05-23T12:21:34Z</time>
      </trkpt>
      <trkpt lat="40.249250" lon="-4.908417">
        <ele>1868.0</ele>
        <time>2015-05-23T12:21:36Z</time>
      </trkpt>
      <trkpt lat="40.249167" lon="-4.908283">
        <ele>1869.0</ele>
        <time>2015-05-23T12:21:38Z</time>
      </trkpt>
      <trkpt lat="40.249083" lon="-4.908150">
        <ele>1869.0</ele>
        <time>2015-05-23T12:21:40Z</time>
      </trkpt>
      <trkpt lat="40.249050" lon="-4.907967">
        <ele>1867.0</ele>
        <time>2015-05-23T12:21:42Z</time>
      </trkpt>
      <trkpt lat="40.249050" lon="-4.907783">
        <ele>1867.0</ele>
        <time>2015-05-23T12:21:44Z</time>
      </trkpt>
      <trkpt lat="40.249050" lon="-4.907617">
        <ele>1866.0</ele>
        <time>2015-05-23T12:21:46Z</time>
      </trkpt>
      <trkpt lat="40.249033" lon="-4.907433">
        <ele>1864.0</ele>
        <time>2015-05-23T12:21:48Z</time>
      </trkpt>
      <trkpt lat="40.249000" lon="-4.907233">
        <ele>1863.0</ele>
        <time>2015-05-23T12:21:50Z</time>
      </trkpt>
      <trkpt lat="40.248950" lon="-4.907067">
        <ele>1863.0</ele>
        <time>2015-05-23T12:21:52Z</time>
      </trkpt>
      <trkpt lat="40.248883" lon="-4.906883">
        <ele>1861.0</ele>
        <time>2015-05-23T12:21:54Z</time>
      </trkpt>
      <trkpt lat="40.248800" lon="-4.906700">
        <ele>1859.0</ele>
        <time>2015-05-23T12:21:56Z</time>
      </trkpt>
      <trkpt lat="40.248700" lon="-4.906517">
        <ele>1858.0</ele>
        <time>2015-05-23T12:21:58Z</time>
      </trkpt>
      <trkpt lat="40.248600" lon="-4.906333">
        <ele>1855.0</ele>
        <time>2015-05-23T12:22:00Z</time>
      </trkpt>
      <trkpt lat="40.248500" lon="-4.906167">
        <ele>1851.0</ele>
        <time>2015-05-23T12:22:02Z</time>
      </trkpt>
      <trkpt lat="40.248400" lon="-4.905967">
        <ele>1847.0</ele>
        <time>2015-05-23T12:22:04Z</time>
      </trkpt>
      <trkpt lat="40.248317" lon="-4.905767">
        <ele>1844.0</ele>
        <time>2015-05-23T12:22:06Z</time>
      </trkpt>
      <trkpt lat="40.248233" lon="-4.905567">
        <ele>1843.0</ele>
        <time>2015-05-23T12:22:08Z</time>
      </trkpt>
      <trkpt lat="40.248167" lon="-4.905367">
        <ele>1841.0</ele>
        <time>2015-05-23T12:22:10Z</time>
      </trkpt>
      <trkpt lat="40.248083" lon="-4.905183">
        <ele>1839.0</ele>
        <time>2015-05-23T12:22:12Z</time>
      </trkpt>
      <trkpt lat="40.248033" lon="-4.904983">
        <ele>1834.0</ele>
        <time>2015-05-23T12:22:14Z</time>
      </trkpt>
      <trkpt lat="40.247967" lon="-4.904750">
        <ele>1830.0</ele>
        <time>2015-05-23T12:22:16Z</time>
      </trkpt>
      <trkpt lat="40.247917" lon="-4.904533">
        <ele>1829.0</ele>
        <time>2015-05-23T12:22:18Z</time>
      </trkpt>
      <trkpt lat="40.247850" lon="-4.904333">
        <ele>1827.0</ele>
        <time>2015-05-23T12:22:20Z</time>
      </trkpt>
      <trkpt lat="40.247783" lon="-4.904117">
        <ele>1824.0</ele>
        <time>2015-05-23T12:22:22Z</time>
      </trkpt>
      <trkpt lat="40.247733" lon="-4.903900">
        <ele>1823.0</ele>
        <time>2015-05-23T12:22:24Z</time>
      </trkpt>
      <trkpt lat="40.247683" lon="-4.903700">
        <ele>1823.0</ele>
        <time>2015-05-23T12:22:26Z</time>
      </trkpt>
      <trkpt lat="40.247650" lon="-4.903483">
        <ele>1822.0</ele>
        <time>2015-05-23T12:22:28Z</time>
      </trkpt>
      <trkpt lat="40.247600" lon="-4.903283">
        <ele>1821.0</ele>
        <time>2015-05-23T12:22:30Z</time>
      </trkpt>
      <trkpt lat="40.247567" lon="-4.903083">
        <ele>1819.0</ele>
        <time>2015-05-23T12:22:32Z</time>
      </trkpt>
      <trkpt lat="40.247533" lon="-4.902883">
        <ele>1818.0</ele>
        <time>2015-05-23T12:22:34Z</time>
      </trkpt>
      <trkpt lat="40.247500" lon="-4.902683">
        <ele>1817.0</ele>
        <time>2015-05-23T12:22:36Z</time>
      </trkpt>
      <trkpt lat="40.247483" lon="-4.902500">
        <ele>1816.0</ele>
        <time>2015-05-23T12:22:38Z</time>
      </trkpt>
      <trkpt lat="40.247483" lon="-4.902333">
        <ele>1816.0</ele>
        <time>2015-05-23T12:22:40Z</time>
      </trkpt>
      <trkpt lat="40.247500" lon="-4.902167">
        <ele>1814.0</ele>
        <time>2015-05-23T12:22:42Z</time>
      </trkpt>
      <trkpt lat="40.247500" lon="-4.901967">
        <ele>1812.0</ele>
        <time>2015-05-23T12:22:44Z</time>
      </trkpt>
      <trkpt lat="40.247500" lon="-4.901767">
        <ele>1812.0</ele>
        <time>2015-05-23T12:22:46Z</time>
      </trkpt>
      <trkpt lat="40.247500" lon="-4.901583">
        <ele>1812.0</ele>
        <time>2015-05-23T12:22:48Z</time>
      </trkpt>
      <trkpt lat="40.247450" lon="-4.901417">
        <ele>1812.0</ele>
        <time>2015-05-23T12:22:50Z</time>
      </trkpt>
      <trkpt lat="40.247400" lon="-4.901233">
        <ele>1811.0</ele>
        <time>2015-05-23T12:22:52Z</time>
      </trkpt>
      <trkpt lat="40.247350" lon="-4.901033">
        <ele>1809.0</ele>
        <time>2015-05-23T12:22:54Z</time>
      </trkpt>
      <trkpt lat="40.247317" lon="-4.900850">
        <ele>1810.0</ele>
        <time>2015-05-23T12:22:56Z</time>
      </trkpt>
      <trkpt lat="40.247300" lon="-4.900700">
        <ele>1811.0</ele>
        <time>2015-05-23T12:22:58Z</time>
      </trkpt>
      <trkpt lat="40.247300" lon="-4.900550">
        <ele>1807.0</ele>
        <time>2015-05-23T12:23:00Z</time>
      </trkpt>
      <trkpt lat="40.247317" lon="-4.900367">
        <ele>1805.0</ele>
        <time>2015-05-23T12:23:02Z</time>
      </trkpt>
      <trkpt lat="40.247333" lon="-4.900200">
        <ele>1804.0</ele>
        <time>2015-05-23T12:23:04Z</time>
      </trkpt>
      <trkpt lat="40.247333" lon="-4.900050">
        <ele>1801.0</ele>
        <time>2015-05-23T12:23:06Z</time>
      </trkpt>
      <trkpt lat="40.247350" lon="-4.899850">
        <ele>1796.0</ele>
        <time>2015-05-23T12:23:08Z</time>
      </trkpt>
      <trkpt lat="40.247350" lon="-4.899650">
        <ele>1794.0</ele>
        <time>2015-05-23T12:23:10Z</time>
      </trkpt>
      <trkpt lat="40.247350" lon="-4.899483">
        <ele>1791.0</ele>
        <time>2015-05-23T12:23:12Z</time>
      </trkpt>
      <trkpt lat="40.247367" lon="-4.899317">
        <ele>1784.0</ele>
        <time>2015-05-23T12:23:14Z</time>
      </trkpt>
      <trkpt lat="40.247433" lon="-4.899150">
        <ele>1783.0</ele>
        <time>2015-05-23T12:23:16Z</time>
      </trkpt>
      <trkpt lat="40.247467" lon="-4.899017">
        <ele>1785.0</ele>
        <time>2015-05-23T12:23:18Z</time>
      </trkpt>
      <trkpt lat="40.247483" lon="-4.898867">
        <ele>1783.0</ele>
        <time>2015-05-23T12:23:20Z</time>
      </trkpt>
      <trkpt lat="40.247517" lon="-4.898717">
        <ele>1782.0</ele>
        <time>2015-05-23T12:23:22Z</time>
      </trkpt>
      <trkpt lat="40.247517" lon="-4.898583">
        <ele>1783.0</ele>
        <time>2015-05-23T12:23:24Z</time>
      </trkpt>
      <trkpt lat="40.247517" lon="-4.898450">
        <ele>1782.0</ele>
        <time>2015-05-23T12:23:26Z</time>
      </trkpt>
      <trkpt lat="40.247533" lon="-4.898317">
        <ele>1780.0</ele>
        <time>2015-05-23T12:23:28Z</time>
      </trkpt>
      <trkpt lat="40.247600" lon="-4.898183">
        <ele>1777.0</ele>
        <time>2015-05-23T12:23:30Z</time>
      </trkpt>
      <trkpt lat="40.247667" lon="-4.898067">
        <ele>1776.0</ele>
        <time>2015-05-23T12:23:32Z</time>
      </trkpt>
      <trkpt lat="40.247750" lon="-4.898000">
        <ele>1776.0</ele>
        <time>2015-05-23T12:23:34Z</time>
      </trkpt>
      <trkpt lat="40.247850" lon="-4.897983">
        <ele>1775.0</ele>
        <time>2015-05-23T12:23:36Z</time>
      </trkpt>
      <trkpt lat="40.247933" lon="-4.897950">
        <ele>1773.0</ele>
        <time>2015-05-23T12:23:38Z</time>
      </trkpt>
      <trkpt lat="40.248017" lon="-4.897900">
        <ele>1770.0</ele>
        <time>2015-05-23T12:23:40Z</time>
      </trkpt>
      <trkpt lat="40.248083" lon="-4.897800">
        <ele>1767.0</ele>
        <time>2015-05-23T12:23:42Z</time>
      </trkpt>
      <trkpt lat="40.248133" lon="-4.897700">
        <ele>1765.0</ele>
        <time>2015-05-23T12:23:44Z</time>
      </trkpt>
      <trkpt lat="40.248183" lon="-4.897600">
        <ele>1761.0</ele>
        <time>2015-05-23T12:23:46Z</time>
      </trkpt>
      <trkpt lat="40.248233" lon="-4.897517">
        <ele>1756.0</ele>
        <time>2015-05-23T12:23:48Z</time>
      </trkpt>
      <trkpt lat="40.248317" lon="-4.897433">
        <ele>1750.0</ele>
        <time>2015-05-23T12:23:50Z</time>
      </trkpt>
      <trkpt lat="40.248383" lon="-4.897333">
        <ele>1747.0</ele>
        <time>2015-05-23T12:23:52Z</time>
      </trkpt>
      <trkpt lat="40.248433" lon="-4.897250">
        <ele>1744.0</ele>
        <time>2015-05-23T12:23:54Z</time>
      </trkpt>
      <trkpt lat="40.248450" lon="-4.897150">
        <ele>1738.0</ele>
        <time>2015-05-23T12:23:56Z</time>
      </trkpt>
      <trkpt lat="40.248467" lon="-4.897000">
        <ele>1731.0</ele>
        <time>2015-05-23T12:23:58Z</time>
      </trkpt>
      <trkpt lat="40.248483" lon="-4.896850">
        <ele>1725.0</ele>
        <time>2015-05-23T12:24:00Z</time>
      </trkpt>
      <trkpt lat="40.248533" lon="-4.896717">
        <ele>1720.0</ele>
        <time>2015-05-23T12:24:02Z</time>
      </trkpt>
      <trkpt lat="40.248567" lon="-4.896583">
        <ele>1717.0</ele>
        <time>2015-05-23T12:24:04Z</time>
      </trkpt>
      <trkpt lat="40.248617" lon="-4.896450">
        <ele>1713.0</ele>
        <time>2015-05-23T12:24:06Z</time>
      </trkpt>
      <trkpt lat="40.248633" lon="-4.896300">
        <ele>1712.0</ele>
        <time>2015-05-23T12:24:08Z</time>
      </trkpt>
      <trkpt lat="40.248633" lon="-4.896183">
        <ele>1713.0</ele>
        <time>2015-05-23T12:24:10Z</time>
      </trkpt>
      <trkpt lat="40.248683" lon="-4.896100">
        <ele>1714.0</ele>
        <time>2015-05-23T12:24:12Z</time>
      </trkpt>
      <trkpt lat="40.248767" lon="-4.896100">
        <ele>1712.0</ele>
        <time>2015-05-23T12:24:14Z</time>
      </trkpt>
      <trkpt lat="40.248900" lon="-4.896100">
        <ele>1709.0</ele>
        <time>2015-05-23T12:24:16Z</time>
      </trkpt>
      <trkpt lat="40.249017" lon="-4.896117">
        <ele>1708.0</ele>
        <time>2015-05-23T12:24:18Z</time>
      </trkpt>
      <trkpt lat="40.249133" lon="-4.896083">
        <ele>1708.0</ele>
        <time>2015-05-23T12:24:20Z</time>
      </trkpt>
      <trkpt lat="40.249167" lon="-4.896017">
        <ele>1708.0</ele>
        <time>2015-05-23T12:24:22Z</time>
      </trkpt>
      <trkpt lat="40.249167" lon="-4.895917">
        <ele>1708.0</ele>
        <time>2015-05-23T12:24:24Z</time>
      </trkpt>
      <trkpt lat="40.249083" lon="-4.895783">
        <ele>1705.0</ele>
        <time>2015-05-23T12:24:26Z</time>
      </trkpt>
      <trkpt lat="40.248983" lon="-4.895667">
        <ele>1707.0</ele>
        <time>2015-05-23T12:24:28Z</time>
      </trkpt>
      <trkpt lat="40.248900" lon="-4.895583">
        <ele>1708.0</ele>
        <time>2015-05-23T12:24:30Z</time>
      </trkpt>
      <trkpt lat="40.248833" lon="-4.895500">
        <ele>1709.0</ele>
        <time>2015-05-23T12:24:32Z</time>
      </trkpt>
      <trkpt lat="40.248783" lon="-4.895417">
        <ele>1713.0</ele>
        <time>2015-05-23T12:24:34Z</time>
      </trkpt>
      <trkpt lat="40.248783" lon="-4.895333">
        <ele>1715.0</ele>
        <time>2015-05-23T12:24:36Z</time>
      </trkpt>
      <trkpt lat="40.248867" lon="-4.895250">
        <ele>1714.0</ele>
        <time>2015-05-23T12:24:38Z</time>
      </trkpt>
      <trkpt lat="40.249000" lon="-4.895233">
        <ele>1715.0</ele>
        <time>2015-05-23T12:24:40Z</time>
      </trkpt>
      <trkpt lat="40.249083" lon="-4.895167">
        <ele>1718.0</ele>
        <time>2015-05-23T12:24:42Z</time>
      </trkpt>
      <trkpt lat="40.249167" lon="-4.895133">
        <ele>1720.0</ele>
        <time>2015-05-23T12:24:44Z</time>
      </trkpt>
      <trkpt lat="40.249283" lon="-4.895083">
        <ele>1718.0</ele>
        <time>2015-05-23T12:24:46Z</time>
      </trkpt>
      <trkpt lat="40.249433" lon="-4.895050">
        <ele>1721.0</ele>
        <time>2015-05-23T12:24:48Z</time>
      </trkpt>
      <trkpt lat="40.249533" lon="-4.895050">
        <ele>1724.0</ele>
        <time>2015-05-23T12:24:50Z</time>
      </trkpt>
      <trkpt lat="40.249633" lon="-4.895117">
        <ele>1724.0</ele>
        <time>2015-05-23T12:24:52Z</time>
      </trkpt>
      <trkpt lat="40.249733" lon="-4.895217">
        <ele>1721.0</ele>
        <time>2015-05-23T12:24:54Z</time>
      </trkpt>
      <trkpt lat="40.249833" lon="-4.895400">
        <ele>1718.0</ele>
        <time>2015-05-23T12:24:56Z</time>
      </trkpt>
      <trkpt lat="40.249900" lon="-4.895583">
        <ele>1716.0</ele>
        <time>2015-05-23T12:24:58Z</time>
      </trkpt>
      <trkpt lat="40.249933" lon="-4.895800">
        <ele>1714.0</ele>
        <time>2015-05-23T12:25:00Z</time>
      </trkpt>
      <trkpt lat="40.249933" lon="-4.896050">
        <ele>1710.0</ele>
        <time>2015-05-23T12:25:02Z</time>
      </trkpt>
      <trkpt lat="40.249883" lon="-4.896300">
        <ele>1707.0</ele>
        <time>2015-05-23T12:25:04Z</time>
      </trkpt>
      <trkpt lat="40.249783" lon="-4.896533">
        <ele>1702.0</ele>
        <time>2015-05-23T12:25:06Z</time>
      </trkpt>
      <trkpt lat="40.249667" lon="-4.896800">
        <ele>1695.0</ele>
        <time>2015-05-23T12:25:08Z</time>
      </trkpt>
      <trkpt lat="40.249567" lon="-4.897150">
        <ele>1691.0</ele>
        <time>2015-05-23T12:25:10Z</time>
      </trkpt>
      <trkpt lat="40.249467" lon="-4.897467">
        <ele>1693.0</ele>
        <time>2015-05-23T12:25:12Z</time>
      </trkpt>
      <trkpt lat="40.249417" lon="-4.897750">
        <ele>1692.0</ele>
        <time>2015-05-23T12:25:14Z</time>
      </trkpt>
      <trkpt lat="40.249383" lon="-4.898050">
        <ele>1690.0</ele>
        <time>2015-05-23T12:25:16Z</time>
      </trkpt>
      <trkpt lat="40.249267" lon="-4.898367">
        <ele>1687.0</ele>
        <time>2015-05-23T12:25:18Z</time>
      </trkpt>
      <trkpt lat="40.249133" lon="-4.898633">
        <ele>1686.0</ele>
        <time>2015-05-23T12:25:20Z</time>
      </trkpt>
      <trkpt lat="40.248950" lon="-4.898817">
        <ele>1684.0</ele>
        <time>2015-05-23T12:25:22Z</time>
      </trkpt>
      <trkpt lat="40.248750" lon="-4.898967">
        <ele>1680.0</ele>
        <time>2015-05-23T12:25:24Z</time>
      </trkpt>
      <trkpt lat="40.248550" lon="-4.899033">
        <ele>1677.0</ele>
        <time>2015-05-23T12:25:26Z</time>
      </trkpt>
      <trkpt lat="40.248383" lon="-4.899033">
        <ele>1676.0</ele>
        <time>2015-05-23T12:25:28Z</time>
      </trkpt>
      <trkpt lat="40.248217" lon="-4.899000">
        <ele>1671.0</ele>
        <time>2015-05-23T12:25:30Z</time>
      </trkpt>
      <trkpt lat="40.248033" lon="-4.898917">
        <ele>1669.0</ele>
        <time>2015-05-23T12:25:32Z</time>
      </trkpt>
      <trkpt lat="40.247883" lon="-4.898833">
        <ele>1670.0</ele>
        <time>2015-05-23T12:25:34Z</time>
      </trkpt>
      <trkpt lat="40.247767" lon="-4.898750">
        <ele>1670.0</ele>
        <time>2015-05-23T12:25:36Z</time>
      </trkpt>
      <trkpt lat="40.247667" lon="-4.898633">
        <ele>1668.0</ele>
        <time>2015-05-23T12:25:38Z</time>
      </trkpt>
      <trkpt lat="40.247617" lon="-4.898500">
        <ele>1666.0</ele>
        <time>2015-05-23T12:25:40Z</time>
      </trkpt>
      <trkpt lat="40.247600" lon="-4.898400">
        <ele>1666.0</ele>
        <time>2015-05-23T12:25:42Z</time>
      </trkpt>
      <trkpt lat="40.247583" lon="-4.898283">
        <ele>1666.0</ele>
        <time>2015-05-23T12:25:44Z</time>
      </trkpt>
      <trkpt lat="40.247550" lon="-4.898183">
        <ele>1667.0</ele>
        <time>2015-05-23T12:25:46Z</time>
      </trkpt>
      <trkpt lat="40.247517" lon="-4.898083">
        <ele>1668.0</ele>
        <time>2015-05-23T12:25:48Z</time>
      </trkpt>
      <trkpt lat="40.247500" lon="-4.898000">
        <ele>1667.0</ele>
        <time>2015-05-23T12:25:50Z</time>
      </trkpt>
      <trkpt lat="40.247500" lon="-4.897917">
        <ele>1665.0</ele>
        <time>2015-05-23T12:25:52Z</time>
      </trkpt>
      <trkpt lat="40.247533" lon="-4.897817">
        <ele>1663.0</ele>
        <time>2015-05-23T12:25:54Z</time>
      </trkpt>
      <trkpt lat="40.247583" lon="-4.897733">
        <ele>1663.0</ele>
        <time>2015-05-23T12:25:56Z</time>
      </trkpt>
      <trkpt lat="40.247650" lon="-4.897667">
        <ele>1662.0</ele>
        <time>2015-05-23T12:25:58Z</time>
      </trkpt>
      <trkpt lat="40.247717" lon="-4.897583">
        <ele>1662.0</ele>
        <time>2015-05-23T12:26:00Z</time>
      </trkpt>
      <trkpt lat="40.247800" lon="-4.897517">
        <ele>1664.0</ele>
        <time>2015-05-23T12:26:02Z</time>
      </trkpt>
      <trkpt lat="40.247867" lon="-4.897483">
        <ele>1664.0</ele>
        <time>2015-05-23T12:26:04Z</time>
      </trkpt>
      <trkpt lat="40.247967" lon="-4.897450">
        <ele>1661.0</ele>
        <time>2015-05-23T12:26:06Z</time>
      </trkpt>
      <trkpt lat="40.248100" lon="-4.897400">
        <ele>1658.0</ele>
        <time>2015-05-23T12:26:08Z</time>
      </trkpt>
      <trkpt lat="40.248217" lon="-4.897383">
        <ele>1656.0</ele>
        <time>2015-05-23T12:26:10Z</time>
      </trkpt>
      <trkpt lat="40.248350" lon="-4.897333">
        <ele>1653.0</ele>
        <time>2015-05-23T12:26:12Z</time>
      </trkpt>
      <trkpt lat="40.248450" lon="-4.897250">
        <ele>1651.0</ele>
        <time>2015-05-23T12:26:14Z</time>
      </trkpt>
      <trkpt lat="40.248517" lon="-4.897150">
        <ele>1649.0</ele>
        <time>2015-05-23T12:26:16Z</time>
      </trkpt>
      <trkpt lat="40.248567" lon="-4.897017">
        <ele>1644.0</ele>
        <time>2015-05-23T12:26:18Z</time>
      </trkpt>
      <trkpt lat="40.248633" lon="-4.896867">
        <ele>1638.0</ele>
        <time>2015-05-23T12:26:20Z</time>
      </trkpt>
      <trkpt lat="40.248717" lon="-4.896717">
        <ele>1634.0</ele>
        <time>2015-05-23T12:26:22Z</time>
      </trkpt>
      <trkpt lat="40.248767" lon="-4.896583">
        <ele>1632.0</ele>
        <time>2015-05-23T12:26:24Z</time>
      </trkpt>
      <trkpt lat="40.248817" lon="-4.896450">
        <ele>1629.0</ele>
        <time>2015-05-23T12:26:26Z</time>
      </trkpt>
      <trkpt lat="40.248867" lon="-4.896317">
        <ele>1625.0</ele>
        <time>2015-05-23T12:26:28Z</time>
      </trkpt>
      <trkpt lat="40.248900" lon="-4.896167">
        <ele>1621.0</ele>
        <time>2015-05-23T12:26:30Z</time>
      </trkpt>
      <trkpt lat="40.248933" lon="-4.896033">
        <ele>1618.0</ele>
        <time>2015-05-23T12:26:32Z</time>
      </trkpt>
      <trkpt lat="40.248950" lon="-4.895883">
        <ele>1614.0</ele>
        <time>2015-05-23T12:26:34Z</time>
      </trkpt>
      <trkpt lat="40.248950" lon="-4.895733">
        <ele>1612.0</ele>
        <time>2015-05-23T12:26:36Z</time>
      </trkpt>
      <trkpt lat="40.248917" lon="-4.895583">
        <ele>1610.0</ele>
        <time>2015-05-23T12:26:38Z</time>
      </trkpt>
      <trkpt lat="40.248883" lon="-4.895433">
        <ele>1607.0</ele>
        <time>2015-05-23T12:26:40Z</time>
      </trkpt>
      <trkpt lat="40.248817" lon="-4.895267">
        <ele>1604.0</ele>
        <time>2015-05-23T12:26:42Z</time>
      </trkpt>
      <trkpt lat="40.248767" lon="-4.895100">
        <ele>1602.0</ele>
        <time>2015-05-23T12:26:44Z</time>
      </trkpt>
      <trkpt lat="40.248700" lon="-4.894933">
        <ele>1600.0</ele>
        <time>2015-05-23T12:26:46Z</time>
      </trkpt>
      <trkpt lat="40.248650" lon="-4.894767">
        <ele>1597.0</ele>
        <time>2015-05-23T12:26:48Z</time>
      </trkpt>
      <trkpt lat="40.248567" lon="-4.894600">
        <ele>1593.0</ele>
        <time>2015-05-23T12:26:50Z</time>
      </trkpt>
      <trkpt lat="40.248450" lon="-4.894450">
        <ele>1590.0</ele>
        <time>2015-05-23T12:26:52Z</time>
      </trkpt>
      <trkpt lat="40.248300" lon="-4.894350">
        <ele>1587.0</ele>
        <time>2015-05-23T12:26:54Z</time>
      </trkpt>
      <trkpt lat="40.248167" lon="-4.894267">
        <ele>1583.0</ele>
        <time>2015-05-23T12:26:56Z</time>
      </trkpt>
      <trkpt lat="40.248017" lon="-4.894133">
        <ele>1576.0</ele>
        <time>2015-05-23T12:26:58Z</time>
      </trkpt>
      <trkpt lat="40.247833" lon="-4.894050">
        <ele>1571.0</ele>
        <time>2015-05-23T12:27:00Z</time>
      </trkpt>
      <trkpt lat="40.247650" lon="-4.894083">
        <ele>1566.0</ele>
        <time>2015-05-23T12:27:02Z</time>
      </trkpt>
      <trkpt lat="40.247500" lon="-4.894233">
        <ele>1563.0</ele>
        <time>2015-05-23T12:27:04Z</time>
      </trkpt>
      <trkpt lat="40.247400" lon="-4.894483">
        <ele>1560.0</ele>
        <time>2015-05-23T12:27:06Z</time>
      </trkpt>
      <trkpt lat="40.247400" lon="-4.894783">
        <ele>1559.0</ele>
        <time>2015-05-23T12:27:08Z</time>
      </trkpt>
      <trkpt lat="40.247400" lon="-4.895017">
        <ele>1560.0</ele>
        <time>2015-05-23T12:27:10Z</time>
      </trkpt>
      <trkpt lat="40.247317" lon="-4.895267">
        <ele>1555.0</ele>
        <time>2015-05-23T12:27:12Z</time>
      </trkpt>
      <trkpt lat="40.247217" lon="-4.895567">
        <ele>1553.0</ele>
        <time>2015-05-23T12:27:14Z</time>
      </trkpt>
      <trkpt lat="40.247067" lon="-4.895850">
        <ele>1554.0</ele>
        <time>2015-05-23T12:27:16Z</time>
      </trkpt>
      <trkpt lat="40.246883" lon="-4.896033">
        <ele>1558.0</ele>
        <time>2015-05-23T12:27:18Z</time>
      </trkpt>
      <trkpt lat="40.246700" lon="-4.896167">
        <ele>1564.0</ele>
        <time>2015-05-23T12:27:20Z</time>
      </trkpt>
      <trkpt lat="40.246517" lon="-4.896233">
        <ele>1568.0</ele>
        <time>2015-05-23T12:27:22Z</time>
      </trkpt>
      <trkpt lat="40.246317" lon="-4.896250">
        <ele>1572.0</ele>
        <time>2015-05-23T12:27:24Z</time>
      </trkpt>
      <trkpt lat="40.246150" lon="-4.896167">
        <ele>1574.0</ele>
        <time>2015-05-23T12:27:26Z</time>
      </trkpt>
      <trkpt lat="40.246000" lon="-4.896000">
        <ele>1575.0</ele>
        <time>2015-05-23T12:27:28Z</time>
      </trkpt>
      <trkpt lat="40.245917" lon="-4.895833">
        <ele>1579.0</ele>
        <time>2015-05-23T12:27:30Z</time>
      </trkpt>
      <trkpt lat="40.245917" lon="-4.895667">
        <ele>1582.0</ele>
        <time>2015-05-23T12:27:32Z</time>
      </trkpt>
      <trkpt lat="40.245967" lon="-4.895583">
        <ele>1585.0</ele>
        <time>2015-05-23T12:27:34Z</time>
      </trkpt>
      <trkpt lat="40.246050" lon="-4.895600">
        <ele>1585.0</ele>
        <time>2015-05-23T12:27:36Z</time>
      </trkpt>
      <trkpt lat="40.246167" lon="-4.895700">
        <ele>1585.0</ele>
        <time>2015-05-23T12:27:38Z</time>
      </trkpt>
      <trkpt lat="40.246283" lon="-4.895867">
        <ele>1590.0</ele>
        <time>2015-05-23T12:27:40Z</time>
      </trkpt>
      <trkpt lat="40.246317" lon="-4.896017">
        <ele>1595.0</ele>
        <time>2015-05-23T12:27:42Z</time>
      </trkpt>
      <trkpt lat="40.246317" lon="-4.896250">
        <ele>1594.0</ele>
        <time>2015-05-23T12:27:44Z</time>
      </trkpt>
      <trkpt lat="40.246217" lon="-4.896550">
        <ele>1592.0</ele>
        <time>2015-05-23T12:27:46Z</time>
      </trkpt>
      <trkpt lat="40.246000" lon="-4.896750">
        <ele>1594.0</ele>
        <time>2015-05-23T12:27:48Z</time>
      </trkpt>
      <trkpt lat="40.245783" lon="-4.896817">
        <ele>1600.0</ele>
        <time>2015-05-23T12:27:50Z</time>
      </trkpt>
      <trkpt lat="40.245633" lon="-4.896817">
        <ele>1603.0</ele>
        <time>2015-05-23T12:27:52Z</time>
      </trkpt>
      <trkpt lat="40.245450" lon="-4.896783">
        <ele>1601.0</ele>
        <time>2015-05-23T12:27:54Z</time>
      </trkpt>
      <trkpt lat="40.245233" lon="-4.896683">
        <ele>1602.0</ele>
        <time>2015-05-23T12:27:56Z</time>
      </trkpt>
      <trkpt lat="40.245100" lon="-4.896550">
        <ele>1607.0</ele>
        <time>2015-05-23T12:27:58Z</time>
      </trkpt>
      <trkpt lat="40.245017" lon="-4.896433">
        <ele>1608.0</ele>
        <time>2015-05-23T12:28:00Z</time>
      </trkpt>
      <trkpt lat="40.245000" lon="-4.896283">
        <ele>1608.0</ele>
        <time>2015-05-23T12:28:02Z</time>
      </trkpt>
      <trkpt lat="40.245033" lon="-4.896117">
        <ele>1609.0</ele>
        <time>2015-05-23T12:28:04Z</time>
      </trkpt>
      <trkpt lat="40.245100" lon="-4.896033">
        <ele>1610.0</ele>
        <time>2015-05-23T12:28:06Z</time>
      </trkpt>
      <trkpt lat="40.245200" lon="-4.896000">
        <ele>1611.0</ele>
        <time>2015-05-23T12:28:08Z</time>
      </trkpt>
      <trkpt lat="40.245317" lon="-4.896017">
        <ele>1611.0</ele>
        <time>2015-05-23T12:28:10Z</time>
      </trkpt>
      <trkpt lat="40.245433" lon="-4.896083">
        <ele>1609.0</ele>
        <time>2015-05-23T12:28:12Z</time>
      </trkpt>
      <trkpt lat="40.245533" lon="-4.896183">
        <ele>1610.0</ele>
        <time>2015-05-23T12:28:14Z</time>
      </trkpt>
      <trkpt lat="40.245600" lon="-4.896300">
        <ele>1612.0</ele>
        <time>2015-05-23T12:28:16Z</time>
      </trkpt>
      <trkpt lat="40.245717" lon="-4.896450">
        <ele>1612.0</ele>
        <time>2015-05-23T12:28:18Z</time>
      </trkpt>
      <trkpt lat="40.245833" lon="-4.896650">
        <ele>1616.0</ele>
        <time>2015-05-23T12:28:20Z</time>
      </trkpt>
      <trkpt lat="40.245900" lon="-4.896867">
        <ele>1616.0</ele>
        <time>2015-05-23T12:28:22Z</time>
      </trkpt>
      <trkpt lat="40.245933" lon="-4.897150">
        <ele>1617.0</ele>
        <time>2015-05-23T12:28:24Z</time>
      </trkpt>
      <trkpt lat="40.245917" lon="-4.897367">
        <ele>1622.0</ele>
        <time>2015-05-23T12:28:26Z</time>
      </trkpt>
      <trkpt lat="40.245850" lon="-4.897550">
        <ele>1622.0</ele>
        <time>2015-05-23T12:28:28Z</time>
      </trkpt>
      <trkpt lat="40.245650" lon="-4.897717">
        <ele>1617.0</ele>
        <time>2015-05-23T12:28:30Z</time>
      </trkpt>
      <trkpt lat="40.245400" lon="-4.897783">
        <ele>1616.0</ele>
        <time>2015-05-23T12:28:32Z</time>
      </trkpt>
      <trkpt lat="40.245200" lon="-4.897767">
        <ele>1615.0</ele>
        <time>2015-05-23T12:28:34Z</time>
      </trkpt>
      <trkpt lat="40.245000" lon="-4.897700">
        <ele>1612.0</ele>
        <time>2015-05-23T12:28:36Z</time>
      </trkpt>
      <trkpt lat="40.244817" lon="-4.897567">
        <ele>1610.0</ele>
        <time>2015-05-23T12:28:38Z</time>
      </trkpt>
      <trkpt lat="40.244717" lon="-4.897367">
        <ele>1609.0</ele>
        <time>2015-05-23T12:28:40Z</time>
      </trkpt>
      <trkpt lat="40.244633" lon="-4.897200">
        <ele>1610.0</ele>
        <time>2015-05-23T12:28:42Z</time>
      </trkpt>
      <trkpt lat="40.244617" lon="-4.897033">
        <ele>1611.0</ele>
        <time>2015-05-23T12:28:44Z</time>
      </trkpt>
      <trkpt lat="40.244650" lon="-4.896917">
        <ele>1610.0</ele>
        <time>2015-05-23T12:28:46Z</time>
      </trkpt>
      <trkpt lat="40.244750" lon="-4.896850">
        <ele>1609.0</ele>
        <time>2015-05-23T12:28:48Z</time>
      </trkpt>
      <trkpt lat="40.244867" lon="-4.896867">
        <ele>1606.0</ele>
        <time>2015-05-23T12:28:50Z</time>
      </trkpt>
      <trkpt lat="40.244983" lon="-4.896900">
        <ele>1603.0</ele>
        <time>2015-05-23T12:28:52Z</time>
      </trkpt>
      <trkpt lat="40.245100" lon="-4.896950">
        <ele>1599.0</ele>
        <time>2015-05-23T12:28:54Z</time>
      </trkpt>
      <trkpt lat="40.245217" lon="-4.896983">
        <ele>1596.0</ele>
        <time>2015-05-23T12:28:56Z</time>
      </trkpt>
      <trkpt lat="40.245350" lon="-4.896967">
        <ele>1592.0</ele>
        <time>2015-05-23T12:28:58Z</time>
      </trkpt>
      <trkpt lat="40.245467" lon="-4.896950">
        <ele>1590.0</ele>
        <time>2015-05-23T12:29:00Z</time>
      </trkpt>
      <trkpt lat="40.245567" lon="-4.896950">
        <ele>1588.0</ele>
        <time>2015-05-23T12:29:02Z</time>
      </trkpt>
      <trkpt lat="40.245667" lon="-4.896950">
        <ele>1584.0</ele>
        <time>2015-05-23T12:29:04Z</time>
      </trkpt>
      <trkpt lat="40.245800" lon="-4.896983">
        <ele>1579.0</ele>
        <time>2015-05-23T12:29:06Z</time>
      </trkpt>
      <trkpt lat="40.245917" lon="-4.896983">
        <ele>1576.0</ele>
        <time>2015-05-23T12:29:08Z</time>
      </trkpt>
      <trkpt lat="40.246017" lon="-4.897000">
        <ele>1570.0</ele>
        <time>2015-05-23T12:29:10Z</time>
      </trkpt>
      <trkpt lat="40.246117" lon="-4.896950">
        <ele>1563.0</ele>
        <time>2015-05-23T12:29:12Z</time>
      </trkpt>
      <trkpt lat="40.246217" lon="-4.896833">
        <ele>1558.0</ele>
        <time>2015-05-23T12:29:14Z</time>
      </trkpt>
      <trkpt lat="40.246267" lon="-4.896700">
        <ele>1554.0</ele>
        <time>2015-05-23T12:29:16Z</time>
      </trkpt>
      <trkpt lat="40.246300" lon="-4.896550">
        <ele>1549.0</ele>
        <time>2015-05-23T12:29:18Z</time>
      </trkpt>
      <trkpt lat="40.246333" lon="-4.896417">
        <ele>1544.0</ele>
        <time>2015-05-23T12:29:20Z</time>
      </trkpt>
      <trkpt lat="40.246367" lon="-4.896267">
        <ele>1540.0</ele>
        <time>2015-05-23T12:29:22Z</time>
      </trkpt>
      <trkpt lat="40.246417" lon="-4.896133">
        <ele>1538.0</ele>
        <time>2015-05-23T12:29:24Z</time>
      </trkpt>
      <trkpt lat="40.246467" lon="-4.896017">
        <ele>1534.0</ele>
        <time>2015-05-23T12:29:26Z</time>
      </trkpt>
      <trkpt lat="40.246533" lon="-4.895867">
        <ele>1530.0</ele>
        <time>2015-05-23T12:29:28Z</time>
      </trkpt>
      <trkpt lat="40.246600" lon="-4.895733">
        <ele>1528.0</ele>
        <time>2015-05-23T12:29:30Z</time>
      </trkpt>
      <trkpt lat="40.246667" lon="-4.895617">
        <ele>1523.0</ele>
        <time>2015-05-23T12:29:32Z</time>
      </trkpt>
      <trkpt lat="40.246750" lon="-4.895517">
        <ele>1517.0</ele>
        <time>2015-05-23T12:29:34Z</time>
      </trkpt>
      <trkpt lat="40.246850" lon="-4.895400">
        <ele>1512.0</ele>
        <time>2015-05-23T12:29:36Z</time>
      </trkpt>
      <trkpt lat="40.246950" lon="-4.895300">
        <ele>1509.0</ele>
        <time>2015-05-23T12:29:38Z</time>
      </trkpt>
      <trkpt lat="40.247033" lon="-4.895200">
        <ele>1505.0</ele>
        <time>2015-05-23T12:29:40Z</time>
      </trkpt>
      <trkpt lat="40.247133" lon="-4.895117">
        <ele>1500.0</ele>
        <time>2015-05-23T12:29:42Z</time>
      </trkpt>
      <trkpt lat="40.247217" lon="-4.895033">
        <ele>1497.0</ele>
        <time>2015-05-23T12:29:44Z</time>
      </trkpt>
      <trkpt lat="40.247283" lon="-4.894933">
        <ele>1492.0</ele>
        <time>2015-05-23T12:29:46Z</time>
      </trkpt>
      <trkpt lat="40.247350" lon="-4.894783">
        <ele>1486.0</ele>
        <time>2015-05-23T12:29:48Z</time>
      </trkpt>
      <trkpt lat="40.247350" lon="-4.894600">
        <ele>1483.0</ele>
        <time>2015-05-23T12:29:50Z</time>
      </trkpt>
      <trkpt lat="40.247300" lon="-4.894467">
        <ele>1480.0</ele>
        <time>2015-05-23T12:29:52Z</time>
      </trkpt>
      <trkpt lat="40.247267" lon="-4.894300">
        <ele>1475.0</ele>
        <time>2015-05-23T12:29:54Z</time>
      </trkpt>
      <trkpt lat="40.247217" lon="-4.894100">
        <ele>1469.0</ele>
        <time>2015-05-23T12:29:56Z</time>
      </trkpt>
      <trkpt lat="40.247183" lon="-4.893900">
        <ele>1464.0</ele>
        <time>2015-05-23T12:29:58Z</time>
      </trkpt>
      <trkpt lat="40.247133" lon="-4.893717">
        <ele>1457.0</ele>
        <time>2015-05-23T12:30:00Z</time>
      </trkpt>
      <trkpt lat="40.247067" lon="-4.893500">
        <ele>1450.0</ele>
        <time>2015-05-23T12:30:02Z</time>
      </trkpt>
      <trkpt lat="40.247000" lon="-4.893300">
        <ele>1444.0</ele>
        <time>2015-05-23T12:30:04Z</time>
      </trkpt>
      <trkpt lat="40.246933" lon="-4.893117">
        <ele>1438.0</ele>
        <time>2015-05-23T12:30:06Z</time>
      </trkpt>
      <trkpt lat="40.246867" lon="-4.892900">
        <ele>1433.0</ele>
        <time>2015-05-23T12:30:08Z</time>
      </trkpt>
      <trkpt lat="40.246800" lon="-4.892700">
        <ele>1429.0</ele>
        <time>2015-05-23T12:30:10Z</time>
      </trkpt>
      <trkpt lat="40.246717" lon="-4.892517">
        <ele>1423.0</ele>
        <time>2015-05-23T12:30:12Z</time>
      </trkpt>
      <trkpt lat="40.246617" lon="-4.892317">
        <ele>1417.0</ele>
        <time>2015-05-23T12:30:14Z</time>
      </trkpt>
      <trkpt lat="40.246517" lon="-4.892150">
        <ele>1414.0</ele>
        <time>2015-05-23T12:30:16Z</time>
      </trkpt>
      <trkpt lat="40.246433" lon="-4.891967">
        <ele>1410.0</ele>
        <time>2015-05-23T12:30:18Z</time>
      </trkpt>
      <trkpt lat="40.246367" lon="-4.891783">
        <ele>1406.0</ele>
        <time>2015-05-23T12:30:20Z</time>
      </trkpt>
      <trkpt lat="40.246267" lon="-4.891617">
        <ele>1402.0</ele>
        <time>2015-05-23T12:30:22Z</time>
      </trkpt>
      <trkpt lat="40.246167" lon="-4.891467">
        <ele>1397.0</ele>
        <time>2015-05-23T12:30:24Z</time>
      </trkpt>
      <trkpt lat="40.246067" lon="-4.891300">
        <ele>1393.0</ele>
        <time>2015-05-23T12:30:26Z</time>
      </trkpt>
      <trkpt lat="40.245950" lon="-4.891133">
        <ele>1388.0</ele>
        <time>2015-05-23T12:30:28Z</time>
      </trkpt>
      <trkpt lat="40.245850" lon="-4.890967">
        <ele>1385.0</ele>
        <time>2015-05-23T12:30:30Z</time>
      </trkpt>
      <trkpt lat="40.245750" lon="-4.890783">
        <ele>1384.0</ele>
        <time>2015-05-23T12:30:32Z</time>
      </trkpt>
      <trkpt lat="40.245633" lon="-4.890617">
        <ele>1386.0</ele>
        <time>2015-05-23T12:30:34Z</time>
      </trkpt>
      <trkpt lat="40.245500" lon="-4.890450">
        <ele>1387.0</ele>
        <time>2015-05-23T12:30:36Z</time>
      </trkpt>
      <trkpt lat="40.245383" lon="-4.890283">
        <ele>1389.0</ele>
        <time>2015-05-23T12:30:38Z</time>
      </trkpt>
      <trkpt lat="40.245267" lon="-4.890117">
        <ele>1395.0</ele>
        <time>2015-05-23T12:30:40Z</time>
      </trkpt>
      <trkpt lat="40.245217" lon="-4.890000">
        <ele>1402.0</ele>
        <time>2015-05-23T12:30:42Z</time>
      </trkpt>
      <trkpt lat="40.245233" lon="-4.889883">
        <ele>1406.0</ele>
        <time>2015-05-23T12:30:44Z</time>
      </trkpt>
      <trkpt lat="40.245317" lon="-4.889767">
        <ele>1406.0</ele>
        <time>2015-05-23T12:30:46Z</time>
      </trkpt>
      <trkpt lat="40.245483" lon="-4.889700">
        <ele>1407.0</ele>
        <time>2015-05-23T12:30:48Z</time>
      </trkpt>
      <trkpt lat="40.245633" lon="-4.889733">
        <ele>1411.0</ele>
        <time>2015-05-23T12:30:50Z</time>
      </trkpt>
      <trkpt lat="40.245750" lon="-4.889867">
        <ele>1413.0</ele>
        <time>2015-05-23T12:30:52Z</time>
      </trkpt>
      <trkpt lat="40.245900" lon="-4.890067">
        <ele>1413.0</ele>
        <time>2015-05-23T12:30:54Z</time>
      </trkpt>
      <trkpt lat="40.246033" lon="-4.890300">
        <ele>1418.0</ele>
        <time>2015-05-23T12:30:56Z</time>
      </trkpt>
      <trkpt lat="40.246067" lon="-4.890533">
        <ele>1422.0</ele>
        <time>2015-05-23T12:30:58Z</time>
      </trkpt>
      <trkpt lat="40.246033" lon="-4.890783">
        <ele>1424.0</ele>
        <time>2015-05-23T12:31:00Z</time>
      </trkpt>
      <trkpt lat="40.245867" lon="-4.890983">
        <ele>1424.0</ele>
        <time>2015-05-23T12:31:02Z</time>
      </trkpt>
      <trkpt lat="40.245683" lon="-4.890950">
        <ele>1426.0</ele>
        <time>2015-05-23T12:31:04Z</time>
      </trkpt>
      <trkpt lat="40.245567" lon="-4.890850">
        <ele>1431.0</ele>
        <time>2015-05-23T12:31:06Z</time>
      </trkpt>
      <trkpt lat="40.245500" lon="-4.890717">
        <ele>1433.0</ele>
        <time>2015-05-23T12:31:08Z</time>
      </trkpt>
      <trkpt lat="40.245467" lon="-4.890533">
        <ele>1435.0</ele>
        <time>2015-05-23T12:31:10Z</time>
      </trkpt>
      <trkpt lat="40.245483" lon="-4.890367">
        <ele>1439.0</ele>
        <time>2015-05-23T12:31:12Z</time>
      </trkpt>
      <trkpt lat="40.245500" lon="-4.890250">
        <ele>1441.0</ele>
        <time>2015-05-23T12:31:14Z</time>
      </trkpt>
      <trkpt lat="40.245617" lon="-4.890100">
        <ele>1437.0</ele>
        <time>2015-05-23T12:31:16Z</time>
      </trkpt>
      <trkpt lat="40.245783" lon="-4.890017">
        <ele>1441.0</ele>
        <time>2015-05-23T12:31:18Z</time>
      </trkpt>
      <trkpt lat="40.245950" lon="-4.890067">
        <ele>1446.0</ele>
        <time>2015-05-23T12:31:20Z</time>
      </trkpt>
      <trkpt lat="40.246083" lon="-4.890200">
        <ele>1449.0</ele>
        <time>2015-05-23T12:31:22Z</time>
      </trkpt>
      <trkpt lat="40.246200" lon="-4.890450">
        <ele>1450.0</ele>
        <time>2015-05-23T12:31:24Z</time>
      </trkpt>
      <trkpt lat="40.246233" lon="-4.890750">
        <ele>1455.0</ele>
        <time>2015-05-23T12:31:26Z</time>
      </trkpt>
      <trkpt lat="40.246183" lon="-4.890983">
        <ele>1459.0</ele>
        <time>2015-05-23T12:31:28Z</time>
      </trkpt>
      <trkpt lat="40.246067" lon="-4.891167">
        <ele>1462.0</ele>
        <time>2015-05-23T12:31:30Z</time>
      </trkpt>
      <trkpt lat="40.245900" lon="-4.891267">
        <ele>1463.0</ele>
        <time>2015-05-23T12:31:32Z</time>
      </trkpt>
      <trkpt lat="40.245767" lon="-4.891283">
        <ele>1466.0</ele>
        <time>2015-05-23T12:31:34Z</time>
      </trkpt>
      <trkpt lat="40.245650" lon="-4.891233">
        <ele>1467.0</ele>
        <time>2015-05-23T12:31:36Z</time>
      </trkpt>
      <trkpt lat="40.245550" lon="-4.891117">
        <ele>1469.0</ele>
        <time>2015-05-23T12:31:38Z</time>
      </trkpt>
      <trkpt lat="40.245517" lon="-4.890950">
        <ele>1471.0</ele>
        <time>2015-05-23T12:31:40Z</time>
      </trkpt>
      <trkpt lat="40.245533" lon="-4.890817">
        <ele>1472.0</ele>
        <time>2015-05-23T12:31:42Z</time>
      </trkpt>
      <trkpt lat="40.245617" lon="-4.890683">
        <ele>1471.0</ele>
        <time>2015-05-23T12:31:44Z</time>
      </trkpt>
      <trkpt lat="40.245767" lon="-4.890600">
        <ele>1471.0</ele>
        <time>2015-05-23T12:31:46Z</time>
      </trkpt>
      <trkpt lat="40.245917" lon="-4.890617">
        <ele>1472.0</ele>
        <time>2015-05-23T12:31:48Z</time>
      </trkpt>
      <trkpt lat="40.246083" lon="-4.890667">
        <ele>1474.0</ele>
        <time>2015-05-23T12:31:50Z</time>
      </trkpt>
      <trkpt lat="40.246233" lon="-4.890767">
        <ele>1475.0</ele>
        <time>2015-05-23T12:31:52Z</time>
      </trkpt>
      <trkpt lat="40.246383" lon="-4.890967">
        <ele>1476.0</ele>
        <time>2015-05-23T12:31:54Z</time>
      </trkpt>
      <trkpt lat="40.246483" lon="-4.891200">
        <ele>1479.0</ele>
        <time>2015-05-23T12:31:56Z</time>
      </trkpt>
      <trkpt lat="40.246533" lon="-4.891483">
        <ele>1483.0</ele>
        <time>2015-05-23T12:31:58Z</time>
      </trkpt>
      <trkpt lat="40.246500" lon="-4.891750">
        <ele>1488.0</ele>
        <time>2015-05-23T12:32:00Z</time>
      </trkpt>
      <trkpt lat="40.246367" lon="-4.891967">
        <ele>1492.0</ele>
        <time>2015-05-23T12:32:02Z</time>
      </trkpt>
      <trkpt lat="40.246233" lon="-4.892067">
        <ele>1497.0</ele>
        <time>2015-05-23T12:32:04Z</time>
      </trkpt>
      <trkpt lat="40.246117" lon="-4.892083">
        <ele>1498.0</ele>
        <time>2015-05-23T12:32:06Z</time>
      </trkpt>
      <trkpt lat="40.246000" lon="-4.892000">
        <ele>1497.0</ele>
        <time>2015-05-23T12:32:08Z</time>
      </trkpt>
      <trkpt lat="40.245917" lon="-4.891833">
        <ele>1499.0</ele>
        <time>2015-05-23T12:32:10Z</time>
      </trkpt>
      <trkpt lat="40.245917" lon="-4.891667">
        <ele>1504.0</ele>
        <time>2015-05-23T12:32:12Z</time>
      </trkpt>
      <trkpt lat="40.245983" lon="-4.891517">
        <ele>1506.0</ele>
        <time>2015-05-23T12:32:14Z</time>
      </trkpt>
      <trkpt lat="40.246117" lon="-4.891383">
        <ele>1508.0</ele>
        <time>2015-05-23T12:32:16Z</time>
      </trkpt>
      <trkpt lat="40.246300" lon="-4.891350">
        <ele>1511.0</ele>
        <time>2015-05-23T12:32:18Z</time>
      </trkpt>
      <trkpt lat="40.246467" lon="-4.891417">
        <ele>1514.0</ele>
        <time>2015-05-23T12:32:20Z</time>
      </trkpt>
      <trkpt lat="40.246633" lon="-4.891567">
        <ele>1515.0</ele>
        <time>2015-05-23T12:32:22Z</time>
      </trkpt>
      <trkpt lat="40.246750" lon="-4.891833">
        <ele>1516.0</ele>
        <time>2015-05-23T12:32:24Z</time>
      </trkpt>
      <trkpt lat="40.246783" lon="-4.892117">
        <ele>1521.0</ele>
        <time>2015-05-23T12:32:26Z</time>
      </trkpt>
      <trkpt lat="40.246750" lon="-4.892367">
        <ele>1525.0</ele>
        <time>2015-05-23T12:32:28Z</time>
      </trkpt>
      <trkpt lat="40.246650" lon="-4.892567">
        <ele>1527.0</ele>
        <time>2015-05-23T12:32:30Z</time>
      </trkpt>
      <trkpt lat="40.246517" lon="-4.892733">
        <ele>1527.0</ele>
        <time>2015-05-23T12:32:32Z</time>
      </trkpt>
      <trkpt lat="40.246367" lon="-4.892783">
        <ele>1527.0</ele>
        <time>2015-05-23T12:32:34Z</time>
      </trkpt>
      <trkpt lat="40.246250" lon="-4.892783">
        <ele>1528.0</ele>
        <time>2015-05-23T12:32:36Z</time>
      </trkpt>
      <trkpt lat="40.246117" lon="-4.892767">
        <ele>1528.0</ele>
        <time>2015-05-23T12:32:38Z</time>
      </trkpt>
      <trkpt lat="40.246033" lon="-4.892650">
        <ele>1529.0</ele>
        <time>2015-05-23T12:32:40Z</time>
      </trkpt>
      <trkpt lat="40.246017" lon="-4.892500">
        <ele>1533.0</ele>
        <time>2015-05-23T12:32:42Z</time>
      </trkpt>
      <trkpt lat="40.246050" lon="-4.892367">
        <ele>1534.0</ele>
        <time>2015-05-23T12:32:44Z</time>
      </trkpt>
      <trkpt lat="40.246150" lon="-4.892200">
        <ele>1533.0</ele>
        <time>2015-05-23T12:32:46Z</time>
      </trkpt>
      <trkpt lat="40.246317" lon="-4.892067">
        <ele>1538.0</ele>
        <time>2015-05-23T12:32:48Z</time>
      </trkpt>
      <trkpt lat="40.246483" lon="-4.892033">
        <ele>1541.0</ele>
        <time>2015-05-23T12:32:50Z</time>
      </trkpt>
      <trkpt lat="40.246683" lon="-4.892083">
        <ele>1540.0</ele>
        <time>2015-05-23T12:32:52Z</time>
      </trkpt>
      <trkpt lat="40.246883" lon="-4.892250">
        <ele>1542.0</ele>
        <time>2015-05-23T12:32:54Z</time>
      </trkpt>
      <trkpt lat="40.246983" lon="-4.892467">
        <ele>1545.0</ele>
        <time>2015-05-23T12:32:56Z</time>
      </trkpt>
      <trkpt lat="40.247050" lon="-4.892717">
        <ele>1547.0</ele>
        <time>2015-05-23T12:32:58Z</time>
      </trkpt>
      <trkpt lat="40.247033" lon="-4.893000">
        <ele>1549.0</ele>
        <time>2015-05-23T12:33:00Z</time>
      </trkpt>
      <trkpt lat="40.246967" lon="-4.893217">
        <ele>1553.0</ele>
        <time>2015-05-23T12:33:02Z</time>
      </trkpt>
      <trkpt lat="40.246867" lon="-4.893367">
        <ele>1555.0</ele>
        <time>2015-05-23T12:33:04Z</time>
      </trkpt>
      <trkpt lat="40.246750" lon="-4.893433">
        <ele>1554.0</ele>
        <time>2015-05-23T12:33:06Z</time>
      </trkpt>
      <trkpt lat="40.246600" lon="-4.893400">
        <ele>1554.0</ele>
        <time>2015-05-23T12:33:08Z</time>
      </trkpt>
      <trkpt lat="40.246500" lon="-4.893317">
        <ele>1558.0</ele>
        <time>2015-05-23T12:33:10Z</time>
      </trkpt>
      <trkpt lat="40.246450" lon="-4.893200">
        <ele>1560.0</ele>
        <time>2015-05-23T12:33:12Z</time>
      </trkpt>
      <trkpt lat="40.246417" lon="-4.893000">
        <ele>1559.0</ele>
        <time>2015-05-23T12:33:14Z</time>
      </trkpt>
      <trkpt lat="40.246467" lon="-4.892800">
        <ele>1563.0</ele>
        <time>2015-05-23T12:33:16Z</time>
      </trkpt>
      <trkpt lat="40.246583" lon="-4.892667">
        <ele>1569.0</ele>
        <time>2015-05-23T12:33:18Z</time>
      </trkpt>
      <trkpt lat="40.246733" lon="-4.892583">
        <ele>1571.0</ele>
        <time>2015-05-23T12:33:20Z</time>
      </trkpt>
      <trkpt lat="40.246950" lon="-4.892567">
        <ele>1574.0</ele>
        <time>2015-05-23T12:33:22Z</time>
      </trkpt>
      <trkpt lat="40.247150" lon="-4.892700">
        <ele>1580.0</ele>
        <time>2015-05-23T12:33:24Z</time>
      </trkpt>
      <trkpt lat="40.247283" lon="-4.892867">
        <ele>1584.0</ele>
        <time>2015-05-23T12:33:26Z</time>
      </trkpt>
      <trkpt lat="40.247367" lon="-4.893100">
        <ele>1585.0</ele>
        <time>2015-05-23T12:33:28Z</time>
      </trkpt>
      <trkpt lat="40.247367" lon="-4.893383">
        <ele>1586.0</ele>
        <time>2015-05-23T12:33:30Z</time>
      </trkpt>
      <trkpt lat="40.247300" lon="-4.893667">
        <ele>1591.0</ele>
        <time>2015-05-23T12:33:32Z</time>
      </trkpt>
      <trkpt lat="40.247233" lon="-4.893833">
        <ele>1598.0</ele>
        <time>2015-05-23T12:33:34Z</time>
      </trkpt>
      <trkpt lat="40.247117" lon="-4.893967">
        <ele>1597.0</ele>
        <time>2015-05-23T12:33:36Z</time>
      </trkpt>
      <trkpt lat="40.246950" lon="-4.894100">
        <ele>1598.0</ele>
        <time>2015-05-23T12:33:38Z</time>
      </trkpt>
      <trkpt lat="40.246767" lon="-4.894150">
        <ele>1605.0</ele>
        <time>2015-05-23T12:33:40Z</time>
      </trkpt>
      <trkpt lat="40.246650" lon="-4.894133">
        <ele>1612.0</ele>
        <time>2015-05-23T12:33:42Z</time>
      </trkpt>
      <trkpt lat="40.246517" lon="-4.894050">
        <ele>1613.0</ele>
        <time>2015-05-23T12:33:44Z</time>
      </trkpt>
      <trkpt lat="40.246450" lon="-4.893833">
        <ele>1616.0</ele>
        <time>2015-05-23T12:33:46Z</time>
      </trkpt>
      <trkpt lat="40.246517" lon="-4.893650">
        <ele>1620.0</ele>
        <time>2015-05-23T12:33:48Z</time>
      </trkpt>
      <trkpt lat="40.246617" lon="-4.893533">
        <ele>1624.0</ele>
        <time>2015-05-23T12:33:50Z</time>
      </trkpt>
      <trkpt lat="40.246767" lon="-4.893467">
        <ele>1628.0</ele>
        <time>2015-05-23T12:33:52Z</time>
      </trkpt>
      <trkpt lat="40.246967" lon="-4.893517">
        <ele>1632.0</ele>
        <time>2015-05-23T12:33:54Z</time>
      </trkpt>
      <trkpt lat="40.247133" lon="-4.893717">
        <ele>1637.0</ele>
        <time>2015-05-23T12:33:56Z</time>
      </trkpt>
      <trkpt lat="40.247217" lon="-4.893950">
        <ele>1643.0</ele>
        <time>2015-05-23T12:33:58Z</time>
      </trkpt>
      <trkpt lat="40.247217" lon="-4.894200">
        <ele>1643.0</ele>
        <time>2015-05-23T12:34:00Z</time>
      </trkpt>
      <trkpt lat="40.247150" lon="-4.894433">
        <ele>1643.0</ele>
        <time>2015-05-23T12:34:02Z</time>
      </trkpt>
      <trkpt lat="40.247017" lon="-4.894633">
        <ele>1643.0</ele>
        <time>2015-05-23T12:34:04Z</time>
      </trkpt>
      <trkpt lat="40.246867" lon="-4.894817">
        <ele>1645.0</ele>
        <time>2015-05-23T12:34:06Z</time>
      </trkpt>
      <trkpt lat="40.246667" lon="-4.894900">
        <ele>1651.0</ele>
        <time>2015-05-23T12:34:08Z</time>
      </trkpt>
      <trkpt lat="40.246517" lon="-4.894883">
        <ele>1660.0</ele>
        <time>2015-05-23T12:34:10Z</time>
      </trkpt>
      <trkpt lat="40.246417" lon="-4.894867">
        <ele>1664.0</ele>
        <time>2015-05-23T12:34:12Z</time>
      </trkpt>
      <trkpt lat="40.246267" lon="-4.894800">
        <ele>1663.0</ele>
        <time>2015-05-23T12:34:14Z</time>
      </trkpt>
      <trkpt lat="40.246100" lon="-4.894650">
        <ele>1667.0</ele>
        <time>2015-05-23T12:34:16Z</time>
      </trkpt>
      <trkpt lat="40.246050" lon="-4.894450">
        <ele>1671.0</ele>
        <time>2015-05-23T12:34:18Z</time>
      </trkpt>
      <trkpt lat="40.246050" lon="-4.894250">
        <ele>1672.0</ele>
        <time>2015-05-23T12:34:20Z</time>
      </trkpt>
      <trkpt lat="40.246117" lon="-4.894050">
        <ele>1673.0</ele>
        <time>2015-05-23T12:34:22Z</time>
      </trkpt>
      <trkpt lat="40.246300" lon="-4.893950">
        <ele>1675.0</ele>
        <time>2015-05-23T12:34:24Z</time>
      </trkpt>
      <trkpt lat="40.246533" lon="-4.893967">
        <ele>1680.0</ele>
        <time>2015-05-23T12:34:26Z</time>
      </trkpt>
      <trkpt lat="40.246733" lon="-4.894033">
        <ele>1693.0</ele>
        <time>2015-05-23T12:34:28Z</time>
      </trkpt>
      <trkpt lat="40.246883" lon="-4.894183">
        <ele>1702.0</ele>
        <time>2015-05-23T12:34:30Z</time>
      </trkpt>
      <trkpt lat="40.247017" lon="-4.894417">
        <ele>1707.0</ele>
        <time>2015-05-23T12:34:32Z</time>
      </trkpt>
      <trkpt lat="40.247067" lon="-4.894717">
        <ele>1712.0</ele>
        <time>2015-05-23T12:34:34Z</time>
      </trkpt>
      <trkpt lat="40.247000" lon="-4.894967">
        <ele>1718.0</ele>
        <time>2015-05-23T12:34:36Z</time>
      </trkpt>
      <trkpt lat="40.246883" lon="-4.895133">
        <ele>1719.0</ele>
        <time>2015-05-23T12:34:38Z</time>
      </trkpt>
      <trkpt lat="40.246717" lon="-4.895233">
        <ele>1717.0</ele>
        <time>2015-05-23T12:34:40Z</time>
      </trkpt>
      <trkpt lat="40.246517" lon="-4.895233">
        <ele>1717.0</ele>
        <time>2015-05-23T12:34:42Z</time>
      </trkpt>
      <trkpt lat="40.246367" lon="-4.895133">
        <ele>1719.0</ele>
        <time>2015-05-23T12:34:44Z</time>
      </trkpt>
      <trkpt lat="40.246283" lon="-4.894967">
        <ele>1720.0</ele>
        <time>2015-05-23T12:34:46Z</time>
      </trkpt>
      <trkpt lat="40.246300" lon="-4.894767">
        <ele>1719.0</ele>
        <time>2015-05-23T12:34:48Z</time>
      </trkpt>
      <trkpt lat="40.246417" lon="-4.894567">
        <ele>1720.0</ele>
        <time>2015-05-23T12:34:50Z</time>
      </trkpt>
      <trkpt lat="40.246583" lon="-4.894483">
        <ele>1727.0</ele>
        <time>2015-05-23T12:34:52Z</time>
      </trkpt>
      <trkpt lat="40.246717" lon="-4.894467">
        <ele>1733.0</ele>
        <time>2015-05-23T12:34:54Z</time>
      </trkpt>
      <trkpt lat="40.246850" lon="-4.894500">
        <ele>1736.0</ele>
        <time>2015-05-23T12:34:56Z</time>
      </trkpt>
      <trkpt lat="40.247017" lon="-4.894583">
        <ele>1738.0</ele>
        <time>2015-05-23T12:34:58Z</time>
      </trkpt>
      <trkpt lat="40.247167" lon="-4.894800">
        <ele>1739.0</ele>
        <time>2015-05-23T12:35:00Z</time>
      </trkpt>
      <trkpt lat="40.247233" lon="-4.895100">
        <ele>1741.0</ele>
        <time>2015-05-23T12:35:02Z</time>
      </trkpt>
      <trkpt lat="40.247233" lon="-4.895383">
        <ele>1748.0</ele>
        <time>2015-05-23T12:35:04Z</time>
      </trkpt>
      <trkpt lat="40.247200" lon="-4.895600">
        <ele>1754.0</ele>
        <time>2015-05-23T12:35:06Z</time>
      </trkpt>
      <trkpt lat="40.247117" lon="-4.895817">
        <ele>1754.0</ele>
        <time>2015-05-23T12:35:08Z</time>
      </trkpt>
      <trkpt lat="40.246950" lon="-4.896033">
        <ele>1753.0</ele>
        <time>2015-05-23T12:35:10Z</time>
      </trkpt>
      <trkpt lat="40.246767" lon="-4.896167">
        <ele>1756.0</ele>
        <time>2015-05-23T12:35:12Z</time>
      </trkpt>
      <trkpt lat="40.246600" lon="-4.896217">
        <ele>1756.0</ele>
        <time>2015-05-23T12:35:14Z</time>
      </trkpt>
      <trkpt lat="40.246400" lon="-4.896217">
        <ele>1755.0</ele>
        <time>2015-05-23T12:35:16Z</time>
      </trkpt>
      <trkpt lat="40.246183" lon="-4.896233">
        <ele>1758.0</ele>
        <time>2015-05-23T12:35:18Z</time>
      </trkpt>
      <trkpt lat="40.245967" lon="-4.896350">
        <ele>1758.0</ele>
        <time>2015-05-23T12:35:20Z</time>
      </trkpt>
      <trkpt lat="40.245767" lon="-4.896567">
        <ele>1756.0</ele>
        <time>2015-05-23T12:35:22Z</time>
      </trkpt>
      <trkpt lat="40.245617" lon="-4.896850">
        <ele>1755.0</ele>
        <time>2015-05-23T12:35:24Z</time>
      </trkpt>
      <trkpt lat="40.245483" lon="-4.897150">
        <ele>1756.0</ele>
        <time>2015-05-23T12:35:26Z</time>
      </trkpt>
      <trkpt lat="40.245350" lon="-4.897467">
        <ele>1754.0</ele>
        <time>2015-05-23T12:35:28Z</time>
      </trkpt>
      <trkpt lat="40.245200" lon="-4.897800">
        <ele>1751.0</ele>
        <time>2015-05-23T12:35:30Z</time>
      </trkpt>
      <trkpt lat="40.245083" lon="-4.898050">
        <ele>1751.0</ele>
        <time>2015-05-23T12:35:32Z</time>
      </trkpt>
      <trkpt lat="40.244967" lon="-4.898267">
        <ele>1749.0</ele>
        <time>2015-05-23T12:35:34Z</time>
      </trkpt>
      <trkpt lat="40.244850" lon="-4.898533">
        <ele>1743.0</ele>
        <time>2015-05-23T12:35:36Z</time>
      </trkpt>
      <trkpt lat="40.244733" lon="-4.898817">
        <ele>1739.0</ele>
        <time>2015-05-23T12:35:38Z</time>
      </trkpt>
      <trkpt lat="40.244617" lon="-4.899067">
        <ele>1734.0</ele>
        <time>2015-05-23T12:35:40Z</time>
      </trkpt>
      <trkpt lat="40.244517" lon="-4.899350">
        <ele>1726.0</ele>
        <time>2015-05-23T12:35:42Z</time>
      </trkpt>
      <trkpt lat="40.244400" lon="-4.899667">
        <ele>1719.0</ele>
        <time>2015-05-23T12:35:44Z</time>
      </trkpt>
      <trkpt lat="40.244283" lon="-4.899967">
        <ele>1716.0</ele>
        <time>2015-05-23T12:35:46Z</time>
      </trkpt>
      <trkpt lat="40.244183" lon="-4.900250">
        <ele>1713.0</ele>
        <time>2015-05-23T12:35:48Z</time>
      </trkpt>
      <trkpt lat="40.244100" lon="-4.900567">
        <ele>1711.0</ele>
        <time>2015-05-23T12:35:50Z</time>
      </trkpt>
      <trkpt lat="40.244017" lon="-4.900883">
        <ele>1707.0</ele>
        <time>2015-05-23T12:35:52Z</time>
      </trkpt>
      <trkpt lat="40.243933" lon="-4.901167">
        <ele>1703.0</ele>
        <time>2015-05-23T12:35:54Z</time>
      </trkpt>
      <trkpt lat="40.243833" lon="-4.901467">
        <ele>1698.0</ele>
        <time>2015-05-23T12:35:56Z</time>
      </trkpt>
      <trkpt lat="40.243717" lon="-4.901767">
        <ele>1692.0</ele>
        <time>2015-05-23T12:35:58Z</time>
      </trkpt>
      <trkpt lat="40.243583" lon="-4.902083">
        <ele>1686.0</ele>
        <time>2015-05-23T12:36:00Z</time>
      </trkpt>
      <trkpt lat="40.243433" lon="-4.902367">
        <ele>1684.0</ele>
        <time>2015-05-23T12:36:02Z</time>
      </trkpt>
      <trkpt lat="40.243317" lon="-4.902600">
        <ele>1681.0</ele>
        <time>2015-05-23T12:36:04Z</time>
      </trkpt>
      <trkpt lat="40.243217" lon="-4.902883">
        <ele>1672.0</ele>
        <time>2015-05-23T12:36:06Z</time>
      </trkpt>
      <trkpt lat="40.243083" lon="-4.903217">
        <ele>1666.0</ele>
        <time>2015-05-23T12:36:08Z</time>
      </trkpt>
      <trkpt lat="40.242967" lon="-4.903500">
        <ele>1664.0</ele>
        <time>2015-05-23T12:36:10Z</time>
      </trkpt>
      <trkpt lat="40.242850" lon="-4.903783">
        <ele>1658.0</ele>
        <time>2015-05-23T12:36:12Z</time>
      </trkpt>
      <trkpt lat="40.242733" lon="-4.904083">
        <ele>1651.0</ele>
        <time>2015-05-23T12:36:14Z</time>
      </trkpt>
      <trkpt lat="40.242600" lon="-4.904383">
        <ele>1648.0</ele>
        <time>2015-05-23T12:36:16Z</time>
      </trkpt>
      <trkpt lat="40.242483" lon="-4.904667">
        <ele>1644.0</ele>
        <time>2015-05-23T12:36:18Z</time>
      </trkpt>
      <trkpt lat="40.242350" lon="-4.904967">
        <ele>1638.0</ele>
        <time>2015-05-23T12:36:20Z</time>
      </trkpt>
      <trkpt lat="40.242233" lon="-4.905283">
        <ele>1634.0</ele>
        <time>2015-05-23T12:36:22Z</time>
      </trkpt>
      <trkpt lat="40.242100" lon="-4.905567">
        <ele>1630.0</ele>
        <time>2015-05-23T12:36:24Z</time>
      </trkpt>
      <trkpt lat="40.241983" lon="-4.905867">
        <ele>1625.0</ele>
        <time>2015-05-23T12:36:26Z</time>
      </trkpt>
      <trkpt lat="40.241850" lon="-4.906183">
        <ele>1621.0</ele>
        <time>2015-05-23T12:36:28Z</time>
      </trkpt>
      <trkpt lat="40.241717" lon="-4.906467">
        <ele>1617.0</ele>
        <time>2015-05-23T12:36:30Z</time>
      </trkpt>
      <trkpt lat="40.241583" lon="-4.906733">
        <ele>1612.0</ele>
        <time>2015-05-23T12:36:32Z</time>
      </trkpt>
      <trkpt lat="40.241433" lon="-4.907050">
        <ele>1605.0</ele>
        <time>2015-05-23T12:36:34Z</time>
      </trkpt>
      <trkpt lat="40.241317" lon="-4.907350">
        <ele>1601.0</ele>
        <time>2015-05-23T12:36:36Z</time>
      </trkpt>
      <trkpt lat="40.241183" lon="-4.907633">
        <ele>1596.0</ele>
        <time>2015-05-23T12:36:38Z</time>
      </trkpt>
      <trkpt lat="40.241050" lon="-4.907917">
        <ele>1590.0</ele>
        <time>2015-05-23T12:36:40Z</time>
      </trkpt>
      <trkpt lat="40.240933" lon="-4.908183">
        <ele>1585.0</ele>
        <time>2015-05-23T12:36:42Z</time>
      </trkpt>
      <trkpt lat="40.240817" lon="-4.908367">
        <ele>1580.0</ele>
        <time>2015-05-23T12:36:44Z</time>
      </trkpt>
      <trkpt lat="40.240683" lon="-4.908550">
        <ele>1570.0</ele>
        <time>2015-05-23T12:36:46Z</time>
      </trkpt>
      <trkpt lat="40.240517" lon="-4.908800">
        <ele>1559.0</ele>
        <time>2015-05-23T12:36:48Z</time>
      </trkpt>
      <trkpt lat="40.240367" lon="-4.909067">
        <ele>1553.0</ele>
        <time>2015-05-23T12:36:50Z</time>
      </trkpt>
      <trkpt lat="40.240250" lon="-4.909317">
        <ele>1549.0</ele>
        <time>2015-05-23T12:36:52Z</time>
      </trkpt>
      <trkpt lat="40.240150" lon="-4.909550">
        <ele>1541.0</ele>
        <time>2015-05-23T12:36:54Z</time>
      </trkpt>
      <trkpt lat="40.240083" lon="-4.909800">
        <ele>1531.0</ele>
        <time>2015-05-23T12:36:56Z</time>
      </trkpt>
      <trkpt lat="40.239967" lon="-4.910067">
        <ele>1522.0</ele>
        <time>2015-05-23T12:36:58Z</time>
      </trkpt>
      <trkpt lat="40.239867" lon="-4.910333">
        <ele>1512.0</ele>
        <time>2015-05-23T12:37:00Z</time>
      </trkpt>
      <trkpt lat="40.239750" lon="-4.910600">
        <ele>1504.0</ele>
        <time>2015-05-23T12:37:02Z</time>
      </trkpt>
      <trkpt lat="40.239600" lon="-4.910883">
        <ele>1501.0</ele>
        <time>2015-05-23T12:37:04Z</time>
      </trkpt>
      <trkpt lat="40.239467" lon="-4.911117">
        <ele>1499.0</ele>
        <time>2015-05-23T12:37:06Z</time>
      </trkpt>
      <trkpt lat="40.239317" lon="-4.911367">
        <ele>1495.0</ele>
        <time>2015-05-23T12:37:08Z</time>
      </trkpt>
      <trkpt lat="40.239217" lon="-4.911667">
        <ele>1492.0</ele>
        <time>2015-05-23T12:37:10Z</time>
      </trkpt>
      <trkpt lat="40.239100" lon="-4.911900">
        <ele>1490.0</ele>
        <time>2015-05-23T12:37:12Z</time>
      </trkpt>
      <trkpt lat="40.238967" lon="-4.912133">
        <ele>1485.0</ele>
        <time>2015-05-23T12:37:14Z</time>
      </trkpt>
      <trkpt lat="40.238817" lon="-4.912400">
        <ele>1481.0</ele>
        <time>2015-05-23T12:37:16Z</time>
      </trkpt>
      <trkpt lat="40.238667" lon="-4.912650">
        <ele>1479.0</ele>
        <time>2015-05-23T12:37:18Z</time>
      </trkpt>
      <trkpt lat="40.238550" lon="-4.912867">
        <ele>1478.0</ele>
        <time>2015-05-23T12:37:20Z</time>
      </trkpt>
      <trkpt lat="40.238450" lon="-4.913117">
        <ele>1472.0</ele>
        <time>2015-05-23T12:37:22Z</time>
      </trkpt>
      <trkpt lat="40.238333" lon="-4.913383">
        <ele>1467.0</ele>
        <time>2015-05-23T12:37:24Z</time>
      </trkpt>
      <trkpt lat="40.238217" lon="-4.913633">
        <ele>1465.0</ele>
        <time>2015-05-23T12:37:26Z</time>
      </trkpt>
      <trkpt lat="40.238100" lon="-4.913850">
        <ele>1462.0</ele>
        <time>2015-05-23T12:37:28Z</time>
      </trkpt>
      <trkpt lat="40.237983" lon="-4.914083">
        <ele>1457.0</ele>
        <time>2015-05-23T12:37:30Z</time>
      </trkpt>
      <trkpt lat="40.237867" lon="-4.914333">
        <ele>1453.0</ele>
        <time>2015-05-23T12:37:32Z</time>
      </trkpt>
      <trkpt lat="40.237733" lon="-4.914567">
        <ele>1449.0</ele>
        <time>2015-05-23T12:37:34Z</time>
      </trkpt>
      <trkpt lat="40.237617" lon="-4.914800">
        <ele>1444.0</ele>
        <time>2015-05-23T12:37:36Z</time>
      </trkpt>
      <trkpt lat="40.237500" lon="-4.915050">
        <ele>1437.0</ele>
        <time>2015-05-23T12:37:38Z</time>
      </trkpt>
      <trkpt lat="40.237350" lon="-4.915333">
        <ele>1432.0</ele>
        <time>2015-05-23T12:37:40Z</time>
      </trkpt>
      <trkpt lat="40.237200" lon="-4.915583">
        <ele>1430.0</ele>
        <time>2015-05-23T12:37:42Z</time>
      </trkpt>
      <trkpt lat="40.237100" lon="-4.915850">
        <ele>1426.0</ele>
        <time>2015-05-23T12:37:44Z</time>
      </trkpt>
      <trkpt lat="40.236983" lon="-4.916133">
        <ele>1420.0</ele>
        <time>2015-05-23T12:37:46Z</time>
      </trkpt>
      <trkpt lat="40.236817" lon="-4.916400">
        <ele>1414.0</ele>
        <time>2015-05-23T12:37:48Z</time>
      </trkpt>
      <trkpt lat="40.236683" lon="-4.916683">
        <ele>1411.0</ele>
        <time>2015-05-23T12:37:50Z</time>
      </trkpt>
      <trkpt lat="40.236567" lon="-4.916967">
        <ele>1410.0</ele>
        <time>2015-05-23T12:37:52Z</time>
      </trkpt>
      <trkpt lat="40.236500" lon="-4.917233">
        <ele>1407.0</ele>
        <time>2015-05-23T12:37:54Z</time>
      </trkpt>
      <trkpt lat="40.236500" lon="-4.917500">
        <ele>1399.0</ele>
        <time>2015-05-23T12:37:56Z</time>
      </trkpt>
      <trkpt lat="40.236500" lon="-4.917850">
        <ele>1390.0</ele>
        <time>2015-05-23T12:37:58Z</time>
      </trkpt>
      <trkpt lat="40.236517" lon="-4.918183">
        <ele>1389.0</ele>
        <time>2015-05-23T12:38:00Z</time>
      </trkpt>
      <trkpt lat="40.236483" lon="-4.918450">
        <ele>1386.0</ele>
        <time>2015-05-23T12:38:02Z</time>
      </trkpt>
      <trkpt lat="40.236467" lon="-4.918733">
        <ele>1380.0</ele>
        <time>2015-05-23T12:38:04Z</time>
      </trkpt>
      <trkpt lat="40.236417" lon="-4.919050">
        <ele>1373.0</ele>
        <time>2015-05-23T12:38:06Z</time>
      </trkpt>
      <trkpt lat="40.236367" lon="-4.919333">
        <ele>1369.0</ele>
        <time>2015-05-23T12:38:08Z</time>
      </trkpt>
      <trkpt lat="40.236267" lon="-4.919583">
        <ele>1362.0</ele>
        <time>2015-05-23T12:38:10Z</time>
      </trkpt>
      <trkpt lat="40.236117" lon="-4.919833">
        <ele>1353.0</ele>
        <time>2015-05-23T12:38:12Z</time>
      </trkpt>
      <trkpt lat="40.235950" lon="-4.920083">
        <ele>1347.0</ele>
        <time>2015-05-23T12:38:14Z</time>
      </trkpt>
      <trkpt lat="40.235817" lon="-4.920300">
        <ele>1344.0</ele>
        <time>2015-05-23T12:38:16Z</time>
      </trkpt>
      <trkpt lat="40.235750" lon="-4.920550">
        <ele>1339.0</ele>
        <time>2015-05-23T12:38:18Z</time>
      </trkpt>
      <trkpt lat="40.235700" lon="-4.920850">
        <ele>1334.0</ele>
        <time>2015-05-23T12:38:20Z</time>
      </trkpt>
      <trkpt lat="40.235683" lon="-4.921117">
        <ele>1330.0</ele>
        <time>2015-05-23T12:38:22Z</time>
      </trkpt>
      <trkpt lat="40.235700" lon="-4.921400">
        <ele>1324.0</ele>
        <time>2015-05-23T12:38:24Z</time>
      </trkpt>
      <trkpt lat="40.235683" lon="-4.921700">
        <ele>1319.0</ele>
        <time>2015-05-23T12:38:26Z</time>
      </trkpt>
      <trkpt lat="40.235600" lon="-4.921967">
        <ele>1314.0</ele>
        <time>2015-05-23T12:38:28Z</time>
      </trkpt>
      <trkpt lat="40.235483" lon="-4.922217">
        <ele>1309.0</ele>
        <time>2015-05-23T12:38:30Z</time>
      </trkpt>
      <trkpt lat="40.235317" lon="-4.922467">
        <ele>1304.0</ele>
        <time>2015-05-23T12:38:32Z</time>
      </trkpt>
      <trkpt lat="40.235133" lon="-4.922667">
        <ele>1301.0</ele>
        <time>2015-05-23T12:38:34Z</time>
      </trkpt>
      <trkpt lat="40.234933" lon="-4.922867">
        <ele>1298.0</ele>
        <time>2015-05-23T12:38:36Z</time>
      </trkpt>
      <trkpt lat="40.234750" lon="-4.923050">
        <ele>1294.0</ele>
        <time>2015-05-23T12:38:38Z</time>
      </trkpt>
      <trkpt lat="40.234567" lon="-4.923233">
        <ele>1289.0</ele>
        <time>2015-05-23T12:38:40Z</time>
      </trkpt>
      <trkpt lat="40.234350" lon="-4.923433">
        <ele>1286.0</ele>
        <time>2015-05-23T12:38:42Z</time>
      </trkpt>
      <trkpt lat="40.234167" lon="-4.923617">
        <ele>1283.0</ele>
        <time>2015-05-23T12:38:44Z</time>
      </trkpt>
      <trkpt lat="40.233967" lon="-4.923783">
        <ele>1279.0</ele>
        <time>2015-05-23T12:38:46Z</time>
      </trkpt>
      <trkpt lat="40.233767" lon="-4.923950">
        <ele>1275.0</ele>
        <time>2015-05-23T12:38:48Z</time>
      </trkpt>
      <trkpt lat="40.233550" lon="-4.924100">
        <ele>1273.0</ele>
        <time>2015-05-23T12:38:50Z</time>
      </trkpt>
      <trkpt lat="40.233333" lon="-4.924267">
        <ele>1269.0</ele>
        <time>2015-05-23T12:38:52Z</time>
      </trkpt>
      <trkpt lat="40.233133" lon="-4.924417">
        <ele>1267.0</ele>
        <time>2015-05-23T12:38:54Z</time>
      </trkpt>
      <trkpt lat="40.232917" lon="-4.924600">
        <ele>1265.0</ele>
        <time>2015-05-23T12:38:56Z</time>
      </trkpt>
      <trkpt lat="40.232717" lon="-4.924783">
        <ele>1263.0</ele>
        <time>2015-05-23T12:38:58Z</time>
      </trkpt>
      <trkpt lat="40.232517" lon="-4.925000">
        <ele>1260.0</ele>
        <time>2015-05-23T12:39:00Z</time>
      </trkpt>
      <trkpt lat="40.232300" lon="-4.925217">
        <ele>1258.0</ele>
        <time>2015-05-23T12:39:02Z</time>
      </trkpt>
      <trkpt lat="40.232083" lon="-4.925383">
        <ele>1258.0</ele>
        <time>2015-05-23T12:39:04Z</time>
      </trkpt>
      <trkpt lat="40.231900" lon="-4.925550">
        <ele>1257.0</ele>
        <time>2015-05-23T12:39:06Z</time>
      </trkpt>
      <trkpt lat="40.231700" lon="-4.925733">
        <ele>1254.0</ele>
        <time>2015-05-23T12:39:08Z</time>
      </trkpt>
      <trkpt lat="40.231467" lon="-4.925900">
        <ele>1251.0</ele>
        <time>2015-05-23T12:39:10Z</time>
      </trkpt>
      <trkpt lat="40.231283" lon="-4.926050">
        <ele>1252.0</ele>
        <time>2015-05-23T12:39:12Z</time>
      </trkpt>
      <trkpt lat="40.231100" lon="-4.926200">
        <ele>1250.0</ele>
        <time>2015-05-23T12:39:14Z</time>
      </trkpt>
      <trkpt lat="40.230900" lon="-4.926367">
        <ele>1247.0</ele>
        <time>2015-05-23T12:39:16Z</time>
      </trkpt>
      <trkpt lat="40.230700" lon="-4.926550">
        <ele>1245.0</ele>
        <time>2015-05-23T12:39:18Z</time>
      </trkpt>
      <trkpt lat="40.230500" lon="-4.926683">
        <ele>1242.0</ele>
        <time>2015-05-23T12:39:20Z</time>
      </trkpt>
      <trkpt lat="40.230267" lon="-4.926833">
        <ele>1238.0</ele>
        <time>2015-05-23T12:39:22Z</time>
      </trkpt>
      <trkpt lat="40.230050" lon="-4.927000">
        <ele>1237.0</ele>
        <time>2015-05-23T12:39:24Z</time>
      </trkpt>
      <trkpt lat="40.229850" lon="-4.927133">
        <ele>1235.0</ele>
        <time>2015-05-23T12:39:26Z</time>
      </trkpt>
      <trkpt lat="40.229633" lon="-4.927300">
        <ele>1231.0</ele>
        <time>2015-05-23T12:39:28Z</time>
      </trkpt>
      <trkpt lat="40.229417" lon="-4.927467">
        <ele>1229.0</ele>
        <time>2015-05-23T12:39:30Z</time>
      </trkpt>
      <trkpt lat="40.229217" lon="-4.927667">
        <ele>1227.0</ele>
        <time>2015-05-23T12:39:32Z</time>
      </trkpt>
      <trkpt lat="40.229050" lon="-4.927900">
        <ele>1226.0</ele>
        <time>2015-05-23T12:39:34Z</time>
      </trkpt>
      <trkpt lat="40.228900" lon="-4.928167">
        <ele>1224.0</ele>
        <time>2015-05-23T12:39:36Z</time>
      </trkpt>
      <trkpt lat="40.228717" lon="-4.928400">
        <ele>1222.0</ele>
        <time>2015-05-23T12:39:38Z</time>
      </trkpt>
      <trkpt lat="40.228550" lon="-4.928617">
        <ele>1219.0</ele>
        <time>2015-05-23T12:39:40Z</time>
      </trkpt>
      <trkpt lat="40.228367" lon="-4.928867">
        <ele>1215.0</ele>
        <time>2015-05-23T12:39:42Z</time>
      </trkpt>
      <trkpt lat="40.228167" lon="-4.929100">
        <ele>1213.0</ele>
        <time>2015-05-23T12:39:44Z</time>
      </trkpt>
      <trkpt lat="40.228000" lon="-4.929333">
        <ele>1211.0</ele>
        <time>2015-05-23T12:39:46Z</time>
      </trkpt>
      <trkpt lat="40.227817" lon="-4.929533">
        <ele>1208.0</ele>
        <time>2015-05-23T12:39:48Z</time>
      </trkpt>
      <trkpt lat="40.227600" lon="-4.929750">
        <ele>1206.0</ele>
        <time>2015-05-23T12:39:50Z</time>
      </trkpt>
      <trkpt lat="40.227400" lon="-4.929933">
        <ele>1205.0</ele>
        <time>2015-05-23T12:39:52Z</time>
      </trkpt>
      <trkpt lat="40.227183" lon="-4.930117">
        <ele>1202.0</ele>
        <time>2015-05-23T12:39:54Z</time>
      </trkpt>
      <trkpt lat="40.226967" lon="-4.930317">
        <ele>1200.0</ele>
        <time>2015-05-23T12:39:56Z</time>
      </trkpt>
      <trkpt lat="40.226783" lon="-4.930550">
        <ele>1200.0</ele>
        <time>2015-05-23T12:39:58Z</time>
      </trkpt>
      <trkpt lat="40.226600" lon="-4.930733">
        <ele>1200.0</ele>
        <time>2015-05-23T12:40:00Z</time>
      </trkpt>
      <trkpt lat="40.226417" lon="-4.930867">
        <ele>1199.0</ele>
        <time>2015-05-23T12:40:02Z</time>
      </trkpt>
      <trkpt lat="40.226217" lon="-4.931050">
        <ele>1197.0</ele>
        <time>2015-05-23T12:40:04Z</time>
      </trkpt>
      <trkpt lat="40.226017" lon="-4.931233">
        <ele>1196.0</ele>
        <time>2015-05-23T12:40:06Z</time>
      </trkpt>
      <trkpt lat="40.225833" lon="-4.931400">
        <ele>1195.0</ele>
        <time>2015-05-23T12:40:08Z</time>
      </trkpt>
      <trkpt lat="40.225650" lon="-4.931517">
        <ele>1193.0</ele>
        <time>2015-05-23T12:40:10Z</time>
      </trkpt>
      <trkpt lat="40.225450" lon="-4.931633">
        <ele>1189.0</ele>
        <time>2015-05-23T12:40:12Z</time>
      </trkpt>
      <trkpt lat="40.225250" lon="-4.931750">
        <ele>1187.0</ele>
        <time>2015-05-23T12:40:14Z</time>
      </trkpt>
      <trkpt lat="40.225067" lon="-4.931850">
        <ele>1185.0</ele>
        <time>2015-05-23T12:40:16Z</time>
      </trkpt>
      <trkpt lat="40.224883" lon="-4.931950">
        <ele>1182.0</ele>
        <time>2015-05-23T12:40:18Z</time>
      </trkpt>
      <trkpt lat="40.224683" lon="-4.932083">
        <ele>1180.0</ele>
        <time>2015-05-23T12:40:20Z</time>
      </trkpt>
      <trkpt lat="40.224500" lon="-4.932233">
        <ele>1180.0</ele>
        <time>2015-05-23T12:40:22Z</time>
      </trkpt>
      <trkpt lat="40.224317" lon="-4.932367">
        <ele>1181.0</ele>
        <time>2015-05-23T12:40:24Z</time>
      </trkpt>
      <trkpt lat="40.224133" lon="-4.932533">
        <ele>1183.0</ele>
        <time>2015-05-23T12:40:26Z</time>
      </trkpt>
      <trkpt lat="40.223950" lon="-4.932717">
        <ele>1187.0</ele>
        <time>2015-05-23T12:40:28Z</time>
      </trkpt>
      <trkpt lat="40.223833" lon="-4.932950">
        <ele>1192.0</ele>
        <time>2015-05-23T12:40:30Z</time>
      </trkpt>
      <trkpt lat="40.223767" lon="-4.933250">
        <ele>1194.0</ele>
        <time>2015-05-23T12:40:32Z</time>
      </trkpt>
      <trkpt lat="40.223800" lon="-4.933617">
        <ele>1194.0</ele>
        <time>2015-05-23T12:40:34Z</time>
      </trkpt>
      <trkpt lat="40.223983" lon="-4.933867">
        <ele>1194.0</ele>
        <time>2015-05-23T12:40:36Z</time>
      </trkpt>
      <trkpt lat="40.224150" lon="-4.933967">
        <ele>1196.0</ele>
        <time>2015-05-23T12:40:38Z</time>
      </trkpt>
      <trkpt lat="40.224250" lon="-4.933967">
        <ele>1196.0</ele>
        <time>2015-05-23T12:40:40Z</time>
      </trkpt>
      <trkpt lat="40.224283" lon="-4.933867">
        <ele>1194.0</ele>
        <time>2015-05-23T12:40:42Z</time>
      </trkpt>
      <trkpt lat="40.224233" lon="-4.933750">
        <ele>1196.0</ele>
        <time>2015-05-23T12:40:44Z</time>
      </trkpt>
      <trkpt lat="40.224150" lon="-4.933667">
        <ele>1201.0</ele>
        <time>2015-05-23T12:40:46Z</time>
      </trkpt>
      <trkpt lat="40.224033" lon="-4.933617">
        <ele>1204.0</ele>
        <time>2015-05-23T12:40:48Z</time>
      </trkpt>
      <trkpt lat="40.223883" lon="-4.933567">
        <ele>1210.0</ele>
        <time>2015-05-23T12:40:50Z</time>
      </trkpt>
      <trkpt lat="40.223750" lon="-4.933617">
        <ele>1215.0</ele>
        <time>2015-05-23T12:40:52Z</time>
      </trkpt>
      <trkpt lat="40.223583" lon="-4.933700">
        <ele>1215.0</ele>
        <time>2015-05-23T12:40:54Z</time>
      </trkpt>
      <trkpt lat="40.223400" lon="-4.933883">
        <ele>1217.0</ele>
        <time>2015-05-23T12:40:56Z</time>
      </trkpt>
      <trkpt lat="40.223283" lon="-4.934167">
        <ele>1219.0</ele>
        <time>2015-05-23T12:40:58Z</time>
      </trkpt>
      <trkpt lat="40.223250" lon="-4.934450">
        <ele>1219.0</ele>
        <time>2015-05-23T12:41:00Z</time>
      </trkpt>
      <trkpt lat="40.223300" lon="-4.934750">
        <ele>1216.0</ele>
        <time>2015-05-23T12:41:02Z</time>
      </trkpt>
      <trkpt lat="40.223433" lon="-4.935017">
        <ele>1212.0</ele>
        <time>2015-05-23T12:41:04Z</time>
      </trkpt>
      <trkpt lat="40.223617" lon="-4.935133">
        <ele>1210.0</ele>
        <time>2015-05-23T12:41:06Z</time>
      </trkpt>
      <trkpt lat="40.223800" lon="-4.935167">
        <ele>1215.0</ele>
        <time>2015-05-23T12:41:08Z</time>
      </trkpt>
      <trkpt lat="40.223933" lon="-4.935200">
        <ele>1220.0</ele>
        <time>2015-05-23T12:41:10Z</time>
      </trkpt>
      <trkpt lat="40.224067" lon="-4.935183">
        <ele>1222.0</ele>
        <time>2015-05-23T12:41:12Z</time>
      </trkpt>
      <trkpt lat="40.224200" lon="-4.935117">
        <ele>1227.0</ele>
        <time>2015-05-23T12:41:14Z</time>
      </trkpt>
      <trkpt lat="40.224250" lon="-4.935017">
        <ele>1232.0</ele>
        <time>2015-05-23T12:41:16Z</time>
      </trkpt>
      <trkpt lat="40.224217" lon="-4.934883">
        <ele>1235.0</ele>
        <time>2015-05-23T12:41:18Z</time>
      </trkpt>
      <trkpt lat="40.224100" lon="-4.934783">
        <ele>1239.0</ele>
        <time>2015-05-23T12:41:20Z</time>
      </trkpt>
      <trkpt lat="40.223950" lon="-4.934767">
        <ele>1243.0</ele>
        <time>2015-05-23T12:41:22Z</time>
      </trkpt>
      <trkpt lat="40.223750" lon="-4.934833">
        <ele>1246.0</ele>
        <time>2015-05-23T12:41:24Z</time>
      </trkpt>
      <trkpt lat="40.223567" lon="-4.935000">
        <ele>1251.0</ele>
        <time>2015-05-23T12:41:26Z</time>
      </trkpt>
      <trkpt lat="40.223450" lon="-4.935267">
        <ele>1256.0</ele>
        <time>2015-05-23T12:41:28Z</time>
      </trkpt>
      <trkpt lat="40.223417" lon="-4.935600">
        <ele>1257.0</ele>
        <time>2015-05-23T12:41:30Z</time>
      </trkpt>
      <trkpt lat="40.223450" lon="-4.935933">
        <ele>1259.0</ele>
        <time>2015-05-23T12:41:32Z</time>
      </trkpt>
      <trkpt lat="40.223600" lon="-4.936183">
        <ele>1264.0</ele>
        <time>2015-05-23T12:41:34Z</time>
      </trkpt>
      <trkpt lat="40.223750" lon="-4.936250">
        <ele>1267.0</ele>
        <time>2015-05-23T12:41:36Z</time>
      </trkpt>
      <trkpt lat="40.223867" lon="-4.936183">
        <ele>1271.0</ele>
        <time>2015-05-23T12:41:38Z</time>
      </trkpt>
      <trkpt lat="40.223900" lon="-4.936067">
        <ele>1275.0</ele>
        <time>2015-05-23T12:41:40Z</time>
      </trkpt>
      <trkpt lat="40.223833" lon="-4.935933">
        <ele>1279.0</ele>
        <time>2015-05-23T12:41:42Z</time>
      </trkpt>
      <trkpt lat="40.223717" lon="-4.935867">
        <ele>1283.0</ele>
        <time>2015-05-23T12:41:44Z</time>
      </trkpt>
      <trkpt lat="40.223533" lon="-4.935900">
        <ele>1284.0</ele>
        <time>2015-05-23T12:41:46Z</time>
      </trkpt>
      <trkpt lat="40.223333" lon="-4.936083">
        <ele>1286.0</ele>
        <time>2015-05-23T12:41:48Z</time>
      </trkpt>
      <trkpt lat="40.223233" lon="-4.936400">
        <ele>1288.0</ele>
        <time>2015-05-23T12:41:50Z</time>
      </trkpt>
      <trkpt lat="40.223217" lon="-4.936733">
        <ele>1292.0</ele>
        <time>2015-05-23T12:41:52Z</time>
      </trkpt>
      <trkpt lat="40.223250" lon="-4.937050">
        <ele>1295.0</ele>
        <time>2015-05-23T12:41:54Z</time>
      </trkpt>
      <trkpt lat="40.223350" lon="-4.937317">
        <ele>1298.0</ele>
        <time>2015-05-23T12:41:56Z</time>
      </trkpt>
      <trkpt lat="40.223500" lon="-4.937467">
        <ele>1301.0</ele>
        <time>2015-05-23T12:41:58Z</time>
      </trkpt>
      <trkpt lat="40.223650" lon="-4.937500">
        <ele>1304.0</ele>
        <time>2015-05-23T12:42:00Z</time>
      </trkpt>
      <trkpt lat="40.223750" lon="-4.937450">
        <ele>1308.0</ele>
        <time>2015-05-23T12:42:02Z</time>
      </trkpt>
      <trkpt lat="40.223783" lon="-4.937333">
        <ele>1311.0</ele>
        <time>2015-05-23T12:42:04Z</time>
      </trkpt>
      <trkpt lat="40.223700" lon="-4.937200">
        <ele>1313.0</ele>
        <time>2015-05-23T12:42:06Z</time>
      </trkpt>
      <trkpt lat="40.223533" lon="-4.937117">
        <ele>1317.0</ele>
        <time>2015-05-23T12:42:08Z</time>
      </trkpt>
      <trkpt lat="40.223350" lon="-4.937183">
        <ele>1320.0</ele>
        <time>2015-05-23T12:42:10Z</time>
      </trkpt>
      <trkpt lat="40.223167" lon="-4.937400">
        <ele>1320.0</ele>
        <time>2015-05-23T12:42:12Z</time>
      </trkpt>
      <trkpt lat="40.223050" lon="-4.937700">
        <ele>1322.0</ele>
        <time>2015-05-23T12:42:14Z</time>
      </trkpt>
      <trkpt lat="40.223050" lon="-4.938017">
        <ele>1326.0</ele>
        <time>2015-05-23T12:42:16Z</time>
      </trkpt>
      <trkpt lat="40.223117" lon="-4.938283">
        <ele>1329.0</ele>
        <time>2015-05-23T12:42:18Z</time>
      </trkpt>
      <trkpt lat="40.223233" lon="-4.938450">
        <ele>1333.0</ele>
        <time>2015-05-23T12:42:20Z</time>
      </trkpt>
      <trkpt lat="40.223367" lon="-4.938483">
        <ele>1334.0</ele>
        <time>2015-05-23T12:42:22Z</time>
      </trkpt>
      <trkpt lat="40.223467" lon="-4.938400">
        <ele>1334.0</ele>
        <time>2015-05-23T12:42:24Z</time>
      </trkpt>
      <trkpt lat="40.223483" lon="-4.938283">
        <ele>1337.0</ele>
        <time>2015-05-23T12:42:26Z</time>
      </trkpt>
      <trkpt lat="40.223417" lon="-4.938183">
        <ele>1339.0</ele>
        <time>2015-05-23T12:42:28Z</time>
      </trkpt>
      <trkpt lat="40.223267" lon="-4.938117">
        <ele>1339.0</ele>
        <time>2015-05-23T12:42:30Z</time>
      </trkpt>
      <trkpt lat="40.223050" lon="-4.938217">
        <ele>1340.0</ele>
        <time>2015-05-23T12:42:32Z</time>
      </trkpt>
      <trkpt lat="40.222850" lon="-4.938433">
        <ele>1348.0</ele>
        <time>2015-05-23T12:42:34Z</time>
      </trkpt>
      <trkpt lat="40.222717" lon="-4.938617">
        <ele>1351.0</ele>
        <time>2015-05-23T12:42:36Z</time>
      </trkpt>
      <trkpt lat="40.222600" lon="-4.938900">
        <ele>1349.0</ele>
        <time>2015-05-23T12:42:38Z</time>
      </trkpt>
      <trkpt lat="40.222517" lon="-4.939267">
        <ele>1349.0</ele>
        <time>2015-05-23T12:42:40Z</time>
      </trkpt>
      <trkpt lat="40.222517" lon="-4.939567">
        <ele>1352.0</ele>
        <time>2015-05-23T12:42:42Z</time>
      </trkpt>
      <trkpt lat="40.222567" lon="-4.939817">
        <ele>1350.0</ele>
        <time>2015-05-23T12:42:44Z</time>
      </trkpt>
      <trkpt lat="40.222700" lon="-4.940050">
        <ele>1345.0</ele>
        <time>2015-05-23T12:42:46Z</time>
      </trkpt>
      <trkpt lat="40.222883" lon="-4.940183">
        <ele>1346.0</ele>
        <time>2015-05-23T12:42:48Z</time>
      </trkpt>
      <trkpt lat="40.223033" lon="-4.940217">
        <ele>1346.0</ele>
        <time>2015-05-23T12:42:50Z</time>
      </trkpt>
      <trkpt lat="40.223183" lon="-4.940167">
        <ele>1344.0</ele>
        <time>2015-05-23T12:42:52Z</time>
      </trkpt>
      <trkpt lat="40.223300" lon="-4.940083">
        <ele>1344.0</ele>
        <time>2015-05-23T12:42:54Z</time>
      </trkpt>
      <trkpt lat="40.223367" lon="-4.939950">
        <ele>1343.0</ele>
        <time>2015-05-23T12:42:56Z</time>
      </trkpt>
      <trkpt lat="40.223383" lon="-4.939817">
        <ele>1342.0</ele>
        <time>2015-05-23T12:42:58Z</time>
      </trkpt>
      <trkpt lat="40.223383" lon="-4.939683">
        <ele>1343.0</ele>
        <time>2015-05-23T12:43:00Z</time>
      </trkpt>
      <trkpt lat="40.223333" lon="-4.939583">
        <ele>1343.0</ele>
        <time>2015-05-23T12:43:02Z</time>
      </trkpt>
      <trkpt lat="40.223233" lon="-4.939483">
        <ele>1343.0</ele>
        <time>2015-05-23T12:43:04Z</time>
      </trkpt>
      <trkpt lat="40.223133" lon="-4.939383">
        <ele>1343.0</ele>
        <time>2015-05-23T12:43:06Z</time>
      </trkpt>
      <trkpt lat="40.223033" lon="-4.939283">
        <ele>1342.0</ele>
        <time>2015-05-23T12:43:08Z</time>
      </trkpt>
      <trkpt lat="40.222867" lon="-4.939200">
        <ele>1345.0</ele>
        <time>2015-05-23T12:43:10Z</time>
      </trkpt>
      <trkpt lat="40.222733" lon="-4.939167">
        <ele>1349.0</ele>
        <time>2015-05-23T12:43:12Z</time>
      </trkpt>
      <trkpt lat="40.222600" lon="-4.939150">
        <ele>1348.0</ele>
        <time>2015-05-23T12:43:14Z</time>
      </trkpt>
      <trkpt lat="40.222417" lon="-4.939183">
        <ele>1349.0</ele>
        <time>2015-05-23T12:43:16Z</time>
      </trkpt>
      <trkpt lat="40.222233" lon="-4.939233">
        <ele>1351.0</ele>
        <time>2015-05-23T12:43:18Z</time>
      </trkpt>
      <trkpt lat="40.222050" lon="-4.939283">
        <ele>1351.0</ele>
        <time>2015-05-23T12:43:20Z</time>
      </trkpt>
      <trkpt lat="40.221867" lon="-4.939383">
        <ele>1349.0</ele>
        <time>2015-05-23T12:43:22Z</time>
      </trkpt>
      <trkpt lat="40.221700" lon="-4.939567">
        <ele>1349.0</ele>
        <time>2015-05-23T12:43:24Z</time>
      </trkpt>
      <trkpt lat="40.221583" lon="-4.939767">
        <ele>1348.0</ele>
        <time>2015-05-23T12:43:26Z</time>
      </trkpt>
      <trkpt lat="40.221500" lon="-4.940017">
        <ele>1343.0</ele>
        <time>2015-05-23T12:43:28Z</time>
      </trkpt>
      <trkpt lat="40.221500" lon="-4.940350">
        <ele>1337.0</ele>
        <time>2015-05-23T12:43:30Z</time>
      </trkpt>
      <trkpt lat="40.221517" lon="-4.940650">
        <ele>1335.0</ele>
        <time>2015-05-23T12:43:32Z</time>
      </trkpt>
      <trkpt lat="40.221467" lon="-4.940850">
        <ele>1332.0</ele>
        <time>2015-05-23T12:43:34Z</time>
      </trkpt>
      <trkpt lat="40.221333" lon="-4.941050">
        <ele>1323.0</ele>
        <time>2015-05-23T12:43:36Z</time>
      </trkpt>
      <trkpt lat="40.221150" lon="-4.941183">
        <ele>1318.0</ele>
        <time>2015-05-23T12:43:38Z</time>
      </trkpt>
      <trkpt lat="40.220983" lon="-4.941183">
        <ele>1315.0</ele>
        <time>2015-05-23T12:43:40Z</time>
      </trkpt>
      <trkpt lat="40.220817" lon="-4.941117">
        <ele>1313.0</ele>
        <time>2015-05-23T12:43:42Z</time>
      </trkpt>
      <trkpt lat="40.220667" lon="-4.941050">
        <ele>1310.0</ele>
        <time>2015-05-23T12:43:44Z</time>
      </trkpt>
      <trkpt lat="40.220500" lon="-4.941000">
        <ele>1304.0</ele>
        <time>2015-05-23T12:43:46Z</time>
      </trkpt>
      <trkpt lat="40.220283" lon="-4.940933">
        <ele>1299.0</ele>
        <time>2015-05-23T12:43:48Z</time>
      </trkpt>
      <trkpt lat="40.220117" lon="-4.940917">
        <ele>1296.0</ele>
        <time>2015-05-23T12:43:50Z</time>
      </trkpt>
      <trkpt lat="40.219950" lon="-4.940883">
        <ele>1289.0</ele>
        <time>2015-05-23T12:43:52Z</time>
      </trkpt>
      <trkpt lat="40.219750" lon="-4.940850">
        <ele>1283.0</ele>
        <time>2015-05-23T12:43:54Z</time>
      </trkpt>
      <trkpt lat="40.219550" lon="-4.940833">
        <ele>1279.0</ele>
        <time>2015-05-23T12:43:56Z</time>
      </trkpt>
      <trkpt lat="40.219383" lon="-4.940783">
        <ele>1273.0</ele>
        <time>2015-05-23T12:43:58Z</time>
      </trkpt>
      <trkpt lat="40.219167" lon="-4.940717">
        <ele>1267.0</ele>
        <time>2015-05-23T12:44:00Z</time>
      </trkpt>
      <trkpt lat="40.218983" lon="-4.940683">
        <ele>1265.0</ele>
        <time>2015-05-23T12:44:02Z</time>
      </trkpt>
      <trkpt lat="40.218833" lon="-4.940650">
        <ele>1261.0</ele>
        <time>2015-05-23T12:44:04Z</time>
      </trkpt>
      <trkpt lat="40.218650" lon="-4.940617">
        <ele>1254.0</ele>
        <time>2015-05-23T12:44:06Z</time>
      </trkpt>
      <trkpt lat="40.218467" lon="-4.940583">
        <ele>1251.0</ele>
        <time>2015-05-23T12:44:08Z</time>
      </trkpt>
      <trkpt lat="40.218300" lon="-4.940600">
        <ele>1247.0</ele>
        <time>2015-05-23T12:44:10Z</time>
      </trkpt>
      <trkpt lat="40.218100" lon="-4.940650">
        <ele>1241.0</ele>
        <time>2015-05-23T12:44:12Z</time>
      </trkpt>
      <trkpt lat="40.217883" lon="-4.940717">
        <ele>1235.0</ele>
        <time>2015-05-23T12:44:14Z</time>
      </trkpt>
      <trkpt lat="40.217683" lon="-4.940783">
        <ele>1231.0</ele>
        <time>2015-05-23T12:44:16Z</time>
      </trkpt>
      <trkpt lat="40.217500" lon="-4.940817">
        <ele>1226.0</ele>
        <time>2015-05-23T12:44:18Z</time>
      </trkpt>
      <trkpt lat="40.217267" lon="-4.940850">
        <ele>1221.0</ele>
        <time>2015-05-23T12:44:20Z</time>
      </trkpt>
      <trkpt lat="40.217050" lon="-4.940883">
        <ele>1219.0</ele>
        <time>2015-05-23T12:44:22Z</time>
      </trkpt>
      <trkpt lat="40.216850" lon="-4.940917">
        <ele>1216.0</ele>
        <time>2015-05-23T12:44:24Z</time>
      </trkpt>
      <trkpt lat="40.216650" lon="-4.940933">
        <ele>1211.0</ele>
        <time>2015-05-23T12:44:26Z</time>
      </trkpt>
      <trkpt lat="40.216417" lon="-4.940933">
        <ele>1206.0</ele>
        <time>2015-05-23T12:44:28Z</time>
      </trkpt>
      <trkpt lat="40.216200" lon="-4.940950">
        <ele>1202.0</ele>
        <time>2015-05-23T12:44:30Z</time>
      </trkpt>
      <trkpt lat="40.215983" lon="-4.941000">
        <ele>1202.0</ele>
        <time>2015-05-23T12:44:32Z</time>
      </trkpt>
      <trkpt lat="40.215800" lon="-4.941050">
        <ele>1200.0</ele>
        <time>2015-05-23T12:44:34Z</time>
      </trkpt>
      <trkpt lat="40.215600" lon="-4.941067">
        <ele>1196.0</ele>
        <time>2015-05-23T12:44:36Z</time>
      </trkpt>
      <trkpt lat="40.215400" lon="-4.941100">
        <ele>1196.0</ele>
        <time>2015-05-23T12:44:38Z</time>
      </trkpt>
      <trkpt lat="40.215233" lon="-4.941117">
        <ele>1197.0</ele>
        <time>2015-05-23T12:44:40Z</time>
      </trkpt>
      <trkpt lat="40.215083" lon="-4.941133">
        <ele>1195.0</ele>
        <time>2015-05-23T12:44:42Z</time>
      </trkpt>
      <trkpt lat="40.214917" lon="-4.941100">
        <ele>1191.0</ele>
        <time>2015-05-23T12:44:44Z</time>
      </trkpt>
      <trkpt lat="40.214750" lon="-4.941050">
        <ele>1189.0</ele>
        <time>2015-05-23T12:44:46Z</time>
      </trkpt>
      <trkpt lat="40.214583" lon="-4.941017">
        <ele>1188.0</ele>
        <time>2015-05-23T12:44:48Z</time>
      </trkpt>
      <trkpt lat="40.214417" lon="-4.941000">
        <ele>1185.0</ele>
        <time>2015-05-23T12:44:50Z</time>
      </trkpt>
      <trkpt lat="40.214233" lon="-4.940983">
        <ele>1182.0</ele>
        <time>2015-05-23T12:44:52Z</time>
      </trkpt>
      <trkpt lat="40.214067" lon="-4.940967">
        <ele>1180.0</ele>
        <time>2015-05-23T12:44:54Z</time>
      </trkpt>
      <trkpt lat="40.213933" lon="-4.940917">
        <ele>1178.0</ele>
        <time>2015-05-23T12:44:56Z</time>
      </trkpt>
      <trkpt lat="40.213783" lon="-4.940850">
        <ele>1174.0</ele>
        <time>2015-05-23T12:44:58Z</time>
      </trkpt>
      <trkpt lat="40.213633" lon="-4.940783">
        <ele>1172.0</ele>
        <time>2015-05-23T12:45:00Z</time>
      </trkpt>
      <trkpt lat="40.213483" lon="-4.940733">
        <ele>1170.0</ele>
        <time>2015-05-23T12:45:02Z</time>
      </trkpt>
      <trkpt lat="40.213333" lon="-4.940717">
        <ele>1169.0</ele>
        <time>2015-05-23T12:45:04Z</time>
      </trkpt>
      <trkpt lat="40.213167" lon="-4.940683">
        <ele>1167.0</ele>
        <time>2015-05-23T12:45:06Z</time>
      </trkpt>
      <trkpt lat="40.212983" lon="-4.940650">
        <ele>1165.0</ele>
        <time>2015-05-23T12:45:08Z</time>
      </trkpt>
      <trkpt lat="40.212817" lon="-4.940633">
        <ele>1162.0</ele>
        <time>2015-05-23T12:45:10Z</time>
      </trkpt>
      <trkpt lat="40.212617" lon="-4.940617">
        <ele>1159.0</ele>
        <time>2015-05-23T12:45:12Z</time>
      </trkpt>
      <trkpt lat="40.212433" lon="-4.940567">
        <ele>1156.0</ele>
        <time>2015-05-23T12:45:14Z</time>
      </trkpt>
      <trkpt lat="40.212250" lon="-4.940550">
        <ele>1153.0</ele>
        <time>2015-05-23T12:45:16Z</time>
      </trkpt>
      <trkpt lat="40.212067" lon="-4.940583">
        <ele>1151.0</ele>
        <time>2015-05-23T12:45:18Z</time>
      </trkpt>
      <trkpt lat="40.211867" lon="-4.940683">
        <ele>1147.0</ele>
        <time>2015-05-23T12:45:20Z</time>
      </trkpt>
      <trkpt lat="40.211667" lon="-4.940833">
        <ele>1144.0</ele>
        <time>2015-05-23T12:45:22Z</time>
      </trkpt>
      <trkpt lat="40.211467" lon="-4.940983">
        <ele>1141.0</ele>
        <time>2015-05-23T12:45:24Z</time>
      </trkpt>
      <trkpt lat="40.211267" lon="-4.941100">
        <ele>1136.0</ele>
        <time>2015-05-23T12:45:26Z</time>
      </trkpt>
      <trkpt lat="40.211050" lon="-4.941200">
        <ele>1130.0</ele>
        <time>2015-05-23T12:45:28Z</time>
      </trkpt>
      <trkpt lat="40.210850" lon="-4.941317">
        <ele>1125.0</ele>
        <time>2015-05-23T12:45:30Z</time>
      </trkpt>
      <trkpt lat="40.210667" lon="-4.941383">
        <ele>1121.0</ele>
        <time>2015-05-23T12:45:32Z</time>
      </trkpt>
      <trkpt lat="40.210483" lon="-4.941433">
        <ele>1115.0</ele>
        <time>2015-05-23T12:45:34Z</time>
      </trkpt>
      <trkpt lat="40.210300" lon="-4.941450">
        <ele>1108.0</ele>
        <time>2015-05-23T12:45:36Z</time>
      </trkpt>
      <trkpt lat="40.210100" lon="-4.941467">
        <ele>1102.0</ele>
        <time>2015-05-23T12:45:38Z</time>
      </trkpt>
      <trkpt lat="40.209933" lon="-4.941483">
        <ele>1096.0</ele>
        <time>2015-05-23T12:45:40Z</time>
      </trkpt>
      <trkpt lat="40.209750" lon="-4.941483">
        <ele>1089.0</ele>
        <time>2015-05-23T12:45:42Z</time>
      </trkpt>
      <trkpt lat="40.209550" lon="-4.941483">
        <ele>1083.0</ele>
        <time>2015-05-23T12:45:44Z</time>
      </trkpt>
      <trkpt lat="40.209400" lon="-4.941467">
        <ele>1078.0</ele>
        <time>2015-05-23T12:45:46Z</time>
      </trkpt>
      <trkpt lat="40.209267" lon="-4.941400">
        <ele>1071.0</ele>
        <time>2015-05-23T12:45:48Z</time>
      </trkpt>
      <trkpt lat="40.209183" lon="-4.941267">
        <ele>1064.0</ele>
        <time>2015-05-23T12:45:50Z</time>
      </trkpt>
      <trkpt lat="40.209150" lon="-4.941150">
        <ele>1061.0</ele>
        <time>2015-05-23T12:45:52Z</time>
      </trkpt>
      <trkpt lat="40.209133" lon="-4.941067">
        <ele>1058.0</ele>
        <time>2015-05-23T12:45:54Z</time>
      </trkpt>
      <trkpt lat="40.209100" lon="-4.940967">
        <ele>1053.0</ele>
        <time>2015-05-23T12:45:56Z</time>
      </trkpt>
      <trkpt lat="40.209067" lon="-4.940883">
        <ele>1051.0</ele>
        <time>2015-05-23T12:45:58Z</time>
      </trkpt>
      <trkpt lat="40.209000" lon="-4.940800">
        <ele>1051.0</ele>
        <time>2015-05-23T12:46:00Z</time>
      </trkpt>
      <trkpt lat="40.208950" lon="-4.940750">
        <ele>1052.0</ele>
        <time>2015-05-23T12:46:02Z</time>
      </trkpt>
      <trkpt lat="40.208867" lon="-4.940717">
        <ele>1050.0</ele>
        <time>2015-05-23T12:46:04Z</time>
      </trkpt>
      <trkpt lat="40.208750" lon="-4.940683">
        <ele>1050.0</ele>
        <time>2015-05-23T12:46:06Z</time>
      </trkpt>
      <trkpt lat="40.208650" lon="-4.940633">
        <ele>1051.0</ele>
        <time>2015-05-23T12:46:08Z</time>
      </trkpt>
      <trkpt lat="40.208567" lon="-4.940600">
        <ele>1052.0</ele>
        <time>2015-05-23T12:46:10Z</time>
      </trkpt>
      <trkpt lat="40.208467" lon="-4.940633">
        <ele>1052.0</ele>
        <time>2015-05-23T12:46:12Z</time>
      </trkpt>
      <trkpt lat="40.208350" lon="-4.940733">
        <ele>1053.0</ele>
        <time>2015-05-23T12:46:14Z</time>
      </trkpt>
      <trkpt lat="40.208233" lon="-4.940817">
        <ele>1052.0</ele>
        <time>2015-05-23T12:46:16Z</time>
      </trkpt>
      <trkpt lat="40.208100" lon="-4.940917">
        <ele>1052.0</ele>
        <time>2015-05-23T12:46:18Z</time>
      </trkpt>
      <trkpt lat="40.207967" lon="-4.941100">
        <ele>1055.0</ele>
        <time>2015-05-23T12:46:20Z</time>
      </trkpt>
      <trkpt lat="40.207867" lon="-4.941200">
        <ele>1059.0</ele>
        <time>2015-05-23T12:46:22Z</time>
      </trkpt>
      <trkpt lat="40.207767" lon="-4.941200">
        <ele>1058.0</ele>
        <time>2015-05-23T12:46:24Z</time>
      </trkpt>
      <trkpt lat="40.207683" lon="-4.941083">
        <ele>1060.0</ele>
        <time>2015-05-23T12:46:26Z</time>
      </trkpt>
      <trkpt lat="40.207667" lon="-4.940967">
        <ele>1066.0</ele>
        <time>2015-05-23T12:46:28Z</time>
      </trkpt>
      <trkpt lat="40.207683" lon="-4.940833">
        <ele>1070.0</ele>
        <time>2015-05-23T12:46:30Z</time>
      </trkpt>
      <trkpt lat="40.207783" lon="-4.940717">
        <ele>1073.0</ele>
        <time>2015-05-23T12:46:32Z</time>
      </trkpt>
      <trkpt lat="40.207883" lon="-4.940617">
        <ele>1077.0</ele>
        <time>2015-05-23T12:46:34Z</time>
      </trkpt>
      <trkpt lat="40.208033" lon="-4.940517">
        <ele>1077.0</ele>
        <time>2015-05-23T12:46:36Z</time>
      </trkpt>
      <trkpt lat="40.208200" lon="-4.940450">
        <ele>1080.0</ele>
        <time>2015-05-23T12:46:38Z</time>
      </trkpt>
      <trkpt lat="40.208383" lon="-4.940500">
        <ele>1080.0</ele>
        <time>2015-05-23T12:46:40Z</time>
      </trkpt>
      <trkpt lat="40.208567" lon="-4.940650">
        <ele>1077.0</ele>
        <time>2015-05-23T12:46:42Z</time>
      </trkpt>
      <trkpt lat="40.208750" lon="-4.940867">
        <ele>1077.0</ele>
        <time>2015-05-23T12:46:44Z</time>
      </trkpt>
      <trkpt lat="40.208900" lon="-4.941150">
        <ele>1079.0</ele>
        <time>2015-05-23T12:46:46Z</time>
      </trkpt>
      <trkpt lat="40.208950" lon="-4.941450">
        <ele>1081.0</ele>
        <time>2015-05-23T12:46:48Z</time>
      </trkpt>
      <trkpt lat="40.208967" lon="-4.941733">
        <ele>1084.0</ele>
        <time>2015-05-23T12:46:50Z</time>
      </trkpt>
      <trkpt lat="40.208917" lon="-4.941983">
        <ele>1085.0</ele>
        <time>2015-05-23T12:46:52Z</time>
      </trkpt>
      <trkpt lat="40.208833" lon="-4.942233">
        <ele>1087.0</ele>
        <time>2015-05-23T12:46:54Z</time>
      </trkpt>
      <trkpt lat="40.208733" lon="-4.942450">
        <ele>1088.0</ele>
        <time>2015-05-23T12:46:56Z</time>
      </trkpt>
      <trkpt lat="40.208600" lon="-4.942600">
        <ele>1086.0</ele>
        <time>2015-05-23T12:46:58Z</time>
      </trkpt>
      <trkpt lat="40.208450" lon="-4.942667">
        <ele>1086.0</ele>
        <time>2015-05-23T12:47:00Z</time>
      </trkpt>
      <trkpt lat="40.208300" lon="-4.942717">
        <ele>1087.0</ele>
        <time>2015-05-23T12:47:02Z</time>
      </trkpt>
      <trkpt lat="40.208183" lon="-4.942667">
        <ele>1088.0</ele>
        <time>2015-05-23T12:47:04Z</time>
      </trkpt>
      <trkpt lat="40.208100" lon="-4.942600">
        <ele>1093.0</ele>
        <time>2015-05-23T12:47:06Z</time>
      </trkpt>
      <trkpt lat="40.208017" lon="-4.942533">
        <ele>1095.0</ele>
        <time>2015-05-23T12:47:08Z</time>
      </trkpt>
      <trkpt lat="40.207917" lon="-4.942433">
        <ele>1096.0</ele>
        <time>2015-05-23T12:47:10Z</time>
      </trkpt>
      <trkpt lat="40.207867" lon="-4.942333">
        <ele>1100.0</ele>
        <time>2015-05-23T12:47:12Z</time>
      </trkpt>
      <trkpt lat="40.207867" lon="-4.942250">
        <ele>1100.0</ele>
        <time>2015-05-23T12:47:14Z</time>
      </trkpt>
      <trkpt lat="40.207917" lon="-4.942117">
        <ele>1098.0</ele>
        <time>2015-05-23T12:47:16Z</time>
      </trkpt>
      <trkpt lat="40.208017" lon="-4.941983">
        <ele>1100.0</ele>
        <time>2015-05-23T12:47:18Z</time>
      </trkpt>
      <trkpt lat="40.208133" lon="-4.941933">
        <ele>1104.0</ele>
        <time>2015-05-23T12:47:20Z</time>
      </trkpt>
      <trkpt lat="40.208250" lon="-4.941933">
        <ele>1103.0</ele>
        <time>2015-05-23T12:47:22Z</time>
      </trkpt>
      <trkpt lat="40.208467" lon="-4.942000">
        <ele>1100.0</ele>
        <time>2015-05-23T12:47:24Z</time>
      </trkpt>
      <trkpt lat="40.208650" lon="-4.942167">
        <ele>1101.0</ele>
        <time>2015-05-23T12:47:26Z</time>
      </trkpt>
      <trkpt lat="40.208767" lon="-4.942383">
        <ele>1099.0</ele>
        <time>2015-05-23T12:47:28Z</time>
      </trkpt>
      <trkpt lat="40.208833" lon="-4.942700">
        <ele>1096.0</ele>
        <time>2015-05-23T12:47:30Z</time>
      </trkpt>
      <trkpt lat="40.208850" lon="-4.943050">
        <ele>1099.0</ele>
        <time>2015-05-23T12:47:32Z</time>
      </trkpt>
      <trkpt lat="40.208850" lon="-4.943333">
        <ele>1103.0</ele>
        <time>2015-05-23T12:47:34Z</time>
      </trkpt>
      <trkpt lat="40.208933" lon="-4.943633">
        <ele>1104.0</ele>
        <time>2015-05-23T12:47:36Z</time>
      </trkpt>
      <trkpt lat="40.209083" lon="-4.943883">
        <ele>1106.0</ele>
        <time>2015-05-23T12:47:38Z</time>
      </trkpt>
      <trkpt lat="40.209267" lon="-4.943967">
        <ele>1108.0</ele>
        <time>2015-05-23T12:47:40Z</time>
      </trkpt>
      <trkpt lat="40.209450" lon="-4.943950">
        <ele>1110.0</ele>
        <time>2015-05-23T12:47:42Z</time>
      </trkpt>
      <trkpt lat="40.209533" lon="-4.943833">
        <ele>1112.0</ele>
        <time>2015-05-23T12:47:44Z</time>
      </trkpt>
      <trkpt lat="40.209517" lon="-4.943733">
        <ele>1114.0</ele>
        <time>2015-05-23T12:47:46Z</time>
      </trkpt>
      <trkpt lat="40.209433" lon="-4.943700">
        <ele>1116.0</ele>
        <time>2015-05-23T12:47:48Z</time>
      </trkpt>
      <trkpt lat="40.209300" lon="-4.943750">
        <ele>1116.0</ele>
        <time>2015-05-23T12:47:50Z</time>
      </trkpt>
      <trkpt lat="40.209133" lon="-4.943933">
        <ele>1116.0</ele>
        <time>2015-05-23T12:47:52Z</time>
      </trkpt>
      <trkpt lat="40.209000" lon="-4.944167">
        <ele>1121.0</ele>
        <time>2015-05-23T12:47:54Z</time>
      </trkpt>
      <trkpt lat="40.208900" lon="-4.944383">
        <ele>1124.0</ele>
        <time>2015-05-23T12:47:56Z</time>
      </trkpt>
      <trkpt lat="40.208817" lon="-4.944667">
        <ele>1124.0</ele>
        <time>2015-05-23T12:47:58Z</time>
      </trkpt>
      <trkpt lat="40.208800" lon="-4.945017">
        <ele>1125.0</ele>
        <time>2015-05-23T12:48:00Z</time>
      </trkpt>
      <trkpt lat="40.208850" lon="-4.945333">
        <ele>1128.0</ele>
        <time>2015-05-23T12:48:02Z</time>
      </trkpt>
      <trkpt lat="40.208967" lon="-4.945583">
        <ele>1125.0</ele>
        <time>2015-05-23T12:48:04Z</time>
      </trkpt>
      <trkpt lat="40.209167" lon="-4.945783">
        <ele>1122.0</ele>
        <time>2015-05-23T12:48:06Z</time>
      </trkpt>
      <trkpt lat="40.209333" lon="-4.945867">
        <ele>1121.0</ele>
        <time>2015-05-23T12:48:08Z</time>
      </trkpt>
      <trkpt lat="40.209483" lon="-4.945883">
        <ele>1119.0</ele>
        <time>2015-05-23T12:48:10Z</time>
      </trkpt>
      <trkpt lat="40.209633" lon="-4.945833">
        <ele>1118.0</ele>
        <time>2015-05-23T12:48:12Z</time>
      </trkpt>
      <trkpt lat="40.209717" lon="-4.945783">
        <ele>1118.0</ele>
        <time>2015-05-23T12:48:14Z</time>
      </trkpt>
      <trkpt lat="40.209783" lon="-4.945717">
        <ele>1117.0</ele>
        <time>2015-05-23T12:48:16Z</time>
      </trkpt>
      <trkpt lat="40.209817" lon="-4.945600">
        <ele>1117.0</ele>
        <time>2015-05-23T12:48:18Z</time>
      </trkpt>
      <trkpt lat="40.209817" lon="-4.945517">
        <ele>1118.0</ele>
        <time>2015-05-23T12:48:20Z</time>
      </trkpt>
      <trkpt lat="40.209817" lon="-4.945433">
        <ele>1120.0</ele>
        <time>2015-05-23T12:48:22Z</time>
      </trkpt>
      <trkpt lat="40.209783" lon="-4.945333">
        <ele>1120.0</ele>
        <time>2015-05-23T12:48:24Z</time>
      </trkpt>
      <trkpt lat="40.209717" lon="-4.945267">
        <ele>1122.0</ele>
        <time>2015-05-23T12:48:26Z</time>
      </trkpt>
      <trkpt lat="40.209633" lon="-4.945167">
        <ele>1123.0</ele>
        <time>2015-05-23T12:48:28Z</time>
      </trkpt>
      <trkpt lat="40.209517" lon="-4.945100">
        <ele>1126.0</ele>
        <time>2015-05-23T12:48:30Z</time>
      </trkpt>
      <trkpt lat="40.209400" lon="-4.945083">
        <ele>1130.0</ele>
        <time>2015-05-23T12:48:32Z</time>
      </trkpt>
      <trkpt lat="40.209267" lon="-4.945133">
        <ele>1132.0</ele>
        <time>2015-05-23T12:48:34Z</time>
      </trkpt>
      <trkpt lat="40.209083" lon="-4.945250">
        <ele>1131.0</ele>
        <time>2015-05-23T12:48:36Z</time>
      </trkpt>
      <trkpt lat="40.208900" lon="-4.945383">
        <ele>1133.0</ele>
        <time>2015-05-23T12:48:38Z</time>
      </trkpt>
      <trkpt lat="40.208733" lon="-4.945567">
        <ele>1136.0</ele>
        <time>2015-05-23T12:48:40Z</time>
      </trkpt>
      <trkpt lat="40.208600" lon="-4.945800">
        <ele>1140.0</ele>
        <time>2015-05-23T12:48:42Z</time>
      </trkpt>
      <trkpt lat="40.208550" lon="-4.946083">
        <ele>1142.0</ele>
        <time>2015-05-23T12:48:44Z</time>
      </trkpt>
      <trkpt lat="40.208567" lon="-4.946367">
        <ele>1144.0</ele>
        <time>2015-05-23T12:48:46Z</time>
      </trkpt>
      <trkpt lat="40.208650" lon="-4.946617">
        <ele>1145.0</ele>
        <time>2015-05-23T12:48:48Z</time>
      </trkpt>
      <trkpt lat="40.208800" lon="-4.946833">
        <ele>1146.0</ele>
        <time>2015-05-23T12:48:50Z</time>
      </trkpt>
      <trkpt lat="40.208967" lon="-4.946917">
        <ele>1146.0</ele>
        <time>2015-05-23T12:48:52Z</time>
      </trkpt>
      <trkpt lat="40.209133" lon="-4.946900">
        <ele>1145.0</ele>
        <time>2015-05-23T12:48:54Z</time>
      </trkpt>
      <trkpt lat="40.209283" lon="-4.946833">
        <ele>1147.0</ele>
        <time>2015-05-23T12:48:56Z</time>
      </trkpt>
      <trkpt lat="40.209333" lon="-4.946750">
        <ele>1151.0</ele>
        <time>2015-05-23T12:48:58Z</time>
      </trkpt>
      <trkpt lat="40.209333" lon="-4.946650">
        <ele>1153.0</ele>
        <time>2015-05-23T12:49:00Z</time>
      </trkpt>
      <trkpt lat="40.209317" lon="-4.946567">
        <ele>1155.0</ele>
        <time>2015-05-23T12:49:02Z</time>
      </trkpt>
      <trkpt lat="40.209217" lon="-4.946483">
        <ele>1157.0</ele>
        <time>2015-05-23T12:49:04Z</time>
      </trkpt>
      <trkpt lat="40.209117" lon="-4.946433">
        <ele>1160.0</ele>
        <time>2015-05-23T12:49:06Z</time>
      </trkpt>
      <trkpt lat="40.208967" lon="-4.946467">
        <ele>1162.0</ele>
        <time>2015-05-23T12:49:08Z</time>
      </trkpt>
      <trkpt lat="40.208800" lon="-4.946550">
        <ele>1164.0</ele>
        <time>2015-05-23T12:49:10Z</time>
      </trkpt>
      <trkpt lat="40.208633" lon="-4.946700">
        <ele>1167.0</ele>
        <time>2015-05-23T12:49:12Z</time>
      </trkpt>
      <trkpt lat="40.208533" lon="-4.946917">
        <ele>1172.0</ele>
        <time>2015-05-23T12:49:14Z</time>
      </trkpt>
      <trkpt lat="40.208483" lon="-4.947150">
        <ele>1174.0</ele>
        <time>2015-05-23T12:49:16Z</time>
      </trkpt>
      <trkpt lat="40.208517" lon="-4.947417">
        <ele>1175.0</ele>
        <time>2015-05-23T12:49:18Z</time>
      </trkpt>
      <trkpt lat="40.208650" lon="-4.947683">
        <ele>1176.0</ele>
        <time>2015-05-23T12:49:20Z</time>
      </trkpt>
      <trkpt lat="40.208783" lon="-4.947900">
        <ele>1178.0</ele>
        <time>2015-05-23T12:49:22Z</time>
      </trkpt>
      <trkpt lat="40.208950" lon="-4.948017">
        <ele>1177.0</ele>
        <time>2015-05-23T12:49:24Z</time>
      </trkpt>
      <trkpt lat="40.209150" lon="-4.948067">
        <ele>1176.0</ele>
        <time>2015-05-23T12:49:26Z</time>
      </trkpt>
      <trkpt lat="40.209317" lon="-4.948017">
        <ele>1178.0</ele>
        <time>2015-05-23T12:49:28Z</time>
      </trkpt>
      <trkpt lat="40.209400" lon="-4.947917">
        <ele>1181.0</ele>
        <time>2015-05-23T12:49:30Z</time>
      </trkpt>
      <trkpt lat="40.209433" lon="-4.947783">
        <ele>1182.0</ele>
        <time>2015-05-23T12:49:32Z</time>
      </trkpt>
      <trkpt lat="40.209400" lon="-4.947683">
        <ele>1184.0</ele>
        <time>2015-05-23T12:49:34Z</time>
      </trkpt>
      <trkpt lat="40.209317" lon="-4.947617">
        <ele>1184.0</ele>
        <time>2015-05-23T12:49:36Z</time>
      </trkpt>
      <trkpt lat="40.209183" lon="-4.947617">
        <ele>1182.0</ele>
        <time>2015-05-23T12:49:38Z</time>
      </trkpt>
      <trkpt lat="40.208983" lon="-4.947700">
        <ele>1182.0</ele>
        <time>2015-05-23T12:49:40Z</time>
      </trkpt>
      <trkpt lat="40.208833" lon="-4.947817">
        <ele>1186.0</ele>
        <time>2015-05-23T12:49:42Z</time>
      </trkpt>
      <trkpt lat="40.208733" lon="-4.947967">
        <ele>1188.0</ele>
        <time>2015-05-23T12:49:44Z</time>
      </trkpt>
      <trkpt lat="40.208633" lon="-4.948167">
        <ele>1188.0</ele>
        <time>2015-05-23T12:49:46Z</time>
      </trkpt>
      <trkpt lat="40.208583" lon="-4.948433">
        <ele>1188.0</ele>
        <time>2015-05-23T12:49:48Z</time>
      </trkpt>
      <trkpt lat="40.208650" lon="-4.948750">
        <ele>1188.0</ele>
        <time>2015-05-23T12:49:50Z</time>
      </trkpt>
      <trkpt lat="40.208800" lon="-4.949033">
        <ele>1190.0</ele>
        <time>2015-05-23T12:49:52Z</time>
      </trkpt>
      <trkpt lat="40.208917" lon="-4.949233">
        <ele>1191.0</ele>
        <time>2015-05-23T12:49:54Z</time>
      </trkpt>
      <trkpt lat="40.209083" lon="-4.949400">
        <ele>1188.0</ele>
        <time>2015-05-23T12:49:56Z</time>
      </trkpt>
      <trkpt lat="40.209283" lon="-4.949517">
        <ele>1189.0</ele>
        <time>2015-05-23T12:49:58Z</time>
      </trkpt>
      <trkpt lat="40.209450" lon="-4.949517">
        <ele>1190.0</ele>
        <time>2015-05-23T12:50:00Z</time>
      </trkpt>
      <trkpt lat="40.209583" lon="-4.949467">
        <ele>1190.0</ele>
        <time>2015-05-23T12:50:02Z</time>
      </trkpt>
      <trkpt lat="40.209650" lon="-4.949317">
        <ele>1189.0</ele>
        <time>2015-05-23T12:50:04Z</time>
      </trkpt>
      <trkpt lat="40.209633" lon="-4.949183">
        <ele>1191.0</ele>
        <time>2015-05-23T12:50:06Z</time>
      </trkpt>
      <trkpt lat="40.209583" lon="-4.949083">
        <ele>1191.0</ele>
        <time>2015-05-23T12:50:08Z</time>
      </trkpt>
      <trkpt lat="40.209483" lon="-4.949000">
        <ele>1190.0</ele>
        <time>2015-05-23T12:50:10Z</time>
      </trkpt>
      <trkpt lat="40.209317" lon="-4.948983">
        <ele>1188.0</ele>
        <time>2015-05-23T12:50:12Z</time>
      </trkpt>
      <trkpt lat="40.209167" lon="-4.949050">
        <ele>1189.0</ele>
        <time>2015-05-23T12:50:14Z</time>
      </trkpt>
      <trkpt lat="40.209050" lon="-4.949167">
        <ele>1188.0</ele>
        <time>2015-05-23T12:50:16Z</time>
      </trkpt>
      <trkpt lat="40.208917" lon="-4.949333">
        <ele>1186.0</ele>
        <time>2015-05-23T12:50:18Z</time>
      </trkpt>
      <trkpt lat="40.208817" lon="-4.949567">
        <ele>1187.0</ele>
        <time>2015-05-23T12:50:20Z</time>
      </trkpt>
      <trkpt lat="40.208733" lon="-4.949817">
        <ele>1189.0</ele>
        <time>2015-05-23T12:50:22Z</time>
      </trkpt>
      <trkpt lat="40.208683" lon="-4.950083">
        <ele>1190.0</ele>
        <time>2015-05-23T12:50:24Z</time>
      </trkpt>
      <trkpt lat="40.208650" lon="-4.950367">
        <ele>1191.0</ele>
        <time>2015-05-23T12:50:26Z</time>
      </trkpt>
      <trkpt lat="40.208667" lon="-4.950667">
        <ele>1191.0</ele>
        <time>2015-05-23T12:50:28Z</time>
      </trkpt>
      <trkpt lat="40.208733" lon="-4.951000">
        <ele>1190.0</ele>
        <time>2015-05-23T12:50:30Z</time>
      </trkpt>
      <trkpt lat="40.208850" lon="-4.951283">
        <ele>1191.0</ele>
        <time>2015-05-23T12:50:32Z</time>
      </trkpt>
      <trkpt lat="40.209000" lon="-4.951483">
        <ele>1191.0</ele>
        <time>2015-05-23T12:50:34Z</time>
      </trkpt>
      <trkpt lat="40.209183" lon="-4.951583">
        <ele>1186.0</ele>
        <time>2015-05-23T12:50:36Z</time>
      </trkpt>
      <trkpt lat="40.209367" lon="-4.951600">
        <ele>1185.0</ele>
        <time>2015-05-23T12:50:38Z</time>
      </trkpt>
      <trkpt lat="40.209517" lon="-4.951533">
        <ele>1187.0</ele>
        <time>2015-05-23T12:50:40Z</time>
      </trkpt>
      <trkpt lat="40.209617" lon="-4.951467">
        <ele>1188.0</ele>
        <time>2015-05-23T12:50:42Z</time>
      </trkpt>
      <trkpt lat="40.209683" lon="-4.951383">
        <ele>1186.0</ele>
        <time>2015-05-23T12:50:44Z</time>
      </trkpt>
      <trkpt lat="40.209683" lon="-4.951267">
        <ele>1182.0</ele>
        <time>2015-05-23T12:50:46Z</time>
      </trkpt>
      <trkpt lat="40.209633" lon="-4.951133">
        <ele>1180.0</ele>
        <time>2015-05-23T12:50:48Z</time>
      </trkpt>
      <trkpt lat="40.209550" lon="-4.951083">
        <ele>1178.0</ele>
        <time>2015-05-23T12:50:50Z</time>
      </trkpt>
      <trkpt lat="40.209417" lon="-4.951033">
        <ele>1175.0</ele>
        <time>2015-05-23T12:50:52Z</time>
      </trkpt>
      <trkpt lat="40.209267" lon="-4.951067">
        <ele>1174.0</ele>
        <time>2015-05-23T12:50:54Z</time>
      </trkpt>
      <trkpt lat="40.209133" lon="-4.951167">
        <ele>1174.0</ele>
        <time>2015-05-23T12:50:56Z</time>
      </trkpt>
      <trkpt lat="40.209000" lon="-4.951300">
        <ele>1174.0</ele>
        <time>2015-05-23T12:50:58Z</time>
      </trkpt>
      <trkpt lat="40.208883" lon="-4.951500">
        <ele>1175.0</ele>
        <time>2015-05-23T12:51:00Z</time>
      </trkpt>
      <trkpt lat="40.208783" lon="-4.951717">
        <ele>1174.0</ele>
        <time>2015-05-23T12:51:02Z</time>
      </trkpt>
      <trkpt lat="40.208667" lon="-4.952000">
        <ele>1174.0</ele>
        <time>2015-05-23T12:51:04Z</time>
      </trkpt>
      <trkpt lat="40.208600" lon="-4.952283">
        <ele>1177.0</ele>
        <time>2015-05-23T12:51:06Z</time>
      </trkpt>
      <trkpt lat="40.208550" lon="-4.952550">
        <ele>1178.0</ele>
        <time>2015-05-23T12:51:08Z</time>
      </trkpt>
      <trkpt lat="40.208567" lon="-4.952867">
        <ele>1177.0</ele>
        <time>2015-05-23T12:51:10Z</time>
      </trkpt>
      <trkpt lat="40.208633" lon="-4.953183">
        <ele>1178.0</ele>
        <time>2015-05-23T12:51:12Z</time>
      </trkpt>
      <trkpt lat="40.208717" lon="-4.953433">
        <ele>1178.0</ele>
        <time>2015-05-23T12:51:14Z</time>
      </trkpt>
      <trkpt lat="40.208867" lon="-4.953650">
        <ele>1176.0</ele>
        <time>2015-05-23T12:51:16Z</time>
      </trkpt>
      <trkpt lat="40.209017" lon="-4.953783">
        <ele>1174.0</ele>
        <time>2015-05-23T12:51:18Z</time>
      </trkpt>
      <trkpt lat="40.209167" lon="-4.953850">
        <ele>1173.0</ele>
        <time>2015-05-23T12:51:20Z</time>
      </trkpt>
      <trkpt lat="40.209300" lon="-4.953833">
        <ele>1169.0</ele>
        <time>2015-05-23T12:51:22Z</time>
      </trkpt>
      <trkpt lat="40.209417" lon="-4.953750">
        <ele>1168.0</ele>
        <time>2015-05-23T12:51:24Z</time>
      </trkpt>
      <trkpt lat="40.209467" lon="-4.953650">
        <ele>1168.0</ele>
        <time>2015-05-23T12:51:26Z</time>
      </trkpt>
      <trkpt lat="40.209450" lon="-4.953533">
        <ele>1167.0</ele>
        <time>2015-05-23T12:51:28Z</time>
      </trkpt>
      <trkpt lat="40.209400" lon="-4.953450">
        <ele>1166.0</ele>
        <time>2015-05-23T12:51:30Z</time>
      </trkpt>
      <trkpt lat="40.209333" lon="-4.953383">
        <ele>1162.0</ele>
        <time>2015-05-23T12:51:32Z</time>
      </trkpt>
      <trkpt lat="40.209200" lon="-4.953317">
        <ele>1158.0</ele>
        <time>2015-05-23T12:51:34Z</time>
      </trkpt>
      <trkpt lat="40.209017" lon="-4.953300">
        <ele>1158.0</ele>
        <time>2015-05-23T12:51:36Z</time>
      </trkpt>
      <trkpt lat="40.208867" lon="-4.953350">
        <ele>1159.0</ele>
        <time>2015-05-23T12:51:38Z</time>
      </trkpt>
      <trkpt lat="40.208717" lon="-4.953433">
        <ele>1157.0</ele>
        <time>2015-05-23T12:51:40Z</time>
      </trkpt>
      <trkpt lat="40.208533" lon="-4.953533">
        <ele>1156.0</ele>
        <time>2015-05-23T12:51:42Z</time>
      </trkpt>
      <trkpt lat="40.208383" lon="-4.953600">
        <ele>1158.0</ele>
        <time>2015-05-23T12:51:44Z</time>
      </trkpt>
      <trkpt lat="40.208250" lon="-4.953683">
        <ele>1160.0</ele>
        <time>2015-05-23T12:51:46Z</time>
      </trkpt>
      <trkpt lat="40.208150" lon="-4.953850">
        <ele>1159.0</ele>
        <time>2015-05-23T12:51:48Z</time>
      </trkpt>
      <trkpt lat="40.208100" lon="-4.954100">
        <ele>1159.0</ele>
        <time>2015-05-23T12:51:50Z</time>
      </trkpt>
      <trkpt lat="40.208067" lon="-4.954367">
        <ele>1158.0</ele>
        <time>2015-05-23T12:51:52Z</time>
      </trkpt>
      <trkpt lat="40.208100" lon="-4.954683">
        <ele>1157.0</ele>
        <time>2015-05-23T12:51:54Z</time>
      </trkpt>
      <trkpt lat="40.208217" lon="-4.954967">
        <ele>1157.0</ele>
        <time>2015-05-23T12:51:56Z</time>
      </trkpt>
      <trkpt lat="40.208367" lon="-4.955217">
        <ele>1157.0</ele>
        <time>2015-05-23T12:51:58Z</time>
      </trkpt>
      <trkpt lat="40.208550" lon="-4.955400">
        <ele>1155.0</ele>
        <time>2015-05-23T12:52:00Z</time>
      </trkpt>
      <trkpt lat="40.208733" lon="-4.955450">
        <ele>1154.0</ele>
        <time>2015-05-23T12:52:02Z</time>
      </trkpt>
      <trkpt lat="40.208883" lon="-4.955417">
        <ele>1154.0</ele>
        <time>2015-05-23T12:52:04Z</time>
      </trkpt>
      <trkpt lat="40.209000" lon="-4.955400">
        <ele>1153.0</ele>
        <time>2015-05-23T12:52:06Z</time>
      </trkpt>
      <trkpt lat="40.209117" lon="-4.955333">
        <ele>1150.0</ele>
        <time>2015-05-23T12:52:08Z</time>
      </trkpt>
      <trkpt lat="40.209183" lon="-4.955183">
        <ele>1147.0</ele>
        <time>2015-05-23T12:52:10Z</time>
      </trkpt>
      <trkpt lat="40.209217" lon="-4.955050">
        <ele>1146.0</ele>
        <time>2015-05-23T12:52:12Z</time>
      </trkpt>
      <trkpt lat="40.209200" lon="-4.954933">
        <ele>1144.0</ele>
        <time>2015-05-23T12:52:14Z</time>
      </trkpt>
      <trkpt lat="40.209117" lon="-4.954800">
        <ele>1142.0</ele>
        <time>2015-05-23T12:52:16Z</time>
      </trkpt>
      <trkpt lat="40.208983" lon="-4.954733">
        <ele>1141.0</ele>
        <time>2015-05-23T12:52:18Z</time>
      </trkpt>
      <trkpt lat="40.208867" lon="-4.954717">
        <ele>1140.0</ele>
        <time>2015-05-23T12:52:20Z</time>
      </trkpt>
      <trkpt lat="40.208733" lon="-4.954750">
        <ele>1138.0</ele>
        <time>2015-05-23T12:52:22Z</time>
      </trkpt>
      <trkpt lat="40.208583" lon="-4.954850">
        <ele>1133.0</ele>
        <time>2015-05-23T12:52:24Z</time>
      </trkpt>
      <trkpt lat="40.208417" lon="-4.954983">
        <ele>1133.0</ele>
        <time>2015-05-23T12:52:26Z</time>
      </trkpt>
      <trkpt lat="40.208317" lon="-4.955133">
        <ele>1135.0</ele>
        <time>2015-05-23T12:52:28Z</time>
      </trkpt>
      <trkpt lat="40.208217" lon="-4.955333">
        <ele>1132.0</ele>
        <time>2015-05-23T12:52:30Z</time>
      </trkpt>
      <trkpt lat="40.208083" lon="-4.955583">
        <ele>1129.0</ele>
        <time>2015-05-23T12:52:32Z</time>
      </trkpt>
      <trkpt lat="40.208000" lon="-4.955817">
        <ele>1134.0</ele>
        <time>2015-05-23T12:52:34Z</time>
      </trkpt>
      <trkpt lat="40.207967" lon="-4.956000">
        <ele>1134.0</ele>
        <time>2015-05-23T12:52:36Z</time>
      </trkpt>
      <trkpt lat="40.207917" lon="-4.956267">
        <ele>1129.0</ele>
        <time>2015-05-23T12:52:38Z</time>
      </trkpt>
      <trkpt lat="40.207850" lon="-4.956617">
        <ele>1125.0</ele>
        <time>2015-05-23T12:52:40Z</time>
      </trkpt>
      <trkpt lat="40.207833" lon="-4.956950">
        <ele>1126.0</ele>
        <time>2015-05-23T12:52:42Z</time>
      </trkpt>
      <trkpt lat="40.207833" lon="-4.957250">
        <ele>1129.0</ele>
        <time>2015-05-23T12:52:44Z</time>
      </trkpt>
      <trkpt lat="40.207867" lon="-4.957600">
        <ele>1129.0</ele>
        <time>2015-05-23T12:52:46Z</time>
      </trkpt>
      <trkpt lat="40.207933" lon="-4.957933">
        <ele>1132.0</ele>
        <time>2015-05-23T12:52:48Z</time>
      </trkpt>
      <trkpt lat="40.208000" lon="-4.958233">
        <ele>1135.0</ele>
        <time>2015-05-23T12:52:50Z</time>
      </trkpt>
      <trkpt lat="40.208067" lon="-4.958517">
        <ele>1135.0</ele>
        <time>2015-05-23T12:52:52Z</time>
      </trkpt>
      <trkpt lat="40.208133" lon="-4.958800">
        <ele>1135.0</ele>
        <time>2015-05-23T12:52:54Z</time>
      </trkpt>
      <trkpt lat="40.208217" lon="-4.959050">
        <ele>1134.0</ele>
        <time>2015-05-23T12:52:56Z</time>
      </trkpt>
      <trkpt lat="40.208317" lon="-4.959283">
        <ele>1132.0</ele>
        <time>2015-05-23T12:52:58Z</time>
      </trkpt>
      <trkpt lat="40.208417" lon="-4.959533">
        <ele>1129.0</ele>
        <time>2015-05-23T12:53:00Z</time>
      </trkpt>
      <trkpt lat="40.208483" lon="-4.959783">
        <ele>1128.0</ele>
        <time>2015-05-23T12:53:02Z</time>
      </trkpt>
      <trkpt lat="40.208517" lon="-4.960017">
        <ele>1129.0</ele>
        <time>2015-05-23T12:53:04Z</time>
      </trkpt>
      <trkpt lat="40.208517" lon="-4.960267">
        <ele>1125.0</ele>
        <time>2015-05-23T12:53:06Z</time>
      </trkpt>
      <trkpt lat="40.208533" lon="-4.960567">
        <ele>1124.0</ele>
        <time>2015-05-23T12:53:08Z</time>
      </trkpt>
      <trkpt lat="40.208567" lon="-4.960833">
        <ele>1125.0</ele>
        <time>2015-05-23T12:53:10Z</time>
      </trkpt>
      <trkpt lat="40.208633" lon="-4.961067">
        <ele>1124.0</ele>
        <time>2015-05-23T12:53:12Z</time>
      </trkpt>
      <trkpt lat="40.208750" lon="-4.961283">
        <ele>1123.0</ele>
        <time>2015-05-23T12:53:14Z</time>
      </trkpt>
      <trkpt lat="40.208883" lon="-4.961450">
        <ele>1124.0</ele>
        <time>2015-05-23T12:53:16Z</time>
      </trkpt>
      <trkpt lat="40.209033" lon="-4.961533">
        <ele>1124.0</ele>
        <time>2015-05-23T12:53:18Z</time>
      </trkpt>
      <trkpt lat="40.209183" lon="-4.961567">
        <ele>1123.0</ele>
        <time>2015-05-23T12:53:20Z</time>
      </trkpt>
      <trkpt lat="40.209317" lon="-4.961550">
        <ele>1123.0</ele>
        <time>2015-05-23T12:53:22Z</time>
      </trkpt>
      <trkpt lat="40.209450" lon="-4.961500">
        <ele>1120.0</ele>
        <time>2015-05-23T12:53:24Z</time>
      </trkpt>
      <trkpt lat="40.209583" lon="-4.961417">
        <ele>1117.0</ele>
        <time>2015-05-23T12:53:26Z</time>
      </trkpt>
      <trkpt lat="40.209700" lon="-4.961333">
        <ele>1115.0</ele>
        <time>2015-05-23T12:53:28Z</time>
      </trkpt>
      <trkpt lat="40.209783" lon="-4.961233">
        <ele>1114.0</ele>
        <time>2015-05-23T12:53:30Z</time>
      </trkpt>
      <trkpt lat="40.209833" lon="-4.961100">
        <ele>1112.0</ele>
        <time>2015-05-23T12:53:32Z</time>
      </trkpt>
      <trkpt lat="40.209850" lon="-4.960883">
        <ele>1113.0</ele>
        <time>2015-05-23T12:53:34Z</time>
      </trkpt>
      <trkpt lat="40.209800" lon="-4.960767">
        <ele>1115.0</ele>
        <time>2015-05-23T12:53:36Z</time>
      </trkpt>
      <trkpt lat="40.209750" lon="-4.960683">
        <ele>1112.0</ele>
        <time>2015-05-23T12:53:38Z</time>
      </trkpt>
      <trkpt lat="40.209633" lon="-4.960583">
        <ele>1105.0</ele>
        <time>2015-05-23T12:53:40Z</time>
      </trkpt>
      <trkpt lat="40.209433" lon="-4.960517">
        <ele>1102.0</ele>
        <time>2015-05-23T12:53:42Z</time>
      </trkpt>
      <trkpt lat="40.209267" lon="-4.960467">
        <ele>1103.0</ele>
        <time>2015-05-23T12:53:44Z</time>
      </trkpt>
      <trkpt lat="40.209117" lon="-4.960467">
        <ele>1101.0</ele>
        <time>2015-05-23T12:53:46Z</time>
      </trkpt>
      <trkpt lat="40.208917" lon="-4.960500">
        <ele>1095.0</ele>
        <time>2015-05-23T12:53:48Z</time>
      </trkpt>
      <trkpt lat="40.208700" lon="-4.960550">
        <ele>1092.0</ele>
        <time>2015-05-23T12:53:50Z</time>
      </trkpt>
      <trkpt lat="40.208517" lon="-4.960583">
        <ele>1093.0</ele>
        <time>2015-05-23T12:53:52Z</time>
      </trkpt>
      <trkpt lat="40.208333" lon="-4.960600">
        <ele>1092.0</ele>
        <time>2015-05-23T12:53:54Z</time>
      </trkpt>
      <trkpt lat="40.208117" lon="-4.960600">
        <ele>1093.0</ele>
        <time>2015-05-23T12:53:56Z</time>
      </trkpt>
      <trkpt lat="40.207967" lon="-4.960633">
        <ele>1094.0</ele>
        <time>2015-05-23T12:53:58Z</time>
      </trkpt>
      <trkpt lat="40.207783" lon="-4.960650">
        <ele>1090.0</ele>
        <time>2015-05-23T12:54:00Z</time>
      </trkpt>
      <trkpt lat="40.207550" lon="-4.960683">
        <ele>1086.0</ele>
        <time>2015-05-23T12:54:02Z</time>
      </trkpt>
      <trkpt lat="40.207333" lon="-4.960733">
        <ele>1089.0</ele>
        <time>2015-05-23T12:54:04Z</time>
      </trkpt>
      <trkpt lat="40.207150" lon="-4.960800">
        <ele>1089.0</ele>
        <time>2015-05-23T12:54:06Z</time>
      </trkpt>
      <trkpt lat="40.206917" lon="-4.960900">
        <ele>1085.0</ele>
        <time>2015-05-23T12:54:08Z</time>
      </trkpt>
      <trkpt lat="40.206700" lon="-4.961050">
        <ele>1086.0</ele>
        <time>2015-05-23T12:54:10Z</time>
      </trkpt>
      <trkpt lat="40.206567" lon="-4.961200">
        <ele>1086.0</ele>
        <time>2015-05-23T12:54:12Z</time>
      </trkpt>
      <trkpt lat="40.206417" lon="-4.961417">
        <ele>1082.0</ele>
        <time>2015-05-23T12:54:14Z</time>
      </trkpt>
      <trkpt lat="40.206283" lon="-4.961717">
        <ele>1080.0</ele>
        <time>2015-05-23T12:54:16Z</time>
      </trkpt>
      <trkpt lat="40.206150" lon="-4.961933">
        <ele>1080.0</ele>
        <time>2015-05-23T12:54:18Z</time>
      </trkpt>
      <trkpt lat="40.206000" lon="-4.962150">
        <ele>1076.0</ele>
        <time>2015-05-23T12:54:20Z</time>
      </trkpt>
      <trkpt lat="40.205850" lon="-4.962400">
        <ele>1072.0</ele>
        <time>2015-05-23T12:54:22Z</time>
      </trkpt>
      <trkpt lat="40.205683" lon="-4.962650">
        <ele>1072.0</ele>
        <time>2015-05-23T12:54:24Z</time>
      </trkpt>
      <trkpt lat="40.205533" lon="-4.962867">
        <ele>1070.0</ele>
        <time>2015-05-23T12:54:26Z</time>
      </trkpt>
      <trkpt lat="40.205383" lon="-4.963083">
        <ele>1066.0</ele>
        <time>2015-05-23T12:54:28Z</time>
      </trkpt>
      <trkpt lat="40.205200" lon="-4.963283">
        <ele>1064.0</ele>
        <time>2015-05-23T12:54:30Z</time>
      </trkpt>
      <trkpt lat="40.205050" lon="-4.963450">
        <ele>1064.0</ele>
        <time>2015-05-23T12:54:32Z</time>
      </trkpt>
      <trkpt lat="40.204900" lon="-4.963600">
        <ele>1063.0</ele>
        <time>2015-05-23T12:54:34Z</time>
      </trkpt>
      <trkpt lat="40.204717" lon="-4.963717">
        <ele>1058.0</ele>
        <time>2015-05-23T12:54:36Z</time>
      </trkpt>
      <trkpt lat="40.204550" lon="-4.963833">
        <ele>1057.0</ele>
        <time>2015-05-23T12:54:38Z</time>
      </trkpt>
      <trkpt lat="40.204417" lon="-4.963933">
        <ele>1056.0</ele>
        <time>2015-05-23T12:54:40Z</time>
      </trkpt>
      <trkpt lat="40.204283" lon="-4.964067">
        <ele>1053.0</ele>
        <time>2015-05-23T12:54:42Z</time>
      </trkpt>
      <trkpt lat="40.204167" lon="-4.964233">
        <ele>1048.0</ele>
        <time>2015-05-23T12:54:44Z</time>
      </trkpt>
      <trkpt lat="40.204033" lon="-4.964417">
        <ele>1044.0</ele>
        <time>2015-05-23T12:54:46Z</time>
      </trkpt>
      <trkpt lat="40.203917" lon="-4.964650">
        <ele>1041.0</ele>
        <time>2015-05-23T12:54:48Z</time>
      </trkpt>
      <trkpt lat="40.203783" lon="-4.964850">
        <ele>1041.0</ele>
        <time>2015-05-23T12:54:50Z</time>
      </trkpt>
      <trkpt lat="40.203667" lon="-4.964983">
        <ele>1038.0</ele>
        <time>2015-05-23T12:54:52Z</time>
      </trkpt>
      <trkpt lat="40.203550" lon="-4.965117">
        <ele>1036.0</ele>
        <time>2015-05-23T12:54:54Z</time>
      </trkpt>
      <trkpt lat="40.203417" lon="-4.965233">
        <ele>1034.0</ele>
        <time>2015-05-23T12:54:56Z</time>
      </trkpt>
      <trkpt lat="40.203300" lon="-4.965333">
        <ele>1031.0</ele>
        <time>2015-05-23T12:54:58Z</time>
      </trkpt>
      <trkpt lat="40.203167" lon="-4.965450">
        <ele>1028.0</ele>
        <time>2015-05-23T12:55:00Z</time>
      </trkpt>
      <trkpt lat="40.203050" lon="-4.965567">
        <ele>1026.0</ele>
        <time>2015-05-23T12:55:02Z</time>
      </trkpt>
      <trkpt lat="40.202950" lon="-4.965717">
        <ele>1024.0</ele>
        <time>2015-05-23T12:55:04Z</time>
      </trkpt>
      <trkpt lat="40.202817" lon="-4.965883">
        <ele>1021.0</ele>
        <time>2015-05-23T12:55:06Z</time>
      </trkpt>
      <trkpt lat="40.202700" lon="-4.966067">
        <ele>1017.0</ele>
        <time>2015-05-23T12:55:08Z</time>
      </trkpt>
      <trkpt lat="40.202583" lon="-4.966267">
        <ele>1014.0</ele>
        <time>2015-05-23T12:55:10Z</time>
      </trkpt>
      <trkpt lat="40.202467" lon="-4.966500">
        <ele>1010.0</ele>
        <time>2015-05-23T12:55:12Z</time>
      </trkpt>
      <trkpt lat="40.202350" lon="-4.966700">
        <ele>1006.0</ele>
        <time>2015-05-23T12:55:14Z</time>
      </trkpt>
      <trkpt lat="40.202250" lon="-4.966883">
        <ele>1002.0</ele>
        <time>2015-05-23T12:55:16Z</time>
      </trkpt>
      <trkpt lat="40.202133" lon="-4.967083">
        <ele>994.0</ele>
        <time>2015-05-23T12:55:18Z</time>
      </trkpt>
      <trkpt lat="40.202000" lon="-4.967317">
        <ele>988.0</ele>
        <time>2015-05-23T12:55:20Z</time>
      </trkpt>
      <trkpt lat="40.201867" lon="-4.967567">
        <ele>984.0</ele>
        <time>2015-05-23T12:55:22Z</time>
      </trkpt>
      <trkpt lat="40.201750" lon="-4.967800">
        <ele>980.0</ele>
        <time>2015-05-23T12:55:24Z</time>
      </trkpt>
      <trkpt lat="40.201650" lon="-4.968050">
        <ele>978.0</ele>
        <time>2015-05-23T12:55:26Z</time>
      </trkpt>
      <trkpt lat="40.201583" lon="-4.968333">
        <ele>977.0</ele>
        <time>2015-05-23T12:55:28Z</time>
      </trkpt>
      <trkpt lat="40.201517" lon="-4.968583">
        <ele>978.0</ele>
        <time>2015-05-23T12:55:30Z</time>
      </trkpt>
      <trkpt lat="40.201450" lon="-4.968833">
        <ele>977.0</ele>
        <time>2015-05-23T12:55:32Z</time>
      </trkpt>
      <trkpt lat="40.201383" lon="-4.969100">
        <ele>976.0</ele>
        <time>2015-05-23T12:55:34Z</time>
      </trkpt>
      <trkpt lat="40.201300" lon="-4.969367">
        <ele>975.0</ele>
        <time>2015-05-23T12:55:36Z</time>
      </trkpt>
      <trkpt lat="40.201233" lon="-4.969667">
        <ele>973.0</ele>
        <time>2015-05-23T12:55:38Z</time>
      </trkpt>
      <trkpt lat="40.201167" lon="-4.969967">
        <ele>971.0</ele>
        <time>2015-05-23T12:55:40Z</time>
      </trkpt>
      <trkpt lat="40.201133" lon="-4.970267">
        <ele>968.0</ele>
        <time>2015-05-23T12:55:42Z</time>
      </trkpt>
      <trkpt lat="40.201067" lon="-4.970567">
        <ele>965.0</ele>
        <time>2015-05-23T12:55:44Z</time>
      </trkpt>
      <trkpt lat="40.201033" lon="-4.970867">
        <ele>959.0</ele>
        <time>2015-05-23T12:55:46Z</time>
      </trkpt>
      <trkpt lat="40.201000" lon="-4.971183">
        <ele>955.0</ele>
        <time>2015-05-23T12:55:48Z</time>
      </trkpt>
      <trkpt lat="40.200967" lon="-4.971450">
        <ele>951.0</ele>
        <time>2015-05-23T12:55:50Z</time>
      </trkpt>
      <trkpt lat="40.200917" lon="-4.971700">
        <ele>945.0</ele>
        <time>2015-05-23T12:55:52Z</time>
      </trkpt>
      <trkpt lat="40.200850" lon="-4.971950">
        <ele>940.0</ele>
        <time>2015-05-23T12:55:54Z</time>
      </trkpt>
      <trkpt lat="40.200767" lon="-4.972167">
        <ele>933.0</ele>
        <time>2015-05-23T12:55:56Z</time>
      </trkpt>
      <trkpt lat="40.200667" lon="-4.972367">
        <ele>923.0</ele>
        <time>2015-05-23T12:55:58Z</time>
      </trkpt>
      <trkpt lat="40.200533" lon="-4.972567">
        <ele>911.0</ele>
        <time>2015-05-23T12:56:00Z</time>
      </trkpt>
      <trkpt lat="40.200350" lon="-4.972783">
        <ele>904.0</ele>
        <time>2015-05-23T12:56:02Z</time>
      </trkpt>
      <trkpt lat="40.200200" lon="-4.972967">
        <ele>897.0</ele>
        <time>2015-05-23T12:56:04Z</time>
      </trkpt>
      <trkpt lat="40.200017" lon="-4.973133">
        <ele>888.0</ele>
        <time>2015-05-23T12:56:06Z</time>
      </trkpt>
      <trkpt lat="40.199833" lon="-4.973300">
        <ele>879.0</ele>
        <time>2015-05-23T12:56:08Z</time>
      </trkpt>
      <trkpt lat="40.199633" lon="-4.973433">
        <ele>872.0</ele>
        <time>2015-05-23T12:56:10Z</time>
      </trkpt>
      <trkpt lat="40.199433" lon="-4.973567">
        <ele>864.0</ele>
        <time>2015-05-23T12:56:12Z</time>
      </trkpt>
      <trkpt lat="40.199233" lon="-4.973667">
        <ele>855.0</ele>
        <time>2015-05-23T12:56:14Z</time>
      </trkpt>
      <trkpt lat="40.199017" lon="-4.973767">
        <ele>847.0</ele>
        <time>2015-05-23T12:56:16Z</time>
      </trkpt>
      <trkpt lat="40.198817" lon="-4.973867">
        <ele>842.0</ele>
        <time>2015-05-23T12:56:18Z</time>
      </trkpt>
      <trkpt lat="40.198583" lon="-4.973983">
        <ele>837.0</ele>
        <time>2015-05-23T12:56:20Z</time>
      </trkpt>
      <trkpt lat="40.198383" lon="-4.974133">
        <ele>834.0</ele>
        <time>2015-05-23T12:56:22Z</time>
      </trkpt>
      <trkpt lat="40.198217" lon="-4.974317">
        <ele>832.0</ele>
        <time>2015-05-23T12:56:24Z</time>
      </trkpt>
      <trkpt lat="40.198100" lon="-4.974583">
        <ele>832.0</ele>
        <time>2015-05-23T12:56:26Z</time>
      </trkpt>
      <trkpt lat="40.198083" lon="-4.974850">
        <ele>837.0</ele>
        <time>2015-05-23T12:56:28Z</time>
      </trkpt>
      <trkpt lat="40.198117" lon="-4.975050">
        <ele>840.0</ele>
        <time>2015-05-23T12:56:30Z</time>
      </trkpt>
      <trkpt lat="40.198150" lon="-4.975317">
        <ele>840.0</ele>
        <time>2015-05-23T12:56:32Z</time>
      </trkpt>
      <trkpt lat="40.198283" lon="-4.975600">
        <ele>839.0</ele>
        <time>2015-05-23T12:56:34Z</time>
      </trkpt>
      <trkpt lat="40.198350" lon="-4.975883">
        <ele>842.0</ele>
        <time>2015-05-23T12:56:36Z</time>
      </trkpt>
      <trkpt lat="40.198400" lon="-4.976133">
        <ele>843.0</ele>
        <time>2015-05-23T12:56:38Z</time>
      </trkpt>
      <trkpt lat="40.198500" lon="-4.976400">
        <ele>840.0</ele>
        <time>2015-05-23T12:56:40Z</time>
      </trkpt>
      <trkpt lat="40.198633" lon="-4.976633">
        <ele>843.0</ele>
        <time>2015-05-23T12:56:42Z</time>
      </trkpt>
      <trkpt lat="40.198750" lon="-4.976817">
        <ele>848.0</ele>
        <time>2015-05-23T12:56:44Z</time>
      </trkpt>
      <trkpt lat="40.198867" lon="-4.976900">
        <ele>847.0</ele>
        <time>2015-05-23T12:56:46Z</time>
      </trkpt>
      <trkpt lat="40.199033" lon="-4.976850">
        <ele>844.0</ele>
        <time>2015-05-23T12:56:48Z</time>
      </trkpt>
      <trkpt lat="40.199133" lon="-4.976750">
        <ele>847.0</ele>
        <time>2015-05-23T12:56:50Z</time>
      </trkpt>
      <trkpt lat="40.199200" lon="-4.976700">
        <ele>846.0</ele>
        <time>2015-05-23T12:56:52Z</time>
      </trkpt>
      <trkpt lat="40.199283" lon="-4.976533">
        <ele>839.0</ele>
        <time>2015-05-23T12:56:54Z</time>
      </trkpt>
      <trkpt lat="40.199267" lon="-4.976300">
        <ele>835.0</ele>
        <time>2015-05-23T12:56:56Z</time>
      </trkpt>
      <trkpt lat="40.199150" lon="-4.976150">
        <ele>832.0</ele>
        <time>2015-05-23T12:56:58Z</time>
      </trkpt>
      <trkpt lat="40.199000" lon="-4.976050">
        <ele>825.0</ele>
        <time>2015-05-23T12:57:00Z</time>
      </trkpt>
      <trkpt lat="40.198767" lon="-4.975983">
        <ele>818.0</ele>
        <time>2015-05-23T12:57:02Z</time>
      </trkpt>
      <trkpt lat="40.198550" lon="-4.975950">
        <ele>811.0</ele>
        <time>2015-05-23T12:57:04Z</time>
      </trkpt>
      <trkpt lat="40.198333" lon="-4.975950">
        <ele>802.0</ele>
        <time>2015-05-23T12:57:06Z</time>
      </trkpt>
      <trkpt lat="40.198083" lon="-4.975983">
        <ele>795.0</ele>
        <time>2015-05-23T12:57:08Z</time>
      </trkpt>
      <trkpt lat="40.197833" lon="-4.976067">
        <ele>790.0</ele>
        <time>2015-05-23T12:57:10Z</time>
      </trkpt>
      <trkpt lat="40.197567" lon="-4.976217">
        <ele>787.0</ele>
        <time>2015-05-23T12:57:12Z</time>
      </trkpt>
      <trkpt lat="40.197333" lon="-4.976417">
        <ele>792.0</ele>
        <time>2015-05-23T12:57:14Z</time>
      </trkpt>
      <trkpt lat="40.197167" lon="-4.976567">
        <ele>794.0</ele>
        <time>2015-05-23T12:57:16Z</time>
      </trkpt>
      <trkpt lat="40.196967" lon="-4.976733">
        <ele>795.0</ele>
        <time>2015-05-23T12:57:18Z</time>
      </trkpt>
      <trkpt lat="40.196800" lon="-4.976867">
        <ele>802.0</ele>
        <time>2015-05-23T12:57:20Z</time>
      </trkpt>
      <trkpt lat="40.196683" lon="-4.977017">
        <ele>807.0</ele>
        <time>2015-05-23T12:57:22Z</time>
      </trkpt>
      <trkpt lat="40.196567" lon="-4.977217">
        <ele>811.0</ele>
        <time>2015-05-23T12:57:24Z</time>
      </trkpt>
      <trkpt lat="40.196600" lon="-4.977450">
        <ele>815.0</ele>
        <time>2015-05-23T12:57:26Z</time>
      </trkpt>
      <trkpt lat="40.196717" lon="-4.977600">
        <ele>820.0</ele>
        <time>2015-05-23T12:57:28Z</time>
      </trkpt>
      <trkpt lat="40.196850" lon="-4.977650">
        <ele>826.0</ele>
        <time>2015-05-23T12:57:30Z</time>
      </trkpt>
      <trkpt lat="40.196967" lon="-4.977600">
        <ele>828.0</ele>
        <time>2015-05-23T12:57:32Z</time>
      </trkpt>
      <trkpt lat="40.197017" lon="-4.977483">
        <ele>832.0</ele>
        <time>2015-05-23T12:57:34Z</time>
      </trkpt>
      <trkpt lat="40.196983" lon="-4.977400">
        <ele>836.0</ele>
        <time>2015-05-23T12:57:36Z</time>
      </trkpt>
      <trkpt lat="40.196850" lon="-4.977350">
        <ele>838.0</ele>
        <time>2015-05-23T12:57:38Z</time>
      </trkpt>
      <trkpt lat="40.196700" lon="-4.977417">
        <ele>839.0</ele>
        <time>2015-05-23T12:57:40Z</time>
      </trkpt>
      <trkpt lat="40.196533" lon="-4.977650">
        <ele>841.0</ele>
        <time>2015-05-23T12:57:42Z</time>
      </trkpt>
      <trkpt lat="40.196383" lon="-4.977900">
        <ele>850.0</ele>
        <time>2015-05-23T12:57:44Z</time>
      </trkpt>
      <trkpt lat="40.196300" lon="-4.978083">
        <ele>859.0</ele>
        <time>2015-05-23T12:57:46Z</time>
      </trkpt>
      <trkpt lat="40.196267" lon="-4.978267">
        <ele>863.0</ele>
        <time>2015-05-23T12:57:48Z</time>
      </trkpt>
      <trkpt lat="40.196267" lon="-4.978517">
        <ele>865.0</ele>
        <time>2015-05-23T12:57:50Z</time>
      </trkpt>
      <trkpt lat="40.196367" lon="-4.978717">
        <ele>870.0</ele>
        <time>2015-05-23T12:57:52Z</time>
      </trkpt>
      <trkpt lat="40.196483" lon="-4.978883">
        <ele>880.0</ele>
        <time>2015-05-23T12:57:54Z</time>
      </trkpt>
      <trkpt lat="40.196550" lon="-4.978967">
        <ele>890.0</ele>
        <time>2015-05-23T12:57:56Z</time>
      </trkpt>
      <trkpt lat="40.196650" lon="-4.978967">
        <ele>895.0</ele>
        <time>2015-05-23T12:57:58Z</time>
      </trkpt>
      <trkpt lat="40.196667" lon="-4.978883">
        <ele>901.0</ele>
        <time>2015-05-23T12:58:00Z</time>
      </trkpt>
      <trkpt lat="40.196550" lon="-4.978800">
        <ele>908.0</ele>
        <time>2015-05-23T12:58:02Z</time>
      </trkpt>
      <trkpt lat="40.196417" lon="-4.978850">
        <ele>919.0</ele>
        <time>2015-05-23T12:58:04Z</time>
      </trkpt>
      <trkpt lat="40.196317" lon="-4.978917">
        <ele>925.0</ele>
        <time>2015-05-23T12:58:06Z</time>
      </trkpt>
      <trkpt lat="40.196150" lon="-4.979083">
        <ele>929.0</ele>
        <time>2015-05-23T12:58:08Z</time>
      </trkpt>
      <trkpt lat="40.196033" lon="-4.979333">
        <ele>938.0</ele>
        <time>2015-05-23T12:58:10Z</time>
      </trkpt>
      <trkpt lat="40.195983" lon="-4.979517">
        <ele>947.0</ele>
        <time>2015-05-23T12:58:12Z</time>
      </trkpt>
      <trkpt lat="40.195950" lon="-4.979700">
        <ele>951.0</ele>
        <time>2015-05-23T12:58:14Z</time>
      </trkpt>
      <trkpt lat="40.196000" lon="-4.979933">
        <ele>954.0</ele>
        <time>2015-05-23T12:58:16Z</time>
      </trkpt>
      <trkpt lat="40.196117" lon="-4.980033">
        <ele>959.0</ele>
        <time>2015-05-23T12:58:18Z</time>
      </trkpt>
      <trkpt lat="40.196217" lon="-4.980033">
        <ele>964.0</ele>
        <time>2015-05-23T12:58:20Z</time>
      </trkpt>
      <trkpt lat="40.196283" lon="-4.979950">
        <ele>966.0</ele>
        <time>2015-05-23T12:58:22Z</time>
      </trkpt>
      <trkpt lat="40.196317" lon="-4.979800">
        <ele>972.0</ele>
        <time>2015-05-23T12:58:24Z</time>
      </trkpt>
      <trkpt lat="40.196250" lon="-4.979650">
        <ele>981.0</ele>
        <time>2015-05-23T12:58:26Z</time>
      </trkpt>
      <trkpt lat="40.196167" lon="-4.979617">
        <ele>990.0</ele>
        <time>2015-05-23T12:58:28Z</time>
      </trkpt>
      <trkpt lat="40.196067" lon="-4.979600">
        <ele>994.0</ele>
        <time>2015-05-23T12:58:30Z</time>
      </trkpt>
      <trkpt lat="40.195917" lon="-4.979517">
        <ele>998.0</ele>
        <time>2015-05-23T12:58:32Z</time>
      </trkpt>
      <trkpt lat="40.195767" lon="-4.979533">
        <ele>1003.0</ele>
        <time>2015-05-23T12:58:34Z</time>
      </trkpt>
      <trkpt lat="40.195633" lon="-4.979650">
        <ele>1005.0</ele>
        <time>2015-05-23T12:58:36Z</time>
      </trkpt>
      <trkpt lat="40.195583" lon="-4.979883">
        <ele>1003.0</ele>
        <time>2015-05-23T12:58:38Z</time>
      </trkpt>
      <trkpt lat="40.195650" lon="-4.980167">
        <ele>1003.0</ele>
        <time>2015-05-23T12:58:40Z</time>
      </trkpt>
      <trkpt lat="40.195783" lon="-4.980367">
        <ele>1011.0</ele>
        <time>2015-05-23T12:58:42Z</time>
      </trkpt>
      <trkpt lat="40.195867" lon="-4.980483">
        <ele>1021.0</ele>
        <time>2015-05-23T12:58:44Z</time>
      </trkpt>
      <trkpt lat="40.195950" lon="-4.980567">
        <ele>1025.0</ele>
        <time>2015-05-23T12:58:46Z</time>
      </trkpt>
      <trkpt lat="40.196117" lon="-4.980650">
        <ele>1030.0</ele>
        <time>2015-05-23T12:58:48Z</time>
      </trkpt>
      <trkpt lat="40.196250" lon="-4.980650">
        <ele>1039.0</ele>
        <time>2015-05-23T12:58:50Z</time>
      </trkpt>
      <trkpt lat="40.196317" lon="-4.980533">
        <ele>1046.0</ele>
        <time>2015-05-23T12:58:52Z</time>
      </trkpt>
      <trkpt lat="40.196317" lon="-4.980400">
        <ele>1054.0</ele>
        <time>2015-05-23T12:58:54Z</time>
      </trkpt>
      <trkpt lat="40.196217" lon="-4.980333">
        <ele>1061.0</ele>
        <time>2015-05-23T12:58:56Z</time>
      </trkpt>
      <trkpt lat="40.196083" lon="-4.980333">
        <ele>1067.0</ele>
        <time>2015-05-23T12:58:58Z</time>
      </trkpt>
      <trkpt lat="40.195917" lon="-4.980400">
        <ele>1073.0</ele>
        <time>2015-05-23T12:59:00Z</time>
      </trkpt>
      <trkpt lat="40.195750" lon="-4.980567">
        <ele>1081.0</ele>
        <time>2015-05-23T12:59:02Z</time>
      </trkpt>
      <trkpt lat="40.195633" lon="-4.980783">
        <ele>1088.0</ele>
        <time>2015-05-23T12:59:04Z</time>
      </trkpt>
      <trkpt lat="40.195600" lon="-4.981017">
        <ele>1095.0</ele>
        <time>2015-05-23T12:59:06Z</time>
      </trkpt>
      <trkpt lat="40.195683" lon="-4.981200">
        <ele>1100.0</ele>
        <time>2015-05-23T12:59:08Z</time>
      </trkpt>
      <trkpt lat="40.195800" lon="-4.981300">
        <ele>1106.0</ele>
        <time>2015-05-23T12:59:10Z</time>
      </trkpt>
      <trkpt lat="40.195933" lon="-4.981267">
        <ele>1112.0</ele>
        <time>2015-05-23T12:59:12Z</time>
      </trkpt>
      <trkpt lat="40.195967" lon="-4.981133">
        <ele>1118.0</ele>
        <time>2015-05-23T12:59:14Z</time>
      </trkpt>
      <trkpt lat="40.195900" lon="-4.981000">
        <ele>1125.0</ele>
        <time>2015-05-23T12:59:16Z</time>
      </trkpt>
      <trkpt lat="40.195783" lon="-4.980950">
        <ele>1133.0</ele>
        <time>2015-05-23T12:59:18Z</time>
      </trkpt>
      <trkpt lat="40.195650" lon="-4.980950">
        <ele>1137.0</ele>
        <time>2015-05-23T12:59:20Z</time>
      </trkpt>
      <trkpt lat="40.195467" lon="-4.981100">
        <ele>1137.0</ele>
        <time>2015-05-23T12:59:22Z</time>
      </trkpt>
      <trkpt lat="40.195350" lon="-4.981367">
        <ele>1144.0</ele>
        <time>2015-05-23T12:59:24Z</time>
      </trkpt>
      <trkpt lat="40.195350" lon="-4.981583">
        <ele>1153.0</ele>
        <time>2015-05-23T12:59:26Z</time>
      </trkpt>
      <trkpt lat="40.195383" lon="-4.981750">
        <ele>1157.0</ele>
        <time>2015-05-23T12:59:28Z</time>
      </trkpt>
      <trkpt lat="40.195500" lon="-4.981933">
        <ele>1160.0</ele>
        <time>2015-05-23T12:59:30Z</time>
      </trkpt>
      <trkpt lat="40.195667" lon="-4.982000">
        <ele>1167.0</ele>
        <time>2015-05-23T12:59:32Z</time>
      </trkpt>
      <trkpt lat="40.195750" lon="-4.981967">
        <ele>1175.0</ele>
        <time>2015-05-23T12:59:34Z</time>
      </trkpt>
      <trkpt lat="40.195817" lon="-4.981900">
        <ele>1178.0</ele>
        <time>2015-05-23T12:59:36Z</time>
      </trkpt>
      <trkpt lat="40.195883" lon="-4.981767">
        <ele>1181.0</ele>
        <time>2015-05-23T12:59:38Z</time>
      </trkpt>
      <trkpt lat="40.195783" lon="-4.981583">
        <ele>1185.0</ele>
        <time>2015-05-23T12:59:40Z</time>
      </trkpt>
      <trkpt lat="40.195600" lon="-4.981550">
        <ele>1192.0</ele>
        <time>2015-05-23T12:59:42Z</time>
      </trkpt>
      <trkpt lat="40.195450" lon="-4.981633">
        <ele>1200.0</ele>
        <time>2015-05-23T12:59:44Z</time>
      </trkpt>
      <trkpt lat="40.195333" lon="-4.981800">
        <ele>1203.0</ele>
        <time>2015-05-23T12:59:46Z</time>
      </trkpt>
      <trkpt lat="40.195250" lon="-4.982083">
        <ele>1204.0</ele>
        <time>2015-05-23T12:59:48Z</time>
      </trkpt>
      <trkpt lat="40.195283" lon="-4.982383">
        <ele>1211.0</ele>
        <time>2015-05-23T12:59:50Z</time>
      </trkpt>
      <trkpt lat="40.195383" lon="-4.982600">
        <ele>1219.0</ele>
        <time>2015-05-23T12:59:52Z</time>
      </trkpt>
      <trkpt lat="40.195533" lon="-4.982717">
        <ele>1224.0</ele>
        <time>2015-05-23T12:59:54Z</time>
      </trkpt>
      <trkpt lat="40.195683" lon="-4.982733">
        <ele>1227.0</ele>
        <time>2015-05-23T12:59:56Z</time>
      </trkpt>
      <trkpt lat="40.195800" lon="-4.982700">
        <ele>1234.0</ele>
        <time>2015-05-23T12:59:58Z</time>
      </trkpt>
      <trkpt lat="40.195900" lon="-4.982600">
        <ele>1239.0</ele>
        <time>2015-05-23T13:00:00Z</time>
      </trkpt>
      <trkpt lat="40.195950" lon="-4.982400">
        <ele>1245.0</ele>
        <time>2015-05-23T13:00:02Z</time>
      </trkpt>
      <trkpt lat="40.195867" lon="-4.982217">
        <ele>1251.0</ele>
        <time>2015-05-23T13:00:04Z</time>
      </trkpt>
      <trkpt lat="40.195733" lon="-4.982067">
        <ele>1258.0</ele>
        <time>2015-05-23T13:00:06Z</time>
      </trkpt>
      <trkpt lat="40.195567" lon="-4.982017">
        <ele>1265.0</ele>
        <time>2015-05-23T13:00:08Z</time>
      </trkpt>
      <trkpt lat="40.195367" lon="-4.982083">
        <ele>1268.0</ele>
        <time>2015-05-23T13:00:10Z</time>
      </trkpt>
      <trkpt lat="40.195167" lon="-4.982183">
        <ele>1275.0</ele>
        <time>2015-05-23T13:00:12Z</time>
      </trkpt>
      <trkpt lat="40.195017" lon="-4.982300">
        <ele>1281.0</ele>
        <time>2015-05-23T13:00:14Z</time>
      </trkpt>
      <trkpt lat="40.194883" lon="-4.982517">
        <ele>1281.0</ele>
        <time>2015-05-23T13:00:16Z</time>
      </trkpt>
      <trkpt lat="40.194800" lon="-4.982817">
        <ele>1285.0</ele>
        <time>2015-05-23T13:00:18Z</time>
      </trkpt>
      <trkpt lat="40.194833" lon="-4.983067">
        <ele>1293.0</ele>
        <time>2015-05-23T13:00:20Z</time>
      </trkpt>
      <trkpt lat="40.194883" lon="-4.983283">
        <ele>1298.0</ele>
        <time>2015-05-23T13:00:22Z</time>
      </trkpt>
      <trkpt lat="40.195017" lon="-4.983500">
        <ele>1299.0</ele>
        <time>2015-05-23T13:00:24Z</time>
      </trkpt>
      <trkpt lat="40.195200" lon="-4.983600">
        <ele>1306.0</ele>
        <time>2015-05-23T13:00:26Z</time>
      </trkpt>
      <trkpt lat="40.195317" lon="-4.983600">
        <ele>1317.0</ele>
        <time>2015-05-23T13:00:28Z</time>
      </trkpt>
      <trkpt lat="40.195383" lon="-4.983533">
        <ele>1325.0</ele>
        <time>2015-05-23T13:00:30Z</time>
      </trkpt>
      <trkpt lat="40.195417" lon="-4.983350">
        <ele>1329.0</ele>
        <time>2015-05-23T13:00:32Z</time>
      </trkpt>
      <trkpt lat="40.195350" lon="-4.983133">
        <ele>1337.0</ele>
        <time>2015-05-23T13:00:34Z</time>
      </trkpt>
      <trkpt lat="40.195233" lon="-4.983000">
        <ele>1345.0</ele>
        <time>2015-05-23T13:00:36Z</time>
      </trkpt>
      <trkpt lat="40.195067" lon="-4.982917">
        <ele>1351.0</ele>
        <time>2015-05-23T13:00:38Z</time>
      </trkpt>
      <trkpt lat="40.194850" lon="-4.982950">
        <ele>1355.0</ele>
        <time>2015-05-23T13:00:40Z</time>
      </trkpt>
      <trkpt lat="40.194633" lon="-4.983117">
        <ele>1362.0</ele>
        <time>2015-05-23T13:00:42Z</time>
      </trkpt>
      <trkpt lat="40.194483" lon="-4.983333">
        <ele>1369.0</ele>
        <time>2015-05-23T13:00:44Z</time>
      </trkpt>
      <trkpt lat="40.194417" lon="-4.983583">
        <ele>1372.0</ele>
        <time>2015-05-23T13:00:46Z</time>
      </trkpt>
      <trkpt lat="40.194417" lon="-4.983883">
        <ele>1374.0</ele>
        <time>2015-05-23T13:00:48Z</time>
      </trkpt>
      <trkpt lat="40.194533" lon="-4.984083">
        <ele>1377.0</ele>
        <time>2015-05-23T13:00:50Z</time>
      </trkpt>
      <trkpt lat="40.194700" lon="-4.984183">
        <ele>1382.0</ele>
        <time>2015-05-23T13:00:52Z</time>
      </trkpt>
      <trkpt lat="40.194833" lon="-4.984217">
        <ele>1388.0</ele>
        <time>2015-05-23T13:00:54Z</time>
      </trkpt>
      <trkpt lat="40.194950" lon="-4.984133">
        <ele>1393.0</ele>
        <time>2015-05-23T13:00:56Z</time>
      </trkpt>
      <trkpt lat="40.195000" lon="-4.983983">
        <ele>1398.0</ele>
        <time>2015-05-23T13:00:58Z</time>
      </trkpt>
      <trkpt lat="40.194983" lon="-4.983783">
        <ele>1402.0</ele>
        <time>2015-05-23T13:01:00Z</time>
      </trkpt>
      <trkpt lat="40.194867" lon="-4.983617">
        <ele>1408.0</ele>
        <time>2015-05-23T13:01:02Z</time>
      </trkpt>
      <trkpt lat="40.194717" lon="-4.983517">
        <ele>1416.0</ele>
        <time>2015-05-23T13:01:04Z</time>
      </trkpt>
      <trkpt lat="40.194583" lon="-4.983467">
        <ele>1422.0</ele>
        <time>2015-05-23T13:01:06Z</time>
      </trkpt>
      <trkpt lat="40.194400" lon="-4.983500">
        <ele>1426.0</ele>
        <time>2015-05-23T13:01:08Z</time>
      </trkpt>
      <trkpt lat="40.194217" lon="-4.983583">
        <ele>1428.0</ele>
        <time>2015-05-23T13:01:10Z</time>
      </trkpt>
      <trkpt lat="40.194017" lon="-4.983767">
        <ele>1430.0</ele>
        <time>2015-05-23T13:01:12Z</time>
      </trkpt>
      <trkpt lat="40.193833" lon="-4.983983">
        <ele>1440.0</ele>
        <time>2015-05-23T13:01:14Z</time>
      </trkpt>
      <trkpt lat="40.193783" lon="-4.984233">
        <ele>1446.0</ele>
        <time>2015-05-23T13:01:16Z</time>
      </trkpt>
      <trkpt lat="40.193783" lon="-4.984500">
        <ele>1448.0</ele>
        <time>2015-05-23T13:01:18Z</time>
      </trkpt>
      <trkpt lat="40.193883" lon="-4.984717">
        <ele>1449.0</ele>
        <time>2015-05-23T13:01:20Z</time>
      </trkpt>
      <trkpt lat="40.194050" lon="-4.984800">
        <ele>1454.0</ele>
        <time>2015-05-23T13:01:22Z</time>
      </trkpt>
      <trkpt lat="40.194167" lon="-4.984800">
        <ele>1459.0</ele>
        <time>2015-05-23T13:01:24Z</time>
      </trkpt>
      <trkpt lat="40.194283" lon="-4.984700">
        <ele>1462.0</ele>
        <time>2015-05-23T13:01:26Z</time>
      </trkpt>
      <trkpt lat="40.194333" lon="-4.984550">
        <ele>1465.0</ele>
        <time>2015-05-23T13:01:28Z</time>
      </trkpt>
      <trkpt lat="40.194300" lon="-4.984350">
        <ele>1467.0</ele>
        <time>2015-05-23T13:01:30Z</time>
      </trkpt>
      <trkpt lat="40.194167" lon="-4.984183">
        <ele>1472.0</ele>
        <time>2015-05-23T13:01:32Z</time>
      </trkpt>
      <trkpt lat="40.194033" lon="-4.984150">
        <ele>1478.0</ele>
        <time>2015-05-23T13:01:34Z</time>
      </trkpt>
      <trkpt lat="40.193883" lon="-4.984150">
        <ele>1478.0</ele>
        <time>2015-05-23T13:01:36Z</time>
      </trkpt>
      <trkpt lat="40.193650" lon="-4.984183">
        <ele>1480.0</ele>
        <time>2015-05-23T13:01:38Z</time>
      </trkpt>
      <trkpt lat="40.193467" lon="-4.984300">
        <ele>1491.0</ele>
        <time>2015-05-23T13:01:40Z</time>
      </trkpt>
      <trkpt lat="40.193367" lon="-4.984417">
        <ele>1493.0</ele>
        <time>2015-05-23T13:01:42Z</time>
      </trkpt>
      <trkpt lat="40.193233" lon="-4.984617">
        <ele>1490.0</ele>
        <time>2015-05-23T13:01:44Z</time>
      </trkpt>
      <trkpt lat="40.193133" lon="-4.984833">
        <ele>1491.0</ele>
        <time>2015-05-23T13:01:46Z</time>
      </trkpt>
      <trkpt lat="40.193167" lon="-4.985083">
        <ele>1491.0</ele>
        <time>2015-05-23T13:01:48Z</time>
      </trkpt>
      <trkpt lat="40.193250" lon="-4.985317">
        <ele>1491.0</ele>
        <time>2015-05-23T13:01:50Z</time>
      </trkpt>
      <trkpt lat="40.193400" lon="-4.985467">
        <ele>1491.0</ele>
        <time>2015-05-23T13:01:52Z</time>
      </trkpt>
      <trkpt lat="40.193550" lon="-4.985517">
        <ele>1496.0</ele>
        <time>2015-05-23T13:01:54Z</time>
      </trkpt>
      <trkpt lat="40.193667" lon="-4.985483">
        <ele>1501.0</ele>
        <time>2015-05-23T13:01:56Z</time>
      </trkpt>
      <trkpt lat="40.193750" lon="-4.985400">
        <ele>1504.0</ele>
        <time>2015-05-23T13:01:58Z</time>
      </trkpt>
      <trkpt lat="40.193833" lon="-4.985250">
        <ele>1506.0</ele>
        <time>2015-05-23T13:02:00Z</time>
      </trkpt>
      <trkpt lat="40.193800" lon="-4.985067">
        <ele>1510.0</ele>
        <time>2015-05-23T13:02:02Z</time>
      </trkpt>
      <trkpt lat="40.193667" lon="-4.984933">
        <ele>1516.0</ele>
        <time>2015-05-23T13:02:04Z</time>
      </trkpt>
      <trkpt lat="40.193500" lon="-4.984917">
        <ele>1523.0</ele>
        <time>2015-05-23T13:02:06Z</time>
      </trkpt>
      <trkpt lat="40.193367" lon="-4.984983">
        <ele>1525.0</ele>
        <time>2015-05-23T13:02:08Z</time>
      </trkpt>
      <trkpt lat="40.193233" lon="-4.985150">
        <ele>1526.0</ele>
        <time>2015-05-23T13:02:10Z</time>
      </trkpt>
      <trkpt lat="40.193167" lon="-4.985383">
        <ele>1526.0</ele>
        <time>2015-05-23T13:02:12Z</time>
      </trkpt>
      <trkpt lat="40.193167" lon="-4.985633">
        <ele>1526.0</ele>
        <time>2015-05-23T13:02:14Z</time>
      </trkpt>
      <trkpt lat="40.193233" lon="-4.985850">
        <ele>1527.0</ele>
        <time>2015-05-23T13:02:16Z</time>
      </trkpt>
      <trkpt lat="40.193367" lon="-4.986033">
        <ele>1528.0</ele>
        <time>2015-05-23T13:02:18Z</time>
      </trkpt>
      <trkpt lat="40.193533" lon="-4.986167">
        <ele>1534.0</ele>
        <time>2015-05-23T13:02:20Z</time>
      </trkpt>
      <trkpt lat="40.193650" lon="-4.986217">
        <ele>1540.0</ele>
        <time>2015-05-23T13:02:22Z</time>
      </trkpt>
      <trkpt lat="40.193783" lon="-4.986167">
        <ele>1542.0</ele>
        <time>2015-05-23T13:02:24Z</time>
      </trkpt>
      <trkpt lat="40.193900" lon="-4.986017">
        <ele>1545.0</ele>
        <time>2015-05-23T13:02:26Z</time>
      </trkpt>
      <trkpt lat="40.193917" lon="-4.985867">
        <ele>1550.0</ele>
        <time>2015-05-23T13:02:28Z</time>
      </trkpt>
      <trkpt lat="40.193867" lon="-4.985750">
        <ele>1553.0</ele>
        <time>2015-05-23T13:02:30Z</time>
      </trkpt>
      <trkpt lat="40.193733" lon="-4.985600">
        <ele>1553.0</ele>
        <time>2015-05-23T13:02:32Z</time>
      </trkpt>
      <trkpt lat="40.193533" lon="-4.985567">
        <ele>1557.0</ele>
        <time>2015-05-23T13:02:34Z</time>
      </trkpt>
      <trkpt lat="40.193367" lon="-4.985650">
        <ele>1564.0</ele>
        <time>2015-05-23T13:02:36Z</time>
      </trkpt>
      <trkpt lat="40.193267" lon="-4.985750">
        <ele>1568.0</ele>
        <time>2015-05-23T13:02:38Z</time>
      </trkpt>
      <trkpt lat="40.193150" lon="-4.985917">
        <ele>1566.0</ele>
        <time>2015-05-23T13:02:40Z</time>
      </trkpt>
      <trkpt lat="40.193067" lon="-4.986150">
        <ele>1564.0</ele>
        <time>2015-05-23T13:02:42Z</time>
      </trkpt>
      <trkpt lat="40.193083" lon="-4.986417">
        <ele>1565.0</ele>
        <time>2015-05-23T13:02:44Z</time>
      </trkpt>
      <trkpt lat="40.193150" lon="-4.986667">
        <ele>1567.0</ele>
        <time>2015-05-23T13:02:46Z</time>
      </trkpt>
      <trkpt lat="40.193233" lon="-4.986917">
        <ele>1571.0</ele>
        <time>2015-05-23T13:02:48Z</time>
      </trkpt>
      <trkpt lat="40.193383" lon="-4.987017">
        <ele>1574.0</ele>
        <time>2015-05-23T13:02:50Z</time>
      </trkpt>
      <trkpt lat="40.193550" lon="-4.987017">
        <ele>1577.0</ele>
        <time>2015-05-23T13:02:52Z</time>
      </trkpt>
      <trkpt lat="40.193683" lon="-4.986933">
        <ele>1583.0</ele>
        <time>2015-05-23T13:02:54Z</time>
      </trkpt>
      <trkpt lat="40.193750" lon="-4.986817">
        <ele>1587.0</ele>
        <time>2015-05-23T13:02:56Z</time>
      </trkpt>
      <trkpt lat="40.193733" lon="-4.986633">
        <ele>1589.0</ele>
        <time>2015-05-23T13:02:58Z</time>
      </trkpt>
      <trkpt lat="40.193650" lon="-4.986467">
        <ele>1592.0</ele>
        <time>2015-05-23T13:03:00Z</time>
      </trkpt>
      <trkpt lat="40.193483" lon="-4.986417">
        <ele>1596.0</ele>
        <time>2015-05-23T13:03:02Z</time>
      </trkpt>
      <trkpt lat="40.193317" lon="-4.986450">
        <ele>1601.0</ele>
        <time>2015-05-23T13:03:04Z</time>
      </trkpt>
      <trkpt lat="40.193183" lon="-4.986567">
        <ele>1603.0</ele>
        <time>2015-05-23T13:03:06Z</time>
      </trkpt>
      <trkpt lat="40.193067" lon="-4.986800">
        <ele>1602.0</ele>
        <time>2015-05-23T13:03:08Z</time>
      </trkpt>
      <trkpt lat="40.193017" lon="-4.987117">
        <ele>1604.0</ele>
        <time>2015-05-23T13:03:10Z</time>
      </trkpt>
      <trkpt lat="40.193050" lon="-4.987383">
        <ele>1609.0</ele>
        <time>2015-05-23T13:03:12Z</time>
      </trkpt>
      <trkpt lat="40.193167" lon="-4.987567">
        <ele>1611.0</ele>
        <time>2015-05-23T13:03:14Z</time>
      </trkpt>
      <trkpt lat="40.193317" lon="-4.987650">
        <ele>1615.0</ele>
        <time>2015-05-23T13:03:16Z</time>
      </trkpt>
      <trkpt lat="40.193467" lon="-4.987633">
        <ele>1618.0</ele>
        <time>2015-05-23T13:03:18Z</time>
      </trkpt>
      <trkpt lat="40.193600" lon="-4.987533">
        <ele>1620.0</ele>
        <time>2015-05-23T13:03:20Z</time>
      </trkpt>
      <trkpt lat="40.193667" lon="-4.987367">
        <ele>1625.0</ele>
        <time>2015-05-23T13:03:22Z</time>
      </trkpt>
      <trkpt lat="40.193650" lon="-4.987200">
        <ele>1628.0</ele>
        <time>2015-05-23T13:03:24Z</time>
      </trkpt>
      <trkpt lat="40.193550" lon="-4.987067">
        <ele>1629.0</ele>
        <time>2015-05-23T13:03:26Z</time>
      </trkpt>
      <trkpt lat="40.193400" lon="-4.987000">
        <ele>1632.0</ele>
        <time>2015-05-23T13:03:28Z</time>
      </trkpt>
      <trkpt lat="40.193217" lon="-4.987050">
        <ele>1636.0</ele>
        <time>2015-05-23T13:03:30Z</time>
      </trkpt>
      <trkpt lat="40.193067" lon="-4.987183">
        <ele>1639.0</ele>
        <time>2015-05-23T13:03:32Z</time>
      </trkpt>
      <trkpt lat="40.192967" lon="-4.987400">
        <ele>1640.0</ele>
        <time>2015-05-23T13:03:34Z</time>
      </trkpt>
      <trkpt lat="40.192950" lon="-4.987683">
        <ele>1643.0</ele>
        <time>2015-05-23T13:03:36Z</time>
      </trkpt>
      <trkpt lat="40.193000" lon="-4.987900">
        <ele>1647.0</ele>
        <time>2015-05-23T13:03:38Z</time>
      </trkpt>
      <trkpt lat="40.193117" lon="-4.988033">
        <ele>1650.0</ele>
        <time>2015-05-23T13:03:40Z</time>
      </trkpt>
      <trkpt lat="40.193267" lon="-4.988083">
        <ele>1650.0</ele>
        <time>2015-05-23T13:03:42Z</time>
      </trkpt>
      <trkpt lat="40.193433" lon="-4.988017">
        <ele>1651.0</ele>
        <time>2015-05-23T13:03:44Z</time>
      </trkpt>
      <trkpt lat="40.193517" lon="-4.987850">
        <ele>1654.0</ele>
        <time>2015-05-23T13:03:46Z</time>
      </trkpt>
      <trkpt lat="40.193550" lon="-4.987667">
        <ele>1657.0</ele>
        <time>2015-05-23T13:03:48Z</time>
      </trkpt>
      <trkpt lat="40.193550" lon="-4.987483">
        <ele>1659.0</ele>
        <time>2015-05-23T13:03:50Z</time>
      </trkpt>
      <trkpt lat="40.193467" lon="-4.987300">
        <ele>1661.0</ele>
        <time>2015-05-23T13:03:52Z</time>
      </trkpt>
      <trkpt lat="40.193317" lon="-4.987200">
        <ele>1663.0</ele>
        <time>2015-05-23T13:03:54Z</time>
      </trkpt>
      <trkpt lat="40.193150" lon="-4.987233">
        <ele>1666.0</ele>
        <time>2015-05-23T13:03:56Z</time>
      </trkpt>
      <trkpt lat="40.193000" lon="-4.987383">
        <ele>1667.0</ele>
        <time>2015-05-23T13:03:58Z</time>
      </trkpt>
      <trkpt lat="40.192933" lon="-4.987617">
        <ele>1669.0</ele>
        <time>2015-05-23T13:04:00Z</time>
      </trkpt>
      <trkpt lat="40.192933" lon="-4.987850">
        <ele>1672.0</ele>
        <time>2015-05-23T13:04:02Z</time>
      </trkpt>
      <trkpt lat="40.193000" lon="-4.988083">
        <ele>1673.0</ele>
        <time>2015-05-23T13:04:04Z</time>
      </trkpt>
      <trkpt lat="40.193133" lon="-4.988250">
        <ele>1675.0</ele>
        <time>2015-05-23T13:04:06Z</time>
      </trkpt>
      <trkpt lat="40.193283" lon="-4.988317">
        <ele>1677.0</ele>
        <time>2015-05-23T13:04:08Z</time>
      </trkpt>
      <trkpt lat="40.193450" lon="-4.988333">
        <ele>1677.0</ele>
        <time>2015-05-23T13:04:10Z</time>
      </trkpt>
      <trkpt lat="40.193583" lon="-4.988217">
        <ele>1678.0</ele>
        <time>2015-05-23T13:04:12Z</time>
      </trkpt>
      <trkpt lat="40.193650" lon="-4.988033">
        <ele>1680.0</ele>
        <time>2015-05-23T13:04:14Z</time>
      </trkpt>
      <trkpt lat="40.193650" lon="-4.987883">
        <ele>1683.0</ele>
        <time>2015-05-23T13:04:16Z</time>
      </trkpt>
      <trkpt lat="40.193567" lon="-4.987733">
        <ele>1683.0</ele>
        <time>2015-05-23T13:04:18Z</time>
      </trkpt>
      <trkpt lat="40.193433" lon="-4.987617">
        <ele>1684.0</ele>
        <time>2015-05-23T13:04:20Z</time>
      </trkpt>
      <trkpt lat="40.193283" lon="-4.987583">
        <ele>1686.0</ele>
        <time>2015-05-23T13:04:22Z</time>
      </trkpt>
      <trkpt lat="40.193117" lon="-4.987650">
        <ele>1686.0</ele>
        <time>2015-05-23T13:04:24Z</time>
      </trkpt>
      <trkpt lat="40.192983" lon="-4.987783">
        <ele>1685.0</ele>
        <time>2015-05-23T13:04:26Z</time>
      </trkpt>
      <trkpt lat="40.192867" lon="-4.987983">
        <ele>1685.0</ele>
        <time>2015-05-23T13:04:28Z</time>
      </trkpt>
      <trkpt lat="40.192767" lon="-4.988217">
        <ele>1685.0</ele>
        <time>2015-05-23T13:04:30Z</time>
      </trkpt>
      <trkpt lat="40.192700" lon="-4.988467">
        <ele>1685.0</ele>
        <time>2015-05-23T13:04:32Z</time>
      </trkpt>
      <trkpt lat="40.192700" lon="-4.988717">
        <ele>1686.0</ele>
        <time>2015-05-23T13:04:34Z</time>
      </trkpt>
      <trkpt lat="40.192700" lon="-4.988917">
        <ele>1688.0</ele>
        <time>2015-05-23T13:04:36Z</time>
      </trkpt>
      <trkpt lat="40.192733" lon="-4.989133">
        <ele>1687.0</ele>
        <time>2015-05-23T13:04:38Z</time>
      </trkpt>
      <trkpt lat="40.192800" lon="-4.989333">
        <ele>1688.0</ele>
        <time>2015-05-23T13:04:40Z</time>
      </trkpt>
      <trkpt lat="40.192850" lon="-4.989533">
        <ele>1689.0</ele>
        <time>2015-05-23T13:04:42Z</time>
      </trkpt>
      <trkpt lat="40.192900" lon="-4.989750">
        <ele>1688.0</ele>
        <time>2015-05-23T13:04:44Z</time>
      </trkpt>
      <trkpt lat="40.192967" lon="-4.990000">
        <ele>1688.0</ele>
        <time>2015-05-23T13:04:46Z</time>
      </trkpt>
      <trkpt lat="40.193000" lon="-4.990250">
        <ele>1688.0</ele>
        <time>2015-05-23T13:04:48Z</time>
      </trkpt>
      <trkpt lat="40.193083" lon="-4.990483">
        <ele>1687.0</ele>
        <time>2015-05-23T13:04:50Z</time>
      </trkpt>
      <trkpt lat="40.193117" lon="-4.990700">
        <ele>1686.0</ele>
        <time>2015-05-23T13:04:52Z</time>
      </trkpt>
      <trkpt lat="40.193083" lon="-4.990967">
        <ele>1684.0</ele>
        <time>2015-05-23T13:04:54Z</time>
      </trkpt>
      <trkpt lat="40.193033" lon="-4.991233">
        <ele>1684.0</ele>
        <time>2015-05-23T13:04:56Z</time>
      </trkpt>
      <trkpt lat="40.193000" lon="-4.991433">
        <ele>1686.0</ele>
        <time>2015-05-23T13:04:58Z</time>
      </trkpt>
      <trkpt lat="40.192883" lon="-4.991633">
        <ele>1686.0</ele>
        <time>2015-05-23T13:05:00Z</time>
      </trkpt>
      <trkpt lat="40.192733" lon="-4.991833">
        <ele>1688.0</ele>
        <time>2015-05-23T13:05:02Z</time>
      </trkpt>
      <trkpt lat="40.192617" lon="-4.992033">
        <ele>1690.0</ele>
        <time>2015-05-23T13:05:04Z</time>
      </trkpt>
      <trkpt lat="40.192550" lon="-4.992267">
        <ele>1689.0</ele>
        <time>2015-05-23T13:05:06Z</time>
      </trkpt>
      <trkpt lat="40.192517" lon="-4.992550">
        <ele>1688.0</ele>
        <time>2015-05-23T13:05:08Z</time>
      </trkpt>
      <trkpt lat="40.192517" lon="-4.992833">
        <ele>1688.0</ele>
        <time>2015-05-23T13:05:10Z</time>
      </trkpt>
      <trkpt lat="40.192567" lon="-4.993133">
        <ele>1689.0</ele>
        <time>2015-05-23T13:05:12Z</time>
      </trkpt>
      <trkpt lat="40.192650" lon="-4.993417">
        <ele>1688.0</ele>
        <time>2015-05-23T13:05:14Z</time>
      </trkpt>
      <trkpt lat="40.192767" lon="-4.993667">
        <ele>1686.0</ele>
        <time>2015-05-23T13:05:16Z</time>
      </trkpt>
      <trkpt lat="40.192933" lon="-4.993850">
        <ele>1685.0</ele>
        <time>2015-05-23T13:05:18Z</time>
      </trkpt>
      <trkpt lat="40.193067" lon="-4.994050">
        <ele>1684.0</ele>
        <time>2015-05-23T13:05:20Z</time>
      </trkpt>
      <trkpt lat="40.193183" lon="-4.994317">
        <ele>1684.0</ele>
        <time>2015-05-23T13:05:22Z</time>
      </trkpt>
      <trkpt lat="40.193233" lon="-4.994650">
        <ele>1685.0</ele>
        <time>2015-05-23T13:05:24Z</time>
      </trkpt>
      <trkpt lat="40.193267" lon="-4.994950">
        <ele>1685.0</ele>
        <time>2015-05-23T13:05:26Z</time>
      </trkpt>
      <trkpt lat="40.193217" lon="-4.995283">
        <ele>1683.0</ele>
        <time>2015-05-23T13:05:28Z</time>
      </trkpt>
      <trkpt lat="40.193133" lon="-4.995583">
        <ele>1683.0</ele>
        <time>2015-05-23T13:05:30Z</time>
      </trkpt>
      <trkpt lat="40.193017" lon="-4.995867">
        <ele>1684.0</ele>
        <time>2015-05-23T13:05:32Z</time>
      </trkpt>
      <trkpt lat="40.192900" lon="-4.996167">
        <ele>1684.0</ele>
        <time>2015-05-23T13:05:34Z</time>
      </trkpt>
      <trkpt lat="40.192783" lon="-4.996450">
        <ele>1687.0</ele>
        <time>2015-05-23T13:05:36Z</time>
      </trkpt>
      <trkpt lat="40.192750" lon="-4.996733">
        <ele>1691.0</ele>
        <time>2015-05-23T13:05:38Z</time>
      </trkpt>
      <trkpt lat="40.192783" lon="-4.996983">
        <ele>1692.0</ele>
        <time>2015-05-23T13:05:40Z</time>
      </trkpt>
      <trkpt lat="40.192867" lon="-4.997283">
        <ele>1690.0</ele>
        <time>2015-05-23T13:05:42Z</time>
      </trkpt>
      <trkpt lat="40.192917" lon="-4.997600">
        <ele>1692.0</ele>
        <time>2015-05-23T13:05:44Z</time>
      </trkpt>
      <trkpt lat="40.192900" lon="-4.997900">
        <ele>1692.0</ele>
        <time>2015-05-23T13:05:46Z</time>
      </trkpt>
      <trkpt lat="40.192917" lon="-4.998250">
        <ele>1693.0</ele>
        <time>2015-05-23T13:05:48Z</time>
      </trkpt>
      <trkpt lat="40.192917" lon="-4.998583">
        <ele>1698.0</ele>
        <time>2015-05-23T13:05:50Z</time>
      </trkpt>
      <trkpt lat="40.192833" lon="-4.998783">
        <ele>1703.0</ele>
        <time>2015-05-23T13:05:52Z</time>
      </trkpt>
      <trkpt lat="40.192717" lon="-4.998950">
        <ele>1703.0</ele>
        <time>2015-05-23T13:05:54Z</time>
      </trkpt>
      <trkpt lat="40.192583" lon="-4.999167">
        <ele>1703.0</ele>
        <time>2015-05-23T13:05:56Z</time>
      </trkpt>
      <trkpt lat="40.192467" lon="-4.999383">
        <ele>1708.0</ele>
        <time>2015-05-23T13:05:58Z</time>
      </trkpt>
      <trkpt lat="40.192367" lon="-4.999533">
        <ele>1710.0</ele>
        <time>2015-05-23T13:06:00Z</time>
      </trkpt>
      <trkpt lat="40.192250" lon="-4.999717">
        <ele>1711.0</ele>
        <time>2015-05-23T13:06:02Z</time>
      </trkpt>
      <trkpt lat="40.192133" lon="-4.999883">
        <ele>1713.0</ele>
        <time>2015-05-23T13:06:04Z</time>
      </trkpt>
      <trkpt lat="40.192017" lon="-5.000050">
        <ele>1715.0</ele>
        <time>2015-05-23T13:06:06Z</time>
      </trkpt>
      <trkpt lat="40.191883" lon="-5.000167">
        <ele>1717.0</ele>
        <time>2015-05-23T13:06:08Z</time>
      </trkpt>
      <trkpt lat="40.191733" lon="-5.000283">
        <ele>1717.0</ele>
        <time>2015-05-23T13:06:10Z</time>
      </trkpt>
      <trkpt lat="40.191583" lon="-5.000400">
        <ele>1720.0</ele>
        <time>2015-05-23T13:06:12Z</time>
      </trkpt>
      <trkpt lat="40.191467" lon="-5.000433">
        <ele>1724.0</ele>
        <time>2015-05-23T13:06:14Z</time>
      </trkpt>
      <trkpt lat="40.191383" lon="-5.000400">
        <ele>1724.0</ele>
        <time>2015-05-23T13:06:16Z</time>
      </trkpt>
      <trkpt lat="40.191333" lon="-5.000300">
        <ele>1723.0</ele>
        <time>2015-05-23T13:06:18Z</time>
      </trkpt>
      <trkpt lat="40.191300" lon="-5.000167">
        <ele>1722.0</ele>
        <time>2015-05-23T13:06:20Z</time>
      </trkpt>
      <trkpt lat="40.191350" lon="-5.000017">
        <ele>1721.0</ele>
        <time>2015-05-23T13:06:22Z</time>
      </trkpt>
      <trkpt lat="40.191483" lon="-4.999900">
        <ele>1722.0</ele>
        <time>2015-05-23T13:06:24Z</time>
      </trkpt>
      <trkpt lat="40.191667" lon="-4.999833">
        <ele>1727.0</ele>
        <time>2015-05-23T13:06:26Z</time>
      </trkpt>
      <trkpt lat="40.191833" lon="-4.999850">
        <ele>1732.0</ele>
        <time>2015-05-23T13:06:28Z</time>
      </trkpt>
      <trkpt lat="40.192017" lon="-4.999933">
        <ele>1736.0</ele>
        <time>2015-05-23T13:06:30Z</time>
      </trkpt>
      <trkpt lat="40.192200" lon="-5.000150">
        <ele>1738.0</ele>
        <time>2015-05-23T13:06:32Z</time>
      </trkpt>
      <trkpt lat="40.192300" lon="-5.000450">
        <ele>1740.0</ele>
        <time>2015-05-23T13:06:34Z</time>
      </trkpt>
      <trkpt lat="40.192350" lon="-5.000783">
        <ele>1741.0</ele>
        <time>2015-05-23T13:06:36Z</time>
      </trkpt>
      <trkpt lat="40.192350" lon="-5.001133">
        <ele>1743.0</ele>
        <time>2015-05-23T13:06:38Z</time>
      </trkpt>
      <trkpt lat="40.192300" lon="-5.001433">
        <ele>1748.0</ele>
        <time>2015-05-23T13:06:40Z</time>
      </trkpt>
      <trkpt lat="40.192250" lon="-5.001717">
        <ele>1751.0</ele>
        <time>2015-05-23T13:06:42Z</time>
      </trkpt>
      <trkpt lat="40.192183" lon="-5.001933">
        <ele>1752.0</ele>
        <time>2015-05-23T13:06:44Z</time>
      </trkpt>
      <trkpt lat="40.192083" lon="-5.002133">
        <ele>1750.0</ele>
        <time>2015-05-23T13:06:46Z</time>
      </trkpt>
      <trkpt lat="40.191967" lon="-5.002300">
        <ele>1749.0</ele>
        <time>2015-05-23T13:06:48Z</time>
      </trkpt>
      <trkpt lat="40.191833" lon="-5.002333">
        <ele>1745.0</ele>
        <time>2015-05-23T13:06:50Z</time>
      </trkpt>
      <trkpt lat="40.191717" lon="-5.002217">
        <ele>1744.0</ele>
        <time>2015-05-23T13:06:52Z</time>
      </trkpt>
      <trkpt lat="40.191700" lon="-5.002067">
        <ele>1746.0</ele>
        <time>2015-05-23T13:06:54Z</time>
      </trkpt>
      <trkpt lat="40.191717" lon="-5.001950">
        <ele>1745.0</ele>
        <time>2015-05-23T13:06:56Z</time>
      </trkpt>
      <trkpt lat="40.191767" lon="-5.001800">
        <ele>1743.0</ele>
        <time>2015-05-23T13:06:58Z</time>
      </trkpt>
      <trkpt lat="40.191867" lon="-5.001667">
        <ele>1742.0</ele>
        <time>2015-05-23T13:07:00Z</time>
      </trkpt>
      <trkpt lat="40.192050" lon="-5.001600">
        <ele>1743.0</ele>
        <time>2015-05-23T13:07:02Z</time>
      </trkpt>
      <trkpt lat="40.192233" lon="-5.001617">
        <ele>1744.0</ele>
        <time>2015-05-23T13:07:04Z</time>
      </trkpt>
      <trkpt lat="40.192450" lon="-5.001683">
        <ele>1746.0</ele>
        <time>2015-05-23T13:07:06Z</time>
      </trkpt>
      <trkpt lat="40.192667" lon="-5.001767">
        <ele>1747.0</ele>
        <time>2015-05-23T13:07:08Z</time>
      </trkpt>
      <trkpt lat="40.192883" lon="-5.001917">
        <ele>1751.0</ele>
        <time>2015-05-23T13:07:10Z</time>
      </trkpt>
      <trkpt lat="40.193067" lon="-5.002083">
        <ele>1755.0</ele>
        <time>2015-05-23T13:07:12Z</time>
      </trkpt>
      <trkpt lat="40.193233" lon="-5.002200">
        <ele>1758.0</ele>
        <time>2015-05-23T13:07:14Z</time>
      </trkpt>
      <trkpt lat="40.193433" lon="-5.002317">
        <ele>1760.0</ele>
        <time>2015-05-23T13:07:16Z</time>
      </trkpt>
      <trkpt lat="40.193600" lon="-5.002483">
        <ele>1760.0</ele>
        <time>2015-05-23T13:07:18Z</time>
      </trkpt>
      <trkpt lat="40.193733" lon="-5.002733">
        <ele>1760.0</ele>
        <time>2015-05-23T13:07:20Z</time>
      </trkpt>
      <trkpt lat="40.193833" lon="-5.003000">
        <ele>1759.0</ele>
        <time>2015-05-23T13:07:22Z</time>
      </trkpt>
      <trkpt lat="40.193817" lon="-5.003217">
        <ele>1757.0</ele>
        <time>2015-05-23T13:07:24Z</time>
      </trkpt>
      <trkpt lat="40.193750" lon="-5.003367">
        <ele>1752.0</ele>
        <time>2015-05-23T13:07:26Z</time>
      </trkpt>
      <trkpt lat="40.193617" lon="-5.003467">
        <ele>1748.0</ele>
        <time>2015-05-23T13:07:28Z</time>
      </trkpt>
      <trkpt lat="40.193500" lon="-5.003517">
        <ele>1746.0</ele>
        <time>2015-05-23T13:07:30Z</time>
      </trkpt>
      <trkpt lat="40.193383" lon="-5.003500">
        <ele>1745.0</ele>
        <time>2015-05-23T13:07:32Z</time>
      </trkpt>
      <trkpt lat="40.193267" lon="-5.003483">
        <ele>1747.0</ele>
        <time>2015-05-23T13:07:34Z</time>
      </trkpt>
      <trkpt lat="40.193117" lon="-5.003500">
        <ele>1750.0</ele>
        <time>2015-05-23T13:07:36Z</time>
      </trkpt>
      <trkpt lat="40.193000" lon="-5.003600">
        <ele>1752.0</ele>
        <time>2015-05-23T13:07:38Z</time>
      </trkpt>
      <trkpt lat="40.192883" lon="-5.003750">
        <ele>1753.0</ele>
        <time>2015-05-23T13:07:40Z</time>
      </trkpt>
      <trkpt lat="40.192800" lon="-5.003983">
        <ele>1752.0</ele>
        <time>2015-05-23T13:07:42Z</time>
      </trkpt>
      <trkpt lat="40.192800" lon="-5.004283">
        <ele>1751.0</ele>
        <time>2015-05-23T13:07:44Z</time>
      </trkpt>
      <trkpt lat="40.192883" lon="-5.004550">
        <ele>1749.0</ele>
        <time>2015-05-23T13:07:46Z</time>
      </trkpt>
      <trkpt lat="40.193033" lon="-5.004767">
        <ele>1745.0</ele>
        <time>2015-05-23T13:07:48Z</time>
      </trkpt>
      <trkpt lat="40.193200" lon="-5.004983">
        <ele>1740.0</ele>
        <time>2015-05-23T13:07:50Z</time>
      </trkpt>
      <trkpt lat="40.193317" lon="-5.005250">
        <ele>1737.0</ele>
        <time>2015-05-23T13:07:52Z</time>
      </trkpt>
      <trkpt lat="40.193433" lon="-5.005533">
        <ele>1734.0</ele>
        <time>2015-05-23T13:07:54Z</time>
      </trkpt>
      <trkpt lat="40.193517" lon="-5.005850">
        <ele>1731.0</ele>
        <time>2015-05-23T13:07:56Z</time>
      </trkpt>
      <trkpt lat="40.193533" lon="-5.006167">
        <ele>1727.0</ele>
        <time>2015-05-23T13:07:58Z</time>
      </trkpt>
      <trkpt lat="40.193500" lon="-5.006450">
        <ele>1722.0</ele>
        <time>2015-05-23T13:08:00Z</time>
      </trkpt>
      <trkpt lat="40.193483" lon="-5.006750">
        <ele>1717.0</ele>
        <time>2015-05-23T13:08:02Z</time>
      </trkpt>
      <trkpt lat="40.193483" lon="-5.007067">
        <ele>1715.0</ele>
        <time>2015-05-23T13:08:04Z</time>
      </trkpt>
      <trkpt lat="40.193500" lon="-5.007367">
        <ele>1716.0</ele>
        <time>2015-05-23T13:08:06Z</time>
      </trkpt>
      <trkpt lat="40.193533" lon="-5.007633">
        <ele>1716.0</ele>
        <time>2015-05-23T13:08:08Z</time>
      </trkpt>
      <trkpt lat="40.193567" lon="-5.007900">
        <ele>1715.0</ele>
        <time>2015-05-23T13:08:10Z</time>
      </trkpt>
      <trkpt lat="40.193617" lon="-5.008183">
        <ele>1716.0</ele>
        <time>2015-05-23T13:08:12Z</time>
      </trkpt>
      <trkpt lat="40.193617" lon="-5.008450">
        <ele>1718.0</ele>
        <time>2015-05-23T13:08:14Z</time>
      </trkpt>
      <trkpt lat="40.193650" lon="-5.008700">
        <ele>1719.0</ele>
        <time>2015-05-23T13:08:16Z</time>
      </trkpt>
      <trkpt lat="40.193700" lon="-5.008950">
        <ele>1720.0</ele>
        <time>2015-05-23T13:08:18Z</time>
      </trkpt>
      <trkpt lat="40.193800" lon="-5.009150">
        <ele>1720.0</ele>
        <time>2015-05-23T13:08:20Z</time>
      </trkpt>
      <trkpt lat="40.193967" lon="-5.009383">
        <ele>1716.0</ele>
        <time>2015-05-23T13:08:22Z</time>
      </trkpt>
      <trkpt lat="40.194133" lon="-5.009650">
        <ele>1716.0</ele>
        <time>2015-05-23T13:08:24Z</time>
      </trkpt>
      <trkpt lat="40.194217" lon="-5.009917">
        <ele>1718.0</ele>
        <time>2015-05-23T13:08:26Z</time>
      </trkpt>
      <trkpt lat="40.194233" lon="-5.010167">
        <ele>1718.0</ele>
        <time>2015-05-23T13:08:28Z</time>
      </trkpt>
      <trkpt lat="40.194217" lon="-5.010400">
        <ele>1717.0</ele>
        <time>2015-05-23T13:08:30Z</time>
      </trkpt>
      <trkpt lat="40.194117" lon="-5.010567">
        <ele>1717.0</ele>
        <time>2015-05-23T13:08:32Z</time>
      </trkpt>
      <trkpt lat="40.194000" lon="-5.010683">
        <ele>1717.0</ele>
        <time>2015-05-23T13:08:34Z</time>
      </trkpt>
      <trkpt lat="40.193883" lon="-5.010750">
        <ele>1719.0</ele>
        <time>2015-05-23T13:08:36Z</time>
      </trkpt>
      <trkpt lat="40.193767" lon="-5.010750">
        <ele>1720.0</ele>
        <time>2015-05-23T13:08:38Z</time>
      </trkpt>
      <trkpt lat="40.193700" lon="-5.010700">
        <ele>1720.0</ele>
        <time>2015-05-23T13:08:40Z</time>
      </trkpt>
      <trkpt lat="40.193633" lon="-5.010583">
        <ele>1719.0</ele>
        <time>2015-05-23T13:08:42Z</time>
      </trkpt>
      <trkpt lat="40.193650" lon="-5.010417">
        <ele>1716.0</ele>
        <time>2015-05-23T13:08:44Z</time>
      </trkpt>
      <trkpt lat="40.193767" lon="-5.010233">
        <ele>1713.0</ele>
        <time>2015-05-23T13:08:46Z</time>
      </trkpt>
      <trkpt lat="40.193950" lon="-5.010117">
        <ele>1713.0</ele>
        <time>2015-05-23T13:08:48Z</time>
      </trkpt>
      <trkpt lat="40.194150" lon="-5.010150">
        <ele>1712.0</ele>
        <time>2015-05-23T13:08:50Z</time>
      </trkpt>
      <trkpt lat="40.194350" lon="-5.010267">
        <ele>1710.0</ele>
        <time>2015-05-23T13:08:52Z</time>
      </trkpt>
      <trkpt lat="40.194483" lon="-5.010483">
        <ele>1709.0</ele>
        <time>2015-05-23T13:08:54Z</time>
      </trkpt>
      <trkpt lat="40.194550" lon="-5.010717">
        <ele>1709.0</ele>
        <time>2015-05-23T13:08:56Z</time>
      </trkpt>
      <trkpt lat="40.194567" lon="-5.010983">
        <ele>1708.0</ele>
        <time>2015-05-23T13:08:58Z</time>
      </trkpt>
      <trkpt lat="40.194567" lon="-5.011250">
        <ele>1707.0</ele>
        <time>2015-05-23T13:09:00Z</time>
      </trkpt>
      <trkpt lat="40.194550" lon="-5.011500">
        <ele>1707.0</ele>
        <time>2015-05-23T13:09:02Z</time>
      </trkpt>
      <trkpt lat="40.194533" lon="-5.011800">
        <ele>1708.0</ele>
        <time>2015-05-23T13:09:04Z</time>
      </trkpt>
      <trkpt lat="40.194550" lon="-5.012067">
        <ele>1712.0</ele>
        <time>2015-05-23T13:09:06Z</time>
      </trkpt>
      <trkpt lat="40.194600" lon="-5.012317">
        <ele>1713.0</ele>
        <time>2015-05-23T13:09:08Z</time>
      </trkpt>
      <trkpt lat="40.194717" lon="-5.012583">
        <ele>1712.0</ele>
        <time>2015-05-23T13:09:10Z</time>
      </trkpt>
      <trkpt lat="40.194833" lon="-5.012817">
        <ele>1713.0</ele>
        <time>2015-05-23T13:09:12Z</time>
      </trkpt>
      <trkpt lat="40.194917" lon="-5.013083">
        <ele>1711.0</ele>
        <time>2015-05-23T13:09:14Z</time>
      </trkpt>
      <trkpt lat="40.194917" lon="-5.013383">
        <ele>1709.0</ele>
        <time>2015-05-23T13:09:16Z</time>
      </trkpt>
      <trkpt lat="40.194867" lon="-5.013650">
        <ele>1710.0</ele>
        <time>2015-05-23T13:09:18Z</time>
      </trkpt>
      <trkpt lat="40.194817" lon="-5.013883">
        <ele>1713.0</ele>
        <time>2015-05-23T13:09:20Z</time>
      </trkpt>
      <trkpt lat="40.194833" lon="-5.014150">
        <ele>1714.0</ele>
        <time>2015-05-23T13:09:22Z</time>
      </trkpt>
      <trkpt lat="40.194883" lon="-5.014433">
        <ele>1715.0</ele>
        <time>2015-05-23T13:09:24Z</time>
      </trkpt>
      <trkpt lat="40.194950" lon="-5.015017">
        <ele>1714.0</ele>
        <time>2015-05-23T13:09:28Z</time>
      </trkpt>
      <trkpt lat="40.194933" lon="-5.015300">
        <ele>1709.0</ele>
        <time>2015-05-23T13:09:30Z</time>
      </trkpt>
      <trkpt lat="40.194883" lon="-5.015600">
        <ele>1698.0</ele>
        <time>2015-05-23T13:09:32Z</time>
      </trkpt>
      <trkpt lat="40.194833" lon="-5.015867">
        <ele>1692.0</ele>
        <time>2015-05-23T13:09:34Z</time>
      </trkpt>
      <trkpt lat="40.194767" lon="-5.016100">
        <ele>1687.0</ele>
        <time>2015-05-23T13:09:36Z</time>
      </trkpt>
      <trkpt lat="40.194700" lon="-5.016350">
        <ele>1681.0</ele>
        <time>2015-05-23T13:09:38Z</time>
      </trkpt>
      <trkpt lat="40.194600" lon="-5.016600">
        <ele>1676.0</ele>
        <time>2015-05-23T13:09:40Z</time>
      </trkpt>
      <trkpt lat="40.194500" lon="-5.016783">
        <ele>1673.0</ele>
        <time>2015-05-23T13:09:42Z</time>
      </trkpt>
      <trkpt lat="40.194400" lon="-5.016950">
        <ele>1669.0</ele>
        <time>2015-05-23T13:09:44Z</time>
      </trkpt>
      <trkpt lat="40.194267" lon="-5.017117">
        <ele>1664.0</ele>
        <time>2015-05-23T13:09:46Z</time>
      </trkpt>
      <trkpt lat="40.194150" lon="-5.017300">
        <ele>1660.0</ele>
        <time>2015-05-23T13:09:48Z</time>
      </trkpt>
      <trkpt lat="40.194033" lon="-5.017467">
        <ele>1657.0</ele>
        <time>2015-05-23T13:09:50Z</time>
      </trkpt>
      <trkpt lat="40.193900" lon="-5.017633">
        <ele>1655.0</ele>
        <time>2015-05-23T13:09:52Z</time>
      </trkpt>
      <trkpt lat="40.193783" lon="-5.017800">
        <ele>1652.0</ele>
        <time>2015-05-23T13:09:54Z</time>
      </trkpt>
      <trkpt lat="40.193650" lon="-5.017983">
        <ele>1651.0</ele>
        <time>2015-05-23T13:09:56Z</time>
      </trkpt>
      <trkpt lat="40.193550" lon="-5.018150">
        <ele>1649.0</ele>
        <time>2015-05-23T13:09:58Z</time>
      </trkpt>
      <trkpt lat="40.193433" lon="-5.018333">
        <ele>1646.0</ele>
        <time>2015-05-23T13:10:00Z</time>
      </trkpt>
      <trkpt lat="40.193317" lon="-5.018550">
        <ele>1643.0</ele>
        <time>2015-05-23T13:10:02Z</time>
      </trkpt>
      <trkpt lat="40.193217" lon="-5.018783">
        <ele>1640.0</ele>
        <time>2015-05-23T13:10:04Z</time>
      </trkpt>
      <trkpt lat="40.193117" lon="-5.019000">
        <ele>1636.0</ele>
        <time>2015-05-23T13:10:06Z</time>
      </trkpt>
      <trkpt lat="40.193000" lon="-5.019217">
        <ele>1632.0</ele>
        <time>2015-05-23T13:10:08Z</time>
      </trkpt>
      <trkpt lat="40.192900" lon="-5.019450">
        <ele>1630.0</ele>
        <time>2015-05-23T13:10:10Z</time>
      </trkpt>
      <trkpt lat="40.192817" lon="-5.019667">
        <ele>1627.0</ele>
        <time>2015-05-23T13:10:12Z</time>
      </trkpt>
      <trkpt lat="40.192717" lon="-5.019900">
        <ele>1622.0</ele>
        <time>2015-05-23T13:10:14Z</time>
      </trkpt>
      <trkpt lat="40.192600" lon="-5.020117">
        <ele>1616.0</ele>
        <time>2015-05-23T13:10:16Z</time>
      </trkpt>
      <trkpt lat="40.192483" lon="-5.020350">
        <ele>1613.0</ele>
        <time>2015-05-23T13:10:18Z</time>
      </trkpt>
      <trkpt lat="40.192383" lon="-5.020600">
        <ele>1611.0</ele>
        <time>2015-05-23T13:10:20Z</time>
      </trkpt>
      <trkpt lat="40.192267" lon="-5.020833">
        <ele>1608.0</ele>
        <time>2015-05-23T13:10:22Z</time>
      </trkpt>
      <trkpt lat="40.192150" lon="-5.021067">
        <ele>1604.0</ele>
        <time>2015-05-23T13:10:24Z</time>
      </trkpt>
      <trkpt lat="40.192050" lon="-5.021300">
        <ele>1601.0</ele>
        <time>2015-05-23T13:10:26Z</time>
      </trkpt>
      <trkpt lat="40.191950" lon="-5.021567">
        <ele>1598.0</ele>
        <time>2015-05-23T13:10:28Z</time>
      </trkpt>
      <trkpt lat="40.191883" lon="-5.021833">
        <ele>1598.0</ele>
        <time>2015-05-23T13:10:30Z</time>
      </trkpt>
      <trkpt lat="40.191800" lon="-5.022067">
        <ele>1598.0</ele>
        <time>2015-05-23T13:10:32Z</time>
      </trkpt>
      <trkpt lat="40.191767" lon="-5.022317">
        <ele>1598.0</ele>
        <time>2015-05-23T13:10:34Z</time>
      </trkpt>
      <trkpt lat="40.191750" lon="-5.022583">
        <ele>1596.0</ele>
        <time>2015-05-23T13:10:36Z</time>
      </trkpt>
      <trkpt lat="40.191700" lon="-5.022883">
        <ele>1591.0</ele>
        <time>2015-05-23T13:10:38Z</time>
      </trkpt>
      <trkpt lat="40.191667" lon="-5.023133">
        <ele>1590.0</ele>
        <time>2015-05-23T13:10:40Z</time>
      </trkpt>
      <trkpt lat="40.191650" lon="-5.023333">
        <ele>1589.0</ele>
        <time>2015-05-23T13:10:42Z</time>
      </trkpt>
      <trkpt lat="40.191617" lon="-5.023550">
        <ele>1585.0</ele>
        <time>2015-05-23T13:10:44Z</time>
      </trkpt>
      <trkpt lat="40.191567" lon="-5.023800">
        <ele>1581.0</ele>
        <time>2015-05-23T13:10:46Z</time>
      </trkpt>
      <trkpt lat="40.191517" lon="-5.024000">
        <ele>1580.0</ele>
        <time>2015-05-23T13:10:48Z</time>
      </trkpt>
      <trkpt lat="40.191500" lon="-5.024183">
        <ele>1580.0</ele>
        <time>2015-05-23T13:10:50Z</time>
      </trkpt>
      <trkpt lat="40.191467" lon="-5.024383">
        <ele>1576.0</ele>
        <time>2015-05-23T13:10:52Z</time>
      </trkpt>
      <trkpt lat="40.191417" lon="-5.024617">
        <ele>1572.0</ele>
        <time>2015-05-23T13:10:54Z</time>
      </trkpt>
      <trkpt lat="40.191367" lon="-5.024817">
        <ele>1570.0</ele>
        <time>2015-05-23T13:10:56Z</time>
      </trkpt>
      <trkpt lat="40.191317" lon="-5.025000">
        <ele>1568.0</ele>
        <time>2015-05-23T13:10:58Z</time>
      </trkpt>
      <trkpt lat="40.191267" lon="-5.025217">
        <ele>1564.0</ele>
        <time>2015-05-23T13:11:00Z</time>
      </trkpt>
      <trkpt lat="40.191200" lon="-5.025450">
        <ele>1558.0</ele>
        <time>2015-05-23T13:11:02Z</time>
      </trkpt>
      <trkpt lat="40.191133" lon="-5.025683">
        <ele>1554.0</ele>
        <time>2015-05-23T13:11:04Z</time>
      </trkpt>
      <trkpt lat="40.191067" lon="-5.025917">
        <ele>1552.0</ele>
        <time>2015-05-23T13:11:06Z</time>
      </trkpt>
      <trkpt lat="40.190983" lon="-5.026150">
        <ele>1548.0</ele>
        <time>2015-05-23T13:11:08Z</time>
      </trkpt>
      <trkpt lat="40.190917" lon="-5.026417">
        <ele>1543.0</ele>
        <time>2015-05-23T13:11:10Z</time>
      </trkpt>
      <trkpt lat="40.190867" lon="-5.026667">
        <ele>1541.0</ele>
        <time>2015-05-23T13:11:12Z</time>
      </trkpt>
      <trkpt lat="40.190800" lon="-5.026900">
        <ele>1539.0</ele>
        <time>2015-05-23T13:11:14Z</time>
      </trkpt>
      <trkpt lat="40.190717" lon="-5.027150">
        <ele>1534.0</ele>
        <time>2015-05-23T13:11:16Z</time>
      </trkpt>
      <trkpt lat="40.190617" lon="-5.027350">
        <ele>1530.0</ele>
        <time>2015-05-23T13:11:18Z</time>
      </trkpt>
      <trkpt lat="40.190533" lon="-5.027583">
        <ele>1525.0</ele>
        <time>2015-05-23T13:11:20Z</time>
      </trkpt>
      <trkpt lat="40.190417" lon="-5.027817">
        <ele>1520.0</ele>
        <time>2015-05-23T13:11:22Z</time>
      </trkpt>
      <trkpt lat="40.190300" lon="-5.027983">
        <ele>1518.0</ele>
        <time>2015-05-23T13:11:24Z</time>
      </trkpt>
      <trkpt lat="40.190183" lon="-5.028167">
        <ele>1515.0</ele>
        <time>2015-05-23T13:11:26Z</time>
      </trkpt>
      <trkpt lat="40.190050" lon="-5.028367">
        <ele>1510.0</ele>
        <time>2015-05-23T13:11:28Z</time>
      </trkpt>
      <trkpt lat="40.189933" lon="-5.028550">
        <ele>1506.0</ele>
        <time>2015-05-23T13:11:30Z</time>
      </trkpt>
      <trkpt lat="40.189817" lon="-5.028767">
        <ele>1500.0</ele>
        <time>2015-05-23T13:11:32Z</time>
      </trkpt>
      <trkpt lat="40.189683" lon="-5.028983">
        <ele>1495.0</ele>
        <time>2015-05-23T13:11:34Z</time>
      </trkpt>
      <trkpt lat="40.189567" lon="-5.029183">
        <ele>1493.0</ele>
        <time>2015-05-23T13:11:36Z</time>
      </trkpt>
      <trkpt lat="40.189433" lon="-5.029367">
        <ele>1491.0</ele>
        <time>2015-05-23T13:11:38Z</time>
      </trkpt>
      <trkpt lat="40.189300" lon="-5.029550">
        <ele>1488.0</ele>
        <time>2015-05-23T13:11:40Z</time>
      </trkpt>
      <trkpt lat="40.189200" lon="-5.029733">
        <ele>1485.0</ele>
        <time>2015-05-23T13:11:42Z</time>
      </trkpt>
      <trkpt lat="40.189083" lon="-5.029933">
        <ele>1481.0</ele>
        <time>2015-05-23T13:11:44Z</time>
      </trkpt>
      <trkpt lat="40.188967" lon="-5.030117">
        <ele>1479.0</ele>
        <time>2015-05-23T13:11:46Z</time>
      </trkpt>
      <trkpt lat="40.188833" lon="-5.030283">
        <ele>1477.0</ele>
        <time>2015-05-23T13:11:48Z</time>
      </trkpt>
      <trkpt lat="40.188717" lon="-5.030433">
        <ele>1475.0</ele>
        <time>2015-05-23T13:11:50Z</time>
      </trkpt>
      <trkpt lat="40.188600" lon="-5.030583">
        <ele>1473.0</ele>
        <time>2015-05-23T13:11:52Z</time>
      </trkpt>
      <trkpt lat="40.188483" lon="-5.030750">
        <ele>1471.0</ele>
        <time>2015-05-23T13:11:54Z</time>
      </trkpt>
      <trkpt lat="40.188350" lon="-5.030900">
        <ele>1471.0</ele>
        <time>2015-05-23T13:11:56Z</time>
      </trkpt>
      <trkpt lat="40.188250" lon="-5.031083">
        <ele>1471.0</ele>
        <time>2015-05-23T13:11:58Z</time>
      </trkpt>
      <trkpt lat="40.188183" lon="-5.031283">
        <ele>1472.0</ele>
        <time>2015-05-23T13:12:00Z</time>
      </trkpt>
      <trkpt lat="40.188117" lon="-5.031500">
        <ele>1470.0</ele>
        <time>2015-05-23T13:12:02Z</time>
      </trkpt>
      <trkpt lat="40.188050" lon="-5.031700">
        <ele>1469.0</ele>
        <time>2015-05-23T13:12:04Z</time>
      </trkpt>
      <trkpt lat="40.187967" lon="-5.031883">
        <ele>1469.0</ele>
        <time>2015-05-23T13:12:06Z</time>
      </trkpt>
      <trkpt lat="40.187900" lon="-5.032083">
        <ele>1469.0</ele>
        <time>2015-05-23T13:12:08Z</time>
      </trkpt>
      <trkpt lat="40.187833" lon="-5.032283">
        <ele>1469.0</ele>
        <time>2015-05-23T13:12:10Z</time>
      </trkpt>
      <trkpt lat="40.187817" lon="-5.032533">
        <ele>1468.0</ele>
        <time>2015-05-23T13:12:12Z</time>
      </trkpt>
      <trkpt lat="40.187800" lon="-5.032783">
        <ele>1469.0</ele>
        <time>2015-05-23T13:12:14Z</time>
      </trkpt>
      <trkpt lat="40.187733" lon="-5.032983">
        <ele>1472.0</ele>
        <time>2015-05-23T13:12:16Z</time>
      </trkpt>
      <trkpt lat="40.187650" lon="-5.033167">
        <ele>1474.0</ele>
        <time>2015-05-23T13:12:18Z</time>
      </trkpt>
      <trkpt lat="40.187567" lon="-5.033383">
        <ele>1475.0</ele>
        <time>2015-05-23T13:12:20Z</time>
      </trkpt>
      <trkpt lat="40.187517" lon="-5.033650">
        <ele>1474.0</ele>
        <time>2015-05-23T13:12:22Z</time>
      </trkpt>
      <trkpt lat="40.187500" lon="-5.033917">
        <ele>1474.0</ele>
        <time>2015-05-23T13:12:24Z</time>
      </trkpt>
      <trkpt lat="40.187467" lon="-5.034133">
        <ele>1476.0</ele>
        <time>2015-05-23T13:12:26Z</time>
      </trkpt>
      <trkpt lat="40.187500" lon="-5.034383">
        <ele>1474.0</ele>
        <time>2015-05-23T13:12:28Z</time>
      </trkpt>
      <trkpt lat="40.187567" lon="-5.034633">
        <ele>1472.0</ele>
        <time>2015-05-23T13:12:30Z</time>
      </trkpt>
      <trkpt lat="40.187600" lon="-5.034867">
        <ele>1474.0</ele>
        <time>2015-05-23T13:12:32Z</time>
      </trkpt>
      <trkpt lat="40.187550" lon="-5.035067">
        <ele>1477.0</ele>
        <time>2015-05-23T13:12:34Z</time>
      </trkpt>
      <trkpt lat="40.187483" lon="-5.035250">
        <ele>1479.0</ele>
        <time>2015-05-23T13:12:36Z</time>
      </trkpt>
      <trkpt lat="40.187367" lon="-5.035350">
        <ele>1481.0</ele>
        <time>2015-05-23T13:12:38Z</time>
      </trkpt>
      <trkpt lat="40.187233" lon="-5.035417">
        <ele>1482.0</ele>
        <time>2015-05-23T13:12:40Z</time>
      </trkpt>
      <trkpt lat="40.187133" lon="-5.035583">
        <ele>1484.0</ele>
        <time>2015-05-23T13:12:42Z</time>
      </trkpt>
      <trkpt lat="40.187067" lon="-5.035767">
        <ele>1489.0</ele>
        <time>2015-05-23T13:12:44Z</time>
      </trkpt>
      <trkpt lat="40.187050" lon="-5.035967">
        <ele>1493.0</ele>
        <time>2015-05-23T13:12:46Z</time>
      </trkpt>
      <trkpt lat="40.187100" lon="-5.036233">
        <ele>1494.0</ele>
        <time>2015-05-23T13:12:48Z</time>
      </trkpt>
      <trkpt lat="40.187233" lon="-5.036450">
        <ele>1497.0</ele>
        <time>2015-05-23T13:12:50Z</time>
      </trkpt>
      <trkpt lat="40.187367" lon="-5.036550">
        <ele>1502.0</ele>
        <time>2015-05-23T13:12:52Z</time>
      </trkpt>
      <trkpt lat="40.187533" lon="-5.036567">
        <ele>1503.0</ele>
        <time>2015-05-23T13:12:54Z</time>
      </trkpt>
      <trkpt lat="40.187700" lon="-5.036467">
        <ele>1500.0</ele>
        <time>2015-05-23T13:12:56Z</time>
      </trkpt>
      <trkpt lat="40.187817" lon="-5.036267">
        <ele>1499.0</ele>
        <time>2015-05-23T13:12:58Z</time>
      </trkpt>
      <trkpt lat="40.187850" lon="-5.036033">
        <ele>1498.0</ele>
        <time>2015-05-23T13:13:00Z</time>
      </trkpt>
      <trkpt lat="40.187800" lon="-5.035833">
        <ele>1498.0</ele>
        <time>2015-05-23T13:13:02Z</time>
      </trkpt>
      <trkpt lat="40.187667" lon="-5.035667">
        <ele>1496.0</ele>
        <time>2015-05-23T13:13:04Z</time>
      </trkpt>
      <trkpt lat="40.187500" lon="-5.035633">
        <ele>1495.0</ele>
        <time>2015-05-23T13:13:06Z</time>
      </trkpt>
      <trkpt lat="40.187367" lon="-5.035633">
        <ele>1501.0</ele>
        <time>2015-05-23T13:13:08Z</time>
      </trkpt>
      <trkpt lat="40.187217" lon="-5.035683">
        <ele>1505.0</ele>
        <time>2015-05-23T13:13:10Z</time>
      </trkpt>
      <trkpt lat="40.187083" lon="-5.035783">
        <ele>1509.0</ele>
        <time>2015-05-23T13:13:12Z</time>
      </trkpt>
      <trkpt lat="40.186983" lon="-5.035950">
        <ele>1511.0</ele>
        <time>2015-05-23T13:13:14Z</time>
      </trkpt>
      <trkpt lat="40.186950" lon="-5.036200">
        <ele>1513.0</ele>
        <time>2015-05-23T13:13:16Z</time>
      </trkpt>
      <trkpt lat="40.186983" lon="-5.036450">
        <ele>1515.0</ele>
        <time>2015-05-23T13:13:18Z</time>
      </trkpt>
      <trkpt lat="40.187083" lon="-5.036717">
        <ele>1517.0</ele>
        <time>2015-05-23T13:13:20Z</time>
      </trkpt>
      <trkpt lat="40.187250" lon="-5.036950">
        <ele>1519.0</ele>
        <time>2015-05-23T13:13:22Z</time>
      </trkpt>
      <trkpt lat="40.187417" lon="-5.037083">
        <ele>1523.0</ele>
        <time>2015-05-23T13:13:24Z</time>
      </trkpt>
      <trkpt lat="40.187583" lon="-5.037150">
        <ele>1528.0</ele>
        <time>2015-05-23T13:13:26Z</time>
      </trkpt>
      <trkpt lat="40.187750" lon="-5.037133">
        <ele>1530.0</ele>
        <time>2015-05-23T13:13:28Z</time>
      </trkpt>
      <trkpt lat="40.187917" lon="-5.037017">
        <ele>1530.0</ele>
        <time>2015-05-23T13:13:30Z</time>
      </trkpt>
      <trkpt lat="40.188050" lon="-5.036850">
        <ele>1533.0</ele>
        <time>2015-05-23T13:13:32Z</time>
      </trkpt>
      <trkpt lat="40.188100" lon="-5.036667">
        <ele>1535.0</ele>
        <time>2015-05-23T13:13:34Z</time>
      </trkpt>
      <trkpt lat="40.188117" lon="-5.036450">
        <ele>1535.0</ele>
        <time>2015-05-23T13:13:36Z</time>
      </trkpt>
      <trkpt lat="40.188033" lon="-5.036250">
        <ele>1536.0</ele>
        <time>2015-05-23T13:13:38Z</time>
      </trkpt>
      <trkpt lat="40.187933" lon="-5.036133">
        <ele>1539.0</ele>
        <time>2015-05-23T13:13:40Z</time>
      </trkpt>
      <trkpt lat="40.187800" lon="-5.036100">
        <ele>1541.0</ele>
        <time>2015-05-23T13:13:42Z</time>
      </trkpt>
      <trkpt lat="40.187650" lon="-5.036100">
        <ele>1542.0</ele>
        <time>2015-05-23T13:13:44Z</time>
      </trkpt>
      <trkpt lat="40.187500" lon="-5.036133">
        <ele>1546.0</ele>
        <time>2015-05-23T13:13:46Z</time>
      </trkpt>
      <trkpt lat="40.187400" lon="-5.036167">
        <ele>1549.0</ele>
        <time>2015-05-23T13:13:48Z</time>
      </trkpt>
      <trkpt lat="40.187267" lon="-5.036300">
        <ele>1547.0</ele>
        <time>2015-05-23T13:13:50Z</time>
      </trkpt>
      <trkpt lat="40.187150" lon="-5.036517">
        <ele>1548.0</ele>
        <time>2015-05-23T13:13:52Z</time>
      </trkpt>
      <trkpt lat="40.187083" lon="-5.036733">
        <ele>1555.0</ele>
        <time>2015-05-23T13:13:54Z</time>
      </trkpt>
      <trkpt lat="40.187050" lon="-5.036950">
        <ele>1558.0</ele>
        <time>2015-05-23T13:13:56Z</time>
      </trkpt>
      <trkpt lat="40.187050" lon="-5.037267">
        <ele>1560.0</ele>
        <time>2015-05-23T13:13:58Z</time>
      </trkpt>
      <trkpt lat="40.187117" lon="-5.037500">
        <ele>1567.0</ele>
        <time>2015-05-23T13:14:00Z</time>
      </trkpt>
      <trkpt lat="40.187217" lon="-5.037650">
        <ele>1573.0</ele>
        <time>2015-05-23T13:14:02Z</time>
      </trkpt>
      <trkpt lat="40.187383" lon="-5.037750">
        <ele>1573.0</ele>
        <time>2015-05-23T13:14:04Z</time>
      </trkpt>
      <trkpt lat="40.187583" lon="-5.037750">
        <ele>1572.0</ele>
        <time>2015-05-23T13:14:06Z</time>
      </trkpt>
      <trkpt lat="40.187733" lon="-5.037633">
        <ele>1574.0</ele>
        <time>2015-05-23T13:14:08Z</time>
      </trkpt>
      <trkpt lat="40.187817" lon="-5.037483">
        <ele>1575.0</ele>
        <time>2015-05-23T13:14:10Z</time>
      </trkpt>
      <trkpt lat="40.187800" lon="-5.037283">
        <ele>1573.0</ele>
        <time>2015-05-23T13:14:12Z</time>
      </trkpt>
      <trkpt lat="40.187700" lon="-5.037117">
        <ele>1572.0</ele>
        <time>2015-05-23T13:14:14Z</time>
      </trkpt>
      <trkpt lat="40.187583" lon="-5.037050">
        <ele>1574.0</ele>
        <time>2015-05-23T13:14:16Z</time>
      </trkpt>
      <trkpt lat="40.187450" lon="-5.037017">
        <ele>1575.0</ele>
        <time>2015-05-23T13:14:18Z</time>
      </trkpt>
      <trkpt lat="40.187267" lon="-5.037033">
        <ele>1575.0</ele>
        <time>2015-05-23T13:14:20Z</time>
      </trkpt>
      <trkpt lat="40.187133" lon="-5.037100">
        <ele>1581.0</ele>
        <time>2015-05-23T13:14:22Z</time>
      </trkpt>
      <trkpt lat="40.187017" lon="-5.037233">
        <ele>1585.0</ele>
        <time>2015-05-23T13:14:24Z</time>
      </trkpt>
      <trkpt lat="40.186900" lon="-5.037417">
        <ele>1584.0</ele>
        <time>2015-05-23T13:14:26Z</time>
      </trkpt>
      <trkpt lat="40.186833" lon="-5.037667">
        <ele>1584.0</ele>
        <time>2015-05-23T13:14:28Z</time>
      </trkpt>
      <trkpt lat="40.186833" lon="-5.037967">
        <ele>1585.0</ele>
        <time>2015-05-23T13:14:30Z</time>
      </trkpt>
      <trkpt lat="40.186917" lon="-5.038233">
        <ele>1586.0</ele>
        <time>2015-05-23T13:14:32Z</time>
      </trkpt>
      <trkpt lat="40.187067" lon="-5.038417">
        <ele>1585.0</ele>
        <time>2015-05-23T13:14:34Z</time>
      </trkpt>
      <trkpt lat="40.187217" lon="-5.038550">
        <ele>1587.0</ele>
        <time>2015-05-23T13:14:36Z</time>
      </trkpt>
      <trkpt lat="40.187383" lon="-5.038667">
        <ele>1586.0</ele>
        <time>2015-05-23T13:14:38Z</time>
      </trkpt>
      <trkpt lat="40.187583" lon="-5.038683">
        <ele>1585.0</ele>
        <time>2015-05-23T13:14:40Z</time>
      </trkpt>
      <trkpt lat="40.187767" lon="-5.038667">
        <ele>1584.0</ele>
        <time>2015-05-23T13:14:42Z</time>
      </trkpt>
      <trkpt lat="40.187950" lon="-5.038667">
        <ele>1584.0</ele>
        <time>2015-05-23T13:14:44Z</time>
      </trkpt>
      <trkpt lat="40.188133" lon="-5.038600">
        <ele>1583.0</ele>
        <time>2015-05-23T13:14:46Z</time>
      </trkpt>
      <trkpt lat="40.188267" lon="-5.038517">
        <ele>1584.0</ele>
        <time>2015-05-23T13:14:48Z</time>
      </trkpt>
      <trkpt lat="40.188350" lon="-5.038400">
        <ele>1585.0</ele>
        <time>2015-05-23T13:14:50Z</time>
      </trkpt>
      <trkpt lat="40.188383" lon="-5.038233">
        <ele>1583.0</ele>
        <time>2015-05-23T13:14:52Z</time>
      </trkpt>
      <trkpt lat="40.188367" lon="-5.038067">
        <ele>1581.0</ele>
        <time>2015-05-23T13:14:54Z</time>
      </trkpt>
      <trkpt lat="40.188300" lon="-5.037917">
        <ele>1583.0</ele>
        <time>2015-05-23T13:14:56Z</time>
      </trkpt>
      <trkpt lat="40.188217" lon="-5.037817">
        <ele>1587.0</ele>
        <time>2015-05-23T13:14:58Z</time>
      </trkpt>
      <trkpt lat="40.188117" lon="-5.037750">
        <ele>1591.0</ele>
        <time>2015-05-23T13:15:00Z</time>
      </trkpt>
      <trkpt lat="40.187967" lon="-5.037717">
        <ele>1592.0</ele>
        <time>2015-05-23T13:15:02Z</time>
      </trkpt>
      <trkpt lat="40.187817" lon="-5.037783">
        <ele>1593.0</ele>
        <time>2015-05-23T13:15:04Z</time>
      </trkpt>
      <trkpt lat="40.187700" lon="-5.037967">
        <ele>1595.0</ele>
        <time>2015-05-23T13:15:06Z</time>
      </trkpt>
      <trkpt lat="40.187617" lon="-5.038200">
        <ele>1598.0</ele>
        <time>2015-05-23T13:15:08Z</time>
      </trkpt>
      <trkpt lat="40.187617" lon="-5.038433">
        <ele>1602.0</ele>
        <time>2015-05-23T13:15:10Z</time>
      </trkpt>
      <trkpt lat="40.187700" lon="-5.038600">
        <ele>1604.0</ele>
        <time>2015-05-23T13:15:12Z</time>
      </trkpt>
      <trkpt lat="40.187817" lon="-5.038783">
        <ele>1602.0</ele>
        <time>2015-05-23T13:15:14Z</time>
      </trkpt>
      <trkpt lat="40.187967" lon="-5.038900">
        <ele>1602.0</ele>
        <time>2015-05-23T13:15:16Z</time>
      </trkpt>
      <trkpt lat="40.188167" lon="-5.038917">
        <ele>1600.0</ele>
        <time>2015-05-23T13:15:18Z</time>
      </trkpt>
      <trkpt lat="40.188333" lon="-5.038850">
        <ele>1599.0</ele>
        <time>2015-05-23T13:15:20Z</time>
      </trkpt>
      <trkpt lat="40.188467" lon="-5.038733">
        <ele>1598.0</ele>
        <time>2015-05-23T13:15:22Z</time>
      </trkpt>
      <trkpt lat="40.188550" lon="-5.038533">
        <ele>1596.0</ele>
        <time>2015-05-23T13:15:24Z</time>
      </trkpt>
      <trkpt lat="40.188583" lon="-5.038350">
        <ele>1598.0</ele>
        <time>2015-05-23T13:15:26Z</time>
      </trkpt>
      <trkpt lat="40.188550" lon="-5.038217">
        <ele>1602.0</ele>
        <time>2015-05-23T13:15:28Z</time>
      </trkpt>
      <trkpt lat="40.188433" lon="-5.038167">
        <ele>1604.0</ele>
        <time>2015-05-23T13:15:30Z</time>
      </trkpt>
      <trkpt lat="40.188283" lon="-5.038233">
        <ele>1604.0</ele>
        <time>2015-05-23T13:15:32Z</time>
      </trkpt>
      <trkpt lat="40.188150" lon="-5.038383">
        <ele>1603.0</ele>
        <time>2015-05-23T13:15:34Z</time>
      </trkpt>
      <trkpt lat="40.188067" lon="-5.038550">
        <ele>1605.0</ele>
        <time>2015-05-23T13:15:36Z</time>
      </trkpt>
      <trkpt lat="40.187967" lon="-5.038750">
        <ele>1606.0</ele>
        <time>2015-05-23T13:15:38Z</time>
      </trkpt>
      <trkpt lat="40.187850" lon="-5.038967">
        <ele>1607.0</ele>
        <time>2015-05-23T13:15:40Z</time>
      </trkpt>
      <trkpt lat="40.187783" lon="-5.039183">
        <ele>1609.0</ele>
        <time>2015-05-23T13:15:42Z</time>
      </trkpt>
      <trkpt lat="40.187750" lon="-5.039433">
        <ele>1611.0</ele>
        <time>2015-05-23T13:15:44Z</time>
      </trkpt>
      <trkpt lat="40.187783" lon="-5.039667">
        <ele>1612.0</ele>
        <time>2015-05-23T13:15:46Z</time>
      </trkpt>
      <trkpt lat="40.187883" lon="-5.039900">
        <ele>1613.0</ele>
        <time>2015-05-23T13:15:48Z</time>
      </trkpt>
      <trkpt lat="40.188033" lon="-5.040117">
        <ele>1611.0</ele>
        <time>2015-05-23T13:15:50Z</time>
      </trkpt>
      <trkpt lat="40.188217" lon="-5.040283">
        <ele>1612.0</ele>
        <time>2015-05-23T13:15:52Z</time>
      </trkpt>
      <trkpt lat="40.188383" lon="-5.040383">
        <ele>1613.0</ele>
        <time>2015-05-23T13:15:54Z</time>
      </trkpt>
      <trkpt lat="40.188600" lon="-5.040367">
        <ele>1612.0</ele>
        <time>2015-05-23T13:15:56Z</time>
      </trkpt>
      <trkpt lat="40.188800" lon="-5.040267">
        <ele>1613.0</ele>
        <time>2015-05-23T13:15:58Z</time>
      </trkpt>
      <trkpt lat="40.188933" lon="-5.040133">
        <ele>1617.0</ele>
        <time>2015-05-23T13:16:00Z</time>
      </trkpt>
      <trkpt lat="40.189017" lon="-5.039983">
        <ele>1618.0</ele>
        <time>2015-05-23T13:16:02Z</time>
      </trkpt>
      <trkpt lat="40.189033" lon="-5.039767">
        <ele>1614.0</ele>
        <time>2015-05-23T13:16:04Z</time>
      </trkpt>
      <trkpt lat="40.188933" lon="-5.039583">
        <ele>1610.0</ele>
        <time>2015-05-23T13:16:06Z</time>
      </trkpt>
      <trkpt lat="40.188800" lon="-5.039500">
        <ele>1608.0</ele>
        <time>2015-05-23T13:16:08Z</time>
      </trkpt>
      <trkpt lat="40.188667" lon="-5.039500">
        <ele>1607.0</ele>
        <time>2015-05-23T13:16:10Z</time>
      </trkpt>
      <trkpt lat="40.188517" lon="-5.039567">
        <ele>1606.0</ele>
        <time>2015-05-23T13:16:12Z</time>
      </trkpt>
      <trkpt lat="40.188383" lon="-5.039700">
        <ele>1604.0</ele>
        <time>2015-05-23T13:16:14Z</time>
      </trkpt>
      <trkpt lat="40.188267" lon="-5.039883">
        <ele>1604.0</ele>
        <time>2015-05-23T13:16:16Z</time>
      </trkpt>
      <trkpt lat="40.188183" lon="-5.040083">
        <ele>1606.0</ele>
        <time>2015-05-23T13:16:18Z</time>
      </trkpt>
      <trkpt lat="40.188133" lon="-5.040317">
        <ele>1607.0</ele>
        <time>2015-05-23T13:16:20Z</time>
      </trkpt>
      <trkpt lat="40.188133" lon="-5.040617">
        <ele>1608.0</ele>
        <time>2015-05-23T13:16:22Z</time>
      </trkpt>
      <trkpt lat="40.188183" lon="-5.040867">
        <ele>1610.0</ele>
        <time>2015-05-23T13:16:24Z</time>
      </trkpt>
      <trkpt lat="40.188250" lon="-5.041150">
        <ele>1610.0</ele>
        <time>2015-05-23T13:16:26Z</time>
      </trkpt>
      <trkpt lat="40.188367" lon="-5.041417">
        <ele>1610.0</ele>
        <time>2015-05-23T13:16:28Z</time>
      </trkpt>
      <trkpt lat="40.188500" lon="-5.041633">
        <ele>1614.0</ele>
        <time>2015-05-23T13:16:30Z</time>
      </trkpt>
      <trkpt lat="40.188633" lon="-5.041767">
        <ele>1617.0</ele>
        <time>2015-05-23T13:16:32Z</time>
      </trkpt>
      <trkpt lat="40.188817" lon="-5.041867">
        <ele>1614.0</ele>
        <time>2015-05-23T13:16:34Z</time>
      </trkpt>
      <trkpt lat="40.189017" lon="-5.041900">
        <ele>1613.0</ele>
        <time>2015-05-23T13:16:36Z</time>
      </trkpt>
      <trkpt lat="40.189167" lon="-5.041833">
        <ele>1616.0</ele>
        <time>2015-05-23T13:16:38Z</time>
      </trkpt>
      <trkpt lat="40.189267" lon="-5.041717">
        <ele>1618.0</ele>
        <time>2015-05-23T13:16:40Z</time>
      </trkpt>
      <trkpt lat="40.189300" lon="-5.041567">
        <ele>1620.0</ele>
        <time>2015-05-23T13:16:42Z</time>
      </trkpt>
      <trkpt lat="40.189267" lon="-5.041433">
        <ele>1622.0</ele>
        <time>2015-05-23T13:16:44Z</time>
      </trkpt>
      <trkpt lat="40.189133" lon="-5.041333">
        <ele>1624.0</ele>
        <time>2015-05-23T13:16:46Z</time>
      </trkpt>
      <trkpt lat="40.188983" lon="-5.041317">
        <ele>1628.0</ele>
        <time>2015-05-23T13:16:48Z</time>
      </trkpt>
      <trkpt lat="40.188850" lon="-5.041350">
        <ele>1632.0</ele>
        <time>2015-05-23T13:16:50Z</time>
      </trkpt>
      <trkpt lat="40.188700" lon="-5.041467">
        <ele>1632.0</ele>
        <time>2015-05-23T13:16:52Z</time>
      </trkpt>
      <trkpt lat="40.188533" lon="-5.041667">
        <ele>1631.0</ele>
        <time>2015-05-23T13:16:54Z</time>
      </trkpt>
      <trkpt lat="40.188433" lon="-5.041850">
        <ele>1634.0</ele>
        <time>2015-05-23T13:16:56Z</time>
      </trkpt>
      <trkpt lat="40.188367" lon="-5.042100">
        <ele>1634.0</ele>
        <time>2015-05-23T13:16:58Z</time>
      </trkpt>
      <trkpt lat="40.188317" lon="-5.042433">
        <ele>1633.0</ele>
        <time>2015-05-23T13:17:00Z</time>
      </trkpt>
      <trkpt lat="40.188300" lon="-5.042700">
        <ele>1638.0</ele>
        <time>2015-05-23T13:17:02Z</time>
      </trkpt>
      <trkpt lat="40.188300" lon="-5.042917">
        <ele>1644.0</ele>
        <time>2015-05-23T13:17:04Z</time>
      </trkpt>
      <trkpt lat="40.188367" lon="-5.043200">
        <ele>1645.0</ele>
        <time>2015-05-23T13:17:06Z</time>
      </trkpt>
      <trkpt lat="40.188517" lon="-5.043433">
        <ele>1648.0</ele>
        <time>2015-05-23T13:17:08Z</time>
      </trkpt>
      <trkpt lat="40.188700" lon="-5.043533">
        <ele>1652.0</ele>
        <time>2015-05-23T13:17:10Z</time>
      </trkpt>
      <trkpt lat="40.188883" lon="-5.043533">
        <ele>1653.0</ele>
        <time>2015-05-23T13:17:12Z</time>
      </trkpt>
      <trkpt lat="40.189017" lon="-5.043450">
        <ele>1652.0</ele>
        <time>2015-05-23T13:17:14Z</time>
      </trkpt>
      <trkpt lat="40.189100" lon="-5.043333">
        <ele>1652.0</ele>
        <time>2015-05-23T13:17:16Z</time>
      </trkpt>
      <trkpt lat="40.189133" lon="-5.043167">
        <ele>1652.0</ele>
        <time>2015-05-23T13:17:18Z</time>
      </trkpt>
      <trkpt lat="40.189050" lon="-5.043033">
        <ele>1651.0</ele>
        <time>2015-05-23T13:17:20Z</time>
      </trkpt>
      <trkpt lat="40.188933" lon="-5.042983">
        <ele>1652.0</ele>
        <time>2015-05-23T13:17:22Z</time>
      </trkpt>
      <trkpt lat="40.188817" lon="-5.042967">
        <ele>1653.0</ele>
        <time>2015-05-23T13:17:24Z</time>
      </trkpt>
      <trkpt lat="40.188650" lon="-5.043033">
        <ele>1652.0</ele>
        <time>2015-05-23T13:17:26Z</time>
      </trkpt>
      <trkpt lat="40.188500" lon="-5.043200">
        <ele>1652.0</ele>
        <time>2015-05-23T13:17:28Z</time>
      </trkpt>
      <trkpt lat="40.188400" lon="-5.043367">
        <ele>1654.0</ele>
        <time>2015-05-23T13:17:30Z</time>
      </trkpt>
      <trkpt lat="40.188317" lon="-5.043600">
        <ele>1656.0</ele>
        <time>2015-05-23T13:17:32Z</time>
      </trkpt>
      <trkpt lat="40.188300" lon="-5.043933">
        <ele>1655.0</ele>
        <time>2015-05-23T13:17:34Z</time>
      </trkpt>
      <trkpt lat="40.188350" lon="-5.044250">
        <ele>1659.0</ele>
        <time>2015-05-23T13:17:36Z</time>
      </trkpt>
      <trkpt lat="40.188433" lon="-5.044517">
        <ele>1664.0</ele>
        <time>2015-05-23T13:17:38Z</time>
      </trkpt>
      <trkpt lat="40.188600" lon="-5.044700">
        <ele>1665.0</ele>
        <time>2015-05-23T13:17:40Z</time>
      </trkpt>
      <trkpt lat="40.188817" lon="-5.044800">
        <ele>1668.0</ele>
        <time>2015-05-23T13:17:42Z</time>
      </trkpt>
      <trkpt lat="40.188967" lon="-5.044833">
        <ele>1674.0</ele>
        <time>2015-05-23T13:17:44Z</time>
      </trkpt>
      <trkpt lat="40.189100" lon="-5.044800">
        <ele>1675.0</ele>
        <time>2015-05-23T13:17:46Z</time>
      </trkpt>
      <trkpt lat="40.189233" lon="-5.044667">
        <ele>1674.0</ele>
        <time>2015-05-23T13:17:48Z</time>
      </trkpt>
      <trkpt lat="40.189267" lon="-5.044517">
        <ele>1676.0</ele>
        <time>2015-05-23T13:17:50Z</time>
      </trkpt>
      <trkpt lat="40.189217" lon="-5.044383">
        <ele>1678.0</ele>
        <time>2015-05-23T13:17:52Z</time>
      </trkpt>
      <trkpt lat="40.189117" lon="-5.044300">
        <ele>1678.0</ele>
        <time>2015-05-23T13:17:54Z</time>
      </trkpt>
      <trkpt lat="40.188967" lon="-5.044267">
        <ele>1677.0</ele>
        <time>2015-05-23T13:17:56Z</time>
      </trkpt>
      <trkpt lat="40.188800" lon="-5.044350">
        <ele>1678.0</ele>
        <time>2015-05-23T13:17:58Z</time>
      </trkpt>
      <trkpt lat="40.188700" lon="-5.044500">
        <ele>1681.0</ele>
        <time>2015-05-23T13:18:00Z</time>
      </trkpt>
      <trkpt lat="40.188583" lon="-5.044683">
        <ele>1681.0</ele>
        <time>2015-05-23T13:18:02Z</time>
      </trkpt>
      <trkpt lat="40.188467" lon="-5.044967">
        <ele>1679.0</ele>
        <time>2015-05-23T13:18:04Z</time>
      </trkpt>
      <trkpt lat="40.188400" lon="-5.045250">
        <ele>1682.0</ele>
        <time>2015-05-23T13:18:06Z</time>
      </trkpt>
      <trkpt lat="40.188350" lon="-5.045533">
        <ele>1683.0</ele>
        <time>2015-05-23T13:18:08Z</time>
      </trkpt>
      <trkpt lat="40.188367" lon="-5.045867">
        <ele>1680.0</ele>
        <time>2015-05-23T13:18:10Z</time>
      </trkpt>
      <trkpt lat="40.188433" lon="-5.046200">
        <ele>1680.0</ele>
        <time>2015-05-23T13:18:12Z</time>
      </trkpt>
      <trkpt lat="40.188533" lon="-5.046450">
        <ele>1681.0</ele>
        <time>2015-05-23T13:18:14Z</time>
      </trkpt>
      <trkpt lat="40.188683" lon="-5.046683">
        <ele>1680.0</ele>
        <time>2015-05-23T13:18:16Z</time>
      </trkpt>
      <trkpt lat="40.188883" lon="-5.046850">
        <ele>1679.0</ele>
        <time>2015-05-23T13:18:18Z</time>
      </trkpt>
      <trkpt lat="40.189050" lon="-5.046883">
        <ele>1680.0</ele>
        <time>2015-05-23T13:18:20Z</time>
      </trkpt>
      <trkpt lat="40.189167" lon="-5.046800">
        <ele>1678.0</ele>
        <time>2015-05-23T13:18:22Z</time>
      </trkpt>
      <trkpt lat="40.189200" lon="-5.046650">
        <ele>1677.0</ele>
        <time>2015-05-23T13:18:24Z</time>
      </trkpt>
      <trkpt lat="40.189133" lon="-5.046500">
        <ele>1675.0</ele>
        <time>2015-05-23T13:18:26Z</time>
      </trkpt>
      <trkpt lat="40.189017" lon="-5.046450">
        <ele>1675.0</ele>
        <time>2015-05-23T13:18:28Z</time>
      </trkpt>
      <trkpt lat="40.188850" lon="-5.046517">
        <ele>1675.0</ele>
        <time>2015-05-23T13:18:30Z</time>
      </trkpt>
      <trkpt lat="40.188667" lon="-5.046700">
        <ele>1674.0</ele>
        <time>2015-05-23T13:18:32Z</time>
      </trkpt>
      <trkpt lat="40.188583" lon="-5.046933">
        <ele>1678.0</ele>
        <time>2015-05-23T13:18:34Z</time>
      </trkpt>
      <trkpt lat="40.188533" lon="-5.047183">
        <ele>1679.0</ele>
        <time>2015-05-23T13:18:36Z</time>
      </trkpt>
      <trkpt lat="40.188500" lon="-5.047517">
        <ele>1675.0</ele>
        <time>2015-05-23T13:18:38Z</time>
      </trkpt>
      <trkpt lat="40.188517" lon="-5.047883">
        <ele>1670.0</ele>
        <time>2015-05-23T13:18:40Z</time>
      </trkpt>
      <trkpt lat="40.188567" lon="-5.048217">
        <ele>1669.0</ele>
        <time>2015-05-23T13:18:42Z</time>
      </trkpt>
      <trkpt lat="40.188633" lon="-5.048533">
        <ele>1668.0</ele>
        <time>2015-05-23T13:18:44Z</time>
      </trkpt>
      <trkpt lat="40.188767" lon="-5.048833">
        <ele>1665.0</ele>
        <time>2015-05-23T13:18:46Z</time>
      </trkpt>
      <trkpt lat="40.188950" lon="-5.049117">
        <ele>1663.0</ele>
        <time>2015-05-23T13:18:48Z</time>
      </trkpt>
      <trkpt lat="40.189133" lon="-5.049300">
        <ele>1665.0</ele>
        <time>2015-05-23T13:18:50Z</time>
      </trkpt>
      <trkpt lat="40.189317" lon="-5.049433">
        <ele>1663.0</ele>
        <time>2015-05-23T13:18:52Z</time>
      </trkpt>
      <trkpt lat="40.189517" lon="-5.049467">
        <ele>1661.0</ele>
        <time>2015-05-23T13:18:54Z</time>
      </trkpt>
      <trkpt lat="40.189667" lon="-5.049433">
        <ele>1661.0</ele>
        <time>2015-05-23T13:18:56Z</time>
      </trkpt>
      <trkpt lat="40.189783" lon="-5.049367">
        <ele>1661.0</ele>
        <time>2015-05-23T13:18:58Z</time>
      </trkpt>
      <trkpt lat="40.189833" lon="-5.049233">
        <ele>1659.0</ele>
        <time>2015-05-23T13:19:00Z</time>
      </trkpt>
      <trkpt lat="40.189817" lon="-5.049117">
        <ele>1659.0</ele>
        <time>2015-05-23T13:19:02Z</time>
      </trkpt>
      <trkpt lat="40.189767" lon="-5.049033">
        <ele>1659.0</ele>
        <time>2015-05-23T13:19:04Z</time>
      </trkpt>
      <trkpt lat="40.189650" lon="-5.048950">
        <ele>1656.0</ele>
        <time>2015-05-23T13:19:06Z</time>
      </trkpt>
      <trkpt lat="40.189467" lon="-5.048900">
        <ele>1653.0</ele>
        <time>2015-05-23T13:19:08Z</time>
      </trkpt>
      <trkpt lat="40.189300" lon="-5.048967">
        <ele>1655.0</ele>
        <time>2015-05-23T13:19:10Z</time>
      </trkpt>
      <trkpt lat="40.189167" lon="-5.049167">
        <ele>1656.0</ele>
        <time>2015-05-23T13:19:12Z</time>
      </trkpt>
      <trkpt lat="40.189067" lon="-5.049400">
        <ele>1657.0</ele>
        <time>2015-05-23T13:19:14Z</time>
      </trkpt>
      <trkpt lat="40.188983" lon="-5.049667">
        <ele>1656.0</ele>
        <time>2015-05-23T13:19:16Z</time>
      </trkpt>
      <trkpt lat="40.188917" lon="-5.049967">
        <ele>1652.0</ele>
        <time>2015-05-23T13:19:18Z</time>
      </trkpt>
      <trkpt lat="40.188833" lon="-5.050267">
        <ele>1651.0</ele>
        <time>2015-05-23T13:19:20Z</time>
      </trkpt>
      <trkpt lat="40.188783" lon="-5.050533">
        <ele>1651.0</ele>
        <time>2015-05-23T13:19:22Z</time>
      </trkpt>
      <trkpt lat="40.188700" lon="-5.050800">
        <ele>1649.0</ele>
        <time>2015-05-23T13:19:24Z</time>
      </trkpt>
      <trkpt lat="40.188617" lon="-5.051083">
        <ele>1646.0</ele>
        <time>2015-05-23T13:19:26Z</time>
      </trkpt>
      <trkpt lat="40.188567" lon="-5.051367">
        <ele>1646.0</ele>
        <time>2015-05-23T13:19:28Z</time>
      </trkpt>
      <trkpt lat="40.188517" lon="-5.051600">
        <ele>1644.0</ele>
        <time>2015-05-23T13:19:30Z</time>
      </trkpt>
      <trkpt lat="40.188450" lon="-5.051867">
        <ele>1640.0</ele>
        <time>2015-05-23T13:19:32Z</time>
      </trkpt>
      <trkpt lat="40.188367" lon="-5.052200">
        <ele>1635.0</ele>
        <time>2015-05-23T13:19:34Z</time>
      </trkpt>
      <trkpt lat="40.188283" lon="-5.052500">
        <ele>1634.0</ele>
        <time>2015-05-23T13:19:36Z</time>
      </trkpt>
      <trkpt lat="40.188217" lon="-5.052800">
        <ele>1634.0</ele>
        <time>2015-05-23T13:19:38Z</time>
      </trkpt>
      <trkpt lat="40.188200" lon="-5.053133">
        <ele>1632.0</ele>
        <time>2015-05-23T13:19:40Z</time>
      </trkpt>
      <trkpt lat="40.188167" lon="-5.053483">
        <ele>1627.0</ele>
        <time>2015-05-23T13:19:42Z</time>
      </trkpt>
      <trkpt lat="40.188100" lon="-5.053850">
        <ele>1624.0</ele>
        <time>2015-05-23T13:19:44Z</time>
      </trkpt>
      <trkpt lat="40.188033" lon="-5.054150">
        <ele>1625.0</ele>
        <time>2015-05-23T13:19:46Z</time>
      </trkpt>
      <trkpt lat="40.187950" lon="-5.054367">
        <ele>1626.0</ele>
        <time>2015-05-23T13:19:48Z</time>
      </trkpt>
      <trkpt lat="40.187850" lon="-5.054600">
        <ele>1624.0</ele>
        <time>2015-05-23T13:19:50Z</time>
      </trkpt>
      <trkpt lat="40.187750" lon="-5.054850">
        <ele>1623.0</ele>
        <time>2015-05-23T13:19:52Z</time>
      </trkpt>
      <trkpt lat="40.187667" lon="-5.055067">
        <ele>1626.0</ele>
        <time>2015-05-23T13:19:54Z</time>
      </trkpt>
      <trkpt lat="40.187633" lon="-5.055267">
        <ele>1625.0</ele>
        <time>2015-05-23T13:19:56Z</time>
      </trkpt>
      <trkpt lat="40.187600" lon="-5.055550">
        <ele>1620.0</ele>
        <time>2015-05-23T13:19:58Z</time>
      </trkpt>
      <trkpt lat="40.187517" lon="-5.055867">
        <ele>1612.0</ele>
        <time>2015-05-23T13:20:00Z</time>
      </trkpt>
      <trkpt lat="40.187467" lon="-5.056150">
        <ele>1608.0</ele>
        <time>2015-05-23T13:20:02Z</time>
      </trkpt>
      <trkpt lat="40.187400" lon="-5.056417">
        <ele>1602.0</ele>
        <time>2015-05-23T13:20:04Z</time>
      </trkpt>
      <trkpt lat="40.187333" lon="-5.056733">
        <ele>1595.0</ele>
        <time>2015-05-23T13:20:06Z</time>
      </trkpt>
      <trkpt lat="40.187250" lon="-5.057033">
        <ele>1591.0</ele>
        <time>2015-05-23T13:20:08Z</time>
      </trkpt>
      <trkpt lat="40.187183" lon="-5.057250">
        <ele>1590.0</ele>
        <time>2015-05-23T13:20:10Z</time>
      </trkpt>
      <trkpt lat="40.187117" lon="-5.057483">
        <ele>1584.0</ele>
        <time>2015-05-23T13:20:12Z</time>
      </trkpt>
      <trkpt lat="40.187050" lon="-5.057783">
        <ele>1579.0</ele>
        <time>2015-05-23T13:20:14Z</time>
      </trkpt>
      <trkpt lat="40.187100" lon="-5.058033">
        <ele>1578.0</ele>
        <time>2015-05-23T13:20:16Z</time>
      </trkpt>
      <trkpt lat="40.187167" lon="-5.058283">
        <ele>1575.0</ele>
        <time>2015-05-23T13:20:18Z</time>
      </trkpt>
      <trkpt lat="40.187150" lon="-5.058583">
        <ele>1569.0</ele>
        <time>2015-05-23T13:20:20Z</time>
      </trkpt>
      <trkpt lat="40.187150" lon="-5.058867">
        <ele>1565.0</ele>
        <time>2015-05-23T13:20:22Z</time>
      </trkpt>
      <trkpt lat="40.187133" lon="-5.059133">
        <ele>1563.0</ele>
        <time>2015-05-23T13:20:24Z</time>
      </trkpt>
      <trkpt lat="40.187100" lon="-5.059383">
        <ele>1559.0</ele>
        <time>2015-05-23T13:20:26Z</time>
      </trkpt>
      <trkpt lat="40.187050" lon="-5.059650">
        <ele>1554.0</ele>
        <time>2015-05-23T13:20:28Z</time>
      </trkpt>
      <trkpt lat="40.186983" lon="-5.059900">
        <ele>1549.0</ele>
        <time>2015-05-23T13:20:30Z</time>
      </trkpt>
      <trkpt lat="40.186933" lon="-5.060133">
        <ele>1546.0</ele>
        <time>2015-05-23T13:20:32Z</time>
      </trkpt>
      <trkpt lat="40.186883" lon="-5.060367">
        <ele>1540.0</ele>
        <time>2015-05-23T13:20:34Z</time>
      </trkpt>
      <trkpt lat="40.186883" lon="-5.060650">
        <ele>1535.0</ele>
        <time>2015-05-23T13:20:36Z</time>
      </trkpt>
      <trkpt lat="40.186933" lon="-5.060900">
        <ele>1531.0</ele>
        <time>2015-05-23T13:20:38Z</time>
      </trkpt>
      <trkpt lat="40.186967" lon="-5.061133">
        <ele>1527.0</ele>
        <time>2015-05-23T13:20:40Z</time>
      </trkpt>
      <trkpt lat="40.187017" lon="-5.061383">
        <ele>1523.0</ele>
        <time>2015-05-23T13:20:42Z</time>
      </trkpt>
      <trkpt lat="40.187133" lon="-5.061583">
        <ele>1520.0</ele>
        <time>2015-05-23T13:20:44Z</time>
      </trkpt>
      <trkpt lat="40.187250" lon="-5.061733">
        <ele>1519.0</ele>
        <time>2015-05-23T13:20:46Z</time>
      </trkpt>
      <trkpt lat="40.187367" lon="-5.061867">
        <ele>1517.0</ele>
        <time>2015-05-23T13:20:48Z</time>
      </trkpt>
      <trkpt lat="40.187533" lon="-5.061967">
        <ele>1512.0</ele>
        <time>2015-05-23T13:20:50Z</time>
      </trkpt>
      <trkpt lat="40.187700" lon="-5.062017">
        <ele>1509.0</ele>
        <time>2015-05-23T13:20:52Z</time>
      </trkpt>
      <trkpt lat="40.187817" lon="-5.062017">
        <ele>1507.0</ele>
        <time>2015-05-23T13:20:54Z</time>
      </trkpt>
      <trkpt lat="40.187950" lon="-5.061983">
        <ele>1503.0</ele>
        <time>2015-05-23T13:20:56Z</time>
      </trkpt>
      <trkpt lat="40.188067" lon="-5.061917">
        <ele>1495.0</ele>
        <time>2015-05-23T13:20:58Z</time>
      </trkpt>
      <trkpt lat="40.188200" lon="-5.061817">
        <ele>1490.0</ele>
        <time>2015-05-23T13:21:00Z</time>
      </trkpt>
      <trkpt lat="40.188317" lon="-5.061700">
        <ele>1487.0</ele>
        <time>2015-05-23T13:21:02Z</time>
      </trkpt>
      <trkpt lat="40.188400" lon="-5.061567">
        <ele>1482.0</ele>
        <time>2015-05-23T13:21:04Z</time>
      </trkpt>
      <trkpt lat="40.188467" lon="-5.061367">
        <ele>1477.0</ele>
        <time>2015-05-23T13:21:06Z</time>
      </trkpt>
      <trkpt lat="40.188483" lon="-5.061183">
        <ele>1475.0</ele>
        <time>2015-05-23T13:21:08Z</time>
      </trkpt>
      <trkpt lat="40.188483" lon="-5.060983">
        <ele>1471.0</ele>
        <time>2015-05-23T13:21:10Z</time>
      </trkpt>
      <trkpt lat="40.188517" lon="-5.060750">
        <ele>1466.0</ele>
        <time>2015-05-23T13:21:12Z</time>
      </trkpt>
      <trkpt lat="40.188517" lon="-5.060583">
        <ele>1465.0</ele>
        <time>2015-05-23T13:21:14Z</time>
      </trkpt>
      <trkpt lat="40.188517" lon="-5.060400">
        <ele>1462.0</ele>
        <time>2015-05-23T13:21:16Z</time>
      </trkpt>
      <trkpt lat="40.188500" lon="-5.060167">
        <ele>1457.0</ele>
        <time>2015-05-23T13:21:18Z</time>
      </trkpt>
      <trkpt lat="40.188417" lon="-5.059983">
        <ele>1454.0</ele>
        <time>2015-05-23T13:21:20Z</time>
      </trkpt>
      <trkpt lat="40.188283" lon="-5.059867">
        <ele>1452.0</ele>
        <time>2015-05-23T13:21:22Z</time>
      </trkpt>
      <trkpt lat="40.188133" lon="-5.059783">
        <ele>1449.0</ele>
        <time>2015-05-23T13:21:24Z</time>
      </trkpt>
      <trkpt lat="40.187967" lon="-5.059833">
        <ele>1446.0</ele>
        <time>2015-05-23T13:21:26Z</time>
      </trkpt>
      <trkpt lat="40.187817" lon="-5.059933">
        <ele>1443.0</ele>
        <time>2015-05-23T13:21:28Z</time>
      </trkpt>
      <trkpt lat="40.187683" lon="-5.060067">
        <ele>1439.0</ele>
        <time>2015-05-23T13:21:30Z</time>
      </trkpt>
      <trkpt lat="40.187517" lon="-5.060200">
        <ele>1435.0</ele>
        <time>2015-05-23T13:21:32Z</time>
      </trkpt>
      <trkpt lat="40.187350" lon="-5.060333">
        <ele>1433.0</ele>
        <time>2015-05-23T13:21:34Z</time>
      </trkpt>
      <trkpt lat="40.187217" lon="-5.060450">
        <ele>1430.0</ele>
        <time>2015-05-23T13:21:36Z</time>
      </trkpt>
      <trkpt lat="40.187083" lon="-5.060583">
        <ele>1427.0</ele>
        <time>2015-05-23T13:21:38Z</time>
      </trkpt>
      <trkpt lat="40.186933" lon="-5.060750">
        <ele>1421.0</ele>
        <time>2015-05-23T13:21:40Z</time>
      </trkpt>
      <trkpt lat="40.186800" lon="-5.060900">
        <ele>1417.0</ele>
        <time>2015-05-23T13:21:42Z</time>
      </trkpt>
      <trkpt lat="40.186633" lon="-5.061050">
        <ele>1411.0</ele>
        <time>2015-05-23T13:21:44Z</time>
      </trkpt>
      <trkpt lat="40.186467" lon="-5.061217">
        <ele>1408.0</ele>
        <time>2015-05-23T13:21:46Z</time>
      </trkpt>
      <trkpt lat="40.186317" lon="-5.061367">
        <ele>1407.0</ele>
        <time>2015-05-23T13:21:48Z</time>
      </trkpt>
      <trkpt lat="40.186167" lon="-5.061517">
        <ele>1405.0</ele>
        <time>2015-05-23T13:21:50Z</time>
      </trkpt>
      <trkpt lat="40.186033" lon="-5.061700">
        <ele>1402.0</ele>
        <time>2015-05-23T13:21:52Z</time>
      </trkpt>
      <trkpt lat="40.185883" lon="-5.061867">
        <ele>1399.0</ele>
        <time>2015-05-23T13:21:54Z</time>
      </trkpt>
      <trkpt lat="40.185750" lon="-5.062033">
        <ele>1396.0</ele>
        <time>2015-05-23T13:21:56Z</time>
      </trkpt>
      <trkpt lat="40.185600" lon="-5.062217">
        <ele>1393.0</ele>
        <time>2015-05-23T13:21:58Z</time>
      </trkpt>
      <trkpt lat="40.185450" lon="-5.062383">
        <ele>1389.0</ele>
        <time>2015-05-23T13:22:00Z</time>
      </trkpt>
      <trkpt lat="40.185317" lon="-5.062533">
        <ele>1387.0</ele>
        <time>2015-05-23T13:22:02Z</time>
      </trkpt>
      <trkpt lat="40.185200" lon="-5.062700">
        <ele>1387.0</ele>
        <time>2015-05-23T13:22:04Z</time>
      </trkpt>
      <trkpt lat="40.185083" lon="-5.062900">
        <ele>1384.0</ele>
        <time>2015-05-23T13:22:06Z</time>
      </trkpt>
      <trkpt lat="40.184983" lon="-5.063100">
        <ele>1382.0</ele>
        <time>2015-05-23T13:22:08Z</time>
      </trkpt>
      <trkpt lat="40.184883" lon="-5.063283">
        <ele>1381.0</ele>
        <time>2015-05-23T13:22:10Z</time>
      </trkpt>
      <trkpt lat="40.184767" lon="-5.063500">
        <ele>1379.0</ele>
        <time>2015-05-23T13:22:12Z</time>
      </trkpt>
      <trkpt lat="40.184650" lon="-5.063683">
        <ele>1379.0</ele>
        <time>2015-05-23T13:22:14Z</time>
      </trkpt>
      <trkpt lat="40.184550" lon="-5.063883">
        <ele>1378.0</ele>
        <time>2015-05-23T13:22:16Z</time>
      </trkpt>
      <trkpt lat="40.184450" lon="-5.064100">
        <ele>1375.0</ele>
        <time>2015-05-23T13:22:18Z</time>
      </trkpt>
      <trkpt lat="40.184367" lon="-5.064333">
        <ele>1375.0</ele>
        <time>2015-05-23T13:22:20Z</time>
      </trkpt>
      <trkpt lat="40.184300" lon="-5.064550">
        <ele>1376.0</ele>
        <time>2015-05-23T13:22:22Z</time>
      </trkpt>
      <trkpt lat="40.184267" lon="-5.064817">
        <ele>1376.0</ele>
        <time>2015-05-23T13:22:24Z</time>
      </trkpt>
      <trkpt lat="40.184233" lon="-5.065083">
        <ele>1375.0</ele>
        <time>2015-05-23T13:22:26Z</time>
      </trkpt>
      <trkpt lat="40.184183" lon="-5.065333">
        <ele>1373.0</ele>
        <time>2015-05-23T13:22:28Z</time>
      </trkpt>
      <trkpt lat="40.184100" lon="-5.065600">
        <ele>1368.0</ele>
        <time>2015-05-23T13:22:30Z</time>
      </trkpt>
      <trkpt lat="40.184000" lon="-5.065850">
        <ele>1365.0</ele>
        <time>2015-05-23T13:22:32Z</time>
      </trkpt>
      <trkpt lat="40.183933" lon="-5.066100">
        <ele>1361.0</ele>
        <time>2015-05-23T13:22:34Z</time>
      </trkpt>
      <trkpt lat="40.183867" lon="-5.066367">
        <ele>1355.0</ele>
        <time>2015-05-23T13:22:36Z</time>
      </trkpt>
      <trkpt lat="40.183783" lon="-5.066633">
        <ele>1352.0</ele>
        <time>2015-05-23T13:22:38Z</time>
      </trkpt>
      <trkpt lat="40.183683" lon="-5.066883">
        <ele>1348.0</ele>
        <time>2015-05-23T13:22:40Z</time>
      </trkpt>
      <trkpt lat="40.183600" lon="-5.067117">
        <ele>1344.0</ele>
        <time>2015-05-23T13:22:42Z</time>
      </trkpt>
      <trkpt lat="40.183517" lon="-5.067367">
        <ele>1339.0</ele>
        <time>2015-05-23T13:22:44Z</time>
      </trkpt>
      <trkpt lat="40.183450" lon="-5.067617">
        <ele>1335.0</ele>
        <time>2015-05-23T13:22:46Z</time>
      </trkpt>
      <trkpt lat="40.183367" lon="-5.067883">
        <ele>1331.0</ele>
        <time>2015-05-23T13:22:48Z</time>
      </trkpt>
      <trkpt lat="40.183267" lon="-5.068117">
        <ele>1327.0</ele>
        <time>2015-05-23T13:22:50Z</time>
      </trkpt>
      <trkpt lat="40.183183" lon="-5.068350">
        <ele>1325.0</ele>
        <time>2015-05-23T13:22:52Z</time>
      </trkpt>
      <trkpt lat="40.183100" lon="-5.068633">
        <ele>1320.0</ele>
        <time>2015-05-23T13:22:54Z</time>
      </trkpt>
      <trkpt lat="40.182983" lon="-5.068883">
        <ele>1316.0</ele>
        <time>2015-05-23T13:22:56Z</time>
      </trkpt>
      <trkpt lat="40.182867" lon="-5.069083">
        <ele>1315.0</ele>
        <time>2015-05-23T13:22:58Z</time>
      </trkpt>
      <trkpt lat="40.182767" lon="-5.069300">
        <ele>1312.0</ele>
        <time>2015-05-23T13:23:00Z</time>
      </trkpt>
      <trkpt lat="40.182683" lon="-5.069550">
        <ele>1306.0</ele>
        <time>2015-05-23T13:23:02Z</time>
      </trkpt>
      <trkpt lat="40.182600" lon="-5.069850">
        <ele>1300.0</ele>
        <time>2015-05-23T13:23:04Z</time>
      </trkpt>
      <trkpt lat="40.182550" lon="-5.070083">
        <ele>1298.0</ele>
        <time>2015-05-23T13:23:06Z</time>
      </trkpt>
      <trkpt lat="40.182483" lon="-5.070317">
        <ele>1295.0</ele>
        <time>2015-05-23T13:23:08Z</time>
      </trkpt>
      <trkpt lat="40.182433" lon="-5.070617">
        <ele>1287.0</ele>
        <time>2015-05-23T13:23:10Z</time>
      </trkpt>
      <trkpt lat="40.182350" lon="-5.070917">
        <ele>1282.0</ele>
        <time>2015-05-23T13:23:12Z</time>
      </trkpt>
      <trkpt lat="40.182233" lon="-5.071167">
        <ele>1279.0</ele>
        <time>2015-05-23T13:23:14Z</time>
      </trkpt>
      <trkpt lat="40.182133" lon="-5.071417">
        <ele>1274.0</ele>
        <time>2015-05-23T13:23:16Z</time>
      </trkpt>
      <trkpt lat="40.182017" lon="-5.071683">
        <ele>1268.0</ele>
        <time>2015-05-23T13:23:18Z</time>
      </trkpt>
      <trkpt lat="40.181900" lon="-5.071950">
        <ele>1263.0</ele>
        <time>2015-05-23T13:23:20Z</time>
      </trkpt>
      <trkpt lat="40.181783" lon="-5.072200">
        <ele>1260.0</ele>
        <time>2015-05-23T13:23:22Z</time>
      </trkpt>
      <trkpt lat="40.181650" lon="-5.072433">
        <ele>1255.0</ele>
        <time>2015-05-23T13:23:24Z</time>
      </trkpt>
      <trkpt lat="40.181517" lon="-5.072700">
        <ele>1249.0</ele>
        <time>2015-05-23T13:23:26Z</time>
      </trkpt>
      <trkpt lat="40.181400" lon="-5.072967">
        <ele>1246.0</ele>
        <time>2015-05-23T13:23:28Z</time>
      </trkpt>
      <trkpt lat="40.181317" lon="-5.073233">
        <ele>1242.0</ele>
        <time>2015-05-23T13:23:30Z</time>
      </trkpt>
      <trkpt lat="40.181250" lon="-5.073517">
        <ele>1238.0</ele>
        <time>2015-05-23T13:23:32Z</time>
      </trkpt>
      <trkpt lat="40.181217" lon="-5.073767">
        <ele>1236.0</ele>
        <time>2015-05-23T13:23:34Z</time>
      </trkpt>
      <trkpt lat="40.181200" lon="-5.074033">
        <ele>1232.0</ele>
        <time>2015-05-23T13:23:36Z</time>
      </trkpt>
      <trkpt lat="40.181167" lon="-5.074333">
        <ele>1227.0</ele>
        <time>2015-05-23T13:23:38Z</time>
      </trkpt>
      <trkpt lat="40.181117" lon="-5.074617">
        <ele>1225.0</ele>
        <time>2015-05-23T13:23:40Z</time>
      </trkpt>
      <trkpt lat="40.181067" lon="-5.074883">
        <ele>1224.0</ele>
        <time>2015-05-23T13:23:42Z</time>
      </trkpt>
      <trkpt lat="40.180933" lon="-5.075133">
        <ele>1223.0</ele>
        <time>2015-05-23T13:23:44Z</time>
      </trkpt>
      <trkpt lat="40.180850" lon="-5.075350">
        <ele>1224.0</ele>
        <time>2015-05-23T13:23:46Z</time>
      </trkpt>
      <trkpt lat="40.180850" lon="-5.075583">
        <ele>1222.0</ele>
        <time>2015-05-23T13:23:48Z</time>
      </trkpt>
      <trkpt lat="40.180850" lon="-5.075883">
        <ele>1214.0</ele>
        <time>2015-05-23T13:23:50Z</time>
      </trkpt>
      <trkpt lat="40.180833" lon="-5.076183">
        <ele>1211.0</ele>
        <time>2015-05-23T13:23:52Z</time>
      </trkpt>
      <trkpt lat="40.180783" lon="-5.076433">
        <ele>1210.0</ele>
        <time>2015-05-23T13:23:54Z</time>
      </trkpt>
      <trkpt lat="40.180750" lon="-5.076667">
        <ele>1207.0</ele>
        <time>2015-05-23T13:23:56Z</time>
      </trkpt>
      <trkpt lat="40.180717" lon="-5.076950">
        <ele>1202.0</ele>
        <time>2015-05-23T13:23:58Z</time>
      </trkpt>
      <trkpt lat="40.180667" lon="-5.077233">
        <ele>1198.0</ele>
        <time>2015-05-23T13:24:00Z</time>
      </trkpt>
      <trkpt lat="40.180617" lon="-5.077517">
        <ele>1196.0</ele>
        <time>2015-05-23T13:24:02Z</time>
      </trkpt>
      <trkpt lat="40.180617" lon="-5.077783">
        <ele>1196.0</ele>
        <time>2015-05-23T13:24:04Z</time>
      </trkpt>
      <trkpt lat="40.180667" lon="-5.078033">
        <ele>1197.0</ele>
        <time>2015-05-23T13:24:06Z</time>
      </trkpt>
      <trkpt lat="40.180733" lon="-5.078283">
        <ele>1195.0</ele>
        <time>2015-05-23T13:24:08Z</time>
      </trkpt>
      <trkpt lat="40.180800" lon="-5.078533">
        <ele>1194.0</ele>
        <time>2015-05-23T13:24:10Z</time>
      </trkpt>
      <trkpt lat="40.180833" lon="-5.078767">
        <ele>1195.0</ele>
        <time>2015-05-23T13:24:12Z</time>
      </trkpt>
      <trkpt lat="40.180883" lon="-5.079017">
        <ele>1194.0</ele>
        <time>2015-05-23T13:24:14Z</time>
      </trkpt>
      <trkpt lat="40.180933" lon="-5.079283">
        <ele>1192.0</ele>
        <time>2015-05-23T13:24:16Z</time>
      </trkpt>
      <trkpt lat="40.180950" lon="-5.079550">
        <ele>1191.0</ele>
        <time>2015-05-23T13:24:18Z</time>
      </trkpt>
      <trkpt lat="40.180967" lon="-5.079817">
        <ele>1188.0</ele>
        <time>2015-05-23T13:24:20Z</time>
      </trkpt>
      <trkpt lat="40.180983" lon="-5.080117">
        <ele>1185.0</ele>
        <time>2015-05-23T13:24:22Z</time>
      </trkpt>
      <trkpt lat="40.181033" lon="-5.080333">
        <ele>1186.0</ele>
        <time>2015-05-23T13:24:24Z</time>
      </trkpt>
      <trkpt lat="40.181150" lon="-5.080533">
        <ele>1185.0</ele>
        <time>2015-05-23T13:24:26Z</time>
      </trkpt>
      <trkpt lat="40.181300" lon="-5.080717">
        <ele>1181.0</ele>
        <time>2015-05-23T13:24:28Z</time>
      </trkpt>
      <trkpt lat="40.181467" lon="-5.080883">
        <ele>1181.0</ele>
        <time>2015-05-23T13:24:30Z</time>
      </trkpt>
      <trkpt lat="40.181600" lon="-5.080950">
        <ele>1182.0</ele>
        <time>2015-05-23T13:24:32Z</time>
      </trkpt>
      <trkpt lat="40.181750" lon="-5.080933">
        <ele>1182.0</ele>
        <time>2015-05-23T13:24:34Z</time>
      </trkpt>
      <trkpt lat="40.181867" lon="-5.080800">
        <ele>1178.0</ele>
        <time>2015-05-23T13:24:36Z</time>
      </trkpt>
      <trkpt lat="40.181917" lon="-5.080650">
        <ele>1175.0</ele>
        <time>2015-05-23T13:24:38Z</time>
      </trkpt>
      <trkpt lat="40.181900" lon="-5.080533">
        <ele>1174.0</ele>
        <time>2015-05-23T13:24:40Z</time>
      </trkpt>
      <trkpt lat="40.181817" lon="-5.080400">
        <ele>1169.0</ele>
        <time>2015-05-23T13:24:42Z</time>
      </trkpt>
      <trkpt lat="40.181650" lon="-5.080333">
        <ele>1166.0</ele>
        <time>2015-05-23T13:24:44Z</time>
      </trkpt>
      <trkpt lat="40.181483" lon="-5.080350">
        <ele>1166.0</ele>
        <time>2015-05-23T13:24:46Z</time>
      </trkpt>
      <trkpt lat="40.181333" lon="-5.080400">
        <ele>1165.0</ele>
        <time>2015-05-23T13:24:48Z</time>
      </trkpt>
      <trkpt lat="40.181183" lon="-5.080500">
        <ele>1163.0</ele>
        <time>2015-05-23T13:24:50Z</time>
      </trkpt>
      <trkpt lat="40.181017" lon="-5.080650">
        <ele>1161.0</ele>
        <time>2015-05-23T13:24:52Z</time>
      </trkpt>
      <trkpt lat="40.180867" lon="-5.080817">
        <ele>1161.0</ele>
        <time>2015-05-23T13:24:54Z</time>
      </trkpt>
      <trkpt lat="40.180733" lon="-5.081000">
        <ele>1160.0</ele>
        <time>2015-05-23T13:24:56Z</time>
      </trkpt>
      <trkpt lat="40.180617" lon="-5.081200">
        <ele>1157.0</ele>
        <time>2015-05-23T13:24:58Z</time>
      </trkpt>
      <trkpt lat="40.180483" lon="-5.081417">
        <ele>1155.0</ele>
        <time>2015-05-23T13:25:00Z</time>
      </trkpt>
      <trkpt lat="40.180367" lon="-5.081617">
        <ele>1158.0</ele>
        <time>2015-05-23T13:25:02Z</time>
      </trkpt>
      <trkpt lat="40.180300" lon="-5.081767">
        <ele>1160.0</ele>
        <time>2015-05-23T13:25:04Z</time>
      </trkpt>
      <trkpt lat="40.180217" lon="-5.082000">
        <ele>1156.0</ele>
        <time>2015-05-23T13:25:06Z</time>
      </trkpt>
      <trkpt lat="40.180150" lon="-5.082283">
        <ele>1151.0</ele>
        <time>2015-05-23T13:25:08Z</time>
      </trkpt>
      <trkpt lat="40.180100" lon="-5.082517">
        <ele>1150.0</ele>
        <time>2015-05-23T13:25:10Z</time>
      </trkpt>
      <trkpt lat="40.180117" lon="-5.082750">
        <ele>1148.0</ele>
        <time>2015-05-23T13:25:12Z</time>
      </trkpt>
      <trkpt lat="40.180117" lon="-5.083033">
        <ele>1143.0</ele>
        <time>2015-05-23T13:25:14Z</time>
      </trkpt>
      <trkpt lat="40.180067" lon="-5.083317">
        <ele>1138.0</ele>
        <time>2015-05-23T13:25:16Z</time>
      </trkpt>
      <trkpt lat="40.180033" lon="-5.083583">
        <ele>1135.0</ele>
        <time>2015-05-23T13:25:18Z</time>
      </trkpt>
      <trkpt lat="40.180000" lon="-5.083867">
        <ele>1132.0</ele>
        <time>2015-05-23T13:25:20Z</time>
      </trkpt>
      <trkpt lat="40.179950" lon="-5.084117">
        <ele>1132.0</ele>
        <time>2015-05-23T13:25:22Z</time>
      </trkpt>
      <trkpt lat="40.179933" lon="-5.084350">
        <ele>1131.0</ele>
        <time>2015-05-23T13:25:24Z</time>
      </trkpt>
      <trkpt lat="40.179933" lon="-5.084633">
        <ele>1128.0</ele>
        <time>2015-05-23T13:25:26Z</time>
      </trkpt>
      <trkpt lat="40.179850" lon="-5.084933">
        <ele>1130.0</ele>
        <time>2015-05-23T13:25:28Z</time>
      </trkpt>
      <trkpt lat="40.179767" lon="-5.085183">
        <ele>1134.0</ele>
        <time>2015-05-23T13:25:30Z</time>
      </trkpt>
      <trkpt lat="40.179750" lon="-5.085433">
        <ele>1135.0</ele>
        <time>2015-05-23T13:25:32Z</time>
      </trkpt>
      <trkpt lat="40.179733" lon="-5.085717">
        <ele>1133.0</ele>
        <time>2015-05-23T13:25:34Z</time>
      </trkpt>
      <trkpt lat="40.179683" lon="-5.085983">
        <ele>1134.0</ele>
        <time>2015-05-23T13:25:36Z</time>
      </trkpt>
      <trkpt lat="40.179667" lon="-5.086200">
        <ele>1133.0</ele>
        <time>2015-05-23T13:25:38Z</time>
      </trkpt>
      <trkpt lat="40.179683" lon="-5.086450">
        <ele>1130.0</ele>
        <time>2015-05-23T13:25:40Z</time>
      </trkpt>
      <trkpt lat="40.179667" lon="-5.086733">
        <ele>1124.0</ele>
        <time>2015-05-23T13:25:42Z</time>
      </trkpt>
      <trkpt lat="40.179633" lon="-5.087017">
        <ele>1121.0</ele>
        <time>2015-05-23T13:25:44Z</time>
      </trkpt>
      <trkpt lat="40.179617" lon="-5.087267">
        <ele>1119.0</ele>
        <time>2015-05-23T13:25:46Z</time>
      </trkpt>
      <trkpt lat="40.179567" lon="-5.087483">
        <ele>1113.0</ele>
        <time>2015-05-23T13:25:48Z</time>
      </trkpt>
      <trkpt lat="40.179517" lon="-5.087767">
        <ele>1106.0</ele>
        <time>2015-05-23T13:25:50Z</time>
      </trkpt>
      <trkpt lat="40.179517" lon="-5.088033">
        <ele>1103.0</ele>
        <time>2015-05-23T13:25:52Z</time>
      </trkpt>
      <trkpt lat="40.179517" lon="-5.088283">
        <ele>1100.0</ele>
        <time>2015-05-23T13:25:54Z</time>
      </trkpt>
      <trkpt lat="40.179567" lon="-5.088533">
        <ele>1097.0</ele>
        <time>2015-05-23T13:25:56Z</time>
      </trkpt>
      <trkpt lat="40.179667" lon="-5.088767">
        <ele>1093.0</ele>
        <time>2015-05-23T13:25:58Z</time>
      </trkpt>
      <trkpt lat="40.179783" lon="-5.088967">
        <ele>1091.0</ele>
        <time>2015-05-23T13:26:00Z</time>
      </trkpt>
      <trkpt lat="40.179917" lon="-5.089133">
        <ele>1088.0</ele>
        <time>2015-05-23T13:26:02Z</time>
      </trkpt>
      <trkpt lat="40.180050" lon="-5.089333">
        <ele>1084.0</ele>
        <time>2015-05-23T13:26:04Z</time>
      </trkpt>
      <trkpt lat="40.180167" lon="-5.089583">
        <ele>1080.0</ele>
        <time>2015-05-23T13:26:06Z</time>
      </trkpt>
      <trkpt lat="40.180200" lon="-5.089850">
        <ele>1076.0</ele>
        <time>2015-05-23T13:26:08Z</time>
      </trkpt>
      <trkpt lat="40.180200" lon="-5.090117">
        <ele>1074.0</ele>
        <time>2015-05-23T13:26:10Z</time>
      </trkpt>
      <trkpt lat="40.180150" lon="-5.090367">
        <ele>1069.0</ele>
        <time>2015-05-23T13:26:12Z</time>
      </trkpt>
      <trkpt lat="40.180067" lon="-5.090617">
        <ele>1063.0</ele>
        <time>2015-05-23T13:26:14Z</time>
      </trkpt>
      <trkpt lat="40.179983" lon="-5.090850">
        <ele>1060.0</ele>
        <time>2015-05-23T13:26:16Z</time>
      </trkpt>
      <trkpt lat="40.179917" lon="-5.091083">
        <ele>1059.0</ele>
        <time>2015-05-23T13:26:18Z</time>
      </trkpt>
      <trkpt lat="40.179917" lon="-5.091350">
        <ele>1058.0</ele>
        <time>2015-05-23T13:26:20Z</time>
      </trkpt>
      <trkpt lat="40.179917" lon="-5.091617">
        <ele>1057.0</ele>
        <time>2015-05-23T13:26:22Z</time>
      </trkpt>
      <trkpt lat="40.179950" lon="-5.091933">
        <ele>1055.0</ele>
        <time>2015-05-23T13:26:24Z</time>
      </trkpt>
      <trkpt lat="40.179983" lon="-5.092233">
        <ele>1055.0</ele>
        <time>2015-05-23T13:26:26Z</time>
      </trkpt>
      <trkpt lat="40.180033" lon="-5.092500">
        <ele>1056.0</ele>
        <time>2015-05-23T13:26:28Z</time>
      </trkpt>
      <trkpt lat="40.180133" lon="-5.092783">
        <ele>1056.0</ele>
        <time>2015-05-23T13:26:30Z</time>
      </trkpt>
      <trkpt lat="40.180267" lon="-5.093050">
        <ele>1055.0</ele>
        <time>2015-05-23T13:26:32Z</time>
      </trkpt>
      <trkpt lat="40.180400" lon="-5.093300">
        <ele>1057.0</ele>
        <time>2015-05-23T13:26:34Z</time>
      </trkpt>
      <trkpt lat="40.180583" lon="-5.093467">
        <ele>1059.0</ele>
        <time>2015-05-23T13:26:36Z</time>
      </trkpt>
      <trkpt lat="40.180783" lon="-5.093567">
        <ele>1061.0</ele>
        <time>2015-05-23T13:26:38Z</time>
      </trkpt>
      <trkpt lat="40.180983" lon="-5.093600">
        <ele>1063.0</ele>
        <time>2015-05-23T13:26:40Z</time>
      </trkpt>
      <trkpt lat="40.181183" lon="-5.093550">
        <ele>1063.0</ele>
        <time>2015-05-23T13:26:42Z</time>
      </trkpt>
      <trkpt lat="40.181333" lon="-5.093400">
        <ele>1064.0</ele>
        <time>2015-05-23T13:26:44Z</time>
      </trkpt>
      <trkpt lat="40.181383" lon="-5.093217">
        <ele>1066.0</ele>
        <time>2015-05-23T13:26:46Z</time>
      </trkpt>
      <trkpt lat="40.181333" lon="-5.093050">
        <ele>1066.0</ele>
        <time>2015-05-23T13:26:48Z</time>
      </trkpt>
      <trkpt lat="40.181233" lon="-5.092933">
        <ele>1068.0</ele>
        <time>2015-05-23T13:26:50Z</time>
      </trkpt>
      <trkpt lat="40.181133" lon="-5.092917">
        <ele>1071.0</ele>
        <time>2015-05-23T13:26:52Z</time>
      </trkpt>
      <trkpt lat="40.181033" lon="-5.092983">
        <ele>1070.0</ele>
        <time>2015-05-23T13:26:54Z</time>
      </trkpt>
      <trkpt lat="40.180917" lon="-5.093167">
        <ele>1067.0</ele>
        <time>2015-05-23T13:26:56Z</time>
      </trkpt>
      <trkpt lat="40.180917" lon="-5.093450">
        <ele>1066.0</ele>
        <time>2015-05-23T13:26:58Z</time>
      </trkpt>
      <trkpt lat="40.181000" lon="-5.093733">
        <ele>1066.0</ele>
        <time>2015-05-23T13:27:00Z</time>
      </trkpt>
      <trkpt lat="40.181117" lon="-5.094000">
        <ele>1066.0</ele>
        <time>2015-05-23T13:27:02Z</time>
      </trkpt>
      <trkpt lat="40.181283" lon="-5.094217">
        <ele>1066.0</ele>
        <time>2015-05-23T13:27:04Z</time>
      </trkpt>
      <trkpt lat="40.181450" lon="-5.094400">
        <ele>1068.0</ele>
        <time>2015-05-23T13:27:06Z</time>
      </trkpt>
      <trkpt lat="40.181617" lon="-5.094517">
        <ele>1071.0</ele>
        <time>2015-05-23T13:27:08Z</time>
      </trkpt>
      <trkpt lat="40.181817" lon="-5.094550">
        <ele>1071.0</ele>
        <time>2015-05-23T13:27:10Z</time>
      </trkpt>
      <trkpt lat="40.182000" lon="-5.094517">
        <ele>1071.0</ele>
        <time>2015-05-23T13:27:12Z</time>
      </trkpt>
      <trkpt lat="40.182150" lon="-5.094417">
        <ele>1074.0</ele>
        <time>2015-05-23T13:27:14Z</time>
      </trkpt>
      <trkpt lat="40.182250" lon="-5.094267">
        <ele>1074.0</ele>
        <time>2015-05-23T13:27:16Z</time>
      </trkpt>
      <trkpt lat="40.182300" lon="-5.094067">
        <ele>1073.0</ele>
        <time>2015-05-23T13:27:18Z</time>
      </trkpt>
      <trkpt lat="40.182283" lon="-5.093883">
        <ele>1074.0</ele>
        <time>2015-05-23T13:27:20Z</time>
      </trkpt>
      <trkpt lat="40.182217" lon="-5.093750">
        <ele>1076.0</ele>
        <time>2015-05-23T13:27:22Z</time>
      </trkpt>
      <trkpt lat="40.182100" lon="-5.093667">
        <ele>1078.0</ele>
        <time>2015-05-23T13:27:24Z</time>
      </trkpt>
      <trkpt lat="40.181983" lon="-5.093633">
        <ele>1080.0</ele>
        <time>2015-05-23T13:27:26Z</time>
      </trkpt>
      <trkpt lat="40.181867" lon="-5.093667">
        <ele>1080.0</ele>
        <time>2015-05-23T13:27:28Z</time>
      </trkpt>
      <trkpt lat="40.181750" lon="-5.093783">
        <ele>1078.0</ele>
        <time>2015-05-23T13:27:30Z</time>
      </trkpt>
      <trkpt lat="40.181633" lon="-5.094017">
        <ele>1077.0</ele>
        <time>2015-05-23T13:27:32Z</time>
      </trkpt>
      <trkpt lat="40.181567" lon="-5.094233">
        <ele>1078.0</ele>
        <time>2015-05-23T13:27:34Z</time>
      </trkpt>
      <trkpt lat="40.181517" lon="-5.094483">
        <ele>1078.0</ele>
        <time>2015-05-23T13:27:36Z</time>
      </trkpt>
      <trkpt lat="40.181517" lon="-5.094800">
        <ele>1075.0</ele>
        <time>2015-05-23T13:27:38Z</time>
      </trkpt>
      <trkpt lat="40.181583" lon="-5.095100">
        <ele>1075.0</ele>
        <time>2015-05-23T13:27:40Z</time>
      </trkpt>
      <trkpt lat="40.181700" lon="-5.095317">
        <ele>1077.0</ele>
        <time>2015-05-23T13:27:42Z</time>
      </trkpt>
      <trkpt lat="40.181850" lon="-5.095517">
        <ele>1075.0</ele>
        <time>2015-05-23T13:27:44Z</time>
      </trkpt>
      <trkpt lat="40.182033" lon="-5.095683">
        <ele>1074.0</ele>
        <time>2015-05-23T13:27:46Z</time>
      </trkpt>
      <trkpt lat="40.182217" lon="-5.095733">
        <ele>1077.0</ele>
        <time>2015-05-23T13:27:48Z</time>
      </trkpt>
      <trkpt lat="40.182400" lon="-5.095700">
        <ele>1076.0</ele>
        <time>2015-05-23T13:27:50Z</time>
      </trkpt>
      <trkpt lat="40.182550" lon="-5.095583">
        <ele>1073.0</ele>
        <time>2015-05-23T13:27:52Z</time>
      </trkpt>
      <trkpt lat="40.182617" lon="-5.095417">
        <ele>1072.0</ele>
        <time>2015-05-23T13:27:54Z</time>
      </trkpt>
      <trkpt lat="40.182633" lon="-5.095233">
        <ele>1072.0</ele>
        <time>2015-05-23T13:27:56Z</time>
      </trkpt>
      <trkpt lat="40.182600" lon="-5.095067">
        <ele>1072.0</ele>
        <time>2015-05-23T13:27:58Z</time>
      </trkpt>
      <trkpt lat="40.182533" lon="-5.094983">
        <ele>1073.0</ele>
        <time>2015-05-23T13:28:00Z</time>
      </trkpt>
      <trkpt lat="40.182433" lon="-5.094950">
        <ele>1073.0</ele>
        <time>2015-05-23T13:28:02Z</time>
      </trkpt>
      <trkpt lat="40.182300" lon="-5.094917">
        <ele>1071.0</ele>
        <time>2015-05-23T13:28:04Z</time>
      </trkpt>
      <trkpt lat="40.182150" lon="-5.094983">
        <ele>1070.0</ele>
        <time>2015-05-23T13:28:06Z</time>
      </trkpt>
      <trkpt lat="40.182033" lon="-5.095100">
        <ele>1071.0</ele>
        <time>2015-05-23T13:28:08Z</time>
      </trkpt>
      <trkpt lat="40.181933" lon="-5.095283">
        <ele>1073.0</ele>
        <time>2015-05-23T13:28:10Z</time>
      </trkpt>
      <trkpt lat="40.181867" lon="-5.095500">
        <ele>1071.0</ele>
        <time>2015-05-23T13:28:12Z</time>
      </trkpt>
      <trkpt lat="40.181817" lon="-5.095783">
        <ele>1070.0</ele>
        <time>2015-05-23T13:28:14Z</time>
      </trkpt>
      <trkpt lat="40.181833" lon="-5.096050">
        <ele>1069.0</ele>
        <time>2015-05-23T13:28:16Z</time>
      </trkpt>
      <trkpt lat="40.181900" lon="-5.096300">
        <ele>1068.0</ele>
        <time>2015-05-23T13:28:18Z</time>
      </trkpt>
      <trkpt lat="40.181983" lon="-5.096550">
        <ele>1066.0</ele>
        <time>2015-05-23T13:28:20Z</time>
      </trkpt>
      <trkpt lat="40.182150" lon="-5.096733">
        <ele>1065.0</ele>
        <time>2015-05-23T13:28:22Z</time>
      </trkpt>
      <trkpt lat="40.182333" lon="-5.096800">
        <ele>1064.0</ele>
        <time>2015-05-23T13:28:24Z</time>
      </trkpt>
      <trkpt lat="40.182517" lon="-5.096800">
        <ele>1062.0</ele>
        <time>2015-05-23T13:28:26Z</time>
      </trkpt>
      <trkpt lat="40.182700" lon="-5.096733">
        <ele>1059.0</ele>
        <time>2015-05-23T13:28:28Z</time>
      </trkpt>
      <trkpt lat="40.182833" lon="-5.096617">
        <ele>1057.0</ele>
        <time>2015-05-23T13:28:30Z</time>
      </trkpt>
      <trkpt lat="40.182917" lon="-5.096450">
        <ele>1055.0</ele>
        <time>2015-05-23T13:28:32Z</time>
      </trkpt>
      <trkpt lat="40.182933" lon="-5.096283">
        <ele>1053.0</ele>
        <time>2015-05-23T13:28:34Z</time>
      </trkpt>
      <trkpt lat="40.182850" lon="-5.096133">
        <ele>1050.0</ele>
        <time>2015-05-23T13:28:36Z</time>
      </trkpt>
      <trkpt lat="40.182733" lon="-5.096050">
        <ele>1049.0</ele>
        <time>2015-05-23T13:28:38Z</time>
      </trkpt>
      <trkpt lat="40.182583" lon="-5.096083">
        <ele>1049.0</ele>
        <time>2015-05-23T13:28:40Z</time>
      </trkpt>
      <trkpt lat="40.182467" lon="-5.096150">
        <ele>1049.0</ele>
        <time>2015-05-23T13:28:42Z</time>
      </trkpt>
      <trkpt lat="40.182333" lon="-5.096267">
        <ele>1047.0</ele>
        <time>2015-05-23T13:28:44Z</time>
      </trkpt>
      <trkpt lat="40.182200" lon="-5.096417">
        <ele>1044.0</ele>
        <time>2015-05-23T13:28:46Z</time>
      </trkpt>
      <trkpt lat="40.182067" lon="-5.096583">
        <ele>1043.0</ele>
        <time>2015-05-23T13:28:48Z</time>
      </trkpt>
      <trkpt lat="40.181950" lon="-5.096750">
        <ele>1044.0</ele>
        <time>2015-05-23T13:28:50Z</time>
      </trkpt>
      <trkpt lat="40.181850" lon="-5.096950">
        <ele>1042.0</ele>
        <time>2015-05-23T13:28:52Z</time>
      </trkpt>
      <trkpt lat="40.181800" lon="-5.097217">
        <ele>1042.0</ele>
        <time>2015-05-23T13:28:54Z</time>
      </trkpt>
      <trkpt lat="40.181767" lon="-5.097433">
        <ele>1044.0</ele>
        <time>2015-05-23T13:28:56Z</time>
      </trkpt>
      <trkpt lat="40.181683" lon="-5.097617">
        <ele>1045.0</ele>
        <time>2015-05-23T13:28:58Z</time>
      </trkpt>
      <trkpt lat="40.181583" lon="-5.097850">
        <ele>1044.0</ele>
        <time>2015-05-23T13:29:00Z</time>
      </trkpt>
      <trkpt lat="40.181550" lon="-5.098100">
        <ele>1044.0</ele>
        <time>2015-05-23T13:29:02Z</time>
      </trkpt>
      <trkpt lat="40.181517" lon="-5.098350">
        <ele>1043.0</ele>
        <time>2015-05-23T13:29:04Z</time>
      </trkpt>
      <trkpt lat="40.181450" lon="-5.098583">
        <ele>1038.0</ele>
        <time>2015-05-23T13:29:06Z</time>
      </trkpt>
      <trkpt lat="40.181333" lon="-5.098817">
        <ele>1033.0</ele>
        <time>2015-05-23T13:29:08Z</time>
      </trkpt>
      <trkpt lat="40.181217" lon="-5.099033">
        <ele>1029.0</ele>
        <time>2015-05-23T13:29:10Z</time>
      </trkpt>
      <trkpt lat="40.181083" lon="-5.099217">
        <ele>1026.0</ele>
        <time>2015-05-23T13:29:12Z</time>
      </trkpt>
      <trkpt lat="40.180950" lon="-5.099417">
        <ele>1022.0</ele>
        <time>2015-05-23T13:29:14Z</time>
      </trkpt>
      <trkpt lat="40.180833" lon="-5.099633">
        <ele>1017.0</ele>
        <time>2015-05-23T13:29:16Z</time>
      </trkpt>
      <trkpt lat="40.180700" lon="-5.099850">
        <ele>1013.0</ele>
        <time>2015-05-23T13:29:18Z</time>
      </trkpt>
      <trkpt lat="40.180583" lon="-5.100067">
        <ele>1010.0</ele>
        <time>2015-05-23T13:29:20Z</time>
      </trkpt>
      <trkpt lat="40.180450" lon="-5.100283">
        <ele>1005.0</ele>
        <time>2015-05-23T13:29:22Z</time>
      </trkpt>
      <trkpt lat="40.180317" lon="-5.100517">
        <ele>1000.0</ele>
        <time>2015-05-23T13:29:24Z</time>
      </trkpt>
      <trkpt lat="40.180167" lon="-5.100767">
        <ele>995.0</ele>
        <time>2015-05-23T13:29:26Z</time>
      </trkpt>
      <trkpt lat="40.180017" lon="-5.100950">
        <ele>994.0</ele>
        <time>2015-05-23T13:29:28Z</time>
      </trkpt>
      <trkpt lat="40.179867" lon="-5.101167">
        <ele>993.0</ele>
        <time>2015-05-23T13:29:30Z</time>
      </trkpt>
      <trkpt lat="40.179750" lon="-5.101400">
        <ele>994.0</ele>
        <time>2015-05-23T13:29:32Z</time>
      </trkpt>
      <trkpt lat="40.179633" lon="-5.101633">
        <ele>994.0</ele>
        <time>2015-05-23T13:29:34Z</time>
      </trkpt>
      <trkpt lat="40.179517" lon="-5.101900">
        <ele>995.0</ele>
        <time>2015-05-23T13:29:36Z</time>
      </trkpt>
      <trkpt lat="40.179400" lon="-5.102183">
        <ele>997.0</ele>
        <time>2015-05-23T13:29:38Z</time>
      </trkpt>
      <trkpt lat="40.179333" lon="-5.102433">
        <ele>998.0</ele>
        <time>2015-05-23T13:29:40Z</time>
      </trkpt>
      <trkpt lat="40.179267" lon="-5.102700">
        <ele>998.0</ele>
        <time>2015-05-23T13:29:42Z</time>
      </trkpt>
      <trkpt lat="40.179267" lon="-5.102950">
        <ele>998.0</ele>
        <time>2015-05-23T13:29:44Z</time>
      </trkpt>
      <trkpt lat="40.179350" lon="-5.103183">
        <ele>998.0</ele>
        <time>2015-05-23T13:29:46Z</time>
      </trkpt>
      <trkpt lat="40.179450" lon="-5.103300">
        <ele>999.0</ele>
        <time>2015-05-23T13:29:48Z</time>
      </trkpt>
      <trkpt lat="40.179567" lon="-5.103350">
        <ele>999.0</ele>
        <time>2015-05-23T13:29:50Z</time>
      </trkpt>
      <trkpt lat="40.179683" lon="-5.103333">
        <ele>998.0</ele>
        <time>2015-05-23T13:29:52Z</time>
      </trkpt>
      <trkpt lat="40.179733" lon="-5.103183">
        <ele>998.0</ele>
        <time>2015-05-23T13:29:54Z</time>
      </trkpt>
      <trkpt lat="40.179667" lon="-5.103033">
        <ele>996.0</ele>
        <time>2015-05-23T13:29:56Z</time>
      </trkpt>
      <trkpt lat="40.179583" lon="-5.102933">
        <ele>996.0</ele>
        <time>2015-05-23T13:29:58Z</time>
      </trkpt>
      <trkpt lat="40.179417" lon="-5.102850">
        <ele>993.0</ele>
        <time>2015-05-23T13:30:00Z</time>
      </trkpt>
      <trkpt lat="40.179167" lon="-5.102833">
        <ele>988.0</ele>
        <time>2015-05-23T13:30:02Z</time>
      </trkpt>
      <trkpt lat="40.178967" lon="-5.102850">
        <ele>993.0</ele>
        <time>2015-05-23T13:30:04Z</time>
      </trkpt>
      <trkpt lat="40.178833" lon="-5.102883">
        <ele>995.0</ele>
        <time>2015-05-23T13:30:06Z</time>
      </trkpt>
      <trkpt lat="40.178650" lon="-5.102933">
        <ele>989.0</ele>
        <time>2015-05-23T13:30:08Z</time>
      </trkpt>
      <trkpt lat="40.178467" lon="-5.103083">
        <ele>983.0</ele>
        <time>2015-05-23T13:30:10Z</time>
      </trkpt>
      <trkpt lat="40.178300" lon="-5.103217">
        <ele>980.0</ele>
        <time>2015-05-23T13:30:12Z</time>
      </trkpt>
      <trkpt lat="40.178133" lon="-5.103333">
        <ele>976.0</ele>
        <time>2015-05-23T13:30:14Z</time>
      </trkpt>
      <trkpt lat="40.177967" lon="-5.103517">
        <ele>970.0</ele>
        <time>2015-05-23T13:30:16Z</time>
      </trkpt>
      <trkpt lat="40.177817" lon="-5.103650">
        <ele>967.0</ele>
        <time>2015-05-23T13:30:18Z</time>
      </trkpt>
      <trkpt lat="40.177683" lon="-5.103800">
        <ele>964.0</ele>
        <time>2015-05-23T13:30:20Z</time>
      </trkpt>
      <trkpt lat="40.177533" lon="-5.104000">
        <ele>959.0</ele>
        <time>2015-05-23T13:30:22Z</time>
      </trkpt>
      <trkpt lat="40.177433" lon="-5.104183">
        <ele>956.0</ele>
        <time>2015-05-23T13:30:24Z</time>
      </trkpt>
      <trkpt lat="40.177333" lon="-5.104383">
        <ele>953.0</ele>
        <time>2015-05-23T13:30:26Z</time>
      </trkpt>
      <trkpt lat="40.177217" lon="-5.104600">
        <ele>947.0</ele>
        <time>2015-05-23T13:30:28Z</time>
      </trkpt>
      <trkpt lat="40.177067" lon="-5.104800">
        <ele>942.0</ele>
        <time>2015-05-23T13:30:30Z</time>
      </trkpt>
      <trkpt lat="40.176917" lon="-5.104967">
        <ele>939.0</ele>
        <time>2015-05-23T13:30:32Z</time>
      </trkpt>
      <trkpt lat="40.176767" lon="-5.105133">
        <ele>935.0</ele>
        <time>2015-05-23T13:30:34Z</time>
      </trkpt>
      <trkpt lat="40.176600" lon="-5.105317">
        <ele>933.0</ele>
        <time>2015-05-23T13:30:36Z</time>
      </trkpt>
      <trkpt lat="40.176483" lon="-5.105483">
        <ele>934.0</ele>
        <time>2015-05-23T13:30:38Z</time>
      </trkpt>
      <trkpt lat="40.176367" lon="-5.105683">
        <ele>930.0</ele>
        <time>2015-05-23T13:30:40Z</time>
      </trkpt>
      <trkpt lat="40.176233" lon="-5.105900">
        <ele>925.0</ele>
        <time>2015-05-23T13:30:42Z</time>
      </trkpt>
      <trkpt lat="40.176100" lon="-5.106100">
        <ele>923.0</ele>
        <time>2015-05-23T13:30:44Z</time>
      </trkpt>
      <trkpt lat="40.176017" lon="-5.106300">
        <ele>920.0</ele>
        <time>2015-05-23T13:30:46Z</time>
      </trkpt>
      <trkpt lat="40.175867" lon="-5.106500">
        <ele>914.0</ele>
        <time>2015-05-23T13:30:48Z</time>
      </trkpt>
      <trkpt lat="40.175717" lon="-5.106633">
        <ele>908.0</ele>
        <time>2015-05-23T13:30:50Z</time>
      </trkpt>
      <trkpt lat="40.175550" lon="-5.106733">
        <ele>903.0</ele>
        <time>2015-05-23T13:30:52Z</time>
      </trkpt>
      <trkpt lat="40.175400" lon="-5.106867">
        <ele>896.0</ele>
        <time>2015-05-23T13:30:54Z</time>
      </trkpt>
      <trkpt lat="40.175217" lon="-5.106983">
        <ele>890.0</ele>
        <time>2015-05-23T13:30:56Z</time>
      </trkpt>
      <trkpt lat="40.175050" lon="-5.107050">
        <ele>885.0</ele>
        <time>2015-05-23T13:30:58Z</time>
      </trkpt>
      <trkpt lat="40.174883" lon="-5.107100">
        <ele>881.0</ele>
        <time>2015-05-23T13:31:00Z</time>
      </trkpt>
      <trkpt lat="40.174733" lon="-5.107150">
        <ele>877.0</ele>
        <time>2015-05-23T13:31:02Z</time>
      </trkpt>
      <trkpt lat="40.174600" lon="-5.107233">
        <ele>872.0</ele>
        <time>2015-05-23T13:31:04Z</time>
      </trkpt>
      <trkpt lat="40.174450" lon="-5.107283">
        <ele>866.0</ele>
        <time>2015-05-23T13:31:06Z</time>
      </trkpt>
      <trkpt lat="40.174283" lon="-5.107333">
        <ele>858.0</ele>
        <time>2015-05-23T13:31:08Z</time>
      </trkpt>
      <trkpt lat="40.174117" lon="-5.107383">
        <ele>851.0</ele>
        <time>2015-05-23T13:31:10Z</time>
      </trkpt>
      <trkpt lat="40.173967" lon="-5.107400">
        <ele>846.0</ele>
        <time>2015-05-23T13:31:12Z</time>
      </trkpt>
      <trkpt lat="40.173800" lon="-5.107417">
        <ele>838.0</ele>
        <time>2015-05-23T13:31:14Z</time>
      </trkpt>
      <trkpt lat="40.173600" lon="-5.107417">
        <ele>830.0</ele>
        <time>2015-05-23T13:31:16Z</time>
      </trkpt>
      <trkpt lat="40.173417" lon="-5.107417">
        <ele>826.0</ele>
        <time>2015-05-23T13:31:18Z</time>
      </trkpt>
      <trkpt lat="40.173250" lon="-5.107433">
        <ele>821.0</ele>
        <time>2015-05-23T13:31:20Z</time>
      </trkpt>
      <trkpt lat="40.173033" lon="-5.107433">
        <ele>814.0</ele>
        <time>2015-05-23T13:31:22Z</time>
      </trkpt>
      <trkpt lat="40.172850" lon="-5.107417">
        <ele>812.0</ele>
        <time>2015-05-23T13:31:24Z</time>
      </trkpt>
      <trkpt lat="40.172667" lon="-5.107417">
        <ele>809.0</ele>
        <time>2015-05-23T13:31:26Z</time>
      </trkpt>
      <trkpt lat="40.172500" lon="-5.107433">
        <ele>806.0</ele>
        <time>2015-05-23T13:31:28Z</time>
      </trkpt>
      <trkpt lat="40.172350" lon="-5.107467">
        <ele>803.0</ele>
        <time>2015-05-23T13:31:30Z</time>
      </trkpt>
      <trkpt lat="40.172200" lon="-5.107533">
        <ele>799.0</ele>
        <time>2015-05-23T13:31:32Z</time>
      </trkpt>
      <trkpt lat="40.172017" lon="-5.107567">
        <ele>792.0</ele>
        <time>2015-05-23T13:31:34Z</time>
      </trkpt>
      <trkpt lat="40.171833" lon="-5.107567">
        <ele>787.0</ele>
        <time>2015-05-23T13:31:36Z</time>
      </trkpt>
      <trkpt lat="40.171683" lon="-5.107533">
        <ele>785.0</ele>
        <time>2015-05-23T13:31:38Z</time>
      </trkpt>
      <trkpt lat="40.171533" lon="-5.107517">
        <ele>781.0</ele>
        <time>2015-05-23T13:31:40Z</time>
      </trkpt>
      <trkpt lat="40.171367" lon="-5.107517">
        <ele>776.0</ele>
        <time>2015-05-23T13:31:42Z</time>
      </trkpt>
      <trkpt lat="40.171200" lon="-5.107517">
        <ele>774.0</ele>
        <time>2015-05-23T13:31:44Z</time>
      </trkpt>
      <trkpt lat="40.171050" lon="-5.107533">
        <ele>773.0</ele>
        <time>2015-05-23T13:31:46Z</time>
      </trkpt>
      <trkpt lat="40.170883" lon="-5.107550">
        <ele>771.0</ele>
        <time>2015-05-23T13:31:48Z</time>
      </trkpt>
      <trkpt lat="40.170717" lon="-5.107583">
        <ele>769.0</ele>
        <time>2015-05-23T13:31:50Z</time>
      </trkpt>
      <trkpt lat="40.170567" lon="-5.107583">
        <ele>768.0</ele>
        <time>2015-05-23T13:31:52Z</time>
      </trkpt>
      <trkpt lat="40.170450" lon="-5.107567">
        <ele>765.0</ele>
        <time>2015-05-23T13:31:54Z</time>
      </trkpt>
      <trkpt lat="40.170283" lon="-5.107533">
        <ele>760.0</ele>
        <time>2015-05-23T13:31:56Z</time>
      </trkpt>
      <trkpt lat="40.170150" lon="-5.107517">
        <ele>757.0</ele>
        <time>2015-05-23T13:31:58Z</time>
      </trkpt>
      <trkpt lat="40.170033" lon="-5.107533">
        <ele>756.0</ele>
        <time>2015-05-23T13:32:00Z</time>
      </trkpt>
      <trkpt lat="40.169900" lon="-5.107583">
        <ele>753.0</ele>
        <time>2015-05-23T13:32:02Z</time>
      </trkpt>
      <trkpt lat="40.169733" lon="-5.107650">
        <ele>749.0</ele>
        <time>2015-05-23T13:32:04Z</time>
      </trkpt>
      <trkpt lat="40.169583" lon="-5.107700">
        <ele>749.0</ele>
        <time>2015-05-23T13:32:06Z</time>
      </trkpt>
      <trkpt lat="40.169450" lon="-5.107750">
        <ele>750.0</ele>
        <time>2015-05-23T13:32:08Z</time>
      </trkpt>
      <trkpt lat="40.169333" lon="-5.107933">
        <ele>747.0</ele>
        <time>2015-05-23T13:32:10Z</time>
      </trkpt>
      <trkpt lat="40.169183" lon="-5.108150">
        <ele>744.0</ele>
        <time>2015-05-23T13:32:12Z</time>
      </trkpt>
      <trkpt lat="40.169050" lon="-5.108333">
        <ele>744.0</ele>
        <time>2015-05-23T13:32:14Z</time>
      </trkpt>
      <trkpt lat="40.168917" lon="-5.108483">
        <ele>741.0</ele>
        <time>2015-05-23T13:32:16Z</time>
      </trkpt>
      <trkpt lat="40.168767" lon="-5.108633">
        <ele>736.0</ele>
        <time>2015-05-23T13:32:18Z</time>
      </trkpt>
      <trkpt lat="40.168600" lon="-5.108767">
        <ele>733.0</ele>
        <time>2015-05-23T13:32:20Z</time>
      </trkpt>
      <trkpt lat="40.168450" lon="-5.108900">
        <ele>731.0</ele>
        <time>2015-05-23T13:32:22Z</time>
      </trkpt>
      <trkpt lat="40.168283" lon="-5.109033">
        <ele>728.0</ele>
        <time>2015-05-23T13:32:24Z</time>
      </trkpt>
      <trkpt lat="40.168133" lon="-5.109167">
        <ele>725.0</ele>
        <time>2015-05-23T13:32:26Z</time>
      </trkpt>
      <trkpt lat="40.168000" lon="-5.109283">
        <ele>723.0</ele>
        <time>2015-05-23T13:32:28Z</time>
      </trkpt>
      <trkpt lat="40.167883" lon="-5.109450">
        <ele>719.0</ele>
        <time>2015-05-23T13:32:30Z</time>
      </trkpt>
      <trkpt lat="40.167750" lon="-5.109633">
        <ele>714.0</ele>
        <time>2015-05-23T13:32:32Z</time>
      </trkpt>
      <trkpt lat="40.167650" lon="-5.109833">
        <ele>711.0</ele>
        <time>2015-05-23T13:32:34Z</time>
      </trkpt>
      <trkpt lat="40.167567" lon="-5.110033">
        <ele>708.0</ele>
        <time>2015-05-23T13:32:36Z</time>
      </trkpt>
      <trkpt lat="40.167433" lon="-5.110217">
        <ele>703.0</ele>
        <time>2015-05-23T13:32:38Z</time>
      </trkpt>
      <trkpt lat="40.167300" lon="-5.110383">
        <ele>699.0</ele>
        <time>2015-05-23T13:32:40Z</time>
      </trkpt>
      <trkpt lat="40.167167" lon="-5.110550">
        <ele>696.0</ele>
        <time>2015-05-23T13:32:42Z</time>
      </trkpt>
      <trkpt lat="40.167033" lon="-5.110700">
        <ele>693.0</ele>
        <time>2015-05-23T13:32:44Z</time>
      </trkpt>
      <trkpt lat="40.166917" lon="-5.110900">
        <ele>692.0</ele>
        <time>2015-05-23T13:32:46Z</time>
      </trkpt>
      <trkpt lat="40.166850" lon="-5.111117">
        <ele>692.0</ele>
        <time>2015-05-23T13:32:48Z</time>
      </trkpt>
      <trkpt lat="40.166800" lon="-5.111367">
        <ele>688.0</ele>
        <time>2015-05-23T13:32:50Z</time>
      </trkpt>
      <trkpt lat="40.166733" lon="-5.111667">
        <ele>685.0</ele>
        <time>2015-05-23T13:32:52Z</time>
      </trkpt>
      <trkpt lat="40.166733" lon="-5.111900">
        <ele>686.0</ele>
        <time>2015-05-23T13:32:54Z</time>
      </trkpt>
      <trkpt lat="40.166783" lon="-5.112167">
        <ele>683.0</ele>
        <time>2015-05-23T13:32:56Z</time>
      </trkpt>
      <trkpt lat="40.166833" lon="-5.112450">
        <ele>680.0</ele>
        <time>2015-05-23T13:32:58Z</time>
      </trkpt>
      <trkpt lat="40.166783" lon="-5.112700">
        <ele>679.0</ele>
        <time>2015-05-23T13:33:00Z</time>
      </trkpt>
      <trkpt lat="40.166683" lon="-5.112983">
        <ele>677.0</ele>
        <time>2015-05-23T13:33:02Z</time>
      </trkpt>
      <trkpt lat="40.166533" lon="-5.113150">
        <ele>676.0</ele>
        <time>2015-05-23T13:33:04Z</time>
      </trkpt>
      <trkpt lat="40.166350" lon="-5.113217">
        <ele>675.0</ele>
        <time>2015-05-23T13:33:06Z</time>
      </trkpt>
      <trkpt lat="40.166200" lon="-5.113250">
        <ele>676.0</ele>
        <time>2015-05-23T13:33:08Z</time>
      </trkpt>
      <trkpt lat="40.166083" lon="-5.113150">
        <ele>675.0</ele>
        <time>2015-05-23T13:33:10Z</time>
      </trkpt>
      <trkpt lat="40.166050" lon="-5.112967">
        <ele>672.0</ele>
        <time>2015-05-23T13:33:12Z</time>
      </trkpt>
      <trkpt lat="40.166117" lon="-5.112833">
        <ele>674.0</ele>
        <time>2015-05-23T13:33:14Z</time>
      </trkpt>
      <trkpt lat="40.166200" lon="-5.112733">
        <ele>676.0</ele>
        <time>2015-05-23T13:33:16Z</time>
      </trkpt>
      <trkpt lat="40.166333" lon="-5.112683">
        <ele>676.0</ele>
        <time>2015-05-23T13:33:18Z</time>
      </trkpt>
      <trkpt lat="40.166483" lon="-5.112667">
        <ele>675.0</ele>
        <time>2015-05-23T13:33:20Z</time>
      </trkpt>
      <trkpt lat="40.166583" lon="-5.112617">
        <ele>677.0</ele>
        <time>2015-05-23T13:33:22Z</time>
      </trkpt>
      <trkpt lat="40.166650" lon="-5.112467">
        <ele>677.0</ele>
        <time>2015-05-23T13:33:24Z</time>
      </trkpt>
      <trkpt lat="40.166667" lon="-5.112300">
        <ele>675.0</ele>
        <time>2015-05-23T13:33:26Z</time>
      </trkpt>
      <trkpt lat="40.166583" lon="-5.112100">
        <ele>672.0</ele>
        <time>2015-05-23T13:33:28Z</time>
      </trkpt>
      <trkpt lat="40.166450" lon="-5.111983">
        <ele>672.0</ele>
        <time>2015-05-23T13:33:30Z</time>
      </trkpt>
      <trkpt lat="40.166350" lon="-5.111967">
        <ele>676.0</ele>
        <time>2015-05-23T13:33:32Z</time>
      </trkpt>
      <trkpt lat="40.166233" lon="-5.112033">
        <ele>676.0</ele>
        <time>2015-05-23T13:33:34Z</time>
      </trkpt>
      <trkpt lat="40.166117" lon="-5.112183">
        <ele>674.0</ele>
        <time>2015-05-23T13:33:36Z</time>
      </trkpt>
      <trkpt lat="40.166033" lon="-5.112400">
        <ele>674.0</ele>
        <time>2015-05-23T13:33:38Z</time>
      </trkpt>
      <trkpt lat="40.166000" lon="-5.112650">
        <ele>675.0</ele>
        <time>2015-05-23T13:33:40Z</time>
      </trkpt>
      <trkpt lat="40.166067" lon="-5.112883">
        <ele>678.0</ele>
        <time>2015-05-23T13:33:42Z</time>
      </trkpt>
      <trkpt lat="40.166183" lon="-5.113067">
        <ele>679.0</ele>
        <time>2015-05-23T13:33:44Z</time>
      </trkpt>
      <trkpt lat="40.166350" lon="-5.113167">
        <ele>678.0</ele>
        <time>2015-05-23T13:33:46Z</time>
      </trkpt>
      <trkpt lat="40.166517" lon="-5.113167">
        <ele>678.0</ele>
        <time>2015-05-23T13:33:48Z</time>
      </trkpt>
      <trkpt lat="40.166617" lon="-5.113017">
        <ele>678.0</ele>
        <time>2015-05-23T13:33:50Z</time>
      </trkpt>
      <trkpt lat="40.166667" lon="-5.112850">
        <ele>678.0</ele>
        <time>2015-05-23T13:33:52Z</time>
      </trkpt>
      <trkpt lat="40.166650" lon="-5.112717">
        <ele>679.0</ele>
        <time>2015-05-23T13:33:54Z</time>
      </trkpt>
      <trkpt lat="40.166583" lon="-5.112533">
        <ele>677.0</ele>
        <time>2015-05-23T13:33:56Z</time>
      </trkpt>
      <trkpt lat="40.166467" lon="-5.112383">
        <ele>676.0</ele>
        <time>2015-05-23T13:33:58Z</time>
      </trkpt>
      <trkpt lat="40.166333" lon="-5.112300">
        <ele>676.0</ele>
        <time>2015-05-23T13:34:00Z</time>
      </trkpt>
      <trkpt lat="40.166150" lon="-5.112283">
        <ele>674.0</ele>
        <time>2015-05-23T13:34:02Z</time>
      </trkpt>
      <trkpt lat="40.165967" lon="-5.112317">
        <ele>677.0</ele>
        <time>2015-05-23T13:34:04Z</time>
      </trkpt>
      <trkpt lat="40.165833" lon="-5.112383">
        <ele>684.0</ele>
        <time>2015-05-23T13:34:06Z</time>
      </trkpt>
      <trkpt lat="40.165733" lon="-5.112533">
        <ele>688.0</ele>
        <time>2015-05-23T13:34:08Z</time>
      </trkpt>
      <trkpt lat="40.165717" lon="-5.112800">
        <ele>690.0</ele>
        <time>2015-05-23T13:34:10Z</time>
      </trkpt>
      <trkpt lat="40.165883" lon="-5.113017">
        <ele>689.0</ele>
        <time>2015-05-23T13:34:12Z</time>
      </trkpt>
      <trkpt lat="40.166050" lon="-5.113117">
        <ele>693.0</ele>
        <time>2015-05-23T13:34:14Z</time>
      </trkpt>
      <trkpt lat="40.166200" lon="-5.113133">
        <ele>698.0</ele>
        <time>2015-05-23T13:34:16Z</time>
      </trkpt>
      <trkpt lat="40.166300" lon="-5.113050">
        <ele>699.0</ele>
        <time>2015-05-23T13:34:18Z</time>
      </trkpt>
      <trkpt lat="40.166367" lon="-5.112867">
        <ele>698.0</ele>
        <time>2015-05-23T13:34:20Z</time>
      </trkpt>
      <trkpt lat="40.166350" lon="-5.112650">
        <ele>699.0</ele>
        <time>2015-05-23T13:34:22Z</time>
      </trkpt>
      <trkpt lat="40.166250" lon="-5.112500">
        <ele>702.0</ele>
        <time>2015-05-23T13:34:24Z</time>
      </trkpt>
      <trkpt lat="40.166100" lon="-5.112400">
        <ele>704.0</ele>
        <time>2015-05-23T13:34:26Z</time>
      </trkpt>
      <trkpt lat="40.165917" lon="-5.112383">
        <ele>708.0</ele>
        <time>2015-05-23T13:34:28Z</time>
      </trkpt>
      <trkpt lat="40.165767" lon="-5.112467">
        <ele>712.0</ele>
        <time>2015-05-23T13:34:30Z</time>
      </trkpt>
      <trkpt lat="40.165667" lon="-5.112667">
        <ele>715.0</ele>
        <time>2015-05-23T13:34:32Z</time>
      </trkpt>
      <trkpt lat="40.165683" lon="-5.112900">
        <ele>716.0</ele>
        <time>2015-05-23T13:34:34Z</time>
      </trkpt>
      <trkpt lat="40.165783" lon="-5.113100">
        <ele>718.0</ele>
        <time>2015-05-23T13:34:36Z</time>
      </trkpt>
      <trkpt lat="40.165933" lon="-5.113250">
        <ele>719.0</ele>
        <time>2015-05-23T13:34:38Z</time>
      </trkpt>
      <trkpt lat="40.166100" lon="-5.113267">
        <ele>722.0</ele>
        <time>2015-05-23T13:34:40Z</time>
      </trkpt>
      <trkpt lat="40.166200" lon="-5.113117">
        <ele>724.0</ele>
        <time>2015-05-23T13:34:42Z</time>
      </trkpt>
      <trkpt lat="40.166200" lon="-5.112917">
        <ele>727.0</ele>
        <time>2015-05-23T13:34:44Z</time>
      </trkpt>
      <trkpt lat="40.166150" lon="-5.112767">
        <ele>733.0</ele>
        <time>2015-05-23T13:34:46Z</time>
      </trkpt>
      <trkpt lat="40.166033" lon="-5.112650">
        <ele>737.0</ele>
        <time>2015-05-23T13:34:48Z</time>
      </trkpt>
      <trkpt lat="40.165850" lon="-5.112600">
        <ele>737.0</ele>
        <time>2015-05-23T13:34:50Z</time>
      </trkpt>
      <trkpt lat="40.165667" lon="-5.112683">
        <ele>740.0</ele>
        <time>2015-05-23T13:34:52Z</time>
      </trkpt>
      <trkpt lat="40.165567" lon="-5.112850">
        <ele>742.0</ele>
        <time>2015-05-23T13:34:54Z</time>
      </trkpt>
      <trkpt lat="40.165517" lon="-5.113067">
        <ele>742.0</ele>
        <time>2015-05-23T13:34:56Z</time>
      </trkpt>
      <trkpt lat="40.165533" lon="-5.113333">
        <ele>741.0</ele>
        <time>2015-05-23T13:34:58Z</time>
      </trkpt>
      <trkpt lat="40.165617" lon="-5.113517">
        <ele>743.0</ele>
        <time>2015-05-23T13:35:00Z</time>
      </trkpt>
      <trkpt lat="40.165767" lon="-5.113600">
        <ele>745.0</ele>
        <time>2015-05-23T13:35:02Z</time>
      </trkpt>
      <trkpt lat="40.165917" lon="-5.113633">
        <ele>748.0</ele>
        <time>2015-05-23T13:35:04Z</time>
      </trkpt>
      <trkpt lat="40.166033" lon="-5.113583">
        <ele>752.0</ele>
        <time>2015-05-23T13:35:06Z</time>
      </trkpt>
      <trkpt lat="40.166117" lon="-5.113450">
        <ele>753.0</ele>
        <time>2015-05-23T13:35:08Z</time>
      </trkpt>
      <trkpt lat="40.166183" lon="-5.113250">
        <ele>756.0</ele>
        <time>2015-05-23T13:35:10Z</time>
      </trkpt>
      <trkpt lat="40.166150" lon="-5.113100">
        <ele>760.0</ele>
        <time>2015-05-23T13:35:12Z</time>
      </trkpt>
      <trkpt lat="40.166033" lon="-5.112967">
        <ele>761.0</ele>
        <time>2015-05-23T13:35:14Z</time>
      </trkpt>
      <trkpt lat="40.165883" lon="-5.112883">
        <ele>762.0</ele>
        <time>2015-05-23T13:35:16Z</time>
      </trkpt>
      <trkpt lat="40.165700" lon="-5.112883">
        <ele>762.0</ele>
        <time>2015-05-23T13:35:18Z</time>
      </trkpt>
      <trkpt lat="40.165567" lon="-5.113050">
        <ele>763.0</ele>
        <time>2015-05-23T13:35:20Z</time>
      </trkpt>
      <trkpt lat="40.165483" lon="-5.113267">
        <ele>763.0</ele>
        <time>2015-05-23T13:35:22Z</time>
      </trkpt>
      <trkpt lat="40.165483" lon="-5.113500">
        <ele>764.0</ele>
        <time>2015-05-23T13:35:24Z</time>
      </trkpt>
      <trkpt lat="40.165550" lon="-5.113733">
        <ele>761.0</ele>
        <time>2015-05-23T13:35:26Z</time>
      </trkpt>
      <trkpt lat="40.165650" lon="-5.113950">
        <ele>762.0</ele>
        <time>2015-05-23T13:35:28Z</time>
      </trkpt>
      <trkpt lat="40.165767" lon="-5.114100">
        <ele>765.0</ele>
        <time>2015-05-23T13:35:30Z</time>
      </trkpt>
      <trkpt lat="40.165917" lon="-5.114200">
        <ele>770.0</ele>
        <time>2015-05-23T13:35:32Z</time>
      </trkpt>
      <trkpt lat="40.166017" lon="-5.114250">
        <ele>774.0</ele>
        <time>2015-05-23T13:35:34Z</time>
      </trkpt>
      <trkpt lat="40.166150" lon="-5.114200">
        <ele>774.0</ele>
        <time>2015-05-23T13:35:36Z</time>
      </trkpt>
      <trkpt lat="40.166250" lon="-5.114050">
        <ele>773.0</ele>
        <time>2015-05-23T13:35:38Z</time>
      </trkpt>
      <trkpt lat="40.166283" lon="-5.113883">
        <ele>775.0</ele>
        <time>2015-05-23T13:35:40Z</time>
      </trkpt>
      <trkpt lat="40.166250" lon="-5.113750">
        <ele>775.0</ele>
        <time>2015-05-23T13:35:42Z</time>
      </trkpt>
      <trkpt lat="40.166167" lon="-5.113600">
        <ele>773.0</ele>
        <time>2015-05-23T13:35:44Z</time>
      </trkpt>
      <trkpt lat="40.166017" lon="-5.113500">
        <ele>772.0</ele>
        <time>2015-05-23T13:35:46Z</time>
      </trkpt>
      <trkpt lat="40.165817" lon="-5.113483">
        <ele>773.0</ele>
        <time>2015-05-23T13:35:48Z</time>
      </trkpt>
      <trkpt lat="40.165667" lon="-5.113533">
        <ele>776.0</ele>
        <time>2015-05-23T13:35:50Z</time>
      </trkpt>
      <trkpt lat="40.165533" lon="-5.113683">
        <ele>777.0</ele>
        <time>2015-05-23T13:35:52Z</time>
      </trkpt>
      <trkpt lat="40.165433" lon="-5.113917">
        <ele>777.0</ele>
        <time>2015-05-23T13:35:54Z</time>
      </trkpt>
      <trkpt lat="40.165417" lon="-5.114167">
        <ele>777.0</ele>
        <time>2015-05-23T13:35:56Z</time>
      </trkpt>
      <trkpt lat="40.165467" lon="-5.114400">
        <ele>777.0</ele>
        <time>2015-05-23T13:35:58Z</time>
      </trkpt>
      <trkpt lat="40.165550" lon="-5.114600">
        <ele>778.0</ele>
        <time>2015-05-23T13:36:00Z</time>
      </trkpt>
      <trkpt lat="40.165667" lon="-5.114750">
        <ele>781.0</ele>
        <time>2015-05-23T13:36:02Z</time>
      </trkpt>
      <trkpt lat="40.165783" lon="-5.114817">
        <ele>785.0</ele>
        <time>2015-05-23T13:36:04Z</time>
      </trkpt>
      <trkpt lat="40.165883" lon="-5.114800">
        <ele>788.0</ele>
        <time>2015-05-23T13:36:06Z</time>
      </trkpt>
      <trkpt lat="40.165983" lon="-5.114717">
        <ele>789.0</ele>
        <time>2015-05-23T13:36:08Z</time>
      </trkpt>
      <trkpt lat="40.166017" lon="-5.114550">
        <ele>788.0</ele>
        <time>2015-05-23T13:36:10Z</time>
      </trkpt>
      <trkpt lat="40.165967" lon="-5.114383">
        <ele>788.0</ele>
        <time>2015-05-23T13:36:12Z</time>
      </trkpt>
      <trkpt lat="40.165867" lon="-5.114233">
        <ele>790.0</ele>
        <time>2015-05-23T13:36:14Z</time>
      </trkpt>
      <trkpt lat="40.165733" lon="-5.114117">
        <ele>790.0</ele>
        <time>2015-05-23T13:36:16Z</time>
      </trkpt>
      <trkpt lat="40.165533" lon="-5.114033">
        <ele>790.0</ele>
        <time>2015-05-23T13:36:18Z</time>
      </trkpt>
      <trkpt lat="40.165333" lon="-5.114083">
        <ele>791.0</ele>
        <time>2015-05-23T13:36:20Z</time>
      </trkpt>
      <trkpt lat="40.165167" lon="-5.114233">
        <ele>792.0</ele>
        <time>2015-05-23T13:36:22Z</time>
      </trkpt>
      <trkpt lat="40.165050" lon="-5.114467">
        <ele>793.0</ele>
        <time>2015-05-23T13:36:24Z</time>
      </trkpt>
      <trkpt lat="40.165017" lon="-5.114733">
        <ele>792.0</ele>
        <time>2015-05-23T13:36:26Z</time>
      </trkpt>
      <trkpt lat="40.165033" lon="-5.114983">
        <ele>791.0</ele>
        <time>2015-05-23T13:36:28Z</time>
      </trkpt>
      <trkpt lat="40.165117" lon="-5.115200">
        <ele>790.0</ele>
        <time>2015-05-23T13:36:30Z</time>
      </trkpt>
      <trkpt lat="40.165267" lon="-5.115350">
        <ele>787.0</ele>
        <time>2015-05-23T13:36:32Z</time>
      </trkpt>
      <trkpt lat="40.165433" lon="-5.115383">
        <ele>787.0</ele>
        <time>2015-05-23T13:36:34Z</time>
      </trkpt>
      <trkpt lat="40.165583" lon="-5.115317">
        <ele>791.0</ele>
        <time>2015-05-23T13:36:36Z</time>
      </trkpt>
      <trkpt lat="40.165717" lon="-5.115217">
        <ele>794.0</ele>
        <time>2015-05-23T13:36:38Z</time>
      </trkpt>
      <trkpt lat="40.165850" lon="-5.115117">
        <ele>798.0</ele>
        <time>2015-05-23T13:36:40Z</time>
      </trkpt>
      <trkpt lat="40.165933" lon="-5.114983">
        <ele>803.0</ele>
        <time>2015-05-23T13:36:42Z</time>
      </trkpt>
      <trkpt lat="40.166000" lon="-5.114850">
        <ele>803.0</ele>
        <time>2015-05-23T13:36:44Z</time>
      </trkpt>
      <trkpt lat="40.166000" lon="-5.114667">
        <ele>802.0</ele>
        <time>2015-05-23T13:36:46Z</time>
      </trkpt>
      <trkpt lat="40.165933" lon="-5.114467">
        <ele>799.0</ele>
        <time>2015-05-23T13:36:48Z</time>
      </trkpt>
      <trkpt lat="40.165783" lon="-5.114317">
        <ele>796.0</ele>
        <time>2015-05-23T13:36:50Z</time>
      </trkpt>
      <trkpt lat="40.165567" lon="-5.114200">
        <ele>795.0</ele>
        <time>2015-05-23T13:36:52Z</time>
      </trkpt>
      <trkpt lat="40.165350" lon="-5.114200">
        <ele>797.0</ele>
        <time>2015-05-23T13:36:54Z</time>
      </trkpt>
      <trkpt lat="40.165167" lon="-5.114250">
        <ele>801.0</ele>
        <time>2015-05-23T13:36:56Z</time>
      </trkpt>
      <trkpt lat="40.164983" lon="-5.114317">
        <ele>800.0</ele>
        <time>2015-05-23T13:36:58Z</time>
      </trkpt>
      <trkpt lat="40.164800" lon="-5.114517">
        <ele>799.0</ele>
        <time>2015-05-23T13:37:00Z</time>
      </trkpt>
      <trkpt lat="40.164700" lon="-5.114783">
        <ele>800.0</ele>
        <time>2015-05-23T13:37:02Z</time>
      </trkpt>
      <trkpt lat="40.164667" lon="-5.115000">
        <ele>802.0</ele>
        <time>2015-05-23T13:37:04Z</time>
      </trkpt>
      <trkpt lat="40.164683" lon="-5.115267">
        <ele>799.0</ele>
        <time>2015-05-23T13:37:06Z</time>
      </trkpt>
      <trkpt lat="40.164783" lon="-5.115500">
        <ele>796.0</ele>
        <time>2015-05-23T13:37:08Z</time>
      </trkpt>
      <trkpt lat="40.164917" lon="-5.115650">
        <ele>794.0</ele>
        <time>2015-05-23T13:37:10Z</time>
      </trkpt>
      <trkpt lat="40.165083" lon="-5.115683">
        <ele>794.0</ele>
        <time>2015-05-23T13:37:12Z</time>
      </trkpt>
      <trkpt lat="40.165233" lon="-5.115650">
        <ele>796.0</ele>
        <time>2015-05-23T13:37:14Z</time>
      </trkpt>
      <trkpt lat="40.165383" lon="-5.115583">
        <ele>799.0</ele>
        <time>2015-05-23T13:37:16Z</time>
      </trkpt>
      <trkpt lat="40.165517" lon="-5.115450">
        <ele>803.0</ele>
        <time>2015-05-23T13:37:18Z</time>
      </trkpt>
      <trkpt lat="40.165633" lon="-5.115300">
        <ele>808.0</ele>
        <time>2015-05-23T13:37:20Z</time>
      </trkpt>
      <trkpt lat="40.165683" lon="-5.115150">
        <ele>814.0</ele>
        <time>2015-05-23T13:37:22Z</time>
      </trkpt>
      <trkpt lat="40.165683" lon="-5.114983">
        <ele>816.0</ele>
        <time>2015-05-23T13:37:24Z</time>
      </trkpt>
      <trkpt lat="40.165617" lon="-5.114767">
        <ele>813.0</ele>
        <time>2015-05-23T13:37:26Z</time>
      </trkpt>
      <trkpt lat="40.165450" lon="-5.114633">
        <ele>812.0</ele>
        <time>2015-05-23T13:37:28Z</time>
      </trkpt>
      <trkpt lat="40.165267" lon="-5.114650">
        <ele>815.0</ele>
        <time>2015-05-23T13:37:30Z</time>
      </trkpt>
      <trkpt lat="40.165117" lon="-5.114733">
        <ele>817.0</ele>
        <time>2015-05-23T13:37:32Z</time>
      </trkpt>
      <trkpt lat="40.164933" lon="-5.114883">
        <ele>815.0</ele>
        <time>2015-05-23T13:37:34Z</time>
      </trkpt>
      <trkpt lat="40.164833" lon="-5.115133">
        <ele>813.0</ele>
        <time>2015-05-23T13:37:36Z</time>
      </trkpt>
      <trkpt lat="40.164783" lon="-5.115400">
        <ele>813.0</ele>
        <time>2015-05-23T13:37:38Z</time>
      </trkpt>
      <trkpt lat="40.164800" lon="-5.115650">
        <ele>813.0</ele>
        <time>2015-05-23T13:37:40Z</time>
      </trkpt>
      <trkpt lat="40.164933" lon="-5.115817">
        <ele>813.0</ele>
        <time>2015-05-23T13:37:42Z</time>
      </trkpt>
      <trkpt lat="40.165083" lon="-5.115900">
        <ele>817.0</ele>
        <time>2015-05-23T13:37:44Z</time>
      </trkpt>
      <trkpt lat="40.165200" lon="-5.115917">
        <ele>820.0</ele>
        <time>2015-05-23T13:37:46Z</time>
      </trkpt>
      <trkpt lat="40.165367" lon="-5.115833">
        <ele>819.0</ele>
        <time>2015-05-23T13:37:48Z</time>
      </trkpt>
      <trkpt lat="40.165483" lon="-5.115667">
        <ele>822.0</ele>
        <time>2015-05-23T13:37:50Z</time>
      </trkpt>
      <trkpt lat="40.165550" lon="-5.115583">
        <ele>831.0</ele>
        <time>2015-05-23T13:37:52Z</time>
      </trkpt>
      <trkpt lat="40.165617" lon="-5.115467">
        <ele>833.0</ele>
        <time>2015-05-23T13:37:54Z</time>
      </trkpt>
      <trkpt lat="40.165617" lon="-5.115267">
        <ele>832.0</ele>
        <time>2015-05-23T13:37:56Z</time>
      </trkpt>
      <trkpt lat="40.165550" lon="-5.115117">
        <ele>834.0</ele>
        <time>2015-05-23T13:37:58Z</time>
      </trkpt>
      <trkpt lat="40.165450" lon="-5.115000">
        <ele>835.0</ele>
        <time>2015-05-23T13:38:00Z</time>
      </trkpt>
      <trkpt lat="40.165283" lon="-5.114917">
        <ele>835.0</ele>
        <time>2015-05-23T13:38:02Z</time>
      </trkpt>
      <trkpt lat="40.165083" lon="-5.114950">
        <ele>834.0</ele>
        <time>2015-05-23T13:38:04Z</time>
      </trkpt>
      <trkpt lat="40.164917" lon="-5.115083">
        <ele>836.0</ele>
        <time>2015-05-23T13:38:06Z</time>
      </trkpt>
      <trkpt lat="40.164800" lon="-5.115250">
        <ele>838.0</ele>
        <time>2015-05-23T13:38:08Z</time>
      </trkpt>
      <trkpt lat="40.164733" lon="-5.115517">
        <ele>838.0</ele>
        <time>2015-05-23T13:38:10Z</time>
      </trkpt>
      <trkpt lat="40.164717" lon="-5.115817">
        <ele>838.0</ele>
        <time>2015-05-23T13:38:12Z</time>
      </trkpt>
      <trkpt lat="40.164783" lon="-5.116067">
        <ele>843.0</ele>
        <time>2015-05-23T13:38:14Z</time>
      </trkpt>
      <trkpt lat="40.164867" lon="-5.116250">
        <ele>847.0</ele>
        <time>2015-05-23T13:38:16Z</time>
      </trkpt>
      <trkpt lat="40.164983" lon="-5.116350">
        <ele>851.0</ele>
        <time>2015-05-23T13:38:18Z</time>
      </trkpt>
      <trkpt lat="40.165117" lon="-5.116383">
        <ele>854.0</ele>
        <time>2015-05-23T13:38:20Z</time>
      </trkpt>
      <trkpt lat="40.165250" lon="-5.116333">
        <ele>857.0</ele>
        <time>2015-05-23T13:38:22Z</time>
      </trkpt>
      <trkpt lat="40.165333" lon="-5.116217">
        <ele>860.0</ele>
        <time>2015-05-23T13:38:24Z</time>
      </trkpt>
      <trkpt lat="40.165400" lon="-5.116017">
        <ele>862.0</ele>
        <time>2015-05-23T13:38:26Z</time>
      </trkpt>
      <trkpt lat="40.165417" lon="-5.115833">
        <ele>866.0</ele>
        <time>2015-05-23T13:38:28Z</time>
      </trkpt>
      <trkpt lat="40.165383" lon="-5.115667">
        <ele>870.0</ele>
        <time>2015-05-23T13:38:30Z</time>
      </trkpt>
      <trkpt lat="40.165283" lon="-5.115500">
        <ele>870.0</ele>
        <time>2015-05-23T13:38:32Z</time>
      </trkpt>
      <trkpt lat="40.165133" lon="-5.115383">
        <ele>872.0</ele>
        <time>2015-05-23T13:38:34Z</time>
      </trkpt>
      <trkpt lat="40.164967" lon="-5.115350">
        <ele>873.0</ele>
        <time>2015-05-23T13:38:36Z</time>
      </trkpt>
      <trkpt lat="40.164783" lon="-5.115417">
        <ele>872.0</ele>
        <time>2015-05-23T13:38:38Z</time>
      </trkpt>
      <trkpt lat="40.164617" lon="-5.115600">
        <ele>871.0</ele>
        <time>2015-05-23T13:38:40Z</time>
      </trkpt>
      <trkpt lat="40.164550" lon="-5.115833">
        <ele>871.0</ele>
        <time>2015-05-23T13:38:42Z</time>
      </trkpt>
      <trkpt lat="40.164517" lon="-5.116100">
        <ele>872.0</ele>
        <time>2015-05-23T13:38:44Z</time>
      </trkpt>
      <trkpt lat="40.164550" lon="-5.116350">
        <ele>874.0</ele>
        <time>2015-05-23T13:38:46Z</time>
      </trkpt>
      <trkpt lat="40.164633" lon="-5.116533">
        <ele>877.0</ele>
        <time>2015-05-23T13:38:48Z</time>
      </trkpt>
      <trkpt lat="40.164800" lon="-5.116600">
        <ele>880.0</ele>
        <time>2015-05-23T13:38:50Z</time>
      </trkpt>
      <trkpt lat="40.164933" lon="-5.116533">
        <ele>884.0</ele>
        <time>2015-05-23T13:38:52Z</time>
      </trkpt>
      <trkpt lat="40.165067" lon="-5.116450">
        <ele>887.0</ele>
        <time>2015-05-23T13:38:54Z</time>
      </trkpt>
      <trkpt lat="40.165167" lon="-5.116350">
        <ele>892.0</ele>
        <time>2015-05-23T13:38:56Z</time>
      </trkpt>
      <trkpt lat="40.165200" lon="-5.116217">
        <ele>897.0</ele>
        <time>2015-05-23T13:38:58Z</time>
      </trkpt>
      <trkpt lat="40.165150" lon="-5.116000">
        <ele>898.0</ele>
        <time>2015-05-23T13:39:00Z</time>
      </trkpt>
      <trkpt lat="40.165050" lon="-5.115850">
        <ele>899.0</ele>
        <time>2015-05-23T13:39:02Z</time>
      </trkpt>
      <trkpt lat="40.164933" lon="-5.115750">
        <ele>900.0</ele>
        <time>2015-05-23T13:39:04Z</time>
      </trkpt>
      <trkpt lat="40.164733" lon="-5.115733">
        <ele>897.0</ele>
        <time>2015-05-23T13:39:06Z</time>
      </trkpt>
      <trkpt lat="40.164533" lon="-5.115867">
        <ele>895.0</ele>
        <time>2015-05-23T13:39:08Z</time>
      </trkpt>
      <trkpt lat="40.164417" lon="-5.116117">
        <ele>894.0</ele>
        <time>2015-05-23T13:39:10Z</time>
      </trkpt>
      <trkpt lat="40.164400" lon="-5.116383">
        <ele>895.0</ele>
        <time>2015-05-23T13:39:12Z</time>
      </trkpt>
      <trkpt lat="40.164400" lon="-5.116617">
        <ele>897.0</ele>
        <time>2015-05-23T13:39:14Z</time>
      </trkpt>
      <trkpt lat="40.164450" lon="-5.116833">
        <ele>900.0</ele>
        <time>2015-05-23T13:39:16Z</time>
      </trkpt>
      <trkpt lat="40.164517" lon="-5.116983">
        <ele>903.0</ele>
        <time>2015-05-23T13:39:18Z</time>
      </trkpt>
      <trkpt lat="40.164633" lon="-5.117050">
        <ele>906.0</ele>
        <time>2015-05-23T13:39:20Z</time>
      </trkpt>
      <trkpt lat="40.164767" lon="-5.117100">
        <ele>910.0</ele>
        <time>2015-05-23T13:39:22Z</time>
      </trkpt>
      <trkpt lat="40.164883" lon="-5.117100">
        <ele>914.0</ele>
        <time>2015-05-23T13:39:24Z</time>
      </trkpt>
      <trkpt lat="40.165000" lon="-5.117017">
        <ele>918.0</ele>
        <time>2015-05-23T13:39:26Z</time>
      </trkpt>
      <trkpt lat="40.165050" lon="-5.116933">
        <ele>922.0</ele>
        <time>2015-05-23T13:39:28Z</time>
      </trkpt>
      <trkpt lat="40.165050" lon="-5.116850">
        <ele>923.0</ele>
        <time>2015-05-23T13:39:30Z</time>
      </trkpt>
      <trkpt lat="40.165017" lon="-5.116683">
        <ele>921.0</ele>
        <time>2015-05-23T13:39:32Z</time>
      </trkpt>
      <trkpt lat="40.164900" lon="-5.116550">
        <ele>921.0</ele>
        <time>2015-05-23T13:39:34Z</time>
      </trkpt>
      <trkpt lat="40.164717" lon="-5.116500">
        <ele>921.0</ele>
        <time>2015-05-23T13:39:36Z</time>
      </trkpt>
      <trkpt lat="40.164550" lon="-5.116483">
        <ele>922.0</ele>
        <time>2015-05-23T13:39:38Z</time>
      </trkpt>
      <trkpt lat="40.164367" lon="-5.116583">
        <ele>921.0</ele>
        <time>2015-05-23T13:39:40Z</time>
      </trkpt>
      <trkpt lat="40.164200" lon="-5.116783">
        <ele>919.0</ele>
        <time>2015-05-23T13:39:42Z</time>
      </trkpt>
      <trkpt lat="40.164100" lon="-5.117033">
        <ele>919.0</ele>
        <time>2015-05-23T13:39:44Z</time>
      </trkpt>
      <trkpt lat="40.164033" lon="-5.117283">
        <ele>921.0</ele>
        <time>2015-05-23T13:39:46Z</time>
      </trkpt>
      <trkpt lat="40.164000" lon="-5.117567">
        <ele>921.0</ele>
        <time>2015-05-23T13:39:48Z</time>
      </trkpt>
      <trkpt lat="40.164033" lon="-5.117850">
        <ele>922.0</ele>
        <time>2015-05-23T13:39:50Z</time>
      </trkpt>
      <trkpt lat="40.164083" lon="-5.118083">
        <ele>925.0</ele>
        <time>2015-05-23T13:39:52Z</time>
      </trkpt>
      <trkpt lat="40.164200" lon="-5.118233">
        <ele>929.0</ele>
        <time>2015-05-23T13:39:54Z</time>
      </trkpt>
      <trkpt lat="40.164333" lon="-5.118300">
        <ele>930.0</ele>
        <time>2015-05-23T13:39:56Z</time>
      </trkpt>
      <trkpt lat="40.164483" lon="-5.118233">
        <ele>931.0</ele>
        <time>2015-05-23T13:39:58Z</time>
      </trkpt>
      <trkpt lat="40.164583" lon="-5.118100">
        <ele>934.0</ele>
        <time>2015-05-23T13:40:00Z</time>
      </trkpt>
      <trkpt lat="40.164633" lon="-5.117933">
        <ele>939.0</ele>
        <time>2015-05-23T13:40:02Z</time>
      </trkpt>
      <trkpt lat="40.164600" lon="-5.117733">
        <ele>941.0</ele>
        <time>2015-05-23T13:40:04Z</time>
      </trkpt>
      <trkpt lat="40.164483" lon="-5.117583">
        <ele>943.0</ele>
        <time>2015-05-23T13:40:06Z</time>
      </trkpt>
      <trkpt lat="40.164317" lon="-5.117517">
        <ele>946.0</ele>
        <time>2015-05-23T13:40:08Z</time>
      </trkpt>
      <trkpt lat="40.164150" lon="-5.117517">
        <ele>948.0</ele>
        <time>2015-05-23T13:40:10Z</time>
      </trkpt>
      <trkpt lat="40.163967" lon="-5.117650">
        <ele>946.0</ele>
        <time>2015-05-23T13:40:12Z</time>
      </trkpt>
      <trkpt lat="40.163833" lon="-5.117883">
        <ele>945.0</ele>
        <time>2015-05-23T13:40:14Z</time>
      </trkpt>
      <trkpt lat="40.163783" lon="-5.118150">
        <ele>948.0</ele>
        <time>2015-05-23T13:40:16Z</time>
      </trkpt>
      <trkpt lat="40.163783" lon="-5.118417">
        <ele>949.0</ele>
        <time>2015-05-23T13:40:18Z</time>
      </trkpt>
      <trkpt lat="40.163850" lon="-5.118650">
        <ele>953.0</ele>
        <time>2015-05-23T13:40:20Z</time>
      </trkpt>
      <trkpt lat="40.163950" lon="-5.118783">
        <ele>957.0</ele>
        <time>2015-05-23T13:40:22Z</time>
      </trkpt>
      <trkpt lat="40.164083" lon="-5.118817">
        <ele>959.0</ele>
        <time>2015-05-23T13:40:24Z</time>
      </trkpt>
      <trkpt lat="40.164233" lon="-5.118733">
        <ele>961.0</ele>
        <time>2015-05-23T13:40:26Z</time>
      </trkpt>
      <trkpt lat="40.164317" lon="-5.118600">
        <ele>966.0</ele>
        <time>2015-05-23T13:40:28Z</time>
      </trkpt>
      <trkpt lat="40.164317" lon="-5.118467">
        <ele>971.0</ele>
        <time>2015-05-23T13:40:30Z</time>
      </trkpt>
      <trkpt lat="40.164250" lon="-5.118300">
        <ele>973.0</ele>
        <time>2015-05-23T13:40:32Z</time>
      </trkpt>
      <trkpt lat="40.164117" lon="-5.118150">
        <ele>975.0</ele>
        <time>2015-05-23T13:40:34Z</time>
      </trkpt>
      <trkpt lat="40.163950" lon="-5.118117">
        <ele>978.0</ele>
        <time>2015-05-23T13:40:36Z</time>
      </trkpt>
      <trkpt lat="40.163800" lon="-5.118150">
        <ele>981.0</ele>
        <time>2015-05-23T13:40:38Z</time>
      </trkpt>
      <trkpt lat="40.163617" lon="-5.118300">
        <ele>980.0</ele>
        <time>2015-05-23T13:40:40Z</time>
      </trkpt>
      <trkpt lat="40.163483" lon="-5.118517">
        <ele>979.0</ele>
        <time>2015-05-23T13:40:42Z</time>
      </trkpt>
      <trkpt lat="40.163417" lon="-5.118767">
        <ele>982.0</ele>
        <time>2015-05-23T13:40:44Z</time>
      </trkpt>
      <trkpt lat="40.163400" lon="-5.119017">
        <ele>984.0</ele>
        <time>2015-05-23T13:40:46Z</time>
      </trkpt>
      <trkpt lat="40.163483" lon="-5.119233">
        <ele>986.0</ele>
        <time>2015-05-23T13:40:48Z</time>
      </trkpt>
      <trkpt lat="40.163633" lon="-5.119350">
        <ele>989.0</ele>
        <time>2015-05-23T13:40:50Z</time>
      </trkpt>
      <trkpt lat="40.163767" lon="-5.119333">
        <ele>993.0</ele>
        <time>2015-05-23T13:40:52Z</time>
      </trkpt>
      <trkpt lat="40.163867" lon="-5.119183">
        <ele>996.0</ele>
        <time>2015-05-23T13:40:54Z</time>
      </trkpt>
      <trkpt lat="40.163917" lon="-5.119050">
        <ele>1001.0</ele>
        <time>2015-05-23T13:40:56Z</time>
      </trkpt>
      <trkpt lat="40.163883" lon="-5.118883">
        <ele>1006.0</ele>
        <time>2015-05-23T13:40:58Z</time>
      </trkpt>
      <trkpt lat="40.163767" lon="-5.118717">
        <ele>1008.0</ele>
        <time>2015-05-23T13:41:00Z</time>
      </trkpt>
      <trkpt lat="40.163600" lon="-5.118650">
        <ele>1011.0</ele>
        <time>2015-05-23T13:41:02Z</time>
      </trkpt>
      <trkpt lat="40.163417" lon="-5.118683">
        <ele>1013.0</ele>
        <time>2015-05-23T13:41:04Z</time>
      </trkpt>
      <trkpt lat="40.163233" lon="-5.118783">
        <ele>1012.0</ele>
        <time>2015-05-23T13:41:06Z</time>
      </trkpt>
      <trkpt lat="40.163083" lon="-5.119000">
        <ele>1010.0</ele>
        <time>2015-05-23T13:41:08Z</time>
      </trkpt>
      <trkpt lat="40.163017" lon="-5.119300">
        <ele>1010.0</ele>
        <time>2015-05-23T13:41:10Z</time>
      </trkpt>
      <trkpt lat="40.163000" lon="-5.119567">
        <ele>1012.0</ele>
        <time>2015-05-23T13:41:12Z</time>
      </trkpt>
      <trkpt lat="40.163017" lon="-5.119817">
        <ele>1015.0</ele>
        <time>2015-05-23T13:41:14Z</time>
      </trkpt>
      <trkpt lat="40.163100" lon="-5.120033">
        <ele>1016.0</ele>
        <time>2015-05-23T13:41:16Z</time>
      </trkpt>
      <trkpt lat="40.163217" lon="-5.120150">
        <ele>1020.0</ele>
        <time>2015-05-23T13:41:18Z</time>
      </trkpt>
      <trkpt lat="40.163367" lon="-5.120183">
        <ele>1021.0</ele>
        <time>2015-05-23T13:41:20Z</time>
      </trkpt>
      <trkpt lat="40.163500" lon="-5.120083">
        <ele>1020.0</ele>
        <time>2015-05-23T13:41:22Z</time>
      </trkpt>
      <trkpt lat="40.163583" lon="-5.119867">
        <ele>1019.0</ele>
        <time>2015-05-23T13:41:24Z</time>
      </trkpt>
      <trkpt lat="40.163600" lon="-5.119717">
        <ele>1026.0</ele>
        <time>2015-05-23T13:41:26Z</time>
      </trkpt>
      <trkpt lat="40.163600" lon="-5.119583">
        <ele>1032.0</ele>
        <time>2015-05-23T13:41:28Z</time>
      </trkpt>
      <trkpt lat="40.163550" lon="-5.119383">
        <ele>1033.0</ele>
        <time>2015-05-23T13:41:30Z</time>
      </trkpt>
      <trkpt lat="40.163383" lon="-5.119233">
        <ele>1035.0</ele>
        <time>2015-05-23T13:41:32Z</time>
      </trkpt>
      <trkpt lat="40.163233" lon="-5.119183">
        <ele>1039.0</ele>
        <time>2015-05-23T13:41:34Z</time>
      </trkpt>
      <trkpt lat="40.163067" lon="-5.119233">
        <ele>1039.0</ele>
        <time>2015-05-23T13:41:36Z</time>
      </trkpt>
      <trkpt lat="40.162883" lon="-5.119383">
        <ele>1033.0</ele>
        <time>2015-05-23T13:41:38Z</time>
      </trkpt>
      <trkpt lat="40.162750" lon="-5.119617">
        <ele>1030.0</ele>
        <time>2015-05-23T13:41:40Z</time>
      </trkpt>
      <trkpt lat="40.162667" lon="-5.119867">
        <ele>1031.0</ele>
        <time>2015-05-23T13:41:42Z</time>
      </trkpt>
      <trkpt lat="40.162650" lon="-5.120117">
        <ele>1030.0</ele>
        <time>2015-05-23T13:41:44Z</time>
      </trkpt>
      <trkpt lat="40.162700" lon="-5.120400">
        <ele>1030.0</ele>
        <time>2015-05-23T13:41:46Z</time>
      </trkpt>
      <trkpt lat="40.162783" lon="-5.120600">
        <ele>1033.0</ele>
        <time>2015-05-23T13:41:48Z</time>
      </trkpt>
      <trkpt lat="40.162850" lon="-5.120750">
        <ele>1036.0</ele>
        <time>2015-05-23T13:41:50Z</time>
      </trkpt>
      <trkpt lat="40.162983" lon="-5.120867">
        <ele>1033.0</ele>
        <time>2015-05-23T13:41:52Z</time>
      </trkpt>
      <trkpt lat="40.163150" lon="-5.120883">
        <ele>1033.0</ele>
        <time>2015-05-23T13:41:54Z</time>
      </trkpt>
      <trkpt lat="40.163267" lon="-5.120833">
        <ele>1037.0</ele>
        <time>2015-05-23T13:41:56Z</time>
      </trkpt>
      <trkpt lat="40.163350" lon="-5.120750">
        <ele>1038.0</ele>
        <time>2015-05-23T13:41:58Z</time>
      </trkpt>
      <trkpt lat="40.163400" lon="-5.120583">
        <ele>1038.0</ele>
        <time>2015-05-23T13:42:00Z</time>
      </trkpt>
      <trkpt lat="40.163350" lon="-5.120400">
        <ele>1039.0</ele>
        <time>2015-05-23T13:42:02Z</time>
      </trkpt>
      <trkpt lat="40.163267" lon="-5.120317">
        <ele>1042.0</ele>
        <time>2015-05-23T13:42:04Z</time>
      </trkpt>
      <trkpt lat="40.163150" lon="-5.120217">
        <ele>1043.0</ele>
        <time>2015-05-23T13:42:06Z</time>
      </trkpt>
      <trkpt lat="40.162950" lon="-5.120150">
        <ele>1041.0</ele>
        <time>2015-05-23T13:42:08Z</time>
      </trkpt>
      <trkpt lat="40.162767" lon="-5.120150">
        <ele>1045.0</ele>
        <time>2015-05-23T13:42:10Z</time>
      </trkpt>
      <trkpt lat="40.162617" lon="-5.120233">
        <ele>1047.0</ele>
        <time>2015-05-23T13:42:12Z</time>
      </trkpt>
      <trkpt lat="40.162483" lon="-5.120417">
        <ele>1047.0</ele>
        <time>2015-05-23T13:42:14Z</time>
      </trkpt>
      <trkpt lat="40.162417" lon="-5.120683">
        <ele>1046.0</ele>
        <time>2015-05-23T13:42:16Z</time>
      </trkpt>
      <trkpt lat="40.162350" lon="-5.120900">
        <ele>1049.0</ele>
        <time>2015-05-23T13:42:18Z</time>
      </trkpt>
      <trkpt lat="40.162317" lon="-5.121133">
        <ele>1047.0</ele>
        <time>2015-05-23T13:42:20Z</time>
      </trkpt>
      <trkpt lat="40.162383" lon="-5.121367">
        <ele>1046.0</ele>
        <time>2015-05-23T13:42:22Z</time>
      </trkpt>
      <trkpt lat="40.162483" lon="-5.121567">
        <ele>1047.0</ele>
        <time>2015-05-23T13:42:24Z</time>
      </trkpt>
      <trkpt lat="40.162600" lon="-5.121700">
        <ele>1049.0</ele>
        <time>2015-05-23T13:42:26Z</time>
      </trkpt>
      <trkpt lat="40.162767" lon="-5.121783">
        <ele>1050.0</ele>
        <time>2015-05-23T13:42:28Z</time>
      </trkpt>
      <trkpt lat="40.162933" lon="-5.121817">
        <ele>1052.0</ele>
        <time>2015-05-23T13:42:30Z</time>
      </trkpt>
      <trkpt lat="40.163050" lon="-5.121767">
        <ele>1054.0</ele>
        <time>2015-05-23T13:42:32Z</time>
      </trkpt>
      <trkpt lat="40.163133" lon="-5.121650">
        <ele>1054.0</ele>
        <time>2015-05-23T13:42:34Z</time>
      </trkpt>
      <trkpt lat="40.163167" lon="-5.121500">
        <ele>1054.0</ele>
        <time>2015-05-23T13:42:36Z</time>
      </trkpt>
      <trkpt lat="40.163100" lon="-5.121317">
        <ele>1053.0</ele>
        <time>2015-05-23T13:42:38Z</time>
      </trkpt>
      <trkpt lat="40.162983" lon="-5.121200">
        <ele>1053.0</ele>
        <time>2015-05-23T13:42:40Z</time>
      </trkpt>
      <trkpt lat="40.162833" lon="-5.121133">
        <ele>1055.0</ele>
        <time>2015-05-23T13:42:42Z</time>
      </trkpt>
      <trkpt lat="40.162700" lon="-5.121100">
        <ele>1056.0</ele>
        <time>2015-05-23T13:42:44Z</time>
      </trkpt>
      <trkpt lat="40.162517" lon="-5.121117">
        <ele>1054.0</ele>
        <time>2015-05-23T13:42:46Z</time>
      </trkpt>
      <trkpt lat="40.162350" lon="-5.121250">
        <ele>1054.0</ele>
        <time>2015-05-23T13:42:48Z</time>
      </trkpt>
      <trkpt lat="40.162217" lon="-5.121450">
        <ele>1054.0</ele>
        <time>2015-05-23T13:42:50Z</time>
      </trkpt>
      <trkpt lat="40.162133" lon="-5.121650">
        <ele>1055.0</ele>
        <time>2015-05-23T13:42:52Z</time>
      </trkpt>
      <trkpt lat="40.162083" lon="-5.121917">
        <ele>1053.0</ele>
        <time>2015-05-23T13:42:54Z</time>
      </trkpt>
      <trkpt lat="40.162083" lon="-5.122183">
        <ele>1052.0</ele>
        <time>2015-05-23T13:42:56Z</time>
      </trkpt>
      <trkpt lat="40.162083" lon="-5.122433">
        <ele>1054.0</ele>
        <time>2015-05-23T13:42:58Z</time>
      </trkpt>
      <trkpt lat="40.162117" lon="-5.122683">
        <ele>1056.0</ele>
        <time>2015-05-23T13:43:00Z</time>
      </trkpt>
      <trkpt lat="40.162200" lon="-5.122917">
        <ele>1057.0</ele>
        <time>2015-05-23T13:43:02Z</time>
      </trkpt>
      <trkpt lat="40.162317" lon="-5.123117">
        <ele>1060.0</ele>
        <time>2015-05-23T13:43:04Z</time>
      </trkpt>
      <trkpt lat="40.162483" lon="-5.123233">
        <ele>1062.0</ele>
        <time>2015-05-23T13:43:06Z</time>
      </trkpt>
      <trkpt lat="40.162650" lon="-5.123283">
        <ele>1065.0</ele>
        <time>2015-05-23T13:43:08Z</time>
      </trkpt>
      <trkpt lat="40.162800" lon="-5.123250">
        <ele>1067.0</ele>
        <time>2015-05-23T13:43:10Z</time>
      </trkpt>
      <trkpt lat="40.162900" lon="-5.123133">
        <ele>1068.0</ele>
        <time>2015-05-23T13:43:12Z</time>
      </trkpt>
      <trkpt lat="40.162917" lon="-5.122983">
        <ele>1070.0</ele>
        <time>2015-05-23T13:43:14Z</time>
      </trkpt>
      <trkpt lat="40.162883" lon="-5.122850">
        <ele>1072.0</ele>
        <time>2015-05-23T13:43:16Z</time>
      </trkpt>
      <trkpt lat="40.162817" lon="-5.122717">
        <ele>1071.0</ele>
        <time>2015-05-23T13:43:18Z</time>
      </trkpt>
      <trkpt lat="40.162650" lon="-5.122633">
        <ele>1069.0</ele>
        <time>2015-05-23T13:43:20Z</time>
      </trkpt>
      <trkpt lat="40.162467" lon="-5.122633">
        <ele>1070.0</ele>
        <time>2015-05-23T13:43:22Z</time>
      </trkpt>
      <trkpt lat="40.162300" lon="-5.122633">
        <ele>1071.0</ele>
        <time>2015-05-23T13:43:24Z</time>
      </trkpt>
      <trkpt lat="40.162133" lon="-5.122717">
        <ele>1071.0</ele>
        <time>2015-05-23T13:43:26Z</time>
      </trkpt>
      <trkpt lat="40.161967" lon="-5.122900">
        <ele>1070.0</ele>
        <time>2015-05-23T13:43:28Z</time>
      </trkpt>
      <trkpt lat="40.161850" lon="-5.123117">
        <ele>1070.0</ele>
        <time>2015-05-23T13:43:30Z</time>
      </trkpt>
      <trkpt lat="40.161783" lon="-5.123350">
        <ele>1070.0</ele>
        <time>2015-05-23T13:43:32Z</time>
      </trkpt>
      <trkpt lat="40.161767" lon="-5.123633">
        <ele>1070.0</ele>
        <time>2015-05-23T13:43:34Z</time>
      </trkpt>
      <trkpt lat="40.161783" lon="-5.123883">
        <ele>1070.0</ele>
        <time>2015-05-23T13:43:36Z</time>
      </trkpt>
      <trkpt lat="40.161850" lon="-5.124150">
        <ele>1071.0</ele>
        <time>2015-05-23T13:43:38Z</time>
      </trkpt>
      <trkpt lat="40.161933" lon="-5.124367">
        <ele>1075.0</ele>
        <time>2015-05-23T13:43:40Z</time>
      </trkpt>
      <trkpt lat="40.162017" lon="-5.124567">
        <ele>1078.0</ele>
        <time>2015-05-23T13:43:42Z</time>
      </trkpt>
      <trkpt lat="40.162150" lon="-5.124750">
        <ele>1079.0</ele>
        <time>2015-05-23T13:43:44Z</time>
      </trkpt>
      <trkpt lat="40.162317" lon="-5.124850">
        <ele>1081.0</ele>
        <time>2015-05-23T13:43:46Z</time>
      </trkpt>
      <trkpt lat="40.162483" lon="-5.124833">
        <ele>1083.0</ele>
        <time>2015-05-23T13:43:48Z</time>
      </trkpt>
      <trkpt lat="40.162583" lon="-5.124733">
        <ele>1085.0</ele>
        <time>2015-05-23T13:43:50Z</time>
      </trkpt>
      <trkpt lat="40.162633" lon="-5.124567">
        <ele>1086.0</ele>
        <time>2015-05-23T13:43:52Z</time>
      </trkpt>
      <trkpt lat="40.162583" lon="-5.124433">
        <ele>1088.0</ele>
        <time>2015-05-23T13:43:54Z</time>
      </trkpt>
      <trkpt lat="40.162483" lon="-5.124333">
        <ele>1089.0</ele>
        <time>2015-05-23T13:43:56Z</time>
      </trkpt>
      <trkpt lat="40.162367" lon="-5.124250">
        <ele>1090.0</ele>
        <time>2015-05-23T13:43:58Z</time>
      </trkpt>
      <trkpt lat="40.162183" lon="-5.124250">
        <ele>1089.0</ele>
        <time>2015-05-23T13:44:00Z</time>
      </trkpt>
      <trkpt lat="40.162000" lon="-5.124333">
        <ele>1088.0</ele>
        <time>2015-05-23T13:44:02Z</time>
      </trkpt>
      <trkpt lat="40.161817" lon="-5.124383">
        <ele>1089.0</ele>
        <time>2015-05-23T13:44:04Z</time>
      </trkpt>
      <trkpt lat="40.161667" lon="-5.124417">
        <ele>1093.0</ele>
        <time>2015-05-23T13:44:06Z</time>
      </trkpt>
      <trkpt lat="40.161533" lon="-5.124567">
        <ele>1093.0</ele>
        <time>2015-05-23T13:44:08Z</time>
      </trkpt>
      <trkpt lat="40.161450" lon="-5.124800">
        <ele>1092.0</ele>
        <time>2015-05-23T13:44:10Z</time>
      </trkpt>
      <trkpt lat="40.161400" lon="-5.125033">
        <ele>1093.0</ele>
        <time>2015-05-23T13:44:12Z</time>
      </trkpt>
      <trkpt lat="40.161400" lon="-5.125300">
        <ele>1092.0</ele>
        <time>2015-05-23T13:44:14Z</time>
      </trkpt>
      <trkpt lat="40.161433" lon="-5.125567">
        <ele>1091.0</ele>
        <time>2015-05-23T13:44:16Z</time>
      </trkpt>
      <trkpt lat="40.161483" lon="-5.125817">
        <ele>1090.0</ele>
        <time>2015-05-23T13:44:18Z</time>
      </trkpt>
      <trkpt lat="40.161567" lon="-5.126083">
        <ele>1087.0</ele>
        <time>2015-05-23T13:44:20Z</time>
      </trkpt>
      <trkpt lat="40.161700" lon="-5.126350">
        <ele>1085.0</ele>
        <time>2015-05-23T13:44:22Z</time>
      </trkpt>
      <trkpt lat="40.161817" lon="-5.126583">
        <ele>1087.0</ele>
        <time>2015-05-23T13:44:24Z</time>
      </trkpt>
      <trkpt lat="40.161950" lon="-5.126783">
        <ele>1086.0</ele>
        <time>2015-05-23T13:44:26Z</time>
      </trkpt>
      <trkpt lat="40.162150" lon="-5.126983">
        <ele>1082.0</ele>
        <time>2015-05-23T13:44:28Z</time>
      </trkpt>
      <trkpt lat="40.162367" lon="-5.127150">
        <ele>1083.0</ele>
        <time>2015-05-23T13:44:30Z</time>
      </trkpt>
      <trkpt lat="40.162483" lon="-5.127367">
        <ele>1088.0</ele>
        <time>2015-05-23T13:44:32Z</time>
      </trkpt>
      <trkpt lat="40.162550" lon="-5.127650">
        <ele>1089.0</ele>
        <time>2015-05-23T13:44:34Z</time>
      </trkpt>
      <trkpt lat="40.162600" lon="-5.127950">
        <ele>1089.0</ele>
        <time>2015-05-23T13:44:36Z</time>
      </trkpt>
      <trkpt lat="40.162550" lon="-5.128250">
        <ele>1091.0</ele>
        <time>2015-05-23T13:44:38Z</time>
      </trkpt>
      <trkpt lat="40.162450" lon="-5.128400">
        <ele>1094.0</ele>
        <time>2015-05-23T13:44:40Z</time>
      </trkpt>
      <trkpt lat="40.162350" lon="-5.128483">
        <ele>1094.0</ele>
        <time>2015-05-23T13:44:42Z</time>
      </trkpt>
      <trkpt lat="40.162250" lon="-5.128533">
        <ele>1090.0</ele>
        <time>2015-05-23T13:44:44Z</time>
      </trkpt>
      <trkpt lat="40.162183" lon="-5.128450">
        <ele>1086.0</ele>
        <time>2015-05-23T13:44:46Z</time>
      </trkpt>
      <trkpt lat="40.162200" lon="-5.128333">
        <ele>1085.0</ele>
        <time>2015-05-23T13:44:48Z</time>
      </trkpt>
      <trkpt lat="40.162267" lon="-5.128233">
        <ele>1086.0</ele>
        <time>2015-05-23T13:44:50Z</time>
      </trkpt>
      <trkpt lat="40.162417" lon="-5.128183">
        <ele>1084.0</ele>
        <time>2015-05-23T13:44:52Z</time>
      </trkpt>
      <trkpt lat="40.162633" lon="-5.128200">
        <ele>1083.0</ele>
        <time>2015-05-23T13:44:54Z</time>
      </trkpt>
      <trkpt lat="40.162817" lon="-5.128300">
        <ele>1085.0</ele>
        <time>2015-05-23T13:44:56Z</time>
      </trkpt>
      <trkpt lat="40.163000" lon="-5.128467">
        <ele>1087.0</ele>
        <time>2015-05-23T13:44:58Z</time>
      </trkpt>
      <trkpt lat="40.163183" lon="-5.128683">
        <ele>1086.0</ele>
        <time>2015-05-23T13:45:00Z</time>
      </trkpt>
      <trkpt lat="40.163333" lon="-5.128950">
        <ele>1088.0</ele>
        <time>2015-05-23T13:45:02Z</time>
      </trkpt>
      <trkpt lat="40.163433" lon="-5.129217">
        <ele>1094.0</ele>
        <time>2015-05-23T13:45:04Z</time>
      </trkpt>
      <trkpt lat="40.163500" lon="-5.129450">
        <ele>1098.0</ele>
        <time>2015-05-23T13:45:06Z</time>
      </trkpt>
      <trkpt lat="40.163517" lon="-5.129717">
        <ele>1096.0</ele>
        <time>2015-05-23T13:45:08Z</time>
      </trkpt>
      <trkpt lat="40.163483" lon="-5.129933">
        <ele>1094.0</ele>
        <time>2015-05-23T13:45:10Z</time>
      </trkpt>
      <trkpt lat="40.163367" lon="-5.130050">
        <ele>1091.0</ele>
        <time>2015-05-23T13:45:12Z</time>
      </trkpt>
      <trkpt lat="40.163233" lon="-5.130117">
        <ele>1087.0</ele>
        <time>2015-05-23T13:45:14Z</time>
      </trkpt>
      <trkpt lat="40.163117" lon="-5.130117">
        <ele>1084.0</ele>
        <time>2015-05-23T13:45:16Z</time>
      </trkpt>
      <trkpt lat="40.163033" lon="-5.130017">
        <ele>1081.0</ele>
        <time>2015-05-23T13:45:18Z</time>
      </trkpt>
      <trkpt lat="40.163050" lon="-5.129883">
        <ele>1079.0</ele>
        <time>2015-05-23T13:45:20Z</time>
      </trkpt>
      <trkpt lat="40.163117" lon="-5.129767">
        <ele>1078.0</ele>
        <time>2015-05-23T13:45:22Z</time>
      </trkpt>
      <trkpt lat="40.163233" lon="-5.129633">
        <ele>1075.0</ele>
        <time>2015-05-23T13:45:24Z</time>
      </trkpt>
      <trkpt lat="40.163383" lon="-5.129550">
        <ele>1076.0</ele>
        <time>2015-05-23T13:45:26Z</time>
      </trkpt>
      <trkpt lat="40.163533" lon="-5.129533">
        <ele>1079.0</ele>
        <time>2015-05-23T13:45:28Z</time>
      </trkpt>
      <trkpt lat="40.163683" lon="-5.129500">
        <ele>1080.0</ele>
        <time>2015-05-23T13:45:30Z</time>
      </trkpt>
      <trkpt lat="40.163883" lon="-5.129450">
        <ele>1080.0</ele>
        <time>2015-05-23T13:45:32Z</time>
      </trkpt>
      <trkpt lat="40.164000" lon="-5.129333">
        <ele>1086.0</ele>
        <time>2015-05-23T13:45:34Z</time>
      </trkpt>
      <trkpt lat="40.164033" lon="-5.129217">
        <ele>1088.0</ele>
        <time>2015-05-23T13:45:36Z</time>
      </trkpt>
      <trkpt lat="40.164033" lon="-5.129067">
        <ele>1089.0</ele>
        <time>2015-05-23T13:45:38Z</time>
      </trkpt>
      <trkpt lat="40.163983" lon="-5.128967">
        <ele>1091.0</ele>
        <time>2015-05-23T13:45:40Z</time>
      </trkpt>
      <trkpt lat="40.163900" lon="-5.128933">
        <ele>1095.0</ele>
        <time>2015-05-23T13:45:42Z</time>
      </trkpt>
      <trkpt lat="40.163817" lon="-5.129000">
        <ele>1098.0</ele>
        <time>2015-05-23T13:45:44Z</time>
      </trkpt>
      <trkpt lat="40.163683" lon="-5.129150">
        <ele>1097.0</ele>
        <time>2015-05-23T13:45:46Z</time>
      </trkpt>
      <trkpt lat="40.163583" lon="-5.129367">
        <ele>1099.0</ele>
        <time>2015-05-23T13:45:48Z</time>
      </trkpt>
      <trkpt lat="40.163533" lon="-5.129633">
        <ele>1101.0</ele>
        <time>2015-05-23T13:45:50Z</time>
      </trkpt>
      <trkpt lat="40.163517" lon="-5.129933">
        <ele>1101.0</ele>
        <time>2015-05-23T13:45:52Z</time>
      </trkpt>
      <trkpt lat="40.163550" lon="-5.130233">
        <ele>1102.0</ele>
        <time>2015-05-23T13:45:54Z</time>
      </trkpt>
      <trkpt lat="40.163650" lon="-5.130533">
        <ele>1102.0</ele>
        <time>2015-05-23T13:45:56Z</time>
      </trkpt>
      <trkpt lat="40.163800" lon="-5.130783">
        <ele>1102.0</ele>
        <time>2015-05-23T13:45:58Z</time>
      </trkpt>
      <trkpt lat="40.163967" lon="-5.130917">
        <ele>1104.0</ele>
        <time>2015-05-23T13:46:00Z</time>
      </trkpt>
      <trkpt lat="40.164133" lon="-5.130983">
        <ele>1103.0</ele>
        <time>2015-05-23T13:46:02Z</time>
      </trkpt>
      <trkpt lat="40.164333" lon="-5.130967">
        <ele>1101.0</ele>
        <time>2015-05-23T13:46:04Z</time>
      </trkpt>
      <trkpt lat="40.164533" lon="-5.130883">
        <ele>1102.0</ele>
        <time>2015-05-23T13:46:06Z</time>
      </trkpt>
      <trkpt lat="40.164683" lon="-5.130817">
        <ele>1109.0</ele>
        <time>2015-05-23T13:46:08Z</time>
      </trkpt>
      <trkpt lat="40.164800" lon="-5.130733">
        <ele>1114.0</ele>
        <time>2015-05-23T13:46:10Z</time>
      </trkpt>
      <trkpt lat="40.164850" lon="-5.130550">
        <ele>1115.0</ele>
        <time>2015-05-23T13:46:12Z</time>
      </trkpt>
      <trkpt lat="40.164800" lon="-5.130433">
        <ele>1119.0</ele>
        <time>2015-05-23T13:46:14Z</time>
      </trkpt>
      <trkpt lat="40.164733" lon="-5.130417">
        <ele>1126.0</ele>
        <time>2015-05-23T13:46:16Z</time>
      </trkpt>
      <trkpt lat="40.164617" lon="-5.130450">
        <ele>1128.0</ele>
        <time>2015-05-23T13:46:18Z</time>
      </trkpt>
      <trkpt lat="40.164483" lon="-5.130617">
        <ele>1131.0</ele>
        <time>2015-05-23T13:46:20Z</time>
      </trkpt>
      <trkpt lat="40.164417" lon="-5.130900">
        <ele>1136.0</ele>
        <time>2015-05-23T13:46:22Z</time>
      </trkpt>
      <trkpt lat="40.164433" lon="-5.131150">
        <ele>1142.0</ele>
        <time>2015-05-23T13:46:24Z</time>
      </trkpt>
      <trkpt lat="40.164500" lon="-5.131417">
        <ele>1145.0</ele>
        <time>2015-05-23T13:46:26Z</time>
      </trkpt>
      <trkpt lat="40.164683" lon="-5.131650">
        <ele>1143.0</ele>
        <time>2015-05-23T13:46:28Z</time>
      </trkpt>
      <trkpt lat="40.164900" lon="-5.131783">
        <ele>1146.0</ele>
        <time>2015-05-23T13:46:30Z</time>
      </trkpt>
      <trkpt lat="40.165083" lon="-5.131850">
        <ele>1151.0</ele>
        <time>2015-05-23T13:46:32Z</time>
      </trkpt>
      <trkpt lat="40.165300" lon="-5.131833">
        <ele>1151.0</ele>
        <time>2015-05-23T13:46:34Z</time>
      </trkpt>
      <trkpt lat="40.165483" lon="-5.131683">
        <ele>1153.0</ele>
        <time>2015-05-23T13:46:36Z</time>
      </trkpt>
      <trkpt lat="40.165617" lon="-5.131600">
        <ele>1161.0</ele>
        <time>2015-05-23T13:46:38Z</time>
      </trkpt>
      <trkpt lat="40.165717" lon="-5.131500">
        <ele>1165.0</ele>
        <time>2015-05-23T13:46:40Z</time>
      </trkpt>
      <trkpt lat="40.165733" lon="-5.131300">
        <ele>1165.0</ele>
        <time>2015-05-23T13:46:42Z</time>
      </trkpt>
      <trkpt lat="40.165683" lon="-5.131133">
        <ele>1172.0</ele>
        <time>2015-05-23T13:46:44Z</time>
      </trkpt>
      <trkpt lat="40.165600" lon="-5.131083">
        <ele>1180.0</ele>
        <time>2015-05-23T13:46:46Z</time>
      </trkpt>
      <trkpt lat="40.165500" lon="-5.131117">
        <ele>1186.0</ele>
        <time>2015-05-23T13:46:48Z</time>
      </trkpt>
      <trkpt lat="40.165417" lon="-5.131250">
        <ele>1192.0</ele>
        <time>2015-05-23T13:46:50Z</time>
      </trkpt>
      <trkpt lat="40.165350" lon="-5.131433">
        <ele>1197.0</ele>
        <time>2015-05-23T13:46:52Z</time>
      </trkpt>
      <trkpt lat="40.165283" lon="-5.131717">
        <ele>1198.0</ele>
        <time>2015-05-23T13:46:54Z</time>
      </trkpt>
      <trkpt lat="40.165333" lon="-5.132050">
        <ele>1202.0</ele>
        <time>2015-05-23T13:46:56Z</time>
      </trkpt>
      <trkpt lat="40.165467" lon="-5.132267">
        <ele>1210.0</ele>
        <time>2015-05-23T13:46:58Z</time>
      </trkpt>
      <trkpt lat="40.165617" lon="-5.132417">
        <ele>1213.0</ele>
        <time>2015-05-23T13:47:00Z</time>
      </trkpt>
      <trkpt lat="40.165867" lon="-5.132533">
        <ele>1210.0</ele>
        <time>2015-05-23T13:47:02Z</time>
      </trkpt>
      <trkpt lat="40.166117" lon="-5.132450">
        <ele>1210.0</ele>
        <time>2015-05-23T13:47:04Z</time>
      </trkpt>
      <trkpt lat="40.166267" lon="-5.132317">
        <ele>1217.0</ele>
        <time>2015-05-23T13:47:06Z</time>
      </trkpt>
      <trkpt lat="40.166400" lon="-5.132183">
        <ele>1224.0</ele>
        <time>2015-05-23T13:47:08Z</time>
      </trkpt>
      <trkpt lat="40.166417" lon="-5.131983">
        <ele>1227.0</ele>
        <time>2015-05-23T13:47:10Z</time>
      </trkpt>
      <trkpt lat="40.166350" lon="-5.131833">
        <ele>1230.0</ele>
        <time>2015-05-23T13:47:12Z</time>
      </trkpt>
      <trkpt lat="40.166267" lon="-5.131783">
        <ele>1238.0</ele>
        <time>2015-05-23T13:47:14Z</time>
      </trkpt>
      <trkpt lat="40.166133" lon="-5.131767">
        <ele>1242.0</ele>
        <time>2015-05-23T13:47:16Z</time>
      </trkpt>
      <trkpt lat="40.166000" lon="-5.131900">
        <ele>1250.0</ele>
        <time>2015-05-23T13:47:18Z</time>
      </trkpt>
      <trkpt lat="40.165967" lon="-5.132100">
        <ele>1259.0</ele>
        <time>2015-05-23T13:47:20Z</time>
      </trkpt>
      <trkpt lat="40.165950" lon="-5.132350">
        <ele>1264.0</ele>
        <time>2015-05-23T13:47:22Z</time>
      </trkpt>
      <trkpt lat="40.166017" lon="-5.132683">
        <ele>1267.0</ele>
        <time>2015-05-23T13:47:24Z</time>
      </trkpt>
      <trkpt lat="40.166233" lon="-5.132900">
        <ele>1272.0</ele>
        <time>2015-05-23T13:47:26Z</time>
      </trkpt>
      <trkpt lat="40.166433" lon="-5.133000">
        <ele>1279.0</ele>
        <time>2015-05-23T13:47:28Z</time>
      </trkpt>
      <trkpt lat="40.166650" lon="-5.133017">
        <ele>1281.0</ele>
        <time>2015-05-23T13:47:30Z</time>
      </trkpt>
      <trkpt lat="40.166850" lon="-5.132883">
        <ele>1283.0</ele>
        <time>2015-05-23T13:47:32Z</time>
      </trkpt>
      <trkpt lat="40.166950" lon="-5.132683">
        <ele>1288.0</ele>
        <time>2015-05-23T13:47:34Z</time>
      </trkpt>
      <trkpt lat="40.166983" lon="-5.132533">
        <ele>1295.0</ele>
        <time>2015-05-23T13:47:36Z</time>
      </trkpt>
      <trkpt lat="40.166950" lon="-5.132383">
        <ele>1299.0</ele>
        <time>2015-05-23T13:47:38Z</time>
      </trkpt>
      <trkpt lat="40.166867" lon="-5.132250">
        <ele>1302.0</ele>
        <time>2015-05-23T13:47:40Z</time>
      </trkpt>
      <trkpt lat="40.166767" lon="-5.132267">
        <ele>1309.0</ele>
        <time>2015-05-23T13:47:42Z</time>
      </trkpt>
      <trkpt lat="40.166683" lon="-5.132367">
        <ele>1314.0</ele>
        <time>2015-05-23T13:47:44Z</time>
      </trkpt>
      <trkpt lat="40.166600" lon="-5.132550">
        <ele>1317.0</ele>
        <time>2015-05-23T13:47:46Z</time>
      </trkpt>
      <trkpt lat="40.166617" lon="-5.132833">
        <ele>1322.0</ele>
        <time>2015-05-23T13:47:48Z</time>
      </trkpt>
      <trkpt lat="40.166700" lon="-5.133100">
        <ele>1326.0</ele>
        <time>2015-05-23T13:47:50Z</time>
      </trkpt>
      <trkpt lat="40.166833" lon="-5.133333">
        <ele>1328.0</ele>
        <time>2015-05-23T13:47:52Z</time>
      </trkpt>
      <trkpt lat="40.167067" lon="-5.133500">
        <ele>1329.0</ele>
        <time>2015-05-23T13:47:54Z</time>
      </trkpt>
      <trkpt lat="40.167283" lon="-5.133500">
        <ele>1335.0</ele>
        <time>2015-05-23T13:47:56Z</time>
      </trkpt>
      <trkpt lat="40.167467" lon="-5.133450">
        <ele>1341.0</ele>
        <time>2015-05-23T13:47:58Z</time>
      </trkpt>
      <trkpt lat="40.167583" lon="-5.133283">
        <ele>1345.0</ele>
        <time>2015-05-23T13:48:00Z</time>
      </trkpt>
      <trkpt lat="40.167583" lon="-5.133050">
        <ele>1346.0</ele>
        <time>2015-05-23T13:48:02Z</time>
      </trkpt>
      <trkpt lat="40.167533" lon="-5.132900">
        <ele>1352.0</ele>
        <time>2015-05-23T13:48:04Z</time>
      </trkpt>
      <trkpt lat="40.167450" lon="-5.132833">
        <ele>1358.0</ele>
        <time>2015-05-23T13:48:06Z</time>
      </trkpt>
      <trkpt lat="40.167300" lon="-5.132833">
        <ele>1359.0</ele>
        <time>2015-05-23T13:48:08Z</time>
      </trkpt>
      <trkpt lat="40.167167" lon="-5.132967">
        <ele>1361.0</ele>
        <time>2015-05-23T13:48:10Z</time>
      </trkpt>
      <trkpt lat="40.167117" lon="-5.133150">
        <ele>1373.0</ele>
        <time>2015-05-23T13:48:12Z</time>
      </trkpt>
      <trkpt lat="40.167117" lon="-5.133367">
        <ele>1383.0</ele>
        <time>2015-05-23T13:48:14Z</time>
      </trkpt>
      <trkpt lat="40.167100" lon="-5.133650">
        <ele>1388.0</ele>
        <time>2015-05-23T13:48:16Z</time>
      </trkpt>
      <trkpt lat="40.167217" lon="-5.133933">
        <ele>1393.0</ele>
        <time>2015-05-23T13:48:18Z</time>
      </trkpt>
      <trkpt lat="40.167367" lon="-5.134100">
        <ele>1398.0</ele>
        <time>2015-05-23T13:48:20Z</time>
      </trkpt>
      <trkpt lat="40.167567" lon="-5.134217">
        <ele>1401.0</ele>
        <time>2015-05-23T13:48:22Z</time>
      </trkpt>
      <trkpt lat="40.167783" lon="-5.134217">
        <ele>1401.0</ele>
        <time>2015-05-23T13:48:24Z</time>
      </trkpt>
      <trkpt lat="40.167950" lon="-5.134067">
        <ele>1404.0</ele>
        <time>2015-05-23T13:48:26Z</time>
      </trkpt>
      <trkpt lat="40.168033" lon="-5.133933">
        <ele>1411.0</ele>
        <time>2015-05-23T13:48:28Z</time>
      </trkpt>
      <trkpt lat="40.168050" lon="-5.133783">
        <ele>1415.0</ele>
        <time>2015-05-23T13:48:30Z</time>
      </trkpt>
      <trkpt lat="40.167967" lon="-5.133650">
        <ele>1416.0</ele>
        <time>2015-05-23T13:48:32Z</time>
      </trkpt>
      <trkpt lat="40.167850" lon="-5.133633">
        <ele>1421.0</ele>
        <time>2015-05-23T13:48:34Z</time>
      </trkpt>
      <trkpt lat="40.167733" lon="-5.133683">
        <ele>1426.0</ele>
        <time>2015-05-23T13:48:36Z</time>
      </trkpt>
      <trkpt lat="40.167617" lon="-5.133833">
        <ele>1431.0</ele>
        <time>2015-05-23T13:48:38Z</time>
      </trkpt>
      <trkpt lat="40.167550" lon="-5.134067">
        <ele>1437.0</ele>
        <time>2015-05-23T13:48:40Z</time>
      </trkpt>
      <trkpt lat="40.167583" lon="-5.134317">
        <ele>1444.0</ele>
        <time>2015-05-23T13:48:42Z</time>
      </trkpt>
      <trkpt lat="40.167683" lon="-5.134600">
        <ele>1448.0</ele>
        <time>2015-05-23T13:48:44Z</time>
      </trkpt>
      <trkpt lat="40.167850" lon="-5.134783">
        <ele>1453.0</ele>
        <time>2015-05-23T13:48:46Z</time>
      </trkpt>
      <trkpt lat="40.168033" lon="-5.134817">
        <ele>1457.0</ele>
        <time>2015-05-23T13:48:48Z</time>
      </trkpt>
      <trkpt lat="40.168233" lon="-5.134783">
        <ele>1459.0</ele>
        <time>2015-05-23T13:48:50Z</time>
      </trkpt>
      <trkpt lat="40.168367" lon="-5.134650">
        <ele>1465.0</ele>
        <time>2015-05-23T13:48:52Z</time>
      </trkpt>
      <trkpt lat="40.168400" lon="-5.134517">
        <ele>1471.0</ele>
        <time>2015-05-23T13:48:54Z</time>
      </trkpt>
      <trkpt lat="40.168367" lon="-5.134383">
        <ele>1477.0</ele>
        <time>2015-05-23T13:48:56Z</time>
      </trkpt>
      <trkpt lat="40.168250" lon="-5.134367">
        <ele>1482.0</ele>
        <time>2015-05-23T13:48:58Z</time>
      </trkpt>
      <trkpt lat="40.168117" lon="-5.134500">
        <ele>1486.0</ele>
        <time>2015-05-23T13:49:00Z</time>
      </trkpt>
      <trkpt lat="40.168067" lon="-5.134683">
        <ele>1493.0</ele>
        <time>2015-05-23T13:49:02Z</time>
      </trkpt>
      <trkpt lat="40.168083" lon="-5.134950">
        <ele>1497.0</ele>
        <time>2015-05-23T13:49:04Z</time>
      </trkpt>
      <trkpt lat="40.168217" lon="-5.135233">
        <ele>1500.0</ele>
        <time>2015-05-23T13:49:06Z</time>
      </trkpt>
      <trkpt lat="40.168383" lon="-5.135417">
        <ele>1506.0</ele>
        <time>2015-05-23T13:49:08Z</time>
      </trkpt>
      <trkpt lat="40.168583" lon="-5.135500">
        <ele>1510.0</ele>
        <time>2015-05-23T13:49:10Z</time>
      </trkpt>
      <trkpt lat="40.168800" lon="-5.135483">
        <ele>1511.0</ele>
        <time>2015-05-23T13:49:12Z</time>
      </trkpt>
      <trkpt lat="40.168917" lon="-5.135333">
        <ele>1514.0</ele>
        <time>2015-05-23T13:49:14Z</time>
      </trkpt>
      <trkpt lat="40.168900" lon="-5.135200">
        <ele>1516.0</ele>
        <time>2015-05-23T13:49:16Z</time>
      </trkpt>
      <trkpt lat="40.168850" lon="-5.135133">
        <ele>1520.0</ele>
        <time>2015-05-23T13:49:18Z</time>
      </trkpt>
      <trkpt lat="40.168733" lon="-5.135150">
        <ele>1522.0</ele>
        <time>2015-05-23T13:49:20Z</time>
      </trkpt>
      <trkpt lat="40.168600" lon="-5.135300">
        <ele>1523.0</ele>
        <time>2015-05-23T13:49:22Z</time>
      </trkpt>
      <trkpt lat="40.168533" lon="-5.135533">
        <ele>1528.0</ele>
        <time>2015-05-23T13:49:24Z</time>
      </trkpt>
      <trkpt lat="40.168567" lon="-5.135783">
        <ele>1535.0</ele>
        <time>2015-05-23T13:49:26Z</time>
      </trkpt>
      <trkpt lat="40.168650" lon="-5.136050">
        <ele>1538.0</ele>
        <time>2015-05-23T13:49:28Z</time>
      </trkpt>
      <trkpt lat="40.168833" lon="-5.136233">
        <ele>1541.0</ele>
        <time>2015-05-23T13:49:30Z</time>
      </trkpt>
      <trkpt lat="40.169050" lon="-5.136267">
        <ele>1543.0</ele>
        <time>2015-05-23T13:49:32Z</time>
      </trkpt>
      <trkpt lat="40.169183" lon="-5.136183">
        <ele>1546.0</ele>
        <time>2015-05-23T13:49:34Z</time>
      </trkpt>
      <trkpt lat="40.169200" lon="-5.136033">
        <ele>1547.0</ele>
        <time>2015-05-23T13:49:36Z</time>
      </trkpt>
      <trkpt lat="40.169117" lon="-5.135900">
        <ele>1547.0</ele>
        <time>2015-05-23T13:49:38Z</time>
      </trkpt>
      <trkpt lat="40.169017" lon="-5.135883">
        <ele>1553.0</ele>
        <time>2015-05-23T13:49:40Z</time>
      </trkpt>
      <trkpt lat="40.168883" lon="-5.135950">
        <ele>1555.0</ele>
        <time>2015-05-23T13:49:42Z</time>
      </trkpt>
      <trkpt lat="40.168750" lon="-5.136133">
        <ele>1558.0</ele>
        <time>2015-05-23T13:49:44Z</time>
      </trkpt>
      <trkpt lat="40.168717" lon="-5.136433">
        <ele>1562.0</ele>
        <time>2015-05-23T13:49:46Z</time>
      </trkpt>
      <trkpt lat="40.168750" lon="-5.136717">
        <ele>1569.0</ele>
        <time>2015-05-23T13:49:48Z</time>
      </trkpt>
      <trkpt lat="40.168867" lon="-5.137000">
        <ele>1573.0</ele>
        <time>2015-05-23T13:49:50Z</time>
      </trkpt>
      <trkpt lat="40.169050" lon="-5.137233">
        <ele>1575.0</ele>
        <time>2015-05-23T13:49:52Z</time>
      </trkpt>
      <trkpt lat="40.169283" lon="-5.137317">
        <ele>1577.0</ele>
        <time>2015-05-23T13:49:54Z</time>
      </trkpt>
      <trkpt lat="40.169450" lon="-5.137283">
        <ele>1579.0</ele>
        <time>2015-05-23T13:49:56Z</time>
      </trkpt>
      <trkpt lat="40.169550" lon="-5.137167">
        <ele>1580.0</ele>
        <time>2015-05-23T13:49:58Z</time>
      </trkpt>
      <trkpt lat="40.169533" lon="-5.137050">
        <ele>1578.0</ele>
        <time>2015-05-23T13:50:00Z</time>
      </trkpt>
      <trkpt lat="40.169433" lon="-5.136950">
        <ele>1577.0</ele>
        <time>2015-05-23T13:50:02Z</time>
      </trkpt>
      <trkpt lat="40.169333" lon="-5.136933">
        <ele>1581.0</ele>
        <time>2015-05-23T13:50:04Z</time>
      </trkpt>
      <trkpt lat="40.169233" lon="-5.136967">
        <ele>1584.0</ele>
        <time>2015-05-23T13:50:06Z</time>
      </trkpt>
      <trkpt lat="40.169067" lon="-5.137083">
        <ele>1586.0</ele>
        <time>2015-05-23T13:50:08Z</time>
      </trkpt>
      <trkpt lat="40.168967" lon="-5.137283">
        <ele>1593.0</ele>
        <time>2015-05-23T13:50:10Z</time>
      </trkpt>
      <trkpt lat="40.168917" lon="-5.137483">
        <ele>1600.0</ele>
        <time>2015-05-23T13:50:12Z</time>
      </trkpt>
      <trkpt lat="40.168867" lon="-5.137750">
        <ele>1598.0</ele>
        <time>2015-05-23T13:50:14Z</time>
      </trkpt>
      <trkpt lat="40.168900" lon="-5.138083">
        <ele>1597.0</ele>
        <time>2015-05-23T13:50:16Z</time>
      </trkpt>
      <trkpt lat="40.169000" lon="-5.138367">
        <ele>1600.0</ele>
        <time>2015-05-23T13:50:18Z</time>
      </trkpt>
      <trkpt lat="40.169150" lon="-5.138583">
        <ele>1601.0</ele>
        <time>2015-05-23T13:50:20Z</time>
      </trkpt>
      <trkpt lat="40.169333" lon="-5.138767">
        <ele>1600.0</ele>
        <time>2015-05-23T13:50:22Z</time>
      </trkpt>
      <trkpt lat="40.169517" lon="-5.138850">
        <ele>1600.0</ele>
        <time>2015-05-23T13:50:24Z</time>
      </trkpt>
      <trkpt lat="40.169683" lon="-5.138850">
        <ele>1599.0</ele>
        <time>2015-05-23T13:50:26Z</time>
      </trkpt>
      <trkpt lat="40.169817" lon="-5.138783">
        <ele>1598.0</ele>
        <time>2015-05-23T13:50:28Z</time>
      </trkpt>
      <trkpt lat="40.169867" lon="-5.138683">
        <ele>1596.0</ele>
        <time>2015-05-23T13:50:30Z</time>
      </trkpt>
      <trkpt lat="40.169850" lon="-5.138583">
        <ele>1594.0</ele>
        <time>2015-05-23T13:50:32Z</time>
      </trkpt>
      <trkpt lat="40.169800" lon="-5.138483">
        <ele>1592.0</ele>
        <time>2015-05-23T13:50:34Z</time>
      </trkpt>
      <trkpt lat="40.169683" lon="-5.138400">
        <ele>1591.0</ele>
        <time>2015-05-23T13:50:36Z</time>
      </trkpt>
      <trkpt lat="40.169550" lon="-5.138350">
        <ele>1593.0</ele>
        <time>2015-05-23T13:50:38Z</time>
      </trkpt>
      <trkpt lat="40.169433" lon="-5.138400">
        <ele>1599.0</ele>
        <time>2015-05-23T13:50:40Z</time>
      </trkpt>
      <trkpt lat="40.169317" lon="-5.138533">
        <ele>1603.0</ele>
        <time>2015-05-23T13:50:42Z</time>
      </trkpt>
      <trkpt lat="40.169167" lon="-5.138717">
        <ele>1607.0</ele>
        <time>2015-05-23T13:50:44Z</time>
      </trkpt>
      <trkpt lat="40.169133" lon="-5.139000">
        <ele>1610.0</ele>
        <time>2015-05-23T13:50:46Z</time>
      </trkpt>
      <trkpt lat="40.169150" lon="-5.139267">
        <ele>1614.0</ele>
        <time>2015-05-23T13:50:48Z</time>
      </trkpt>
      <trkpt lat="40.169167" lon="-5.139483">
        <ele>1613.0</ele>
        <time>2015-05-23T13:50:50Z</time>
      </trkpt>
      <trkpt lat="40.169250" lon="-5.139767">
        <ele>1608.0</ele>
        <time>2015-05-23T13:50:52Z</time>
      </trkpt>
      <trkpt lat="40.169417" lon="-5.140017">
        <ele>1605.0</ele>
        <time>2015-05-23T13:50:54Z</time>
      </trkpt>
      <trkpt lat="40.169600" lon="-5.140150">
        <ele>1605.0</ele>
        <time>2015-05-23T13:50:56Z</time>
      </trkpt>
      <trkpt lat="40.169783" lon="-5.140217">
        <ele>1603.0</ele>
        <time>2015-05-23T13:50:58Z</time>
      </trkpt>
      <trkpt lat="40.169967" lon="-5.140200">
        <ele>1601.0</ele>
        <time>2015-05-23T13:51:00Z</time>
      </trkpt>
      <trkpt lat="40.170067" lon="-5.140133">
        <ele>1598.0</ele>
        <time>2015-05-23T13:51:02Z</time>
      </trkpt>
      <trkpt lat="40.170133" lon="-5.140017">
        <ele>1595.0</ele>
        <time>2015-05-23T13:51:04Z</time>
      </trkpt>
      <trkpt lat="40.170117" lon="-5.139900">
        <ele>1591.0</ele>
        <time>2015-05-23T13:51:06Z</time>
      </trkpt>
      <trkpt lat="40.170033" lon="-5.139783">
        <ele>1589.0</ele>
        <time>2015-05-23T13:51:08Z</time>
      </trkpt>
      <trkpt lat="40.169967" lon="-5.139717">
        <ele>1590.0</ele>
        <time>2015-05-23T13:51:10Z</time>
      </trkpt>
      <trkpt lat="40.169900" lon="-5.139667">
        <ele>1591.0</ele>
        <time>2015-05-23T13:51:12Z</time>
      </trkpt>
      <trkpt lat="40.169783" lon="-5.139650">
        <ele>1591.0</ele>
        <time>2015-05-23T13:51:14Z</time>
      </trkpt>
      <trkpt lat="40.169650" lon="-5.139683">
        <ele>1592.0</ele>
        <time>2015-05-23T13:51:16Z</time>
      </trkpt>
      <trkpt lat="40.169533" lon="-5.139750">
        <ele>1596.0</ele>
        <time>2015-05-23T13:51:18Z</time>
      </trkpt>
      <trkpt lat="40.169417" lon="-5.139883">
        <ele>1599.0</ele>
        <time>2015-05-23T13:51:20Z</time>
      </trkpt>
      <trkpt lat="40.169300" lon="-5.140100">
        <ele>1599.0</ele>
        <time>2015-05-23T13:51:22Z</time>
      </trkpt>
      <trkpt lat="40.169183" lon="-5.140367">
        <ele>1598.0</ele>
        <time>2015-05-23T13:51:24Z</time>
      </trkpt>
      <trkpt lat="40.169100" lon="-5.140667">
        <ele>1600.0</ele>
        <time>2015-05-23T13:51:26Z</time>
      </trkpt>
      <trkpt lat="40.169067" lon="-5.140983">
        <ele>1604.0</ele>
        <time>2015-05-23T13:51:28Z</time>
      </trkpt>
      <trkpt lat="40.169067" lon="-5.141333">
        <ele>1607.0</ele>
        <time>2015-05-23T13:51:30Z</time>
      </trkpt>
      <trkpt lat="40.169150" lon="-5.141650">
        <ele>1611.0</ele>
        <time>2015-05-23T13:51:32Z</time>
      </trkpt>
      <trkpt lat="40.169283" lon="-5.141917">
        <ele>1615.0</ele>
        <time>2015-05-23T13:51:34Z</time>
      </trkpt>
      <trkpt lat="40.169450" lon="-5.142150">
        <ele>1618.0</ele>
        <time>2015-05-23T13:51:36Z</time>
      </trkpt>
      <trkpt lat="40.169650" lon="-5.142267">
        <ele>1620.0</ele>
        <time>2015-05-23T13:51:38Z</time>
      </trkpt>
      <trkpt lat="40.169850" lon="-5.142283">
        <ele>1619.0</ele>
        <time>2015-05-23T13:51:40Z</time>
      </trkpt>
      <trkpt lat="40.169983" lon="-5.142217">
        <ele>1619.0</ele>
        <time>2015-05-23T13:51:42Z</time>
      </trkpt>
      <trkpt lat="40.170050" lon="-5.142083">
        <ele>1614.0</ele>
        <time>2015-05-23T13:51:44Z</time>
      </trkpt>
      <trkpt lat="40.169983" lon="-5.141933">
        <ele>1610.0</ele>
        <time>2015-05-23T13:51:46Z</time>
      </trkpt>
      <trkpt lat="40.169933" lon="-5.141900">
        <ele>1616.0</ele>
        <time>2015-05-23T13:51:48Z</time>
      </trkpt>
      <trkpt lat="40.169883" lon="-5.141900">
        <ele>1620.0</ele>
        <time>2015-05-23T13:51:50Z</time>
      </trkpt>
      <trkpt lat="40.169717" lon="-5.141950">
        <ele>1618.0</ele>
        <time>2015-05-23T13:51:52Z</time>
      </trkpt>
      <trkpt lat="40.169533" lon="-5.142033">
        <ele>1620.0</ele>
        <time>2015-05-23T13:51:54Z</time>
      </trkpt>
      <trkpt lat="40.169417" lon="-5.142133">
        <ele>1628.0</ele>
        <time>2015-05-23T13:51:56Z</time>
      </trkpt>
      <trkpt lat="40.169300" lon="-5.142317">
        <ele>1629.0</ele>
        <time>2015-05-23T13:51:58Z</time>
      </trkpt>
      <trkpt lat="40.169250" lon="-5.142650">
        <ele>1626.0</ele>
        <time>2015-05-23T13:52:00Z</time>
      </trkpt>
      <trkpt lat="40.169250" lon="-5.143050">
        <ele>1625.0</ele>
        <time>2015-05-23T13:52:02Z</time>
      </trkpt>
      <trkpt lat="40.169217" lon="-5.143350">
        <ele>1630.0</ele>
        <time>2015-05-23T13:52:04Z</time>
      </trkpt>
      <trkpt lat="40.169250" lon="-5.143650">
        <ele>1632.0</ele>
        <time>2015-05-23T13:52:06Z</time>
      </trkpt>
      <trkpt lat="40.169367" lon="-5.144017">
        <ele>1629.0</ele>
        <time>2015-05-23T13:52:08Z</time>
      </trkpt>
      <trkpt lat="40.169533" lon="-5.144283">
        <ele>1632.0</ele>
        <time>2015-05-23T13:52:10Z</time>
      </trkpt>
      <trkpt lat="40.169683" lon="-5.144467">
        <ele>1634.0</ele>
        <time>2015-05-23T13:52:12Z</time>
      </trkpt>
      <trkpt lat="40.169867" lon="-5.144650">
        <ele>1630.0</ele>
        <time>2015-05-23T13:52:14Z</time>
      </trkpt>
      <trkpt lat="40.170083" lon="-5.144783">
        <ele>1625.0</ele>
        <time>2015-05-23T13:52:16Z</time>
      </trkpt>
      <trkpt lat="40.170267" lon="-5.144783">
        <ele>1623.0</ele>
        <time>2015-05-23T13:52:18Z</time>
      </trkpt>
      <trkpt lat="40.170367" lon="-5.144717">
        <ele>1618.0</ele>
        <time>2015-05-23T13:52:20Z</time>
      </trkpt>
      <trkpt lat="40.170400" lon="-5.144633">
        <ele>1614.0</ele>
        <time>2015-05-23T13:52:22Z</time>
      </trkpt>
      <trkpt lat="40.170367" lon="-5.144533">
        <ele>1608.0</ele>
        <time>2015-05-23T13:52:24Z</time>
      </trkpt>
      <trkpt lat="40.170267" lon="-5.144450">
        <ele>1604.0</ele>
        <time>2015-05-23T13:52:26Z</time>
      </trkpt>
      <trkpt lat="40.170200" lon="-5.144417">
        <ele>1604.0</ele>
        <time>2015-05-23T13:52:28Z</time>
      </trkpt>
      <trkpt lat="40.170150" lon="-5.144333">
        <ele>1603.0</ele>
        <time>2015-05-23T13:52:30Z</time>
      </trkpt>
      <trkpt lat="40.170067" lon="-5.144200">
        <ele>1603.0</ele>
        <time>2015-05-23T13:52:32Z</time>
      </trkpt>
      <trkpt lat="40.170050" lon="-5.144100">
        <ele>1611.0</ele>
        <time>2015-05-23T13:52:34Z</time>
      </trkpt>
      <trkpt lat="40.170033" lon="-5.144017">
        <ele>1617.0</ele>
        <time>2015-05-23T13:52:36Z</time>
      </trkpt>
      <trkpt lat="40.169950" lon="-5.143933">
        <ele>1619.0</ele>
        <time>2015-05-23T13:52:38Z</time>
      </trkpt>
      <trkpt lat="40.169867" lon="-5.143883">
        <ele>1622.0</ele>
        <time>2015-05-23T13:52:40Z</time>
      </trkpt>
      <trkpt lat="40.169783" lon="-5.143867">
        <ele>1624.0</ele>
        <time>2015-05-23T13:52:42Z</time>
      </trkpt>
      <trkpt lat="40.169650" lon="-5.143950">
        <ele>1621.0</ele>
        <time>2015-05-23T13:52:44Z</time>
      </trkpt>
      <trkpt lat="40.169500" lon="-5.144117">
        <ele>1618.0</ele>
        <time>2015-05-23T13:52:46Z</time>
      </trkpt>
      <trkpt lat="40.169383" lon="-5.144233">
        <ele>1619.0</ele>
        <time>2015-05-23T13:52:48Z</time>
      </trkpt>
      <trkpt lat="40.169267" lon="-5.144317">
        <ele>1617.0</ele>
        <time>2015-05-23T13:52:50Z</time>
      </trkpt>
      <trkpt lat="40.169150" lon="-5.144550">
        <ele>1613.0</ele>
        <time>2015-05-23T13:52:52Z</time>
      </trkpt>
      <trkpt lat="40.169067" lon="-5.144867">
        <ele>1611.0</ele>
        <time>2015-05-23T13:52:54Z</time>
      </trkpt>
      <trkpt lat="40.169033" lon="-5.145167">
        <ele>1611.0</ele>
        <time>2015-05-23T13:52:56Z</time>
      </trkpt>
      <trkpt lat="40.168967" lon="-5.145483">
        <ele>1610.0</ele>
        <time>2015-05-23T13:52:58Z</time>
      </trkpt>
      <trkpt lat="40.168883" lon="-5.145800">
        <ele>1609.0</ele>
        <time>2015-05-23T13:53:00Z</time>
      </trkpt>
      <trkpt lat="40.168800" lon="-5.146100">
        <ele>1613.0</ele>
        <time>2015-05-23T13:53:02Z</time>
      </trkpt>
      <trkpt lat="40.168783" lon="-5.146417">
        <ele>1617.0</ele>
        <time>2015-05-23T13:53:04Z</time>
      </trkpt>
      <trkpt lat="40.168767" lon="-5.146783">
        <ele>1619.0</ele>
        <time>2015-05-23T13:53:06Z</time>
      </trkpt>
      <trkpt lat="40.168800" lon="-5.147117">
        <ele>1622.0</ele>
        <time>2015-05-23T13:53:08Z</time>
      </trkpt>
      <trkpt lat="40.168833" lon="-5.147467">
        <ele>1623.0</ele>
        <time>2015-05-23T13:53:10Z</time>
      </trkpt>
      <trkpt lat="40.168867" lon="-5.147800">
        <ele>1623.0</ele>
        <time>2015-05-23T13:53:12Z</time>
      </trkpt>
      <trkpt lat="40.168917" lon="-5.148117">
        <ele>1621.0</ele>
        <time>2015-05-23T13:53:14Z</time>
      </trkpt>
      <trkpt lat="40.168917" lon="-5.148417">
        <ele>1617.0</ele>
        <time>2015-05-23T13:53:16Z</time>
      </trkpt>
      <trkpt lat="40.168917" lon="-5.148700">
        <ele>1612.0</ele>
        <time>2015-05-23T13:53:18Z</time>
      </trkpt>
      <trkpt lat="40.168917" lon="-5.149000">
        <ele>1604.0</ele>
        <time>2015-05-23T13:53:20Z</time>
      </trkpt>
      <trkpt lat="40.168833" lon="-5.149317">
        <ele>1596.0</ele>
        <time>2015-05-23T13:53:22Z</time>
      </trkpt>
      <trkpt lat="40.168667" lon="-5.149583">
        <ele>1588.0</ele>
        <time>2015-05-23T13:53:24Z</time>
      </trkpt>
      <trkpt lat="40.168483" lon="-5.149800">
        <ele>1583.0</ele>
        <time>2015-05-23T13:53:26Z</time>
      </trkpt>
      <trkpt lat="40.168283" lon="-5.149967">
        <ele>1579.0</ele>
        <time>2015-05-23T13:53:28Z</time>
      </trkpt>
      <trkpt lat="40.168083" lon="-5.150017">
        <ele>1572.0</ele>
        <time>2015-05-23T13:53:30Z</time>
      </trkpt>
      <trkpt lat="40.167900" lon="-5.149950">
        <ele>1565.0</ele>
        <time>2015-05-23T13:53:32Z</time>
      </trkpt>
      <trkpt lat="40.167783" lon="-5.149850">
        <ele>1560.0</ele>
        <time>2015-05-23T13:53:34Z</time>
      </trkpt>
      <trkpt lat="40.167717" lon="-5.149733">
        <ele>1556.0</ele>
        <time>2015-05-23T13:53:36Z</time>
      </trkpt>
      <trkpt lat="40.167717" lon="-5.149583">
        <ele>1551.0</ele>
        <time>2015-05-23T13:53:38Z</time>
      </trkpt>
      <trkpt lat="40.167767" lon="-5.149433">
        <ele>1546.0</ele>
        <time>2015-05-23T13:53:40Z</time>
      </trkpt>
      <trkpt lat="40.167850" lon="-5.149300">
        <ele>1543.0</ele>
        <time>2015-05-23T13:53:42Z</time>
      </trkpt>
      <trkpt lat="40.167917" lon="-5.149133">
        <ele>1539.0</ele>
        <time>2015-05-23T13:53:44Z</time>
      </trkpt>
      <trkpt lat="40.168017" lon="-5.148950">
        <ele>1534.0</ele>
        <time>2015-05-23T13:53:46Z</time>
      </trkpt>
      <trkpt lat="40.168150" lon="-5.148783">
        <ele>1530.0</ele>
        <time>2015-05-23T13:53:48Z</time>
      </trkpt>
      <trkpt lat="40.168267" lon="-5.148617">
        <ele>1530.0</ele>
        <time>2015-05-23T13:53:50Z</time>
      </trkpt>
      <trkpt lat="40.168317" lon="-5.148483">
        <ele>1531.0</ele>
        <time>2015-05-23T13:53:52Z</time>
      </trkpt>
      <trkpt lat="40.168333" lon="-5.148317">
        <ele>1529.0</ele>
        <time>2015-05-23T13:53:54Z</time>
      </trkpt>
      <trkpt lat="40.168317" lon="-5.148117">
        <ele>1527.0</ele>
        <time>2015-05-23T13:53:56Z</time>
      </trkpt>
      <trkpt lat="40.168333" lon="-5.147950">
        <ele>1526.0</ele>
        <time>2015-05-23T13:53:58Z</time>
      </trkpt>
      <trkpt lat="40.168417" lon="-5.147817">
        <ele>1525.0</ele>
        <time>2015-05-23T13:54:00Z</time>
      </trkpt>
      <trkpt lat="40.168483" lon="-5.147683">
        <ele>1524.0</ele>
        <time>2015-05-23T13:54:02Z</time>
      </trkpt>
      <trkpt lat="40.168600" lon="-5.147600">
        <ele>1522.0</ele>
        <time>2015-05-23T13:54:04Z</time>
      </trkpt>
      <trkpt lat="40.168717" lon="-5.147500">
        <ele>1520.0</ele>
        <time>2015-05-23T13:54:06Z</time>
      </trkpt>
      <trkpt lat="40.168833" lon="-5.147383">
        <ele>1518.0</ele>
        <time>2015-05-23T13:54:08Z</time>
      </trkpt>
      <trkpt lat="40.168950" lon="-5.147250">
        <ele>1518.0</ele>
        <time>2015-05-23T13:54:10Z</time>
      </trkpt>
      <trkpt lat="40.169017" lon="-5.147100">
        <ele>1519.0</ele>
        <time>2015-05-23T13:54:12Z</time>
      </trkpt>
      <trkpt lat="40.169067" lon="-5.146983">
        <ele>1522.0</ele>
        <time>2015-05-23T13:54:14Z</time>
      </trkpt>
      <trkpt lat="40.169083" lon="-5.146883">
        <ele>1524.0</ele>
        <time>2015-05-23T13:54:16Z</time>
      </trkpt>
      <trkpt lat="40.169050" lon="-5.146750">
        <ele>1523.0</ele>
        <time>2015-05-23T13:54:18Z</time>
      </trkpt>
      <trkpt lat="40.168983" lon="-5.146617">
        <ele>1521.0</ele>
        <time>2015-05-23T13:54:20Z</time>
      </trkpt>
      <trkpt lat="40.168900" lon="-5.146500">
        <ele>1521.0</ele>
        <time>2015-05-23T13:54:22Z</time>
      </trkpt>
      <trkpt lat="40.168783" lon="-5.146450">
        <ele>1522.0</ele>
        <time>2015-05-23T13:54:24Z</time>
      </trkpt>
      <trkpt lat="40.168650" lon="-5.146417">
        <ele>1524.0</ele>
        <time>2015-05-23T13:54:26Z</time>
      </trkpt>
      <trkpt lat="40.168533" lon="-5.146467">
        <ele>1527.0</ele>
        <time>2015-05-23T13:54:28Z</time>
      </trkpt>
      <trkpt lat="40.168400" lon="-5.146583">
        <ele>1524.0</ele>
        <time>2015-05-23T13:54:30Z</time>
      </trkpt>
      <trkpt lat="40.168283" lon="-5.146800">
        <ele>1523.0</ele>
        <time>2015-05-23T13:54:32Z</time>
      </trkpt>
      <trkpt lat="40.168233" lon="-5.147017">
        <ele>1523.0</ele>
        <time>2015-05-23T13:54:34Z</time>
      </trkpt>
      <trkpt lat="40.168233" lon="-5.147250">
        <ele>1522.0</ele>
        <time>2015-05-23T13:54:36Z</time>
      </trkpt>
      <trkpt lat="40.168300" lon="-5.147533">
        <ele>1518.0</ele>
        <time>2015-05-23T13:54:38Z</time>
      </trkpt>
      <trkpt lat="40.168433" lon="-5.147833">
        <ele>1516.0</ele>
        <time>2015-05-23T13:54:40Z</time>
      </trkpt>
      <trkpt lat="40.168550" lon="-5.148100">
        <ele>1517.0</ele>
        <time>2015-05-23T13:54:42Z</time>
      </trkpt>
      <trkpt lat="40.168650" lon="-5.148317">
        <ele>1518.0</ele>
        <time>2015-05-23T13:54:44Z</time>
      </trkpt>
      <trkpt lat="40.168817" lon="-5.148467">
        <ele>1516.0</ele>
        <time>2015-05-23T13:54:46Z</time>
      </trkpt>
      <trkpt lat="40.169017" lon="-5.148633">
        <ele>1513.0</ele>
        <time>2015-05-23T13:54:48Z</time>
      </trkpt>
      <trkpt lat="40.169167" lon="-5.148850">
        <ele>1513.0</ele>
        <time>2015-05-23T13:54:50Z</time>
      </trkpt>
      <trkpt lat="40.169300" lon="-5.149050">
        <ele>1514.0</ele>
        <time>2015-05-23T13:54:52Z</time>
      </trkpt>
      <trkpt lat="40.169417" lon="-5.149250">
        <ele>1513.0</ele>
        <time>2015-05-23T13:54:54Z</time>
      </trkpt>
      <trkpt lat="40.169550" lon="-5.149483">
        <ele>1510.0</ele>
        <time>2015-05-23T13:54:56Z</time>
      </trkpt>
      <trkpt lat="40.169667" lon="-5.149750">
        <ele>1510.0</ele>
        <time>2015-05-23T13:54:58Z</time>
      </trkpt>
      <trkpt lat="40.169800" lon="-5.149967">
        <ele>1512.0</ele>
        <time>2015-05-23T13:55:00Z</time>
      </trkpt>
      <trkpt lat="40.169983" lon="-5.150183">
        <ele>1509.0</ele>
        <time>2015-05-23T13:55:02Z</time>
      </trkpt>
      <trkpt lat="40.170183" lon="-5.150400">
        <ele>1507.0</ele>
        <time>2015-05-23T13:55:04Z</time>
      </trkpt>
      <trkpt lat="40.170333" lon="-5.150617">
        <ele>1506.0</ele>
        <time>2015-05-23T13:55:06Z</time>
      </trkpt>
      <trkpt lat="40.170433" lon="-5.150917">
        <ele>1501.0</ele>
        <time>2015-05-23T13:55:08Z</time>
      </trkpt>
      <trkpt lat="40.170517" lon="-5.151250">
        <ele>1496.0</ele>
        <time>2015-05-23T13:55:10Z</time>
      </trkpt>
      <trkpt lat="40.170617" lon="-5.151533">
        <ele>1493.0</ele>
        <time>2015-05-23T13:55:12Z</time>
      </trkpt>
      <trkpt lat="40.170733" lon="-5.151817">
        <ele>1486.0</ele>
        <time>2015-05-23T13:55:14Z</time>
      </trkpt>
      <trkpt lat="40.170783" lon="-5.152167">
        <ele>1476.0</ele>
        <time>2015-05-23T13:55:16Z</time>
      </trkpt>
      <trkpt lat="40.170750" lon="-5.152467">
        <ele>1467.0</ele>
        <time>2015-05-23T13:55:18Z</time>
      </trkpt>
      <trkpt lat="40.170667" lon="-5.152717">
        <ele>1457.0</ele>
        <time>2015-05-23T13:55:20Z</time>
      </trkpt>
      <trkpt lat="40.170500" lon="-5.152917">
        <ele>1445.0</ele>
        <time>2015-05-23T13:55:22Z</time>
      </trkpt>
      <trkpt lat="40.170317" lon="-5.153017">
        <ele>1437.0</ele>
        <time>2015-05-23T13:55:24Z</time>
      </trkpt>
      <trkpt lat="40.170183" lon="-5.153033">
        <ele>1433.0</ele>
        <time>2015-05-23T13:55:26Z</time>
      </trkpt>
      <trkpt lat="40.170000" lon="-5.153033">
        <ele>1424.0</ele>
        <time>2015-05-23T13:55:28Z</time>
      </trkpt>
      <trkpt lat="40.169767" lon="-5.153017">
        <ele>1416.0</ele>
        <time>2015-05-23T13:55:30Z</time>
      </trkpt>
      <trkpt lat="40.169567" lon="-5.152967">
        <ele>1416.0</ele>
        <time>2015-05-23T13:55:32Z</time>
      </trkpt>
      <trkpt lat="40.169383" lon="-5.152917">
        <ele>1413.0</ele>
        <time>2015-05-23T13:55:34Z</time>
      </trkpt>
      <trkpt lat="40.169167" lon="-5.152867">
        <ele>1410.0</ele>
        <time>2015-05-23T13:55:36Z</time>
      </trkpt>
      <trkpt lat="40.168983" lon="-5.152817">
        <ele>1410.0</ele>
        <time>2015-05-23T13:55:38Z</time>
      </trkpt>
      <trkpt lat="40.168800" lon="-5.152750">
        <ele>1408.0</ele>
        <time>2015-05-23T13:55:40Z</time>
      </trkpt>
      <trkpt lat="40.168600" lon="-5.152667">
        <ele>1405.0</ele>
        <time>2015-05-23T13:55:42Z</time>
      </trkpt>
      <trkpt lat="40.168433" lon="-5.152583">
        <ele>1404.0</ele>
        <time>2015-05-23T13:55:44Z</time>
      </trkpt>
      <trkpt lat="40.168283" lon="-5.152500">
        <ele>1404.0</ele>
        <time>2015-05-23T13:55:46Z</time>
      </trkpt>
      <trkpt lat="40.168117" lon="-5.152433">
        <ele>1405.0</ele>
        <time>2015-05-23T13:55:48Z</time>
      </trkpt>
      <trkpt lat="40.167967" lon="-5.152333">
        <ele>1406.0</ele>
        <time>2015-05-23T13:55:50Z</time>
      </trkpt>
      <trkpt lat="40.167817" lon="-5.152200">
        <ele>1408.0</ele>
        <time>2015-05-23T13:55:52Z</time>
      </trkpt>
      <trkpt lat="40.167667" lon="-5.152083">
        <ele>1410.0</ele>
        <time>2015-05-23T13:55:54Z</time>
      </trkpt>
      <trkpt lat="40.167517" lon="-5.151983">
        <ele>1411.0</ele>
        <time>2015-05-23T13:55:56Z</time>
      </trkpt>
      <trkpt lat="40.167350" lon="-5.151850">
        <ele>1413.0</ele>
        <time>2015-05-23T13:55:58Z</time>
      </trkpt>
      <trkpt lat="40.167217" lon="-5.151700">
        <ele>1415.0</ele>
        <time>2015-05-23T13:56:00Z</time>
      </trkpt>
      <trkpt lat="40.167083" lon="-5.151667">
        <ele>1420.0</ele>
        <time>2015-05-23T13:56:02Z</time>
      </trkpt>
      <trkpt lat="40.166900" lon="-5.151700">
        <ele>1417.0</ele>
        <time>2015-05-23T13:56:04Z</time>
      </trkpt>
      <trkpt lat="40.166717" lon="-5.151783">
        <ele>1414.0</ele>
        <time>2015-05-23T13:56:06Z</time>
      </trkpt>
      <trkpt lat="40.166550" lon="-5.151833">
        <ele>1411.0</ele>
        <time>2015-05-23T13:56:08Z</time>
      </trkpt>
      <trkpt lat="40.166367" lon="-5.151800">
        <ele>1405.0</ele>
        <time>2015-05-23T13:56:10Z</time>
      </trkpt>
      <trkpt lat="40.166200" lon="-5.151783">
        <ele>1402.0</ele>
        <time>2015-05-23T13:56:12Z</time>
      </trkpt>
      <trkpt lat="40.166050" lon="-5.151767">
        <ele>1401.0</ele>
        <time>2015-05-23T13:56:14Z</time>
      </trkpt>
      <trkpt lat="40.165917" lon="-5.151733">
        <ele>1399.0</ele>
        <time>2015-05-23T13:56:16Z</time>
      </trkpt>
      <trkpt lat="40.165783" lon="-5.151683">
        <ele>1397.0</ele>
        <time>2015-05-23T13:56:18Z</time>
      </trkpt>
      <trkpt lat="40.165650" lon="-5.151633">
        <ele>1394.0</ele>
        <time>2015-05-23T13:56:20Z</time>
      </trkpt>
      <trkpt lat="40.165500" lon="-5.151567">
        <ele>1389.0</ele>
        <time>2015-05-23T13:56:22Z</time>
      </trkpt>
      <trkpt lat="40.165367" lon="-5.151517">
        <ele>1386.0</ele>
        <time>2015-05-23T13:56:24Z</time>
      </trkpt>
      <trkpt lat="40.165250" lon="-5.151417">
        <ele>1384.0</ele>
        <time>2015-05-23T13:56:26Z</time>
      </trkpt>
      <trkpt lat="40.165167" lon="-5.151300">
        <ele>1384.0</ele>
        <time>2015-05-23T13:56:28Z</time>
      </trkpt>
      <trkpt lat="40.165117" lon="-5.151150">
        <ele>1383.0</ele>
        <time>2015-05-23T13:56:30Z</time>
      </trkpt>
      <trkpt lat="40.165033" lon="-5.151033">
        <ele>1382.0</ele>
        <time>2015-05-23T13:56:32Z</time>
      </trkpt>
      <trkpt lat="40.164950" lon="-5.150900">
        <ele>1379.0</ele>
        <time>2015-05-23T13:56:34Z</time>
      </trkpt>
      <trkpt lat="40.164850" lon="-5.150733">
        <ele>1376.0</ele>
        <time>2015-05-23T13:56:36Z</time>
      </trkpt>
      <trkpt lat="40.164783" lon="-5.150583">
        <ele>1375.0</ele>
        <time>2015-05-23T13:56:38Z</time>
      </trkpt>
      <trkpt lat="40.164700" lon="-5.150417">
        <ele>1374.0</ele>
        <time>2015-05-23T13:56:40Z</time>
      </trkpt>
      <trkpt lat="40.164633" lon="-5.150233">
        <ele>1374.0</ele>
        <time>2015-05-23T13:56:42Z</time>
      </trkpt>
      <trkpt lat="40.164567" lon="-5.150117">
        <ele>1379.0</ele>
        <time>2015-05-23T13:56:44Z</time>
      </trkpt>
      <trkpt lat="40.164467" lon="-5.150067">
        <ele>1381.0</ele>
        <time>2015-05-23T13:56:46Z</time>
      </trkpt>
      <trkpt lat="40.164333" lon="-5.150117">
        <ele>1382.0</ele>
        <time>2015-05-23T13:56:48Z</time>
      </trkpt>
      <trkpt lat="40.164233" lon="-5.150267">
        <ele>1385.0</ele>
        <time>2015-05-23T13:56:50Z</time>
      </trkpt>
      <trkpt lat="40.164183" lon="-5.150467">
        <ele>1386.0</ele>
        <time>2015-05-23T13:56:52Z</time>
      </trkpt>
      <trkpt lat="40.164200" lon="-5.150667">
        <ele>1389.0</ele>
        <time>2015-05-23T13:56:54Z</time>
      </trkpt>
      <trkpt lat="40.164317" lon="-5.150867">
        <ele>1387.0</ele>
        <time>2015-05-23T13:56:56Z</time>
      </trkpt>
      <trkpt lat="40.164483" lon="-5.151117">
        <ele>1384.0</ele>
        <time>2015-05-23T13:56:58Z</time>
      </trkpt>
      <trkpt lat="40.164700" lon="-5.151250">
        <ele>1388.0</ele>
        <time>2015-05-23T13:57:00Z</time>
      </trkpt>
      <trkpt lat="40.164850" lon="-5.151267">
        <ele>1394.0</ele>
        <time>2015-05-23T13:57:02Z</time>
      </trkpt>
      <trkpt lat="40.165000" lon="-5.151217">
        <ele>1395.0</ele>
        <time>2015-05-23T13:57:04Z</time>
      </trkpt>
      <trkpt lat="40.165150" lon="-5.151017">
        <ele>1392.0</ele>
        <time>2015-05-23T13:57:06Z</time>
      </trkpt>
      <trkpt lat="40.165167" lon="-5.150767">
        <ele>1391.0</ele>
        <time>2015-05-23T13:57:08Z</time>
      </trkpt>
      <trkpt lat="40.165117" lon="-5.150633">
        <ele>1395.0</ele>
        <time>2015-05-23T13:57:10Z</time>
      </trkpt>
      <trkpt lat="40.165033" lon="-5.150533">
        <ele>1398.0</ele>
        <time>2015-05-23T13:57:12Z</time>
      </trkpt>
      <trkpt lat="40.164883" lon="-5.150500">
        <ele>1397.0</ele>
        <time>2015-05-23T13:57:14Z</time>
      </trkpt>
      <trkpt lat="40.164733" lon="-5.150567">
        <ele>1399.0</ele>
        <time>2015-05-23T13:57:16Z</time>
      </trkpt>
      <trkpt lat="40.164667" lon="-5.150733">
        <ele>1402.0</ele>
        <time>2015-05-23T13:57:18Z</time>
      </trkpt>
      <trkpt lat="40.164633" lon="-5.150917">
        <ele>1403.0</ele>
        <time>2015-05-23T13:57:20Z</time>
      </trkpt>
      <trkpt lat="40.164667" lon="-5.151167">
        <ele>1404.0</ele>
        <time>2015-05-23T13:57:22Z</time>
      </trkpt>
      <trkpt lat="40.164817" lon="-5.151367">
        <ele>1401.0</ele>
        <time>2015-05-23T13:57:24Z</time>
      </trkpt>
      <trkpt lat="40.165033" lon="-5.151467">
        <ele>1400.0</ele>
        <time>2015-05-23T13:57:26Z</time>
      </trkpt>
      <trkpt lat="40.165250" lon="-5.151450">
        <ele>1403.0</ele>
        <time>2015-05-23T13:57:28Z</time>
      </trkpt>
      <trkpt lat="40.165400" lon="-5.151350">
        <ele>1409.0</ele>
        <time>2015-05-23T13:57:30Z</time>
      </trkpt>
      <trkpt lat="40.165500" lon="-5.151183">
        <ele>1412.0</ele>
        <time>2015-05-23T13:57:32Z</time>
      </trkpt>
      <trkpt lat="40.165550" lon="-5.151000">
        <ele>1413.0</ele>
        <time>2015-05-23T13:57:34Z</time>
      </trkpt>
      <trkpt lat="40.165500" lon="-5.150817">
        <ele>1414.0</ele>
        <time>2015-05-23T13:57:36Z</time>
      </trkpt>
      <trkpt lat="40.165400" lon="-5.150750">
        <ele>1416.0</ele>
        <time>2015-05-23T13:57:38Z</time>
      </trkpt>
      <trkpt lat="40.165250" lon="-5.150767">
        <ele>1416.0</ele>
        <time>2015-05-23T13:57:40Z</time>
      </trkpt>
      <trkpt lat="40.165117" lon="-5.150867">
        <ele>1417.0</ele>
        <time>2015-05-23T13:57:42Z</time>
      </trkpt>
      <trkpt lat="40.165017" lon="-5.151033">
        <ele>1418.0</ele>
        <time>2015-05-23T13:57:44Z</time>
      </trkpt>
      <trkpt lat="40.164983" lon="-5.151250">
        <ele>1419.0</ele>
        <time>2015-05-23T13:57:46Z</time>
      </trkpt>
      <trkpt lat="40.165017" lon="-5.151483">
        <ele>1419.0</ele>
        <time>2015-05-23T13:57:48Z</time>
      </trkpt>
      <trkpt lat="40.165100" lon="-5.151700">
        <ele>1422.0</ele>
        <time>2015-05-23T13:57:50Z</time>
      </trkpt>
      <trkpt lat="40.165250" lon="-5.151850">
        <ele>1422.0</ele>
        <time>2015-05-23T13:57:52Z</time>
      </trkpt>
      <trkpt lat="40.165450" lon="-5.152000">
        <ele>1421.0</ele>
        <time>2015-05-23T13:57:54Z</time>
      </trkpt>
      <trkpt lat="40.165650" lon="-5.152083">
        <ele>1424.0</ele>
        <time>2015-05-23T13:57:56Z</time>
      </trkpt>
      <trkpt lat="40.165800" lon="-5.152100">
        <ele>1433.0</ele>
        <time>2015-05-23T13:57:58Z</time>
      </trkpt>
      <trkpt lat="40.165967" lon="-5.152067">
        <ele>1437.0</ele>
        <time>2015-05-23T13:58:00Z</time>
      </trkpt>
      <trkpt lat="40.166100" lon="-5.151883">
        <ele>1437.0</ele>
        <time>2015-05-23T13:58:02Z</time>
      </trkpt>
      <trkpt lat="40.166083" lon="-5.151700">
        <ele>1437.0</ele>
        <time>2015-05-23T13:58:04Z</time>
      </trkpt>
      <trkpt lat="40.166017" lon="-5.151583">
        <ele>1439.0</ele>
        <time>2015-05-23T13:58:06Z</time>
      </trkpt>
      <trkpt lat="40.165933" lon="-5.151533">
        <ele>1441.0</ele>
        <time>2015-05-23T13:58:08Z</time>
      </trkpt>
      <trkpt lat="40.165800" lon="-5.151583">
        <ele>1440.0</ele>
        <time>2015-05-23T13:58:10Z</time>
      </trkpt>
      <trkpt lat="40.165683" lon="-5.151700">
        <ele>1441.0</ele>
        <time>2015-05-23T13:58:12Z</time>
      </trkpt>
      <trkpt lat="40.165617" lon="-5.151917">
        <ele>1442.0</ele>
        <time>2015-05-23T13:58:14Z</time>
      </trkpt>
      <trkpt lat="40.165600" lon="-5.152133">
        <ele>1444.0</ele>
        <time>2015-05-23T13:58:16Z</time>
      </trkpt>
      <trkpt lat="40.165650" lon="-5.152367">
        <ele>1448.0</ele>
        <time>2015-05-23T13:58:18Z</time>
      </trkpt>
      <trkpt lat="40.165767" lon="-5.152583">
        <ele>1449.0</ele>
        <time>2015-05-23T13:58:20Z</time>
      </trkpt>
      <trkpt lat="40.165933" lon="-5.152783">
        <ele>1452.0</ele>
        <time>2015-05-23T13:58:22Z</time>
      </trkpt>
      <trkpt lat="40.166117" lon="-5.152867">
        <ele>1457.0</ele>
        <time>2015-05-23T13:58:24Z</time>
      </trkpt>
      <trkpt lat="40.166283" lon="-5.152817">
        <ele>1462.0</ele>
        <time>2015-05-23T13:58:26Z</time>
      </trkpt>
      <trkpt lat="40.166400" lon="-5.152717">
        <ele>1468.0</ele>
        <time>2015-05-23T13:58:28Z</time>
      </trkpt>
      <trkpt lat="40.166417" lon="-5.152550">
        <ele>1472.0</ele>
        <time>2015-05-23T13:58:30Z</time>
      </trkpt>
      <trkpt lat="40.166333" lon="-5.152433">
        <ele>1476.0</ele>
        <time>2015-05-23T13:58:32Z</time>
      </trkpt>
      <trkpt lat="40.166217" lon="-5.152383">
        <ele>1480.0</ele>
        <time>2015-05-23T13:58:34Z</time>
      </trkpt>
      <trkpt lat="40.166100" lon="-5.152383">
        <ele>1483.0</ele>
        <time>2015-05-23T13:58:36Z</time>
      </trkpt>
      <trkpt lat="40.165983" lon="-5.152467">
        <ele>1486.0</ele>
        <time>2015-05-23T13:58:38Z</time>
      </trkpt>
      <trkpt lat="40.165917" lon="-5.152583">
        <ele>1488.0</ele>
        <time>2015-05-23T13:58:40Z</time>
      </trkpt>
      <trkpt lat="40.165883" lon="-5.152800">
        <ele>1487.0</ele>
        <time>2015-05-23T13:58:42Z</time>
      </trkpt>
      <trkpt lat="40.165900" lon="-5.153067">
        <ele>1486.0</ele>
        <time>2015-05-23T13:58:44Z</time>
      </trkpt>
      <trkpt lat="40.166000" lon="-5.153300">
        <ele>1485.0</ele>
        <time>2015-05-23T13:58:46Z</time>
      </trkpt>
      <trkpt lat="40.166133" lon="-5.153517">
        <ele>1484.0</ele>
        <time>2015-05-23T13:58:48Z</time>
      </trkpt>
      <trkpt lat="40.166333" lon="-5.153717">
        <ele>1483.0</ele>
        <time>2015-05-23T13:58:50Z</time>
      </trkpt>
      <trkpt lat="40.166533" lon="-5.153833">
        <ele>1486.0</ele>
        <time>2015-05-23T13:58:52Z</time>
      </trkpt>
      <trkpt lat="40.166700" lon="-5.153883">
        <ele>1492.0</ele>
        <time>2015-05-23T13:58:54Z</time>
      </trkpt>
      <trkpt lat="40.166883" lon="-5.153867">
        <ele>1494.0</ele>
        <time>2015-05-23T13:58:56Z</time>
      </trkpt>
      <trkpt lat="40.167000" lon="-5.153700">
        <ele>1496.0</ele>
        <time>2015-05-23T13:58:58Z</time>
      </trkpt>
      <trkpt lat="40.166967" lon="-5.153583">
        <ele>1503.0</ele>
        <time>2015-05-23T13:59:00Z</time>
      </trkpt>
      <trkpt lat="40.166933" lon="-5.153483">
        <ele>1505.0</ele>
        <time>2015-05-23T13:59:02Z</time>
      </trkpt>
      <trkpt lat="40.166800" lon="-5.153383">
        <ele>1507.0</ele>
        <time>2015-05-23T13:59:04Z</time>
      </trkpt>
      <trkpt lat="40.166633" lon="-5.153367">
        <ele>1511.0</ele>
        <time>2015-05-23T13:59:06Z</time>
      </trkpt>
      <trkpt lat="40.166500" lon="-5.153433">
        <ele>1518.0</ele>
        <time>2015-05-23T13:59:08Z</time>
      </trkpt>
      <trkpt lat="40.166383" lon="-5.153567">
        <ele>1522.0</ele>
        <time>2015-05-23T13:59:10Z</time>
      </trkpt>
      <trkpt lat="40.166317" lon="-5.153783">
        <ele>1523.0</ele>
        <time>2015-05-23T13:59:12Z</time>
      </trkpt>
      <trkpt lat="40.166317" lon="-5.154017">
        <ele>1521.0</ele>
        <time>2015-05-23T13:59:14Z</time>
      </trkpt>
      <trkpt lat="40.166350" lon="-5.154283">
        <ele>1519.0</ele>
        <time>2015-05-23T13:59:16Z</time>
      </trkpt>
      <trkpt lat="40.166450" lon="-5.154567">
        <ele>1517.0</ele>
        <time>2015-05-23T13:59:18Z</time>
      </trkpt>
      <trkpt lat="40.166567" lon="-5.154833">
        <ele>1518.0</ele>
        <time>2015-05-23T13:59:20Z</time>
      </trkpt>
      <trkpt lat="40.166700" lon="-5.155033">
        <ele>1518.0</ele>
        <time>2015-05-23T13:59:22Z</time>
      </trkpt>
      <trkpt lat="40.166917" lon="-5.155200">
        <ele>1516.0</ele>
        <time>2015-05-23T13:59:24Z</time>
      </trkpt>
      <trkpt lat="40.167150" lon="-5.155233">
        <ele>1516.0</ele>
        <time>2015-05-23T13:59:26Z</time>
      </trkpt>
      <trkpt lat="40.167317" lon="-5.155200">
        <ele>1521.0</ele>
        <time>2015-05-23T13:59:28Z</time>
      </trkpt>
      <trkpt lat="40.167433" lon="-5.155117">
        <ele>1525.0</ele>
        <time>2015-05-23T13:59:30Z</time>
      </trkpt>
      <trkpt lat="40.167467" lon="-5.154967">
        <ele>1526.0</ele>
        <time>2015-05-23T13:59:32Z</time>
      </trkpt>
      <trkpt lat="40.167417" lon="-5.154883">
        <ele>1532.0</ele>
        <time>2015-05-23T13:59:34Z</time>
      </trkpt>
      <trkpt lat="40.167317" lon="-5.154883">
        <ele>1538.0</ele>
        <time>2015-05-23T13:59:36Z</time>
      </trkpt>
      <trkpt lat="40.167183" lon="-5.154950">
        <ele>1540.0</ele>
        <time>2015-05-23T13:59:38Z</time>
      </trkpt>
      <trkpt lat="40.167050" lon="-5.155117">
        <ele>1541.0</ele>
        <time>2015-05-23T13:59:40Z</time>
      </trkpt>
      <trkpt lat="40.166983" lon="-5.155350">
        <ele>1544.0</ele>
        <time>2015-05-23T13:59:42Z</time>
      </trkpt>
      <trkpt lat="40.166967" lon="-5.155633">
        <ele>1545.0</ele>
        <time>2015-05-23T13:59:44Z</time>
      </trkpt>
      <trkpt lat="40.167033" lon="-5.155950">
        <ele>1544.0</ele>
        <time>2015-05-23T13:59:46Z</time>
      </trkpt>
      <trkpt lat="40.167133" lon="-5.156200">
        <ele>1547.0</ele>
        <time>2015-05-23T13:59:48Z</time>
      </trkpt>
      <trkpt lat="40.167283" lon="-5.156400">
        <ele>1549.0</ele>
        <time>2015-05-23T13:59:50Z</time>
      </trkpt>
      <trkpt lat="40.167500" lon="-5.156550">
        <ele>1549.0</ele>
        <time>2015-05-23T13:59:52Z</time>
      </trkpt>
      <trkpt lat="40.167717" lon="-5.156583">
        <ele>1550.0</ele>
        <time>2015-05-23T13:59:54Z</time>
      </trkpt>
      <trkpt lat="40.167883" lon="-5.156500">
        <ele>1552.0</ele>
        <time>2015-05-23T13:59:56Z</time>
      </trkpt>
      <trkpt lat="40.167983" lon="-5.156350">
        <ele>1552.0</ele>
        <time>2015-05-23T13:59:58Z</time>
      </trkpt>
      <trkpt lat="40.168017" lon="-5.156200">
        <ele>1555.0</ele>
        <time>2015-05-23T14:00:00Z</time>
      </trkpt>
      <trkpt lat="40.167967" lon="-5.156167">
        <ele>1561.0</ele>
        <time>2015-05-23T14:00:02Z</time>
      </trkpt>
      <trkpt lat="40.167850" lon="-5.156217">
        <ele>1564.0</ele>
        <time>2015-05-23T14:00:04Z</time>
      </trkpt>
      <trkpt lat="40.167717" lon="-5.156367">
        <ele>1564.0</ele>
        <time>2015-05-23T14:00:06Z</time>
      </trkpt>
      <trkpt lat="40.167650" lon="-5.156633">
        <ele>1565.0</ele>
        <time>2015-05-23T14:00:08Z</time>
      </trkpt>
      <trkpt lat="40.167650" lon="-5.156883">
        <ele>1568.0</ele>
        <time>2015-05-23T14:00:10Z</time>
      </trkpt>
      <trkpt lat="40.167700" lon="-5.157117">
        <ele>1570.0</ele>
        <time>2015-05-23T14:00:12Z</time>
      </trkpt>
      <trkpt lat="40.167833" lon="-5.157400">
        <ele>1567.0</ele>
        <time>2015-05-23T14:00:14Z</time>
      </trkpt>
      <trkpt lat="40.168033" lon="-5.157583">
        <ele>1568.0</ele>
        <time>2015-05-23T14:00:16Z</time>
      </trkpt>
      <trkpt lat="40.168233" lon="-5.157633">
        <ele>1570.0</ele>
        <time>2015-05-23T14:00:18Z</time>
      </trkpt>
      <trkpt lat="40.168400" lon="-5.157600">
        <ele>1570.0</ele>
        <time>2015-05-23T14:00:20Z</time>
      </trkpt>
      <trkpt lat="40.168550" lon="-5.157483">
        <ele>1570.0</ele>
        <time>2015-05-23T14:00:22Z</time>
      </trkpt>
      <trkpt lat="40.168567" lon="-5.157300">
        <ele>1568.0</ele>
        <time>2015-05-23T14:00:24Z</time>
      </trkpt>
      <trkpt lat="40.168483" lon="-5.157200">
        <ele>1569.0</ele>
        <time>2015-05-23T14:00:26Z</time>
      </trkpt>
      <trkpt lat="40.168383" lon="-5.157233">
        <ele>1575.0</ele>
        <time>2015-05-23T14:00:28Z</time>
      </trkpt>
      <trkpt lat="40.168250" lon="-5.157350">
        <ele>1577.0</ele>
        <time>2015-05-23T14:00:30Z</time>
      </trkpt>
      <trkpt lat="40.168150" lon="-5.157533">
        <ele>1577.0</ele>
        <time>2015-05-23T14:00:32Z</time>
      </trkpt>
      <trkpt lat="40.168067" lon="-5.157783">
        <ele>1578.0</ele>
        <time>2015-05-23T14:00:34Z</time>
      </trkpt>
      <trkpt lat="40.168033" lon="-5.158067">
        <ele>1579.0</ele>
        <time>2015-05-23T14:00:36Z</time>
      </trkpt>
      <trkpt lat="40.168050" lon="-5.158350">
        <ele>1579.0</ele>
        <time>2015-05-23T14:00:38Z</time>
      </trkpt>
      <trkpt lat="40.168167" lon="-5.158633">
        <ele>1579.0</ele>
        <time>2015-05-23T14:00:40Z</time>
      </trkpt>
      <trkpt lat="40.168367" lon="-5.158833">
        <ele>1580.0</ele>
        <time>2015-05-23T14:00:42Z</time>
      </trkpt>
      <trkpt lat="40.168567" lon="-5.158900">
        <ele>1579.0</ele>
        <time>2015-05-23T14:00:44Z</time>
      </trkpt>
      <trkpt lat="40.168750" lon="-5.158867">
        <ele>1577.0</ele>
        <time>2015-05-23T14:00:46Z</time>
      </trkpt>
      <trkpt lat="40.168883" lon="-5.158750">
        <ele>1576.0</ele>
        <time>2015-05-23T14:00:48Z</time>
      </trkpt>
      <trkpt lat="40.168933" lon="-5.158583">
        <ele>1574.0</ele>
        <time>2015-05-23T14:00:50Z</time>
      </trkpt>
      <trkpt lat="40.168917" lon="-5.158450">
        <ele>1573.0</ele>
        <time>2015-05-23T14:00:52Z</time>
      </trkpt>
      <trkpt lat="40.168800" lon="-5.158367">
        <ele>1573.0</ele>
        <time>2015-05-23T14:00:54Z</time>
      </trkpt>
      <trkpt lat="40.168667" lon="-5.158350">
        <ele>1574.0</ele>
        <time>2015-05-23T14:00:56Z</time>
      </trkpt>
      <trkpt lat="40.168583" lon="-5.158417">
        <ele>1579.0</ele>
        <time>2015-05-23T14:00:58Z</time>
      </trkpt>
      <trkpt lat="40.168467" lon="-5.158567">
        <ele>1579.0</ele>
        <time>2015-05-23T14:01:00Z</time>
      </trkpt>
      <trkpt lat="40.168350" lon="-5.158817">
        <ele>1577.0</ele>
        <time>2015-05-23T14:01:02Z</time>
      </trkpt>
      <trkpt lat="40.168283" lon="-5.159083">
        <ele>1579.0</ele>
        <time>2015-05-23T14:01:04Z</time>
      </trkpt>
      <trkpt lat="40.168250" lon="-5.159333">
        <ele>1581.0</ele>
        <time>2015-05-23T14:01:06Z</time>
      </trkpt>
      <trkpt lat="40.168233" lon="-5.159650">
        <ele>1580.0</ele>
        <time>2015-05-23T14:01:08Z</time>
      </trkpt>
      <trkpt lat="40.168250" lon="-5.159967">
        <ele>1580.0</ele>
        <time>2015-05-23T14:01:10Z</time>
      </trkpt>
      <trkpt lat="40.168283" lon="-5.160233">
        <ele>1581.0</ele>
        <time>2015-05-23T14:01:12Z</time>
      </trkpt>
      <trkpt lat="40.168317" lon="-5.160550">
        <ele>1577.0</ele>
        <time>2015-05-23T14:01:14Z</time>
      </trkpt>
      <trkpt lat="40.168350" lon="-5.160900">
        <ele>1573.0</ele>
        <time>2015-05-23T14:01:16Z</time>
      </trkpt>
      <trkpt lat="40.168400" lon="-5.161217">
        <ele>1574.0</ele>
        <time>2015-05-23T14:01:18Z</time>
      </trkpt>
      <trkpt lat="40.168433" lon="-5.161500">
        <ele>1576.0</ele>
        <time>2015-05-23T14:01:20Z</time>
      </trkpt>
      <trkpt lat="40.168450" lon="-5.161783">
        <ele>1576.0</ele>
        <time>2015-05-23T14:01:22Z</time>
      </trkpt>
      <trkpt lat="40.168467" lon="-5.162067">
        <ele>1575.0</ele>
        <time>2015-05-23T14:01:24Z</time>
      </trkpt>
      <trkpt lat="40.168433" lon="-5.162383">
        <ele>1572.0</ele>
        <time>2015-05-23T14:01:26Z</time>
      </trkpt>
      <trkpt lat="40.168383" lon="-5.162667">
        <ele>1571.0</ele>
        <time>2015-05-23T14:01:28Z</time>
      </trkpt>
      <trkpt lat="40.168350" lon="-5.162933">
        <ele>1573.0</ele>
        <time>2015-05-23T14:01:30Z</time>
      </trkpt>
      <trkpt lat="40.168383" lon="-5.163183">
        <ele>1576.0</ele>
        <time>2015-05-23T14:01:32Z</time>
      </trkpt>
      <trkpt lat="40.168433" lon="-5.163467">
        <ele>1575.0</ele>
        <time>2015-05-23T14:01:34Z</time>
      </trkpt>
      <trkpt lat="40.168550" lon="-5.163750">
        <ele>1574.0</ele>
        <time>2015-05-23T14:01:36Z</time>
      </trkpt>
      <trkpt lat="40.168700" lon="-5.163983">
        <ele>1575.0</ele>
        <time>2015-05-23T14:01:38Z</time>
      </trkpt>
      <trkpt lat="40.168850" lon="-5.164183">
        <ele>1577.0</ele>
        <time>2015-05-23T14:01:40Z</time>
      </trkpt>
      <trkpt lat="40.169033" lon="-5.164300">
        <ele>1576.0</ele>
        <time>2015-05-23T14:01:42Z</time>
      </trkpt>
      <trkpt lat="40.169250" lon="-5.164317">
        <ele>1574.0</ele>
        <time>2015-05-23T14:01:44Z</time>
      </trkpt>
      <trkpt lat="40.169383" lon="-5.164250">
        <ele>1573.0</ele>
        <time>2015-05-23T14:01:46Z</time>
      </trkpt>
      <trkpt lat="40.169483" lon="-5.164150">
        <ele>1571.0</ele>
        <time>2015-05-23T14:01:48Z</time>
      </trkpt>
      <trkpt lat="40.169517" lon="-5.164033">
        <ele>1568.0</ele>
        <time>2015-05-23T14:01:50Z</time>
      </trkpt>
      <trkpt lat="40.169450" lon="-5.163883">
        <ele>1562.0</ele>
        <time>2015-05-23T14:01:52Z</time>
      </trkpt>
      <trkpt lat="40.169317" lon="-5.163833">
        <ele>1558.0</ele>
        <time>2015-05-23T14:01:54Z</time>
      </trkpt>
      <trkpt lat="40.169167" lon="-5.163883">
        <ele>1555.0</ele>
        <time>2015-05-23T14:01:56Z</time>
      </trkpt>
      <trkpt lat="40.169000" lon="-5.163967">
        <ele>1552.0</ele>
        <time>2015-05-23T14:01:58Z</time>
      </trkpt>
      <trkpt lat="40.168833" lon="-5.164117">
        <ele>1551.0</ele>
        <time>2015-05-23T14:02:00Z</time>
      </trkpt>
      <trkpt lat="40.168717" lon="-5.164333">
        <ele>1552.0</ele>
        <time>2015-05-23T14:02:02Z</time>
      </trkpt>
      <trkpt lat="40.168633" lon="-5.164550">
        <ele>1554.0</ele>
        <time>2015-05-23T14:02:04Z</time>
      </trkpt>
      <trkpt lat="40.168533" lon="-5.164800">
        <ele>1552.0</ele>
        <time>2015-05-23T14:02:06Z</time>
      </trkpt>
      <trkpt lat="40.168400" lon="-5.165067">
        <ele>1550.0</ele>
        <time>2015-05-23T14:02:08Z</time>
      </trkpt>
      <trkpt lat="40.168250" lon="-5.165300">
        <ele>1552.0</ele>
        <time>2015-05-23T14:02:10Z</time>
      </trkpt>
      <trkpt lat="40.168150" lon="-5.165533">
        <ele>1554.0</ele>
        <time>2015-05-23T14:02:12Z</time>
      </trkpt>
      <trkpt lat="40.168067" lon="-5.165783">
        <ele>1554.0</ele>
        <time>2015-05-23T14:02:14Z</time>
      </trkpt>
      <trkpt lat="40.167983" lon="-5.166050">
        <ele>1551.0</ele>
        <time>2015-05-23T14:02:16Z</time>
      </trkpt>
      <trkpt lat="40.167867" lon="-5.166350">
        <ele>1547.0</ele>
        <time>2015-05-23T14:02:18Z</time>
      </trkpt>
      <trkpt lat="40.167750" lon="-5.166600">
        <ele>1546.0</ele>
        <time>2015-05-23T14:02:20Z</time>
      </trkpt>
      <trkpt lat="40.167633" lon="-5.166867">
        <ele>1544.0</ele>
        <time>2015-05-23T14:02:22Z</time>
      </trkpt>
      <trkpt lat="40.167517" lon="-5.167167">
        <ele>1540.0</ele>
        <time>2015-05-23T14:02:24Z</time>
      </trkpt>
      <trkpt lat="40.167400" lon="-5.167433">
        <ele>1536.0</ele>
        <time>2015-05-23T14:02:26Z</time>
      </trkpt>
      <trkpt lat="40.167300" lon="-5.167700">
        <ele>1533.0</ele>
        <time>2015-05-23T14:02:28Z</time>
      </trkpt>
      <trkpt lat="40.167183" lon="-5.167967">
        <ele>1527.0</ele>
        <time>2015-05-23T14:02:30Z</time>
      </trkpt>
      <trkpt lat="40.167033" lon="-5.168233">
        <ele>1523.0</ele>
        <time>2015-05-23T14:02:32Z</time>
      </trkpt>
      <trkpt lat="40.166917" lon="-5.168467">
        <ele>1522.0</ele>
        <time>2015-05-23T14:02:34Z</time>
      </trkpt>
      <trkpt lat="40.166883" lon="-5.168700">
        <ele>1521.0</ele>
        <time>2015-05-23T14:02:36Z</time>
      </trkpt>
      <trkpt lat="40.166833" lon="-5.168983">
        <ele>1517.0</ele>
        <time>2015-05-23T14:02:38Z</time>
      </trkpt>
      <trkpt lat="40.166750" lon="-5.169267">
        <ele>1513.0</ele>
        <time>2015-05-23T14:02:40Z</time>
      </trkpt>
      <trkpt lat="40.166650" lon="-5.169483">
        <ele>1513.0</ele>
        <time>2015-05-23T14:02:42Z</time>
      </trkpt>
      <trkpt lat="40.166550" lon="-5.169700">
        <ele>1510.0</ele>
        <time>2015-05-23T14:02:44Z</time>
      </trkpt>
      <trkpt lat="40.166450" lon="-5.169983">
        <ele>1503.0</ele>
        <time>2015-05-23T14:02:46Z</time>
      </trkpt>
      <trkpt lat="40.166333" lon="-5.170217">
        <ele>1500.0</ele>
        <time>2015-05-23T14:02:48Z</time>
      </trkpt>
      <trkpt lat="40.166217" lon="-5.170433">
        <ele>1495.0</ele>
        <time>2015-05-23T14:02:50Z</time>
      </trkpt>
      <trkpt lat="40.166100" lon="-5.170717">
        <ele>1488.0</ele>
        <time>2015-05-23T14:02:52Z</time>
      </trkpt>
      <trkpt lat="40.165967" lon="-5.171000">
        <ele>1482.0</ele>
        <time>2015-05-23T14:02:54Z</time>
      </trkpt>
      <trkpt lat="40.165850" lon="-5.171233">
        <ele>1480.0</ele>
        <time>2015-05-23T14:02:56Z</time>
      </trkpt>
      <trkpt lat="40.165733" lon="-5.171517">
        <ele>1474.0</ele>
        <time>2015-05-23T14:02:58Z</time>
      </trkpt>
      <trkpt lat="40.165583" lon="-5.171833">
        <ele>1467.0</ele>
        <time>2015-05-23T14:03:00Z</time>
      </trkpt>
      <trkpt lat="40.165450" lon="-5.172100">
        <ele>1463.0</ele>
        <time>2015-05-23T14:03:02Z</time>
      </trkpt>
      <trkpt lat="40.165317" lon="-5.172350">
        <ele>1459.0</ele>
        <time>2015-05-23T14:03:04Z</time>
      </trkpt>
      <trkpt lat="40.165133" lon="-5.172617">
        <ele>1453.0</ele>
        <time>2015-05-23T14:03:06Z</time>
      </trkpt>
      <trkpt lat="40.164967" lon="-5.172883">
        <ele>1448.0</ele>
        <time>2015-05-23T14:03:08Z</time>
      </trkpt>
      <trkpt lat="40.164833" lon="-5.173133">
        <ele>1446.0</ele>
        <time>2015-05-23T14:03:10Z</time>
      </trkpt>
      <trkpt lat="40.164767" lon="-5.173417">
        <ele>1443.0</ele>
        <time>2015-05-23T14:03:12Z</time>
      </trkpt>
      <trkpt lat="40.164717" lon="-5.173717">
        <ele>1440.0</ele>
        <time>2015-05-23T14:03:14Z</time>
      </trkpt>
      <trkpt lat="40.164667" lon="-5.174017">
        <ele>1438.0</ele>
        <time>2015-05-23T14:03:16Z</time>
      </trkpt>
      <trkpt lat="40.164650" lon="-5.174283">
        <ele>1435.0</ele>
        <time>2015-05-23T14:03:18Z</time>
      </trkpt>
      <trkpt lat="40.164650" lon="-5.174567">
        <ele>1432.0</ele>
        <time>2015-05-23T14:03:20Z</time>
      </trkpt>
      <trkpt lat="40.164633" lon="-5.174883">
        <ele>1426.0</ele>
        <time>2015-05-23T14:03:22Z</time>
      </trkpt>
      <trkpt lat="40.164617" lon="-5.175217">
        <ele>1420.0</ele>
        <time>2015-05-23T14:03:24Z</time>
      </trkpt>
      <trkpt lat="40.164567" lon="-5.175533">
        <ele>1417.0</ele>
        <time>2015-05-23T14:03:26Z</time>
      </trkpt>
      <trkpt lat="40.164533" lon="-5.175833">
        <ele>1414.0</ele>
        <time>2015-05-23T14:03:28Z</time>
      </trkpt>
      <trkpt lat="40.164483" lon="-5.176133">
        <ele>1411.0</ele>
        <time>2015-05-23T14:03:30Z</time>
      </trkpt>
      <trkpt lat="40.164417" lon="-5.176433">
        <ele>1409.0</ele>
        <time>2015-05-23T14:03:32Z</time>
      </trkpt>
      <trkpt lat="40.164367" lon="-5.176717">
        <ele>1407.0</ele>
        <time>2015-05-23T14:03:34Z</time>
      </trkpt>
      <trkpt lat="40.164350" lon="-5.177000">
        <ele>1406.0</ele>
        <time>2015-05-23T14:03:36Z</time>
      </trkpt>
      <trkpt lat="40.164317" lon="-5.177283">
        <ele>1403.0</ele>
        <time>2015-05-23T14:03:38Z</time>
      </trkpt>
      <trkpt lat="40.164300" lon="-5.177600">
        <ele>1402.0</ele>
        <time>2015-05-23T14:03:40Z</time>
      </trkpt>
      <trkpt lat="40.164250" lon="-5.177883">
        <ele>1403.0</ele>
        <time>2015-05-23T14:03:42Z</time>
      </trkpt>
      <trkpt lat="40.164217" lon="-5.178150">
        <ele>1402.0</ele>
        <time>2015-05-23T14:03:44Z</time>
      </trkpt>
      <trkpt lat="40.164250" lon="-5.178400">
        <ele>1401.0</ele>
        <time>2015-05-23T14:03:46Z</time>
      </trkpt>
      <trkpt lat="40.164317" lon="-5.178667">
        <ele>1400.0</ele>
        <time>2015-05-23T14:03:48Z</time>
      </trkpt>
      <trkpt lat="40.164350" lon="-5.178950">
        <ele>1400.0</ele>
        <time>2015-05-23T14:03:50Z</time>
      </trkpt>
      <trkpt lat="40.164400" lon="-5.179250">
        <ele>1400.0</ele>
        <time>2015-05-23T14:03:52Z</time>
      </trkpt>
      <trkpt lat="40.164433" lon="-5.179550">
        <ele>1403.0</ele>
        <time>2015-05-23T14:03:54Z</time>
      </trkpt>
      <trkpt lat="40.164433" lon="-5.179850">
        <ele>1407.0</ele>
        <time>2015-05-23T14:03:56Z</time>
      </trkpt>
      <trkpt lat="40.164417" lon="-5.180150">
        <ele>1408.0</ele>
        <time>2015-05-23T14:03:58Z</time>
      </trkpt>
      <trkpt lat="40.164483" lon="-5.180417">
        <ele>1410.0</ele>
        <time>2015-05-23T14:04:00Z</time>
      </trkpt>
      <trkpt lat="40.164567" lon="-5.180633">
        <ele>1410.0</ele>
        <time>2015-05-23T14:04:02Z</time>
      </trkpt>
      <trkpt lat="40.164700" lon="-5.180833">
        <ele>1408.0</ele>
        <time>2015-05-23T14:04:04Z</time>
      </trkpt>
      <trkpt lat="40.164817" lon="-5.181083">
        <ele>1405.0</ele>
        <time>2015-05-23T14:04:06Z</time>
      </trkpt>
      <trkpt lat="40.164883" lon="-5.181333">
        <ele>1405.0</ele>
        <time>2015-05-23T14:04:08Z</time>
      </trkpt>
      <trkpt lat="40.164900" lon="-5.181600">
        <ele>1404.0</ele>
        <time>2015-05-23T14:04:10Z</time>
      </trkpt>
      <trkpt lat="40.164917" lon="-5.181933">
        <ele>1398.0</ele>
        <time>2015-05-23T14:04:12Z</time>
      </trkpt>
      <trkpt lat="40.164900" lon="-5.182283">
        <ele>1393.0</ele>
        <time>2015-05-23T14:04:14Z</time>
      </trkpt>
      <trkpt lat="40.164833" lon="-5.182567">
        <ele>1392.0</ele>
        <time>2015-05-23T14:04:16Z</time>
      </trkpt>
      <trkpt lat="40.164717" lon="-5.182833">
        <ele>1391.0</ele>
        <time>2015-05-23T14:04:18Z</time>
      </trkpt>
      <trkpt lat="40.164583" lon="-5.183100">
        <ele>1387.0</ele>
        <time>2015-05-23T14:04:20Z</time>
      </trkpt>
      <trkpt lat="40.164450" lon="-5.183400">
        <ele>1383.0</ele>
        <time>2015-05-23T14:04:22Z</time>
      </trkpt>
      <trkpt lat="40.164383" lon="-5.183683">
        <ele>1383.0</ele>
        <time>2015-05-23T14:04:24Z</time>
      </trkpt>
      <trkpt lat="40.164350" lon="-5.184000">
        <ele>1384.0</ele>
        <time>2015-05-23T14:04:26Z</time>
      </trkpt>
      <trkpt lat="40.164383" lon="-5.184267">
        <ele>1386.0</ele>
        <time>2015-05-23T14:04:28Z</time>
      </trkpt>
      <trkpt lat="40.164450" lon="-5.184500">
        <ele>1389.0</ele>
        <time>2015-05-23T14:04:30Z</time>
      </trkpt>
      <trkpt lat="40.164600" lon="-5.184650">
        <ele>1389.0</ele>
        <time>2015-05-23T14:04:32Z</time>
      </trkpt>
      <trkpt lat="40.164767" lon="-5.184667">
        <ele>1390.0</ele>
        <time>2015-05-23T14:04:34Z</time>
      </trkpt>
      <trkpt lat="40.164883" lon="-5.184617">
        <ele>1393.0</ele>
        <time>2015-05-23T14:04:36Z</time>
      </trkpt>
      <trkpt lat="40.164983" lon="-5.184550">
        <ele>1393.0</ele>
        <time>2015-05-23T14:04:38Z</time>
      </trkpt>
      <trkpt lat="40.165100" lon="-5.184450">
        <ele>1392.0</ele>
        <time>2015-05-23T14:04:40Z</time>
      </trkpt>
      <trkpt lat="40.165117" lon="-5.184367">
        <ele>1391.0</ele>
        <time>2015-05-23T14:04:42Z</time>
      </trkpt>
      <trkpt lat="40.165050" lon="-5.184300">
        <ele>1389.0</ele>
        <time>2015-05-23T14:04:44Z</time>
      </trkpt>
      <trkpt lat="40.164950" lon="-5.184233">
        <ele>1384.0</ele>
        <time>2015-05-23T14:04:46Z</time>
      </trkpt>
      <trkpt lat="40.164783" lon="-5.184250">
        <ele>1381.0</ele>
        <time>2015-05-23T14:04:48Z</time>
      </trkpt>
      <trkpt lat="40.164600" lon="-5.184367">
        <ele>1379.0</ele>
        <time>2015-05-23T14:04:50Z</time>
      </trkpt>
      <trkpt lat="40.164433" lon="-5.184550">
        <ele>1377.0</ele>
        <time>2015-05-23T14:04:52Z</time>
      </trkpt>
      <trkpt lat="40.164283" lon="-5.184800">
        <ele>1374.0</ele>
        <time>2015-05-23T14:04:54Z</time>
      </trkpt>
      <trkpt lat="40.164150" lon="-5.185083">
        <ele>1373.0</ele>
        <time>2015-05-23T14:04:56Z</time>
      </trkpt>
      <trkpt lat="40.164050" lon="-5.185333">
        <ele>1377.0</ele>
        <time>2015-05-23T14:04:58Z</time>
      </trkpt>
      <trkpt lat="40.164017" lon="-5.185617">
        <ele>1378.0</ele>
        <time>2015-05-23T14:05:00Z</time>
      </trkpt>
      <trkpt lat="40.164017" lon="-5.185933">
        <ele>1378.0</ele>
        <time>2015-05-23T14:05:02Z</time>
      </trkpt>
      <trkpt lat="40.164050" lon="-5.186200">
        <ele>1379.0</ele>
        <time>2015-05-23T14:05:04Z</time>
      </trkpt>
      <trkpt lat="40.164133" lon="-5.186467">
        <ele>1378.0</ele>
        <time>2015-05-23T14:05:06Z</time>
      </trkpt>
      <trkpt lat="40.164250" lon="-5.186700">
        <ele>1379.0</ele>
        <time>2015-05-23T14:05:08Z</time>
      </trkpt>
      <trkpt lat="40.164417" lon="-5.186833">
        <ele>1380.0</ele>
        <time>2015-05-23T14:05:10Z</time>
      </trkpt>
      <trkpt lat="40.164567" lon="-5.186867">
        <ele>1379.0</ele>
        <time>2015-05-23T14:05:12Z</time>
      </trkpt>
      <trkpt lat="40.164700" lon="-5.186850">
        <ele>1379.0</ele>
        <time>2015-05-23T14:05:14Z</time>
      </trkpt>
      <trkpt lat="40.164783" lon="-5.186767">
        <ele>1379.0</ele>
        <time>2015-05-23T14:05:16Z</time>
      </trkpt>
      <trkpt lat="40.164783" lon="-5.186667">
        <ele>1379.0</ele>
        <time>2015-05-23T14:05:18Z</time>
      </trkpt>
      <trkpt lat="40.164700" lon="-5.186550">
        <ele>1378.0</ele>
        <time>2015-05-23T14:05:20Z</time>
      </trkpt>
      <trkpt lat="40.164617" lon="-5.186483">
        <ele>1379.0</ele>
        <time>2015-05-23T14:05:22Z</time>
      </trkpt>
      <trkpt lat="40.164483" lon="-5.186467">
        <ele>1381.0</ele>
        <time>2015-05-23T14:05:24Z</time>
      </trkpt>
      <trkpt lat="40.164333" lon="-5.186467">
        <ele>1381.0</ele>
        <time>2015-05-23T14:05:26Z</time>
      </trkpt>
      <trkpt lat="40.164167" lon="-5.186533">
        <ele>1382.0</ele>
        <time>2015-05-23T14:05:28Z</time>
      </trkpt>
      <trkpt lat="40.164017" lon="-5.186733">
        <ele>1383.0</ele>
        <time>2015-05-23T14:05:30Z</time>
      </trkpt>
      <trkpt lat="40.163900" lon="-5.186967">
        <ele>1384.0</ele>
        <time>2015-05-23T14:05:32Z</time>
      </trkpt>
      <trkpt lat="40.163833" lon="-5.187217">
        <ele>1385.0</ele>
        <time>2015-05-23T14:05:34Z</time>
      </trkpt>
      <trkpt lat="40.163817" lon="-5.187533">
        <ele>1384.0</ele>
        <time>2015-05-23T14:05:36Z</time>
      </trkpt>
      <trkpt lat="40.163833" lon="-5.187817">
        <ele>1385.0</ele>
        <time>2015-05-23T14:05:38Z</time>
      </trkpt>
      <trkpt lat="40.163917" lon="-5.188067">
        <ele>1384.0</ele>
        <time>2015-05-23T14:05:40Z</time>
      </trkpt>
      <trkpt lat="40.164033" lon="-5.188300">
        <ele>1381.0</ele>
        <time>2015-05-23T14:05:42Z</time>
      </trkpt>
      <trkpt lat="40.164200" lon="-5.188483">
        <ele>1379.0</ele>
        <time>2015-05-23T14:05:44Z</time>
      </trkpt>
      <trkpt lat="40.164367" lon="-5.188533">
        <ele>1376.0</ele>
        <time>2015-05-23T14:05:46Z</time>
      </trkpt>
      <trkpt lat="40.164550" lon="-5.188533">
        <ele>1373.0</ele>
        <time>2015-05-23T14:05:48Z</time>
      </trkpt>
      <trkpt lat="40.164650" lon="-5.188500">
        <ele>1373.0</ele>
        <time>2015-05-23T14:05:50Z</time>
      </trkpt>
      <trkpt lat="40.164700" lon="-5.188383">
        <ele>1371.0</ele>
        <time>2015-05-23T14:05:52Z</time>
      </trkpt>
      <trkpt lat="40.164700" lon="-5.188250">
        <ele>1368.0</ele>
        <time>2015-05-23T14:05:54Z</time>
      </trkpt>
      <trkpt lat="40.164617" lon="-5.188183">
        <ele>1368.0</ele>
        <time>2015-05-23T14:05:56Z</time>
      </trkpt>
      <trkpt lat="40.164517" lon="-5.188167">
        <ele>1365.0</ele>
        <time>2015-05-23T14:05:58Z</time>
      </trkpt>
      <trkpt lat="40.164350" lon="-5.188133">
        <ele>1361.0</ele>
        <time>2015-05-23T14:06:00Z</time>
      </trkpt>
      <trkpt lat="40.164167" lon="-5.188217">
        <ele>1358.0</ele>
        <time>2015-05-23T14:06:02Z</time>
      </trkpt>
      <trkpt lat="40.164017" lon="-5.188400">
        <ele>1357.0</ele>
        <time>2015-05-23T14:06:04Z</time>
      </trkpt>
      <trkpt lat="40.163883" lon="-5.188600">
        <ele>1355.0</ele>
        <time>2015-05-23T14:06:06Z</time>
      </trkpt>
      <trkpt lat="40.163783" lon="-5.188883">
        <ele>1353.0</ele>
        <time>2015-05-23T14:06:08Z</time>
      </trkpt>
      <trkpt lat="40.163717" lon="-5.189183">
        <ele>1352.0</ele>
        <time>2015-05-23T14:06:10Z</time>
      </trkpt>
      <trkpt lat="40.163667" lon="-5.189467">
        <ele>1350.0</ele>
        <time>2015-05-23T14:06:12Z</time>
      </trkpt>
      <trkpt lat="40.163617" lon="-5.189733">
        <ele>1348.0</ele>
        <time>2015-05-23T14:06:14Z</time>
      </trkpt>
      <trkpt lat="40.163600" lon="-5.190000">
        <ele>1345.0</ele>
        <time>2015-05-23T14:06:16Z</time>
      </trkpt>
      <trkpt lat="40.163600" lon="-5.190283">
        <ele>1339.0</ele>
        <time>2015-05-23T14:06:18Z</time>
      </trkpt>
      <trkpt lat="40.163583" lon="-5.190600">
        <ele>1333.0</ele>
        <time>2015-05-23T14:06:20Z</time>
      </trkpt>
      <trkpt lat="40.163550" lon="-5.190900">
        <ele>1328.0</ele>
        <time>2015-05-23T14:06:22Z</time>
      </trkpt>
      <trkpt lat="40.163533" lon="-5.191217">
        <ele>1323.0</ele>
        <time>2015-05-23T14:06:24Z</time>
      </trkpt>
      <trkpt lat="40.163517" lon="-5.191533">
        <ele>1317.0</ele>
        <time>2015-05-23T14:06:26Z</time>
      </trkpt>
      <trkpt lat="40.163483" lon="-5.191817">
        <ele>1312.0</ele>
        <time>2015-05-23T14:06:28Z</time>
      </trkpt>
      <trkpt lat="40.163450" lon="-5.192133">
        <ele>1307.0</ele>
        <time>2015-05-23T14:06:30Z</time>
      </trkpt>
      <trkpt lat="40.163417" lon="-5.192433">
        <ele>1300.0</ele>
        <time>2015-05-23T14:06:32Z</time>
      </trkpt>
      <trkpt lat="40.163367" lon="-5.192733">
        <ele>1295.0</ele>
        <time>2015-05-23T14:06:34Z</time>
      </trkpt>
      <trkpt lat="40.163317" lon="-5.193017">
        <ele>1289.0</ele>
        <time>2015-05-23T14:06:36Z</time>
      </trkpt>
      <trkpt lat="40.163250" lon="-5.193317">
        <ele>1281.0</ele>
        <time>2015-05-23T14:06:38Z</time>
      </trkpt>
      <trkpt lat="40.163150" lon="-5.193600">
        <ele>1275.0</ele>
        <time>2015-05-23T14:06:40Z</time>
      </trkpt>
      <trkpt lat="40.163067" lon="-5.193850">
        <ele>1270.0</ele>
        <time>2015-05-23T14:06:42Z</time>
      </trkpt>
      <trkpt lat="40.162983" lon="-5.194100">
        <ele>1264.0</ele>
        <time>2015-05-23T14:06:44Z</time>
      </trkpt>
      <trkpt lat="40.162867" lon="-5.194350">
        <ele>1255.0</ele>
        <time>2015-05-23T14:06:46Z</time>
      </trkpt>
      <trkpt lat="40.162750" lon="-5.194567">
        <ele>1251.0</ele>
        <time>2015-05-23T14:06:48Z</time>
      </trkpt>
      <trkpt lat="40.162700" lon="-5.194767">
        <ele>1249.0</ele>
        <time>2015-05-23T14:06:50Z</time>
      </trkpt>
      <trkpt lat="40.162650" lon="-5.195017">
        <ele>1242.0</ele>
        <time>2015-05-23T14:06:52Z</time>
      </trkpt>
      <trkpt lat="40.162600" lon="-5.195333">
        <ele>1235.0</ele>
        <time>2015-05-23T14:06:54Z</time>
      </trkpt>
      <trkpt lat="40.162550" lon="-5.195583">
        <ele>1232.0</ele>
        <time>2015-05-23T14:06:56Z</time>
      </trkpt>
      <trkpt lat="40.162533" lon="-5.195850">
        <ele>1227.0</ele>
        <time>2015-05-23T14:06:58Z</time>
      </trkpt>
      <trkpt lat="40.162500" lon="-5.196150">
        <ele>1222.0</ele>
        <time>2015-05-23T14:07:00Z</time>
      </trkpt>
      <trkpt lat="40.162433" lon="-5.196417">
        <ele>1220.0</ele>
        <time>2015-05-23T14:07:02Z</time>
      </trkpt>
      <trkpt lat="40.162417" lon="-5.196633">
        <ele>1220.0</ele>
        <time>2015-05-23T14:07:04Z</time>
      </trkpt>
      <trkpt lat="40.162383" lon="-5.196867">
        <ele>1217.0</ele>
        <time>2015-05-23T14:07:06Z</time>
      </trkpt>
      <trkpt lat="40.162333" lon="-5.197150">
        <ele>1212.0</ele>
        <time>2015-05-23T14:07:08Z</time>
      </trkpt>
      <trkpt lat="40.162250" lon="-5.197350">
        <ele>1212.0</ele>
        <time>2015-05-23T14:07:10Z</time>
      </trkpt>
      <trkpt lat="40.162167" lon="-5.197417">
        <ele>1213.0</ele>
        <time>2015-05-23T14:07:12Z</time>
      </trkpt>
      <trkpt lat="40.162067" lon="-5.197433">
        <ele>1211.0</ele>
        <time>2015-05-23T14:07:14Z</time>
      </trkpt>
      <trkpt lat="40.161950" lon="-5.197400">
        <ele>1206.0</ele>
        <time>2015-05-23T14:07:16Z</time>
      </trkpt>
      <trkpt lat="40.161817" lon="-5.197350">
        <ele>1201.0</ele>
        <time>2015-05-23T14:07:18Z</time>
      </trkpt>
      <trkpt lat="40.161683" lon="-5.197350">
        <ele>1198.0</ele>
        <time>2015-05-23T14:07:20Z</time>
      </trkpt>
      <trkpt lat="40.161567" lon="-5.197433">
        <ele>1194.0</ele>
        <time>2015-05-23T14:07:22Z</time>
      </trkpt>
      <trkpt lat="40.161450" lon="-5.197567">
        <ele>1191.0</ele>
        <time>2015-05-23T14:07:24Z</time>
      </trkpt>
      <trkpt lat="40.161383" lon="-5.197717">
        <ele>1192.0</ele>
        <time>2015-05-23T14:07:26Z</time>
      </trkpt>
      <trkpt lat="40.161350" lon="-5.197850">
        <ele>1193.0</ele>
        <time>2015-05-23T14:07:28Z</time>
      </trkpt>
      <trkpt lat="40.161350" lon="-5.198033">
        <ele>1191.0</ele>
        <time>2015-05-23T14:07:30Z</time>
      </trkpt>
      <trkpt lat="40.161333" lon="-5.198267">
        <ele>1190.0</ele>
        <time>2015-05-23T14:07:32Z</time>
      </trkpt>
      <trkpt lat="40.161333" lon="-5.198417">
        <ele>1193.0</ele>
        <time>2015-05-23T14:07:34Z</time>
      </trkpt>
      <trkpt lat="40.161383" lon="-5.198550">
        <ele>1193.0</ele>
        <time>2015-05-23T14:07:36Z</time>
      </trkpt>
      <trkpt lat="40.161467" lon="-5.198767">
        <ele>1190.0</ele>
        <time>2015-05-23T14:07:38Z</time>
      </trkpt>
      <trkpt lat="40.161583" lon="-5.198933">
        <ele>1192.0</ele>
        <time>2015-05-23T14:07:40Z</time>
      </trkpt>
      <trkpt lat="40.161750" lon="-5.199017">
        <ele>1193.0</ele>
        <time>2015-05-23T14:07:42Z</time>
      </trkpt>
      <trkpt lat="40.161950" lon="-5.199167">
        <ele>1192.0</ele>
        <time>2015-05-23T14:07:44Z</time>
      </trkpt>
      <trkpt lat="40.162150" lon="-5.199200">
        <ele>1195.0</ele>
        <time>2015-05-23T14:07:46Z</time>
      </trkpt>
      <trkpt lat="40.162367" lon="-5.199083">
        <ele>1196.0</ele>
        <time>2015-05-23T14:07:48Z</time>
      </trkpt>
      <trkpt lat="40.162500" lon="-5.198867">
        <ele>1199.0</ele>
        <time>2015-05-23T14:07:50Z</time>
      </trkpt>
      <trkpt lat="40.162517" lon="-5.198650">
        <ele>1200.0</ele>
        <time>2015-05-23T14:07:52Z</time>
      </trkpt>
      <trkpt lat="40.162433" lon="-5.198517">
        <ele>1199.0</ele>
        <time>2015-05-23T14:07:54Z</time>
      </trkpt>
      <trkpt lat="40.162300" lon="-5.198450">
        <ele>1197.0</ele>
        <time>2015-05-23T14:07:56Z</time>
      </trkpt>
      <trkpt lat="40.162183" lon="-5.198500">
        <ele>1197.0</ele>
        <time>2015-05-23T14:07:58Z</time>
      </trkpt>
      <trkpt lat="40.162100" lon="-5.198600">
        <ele>1198.0</ele>
        <time>2015-05-23T14:08:00Z</time>
      </trkpt>
      <trkpt lat="40.162067" lon="-5.198750">
        <ele>1199.0</ele>
        <time>2015-05-23T14:08:02Z</time>
      </trkpt>
      <trkpt lat="40.162050" lon="-5.198967">
        <ele>1198.0</ele>
        <time>2015-05-23T14:08:04Z</time>
      </trkpt>
      <trkpt lat="40.162067" lon="-5.199167">
        <ele>1199.0</ele>
        <time>2015-05-23T14:08:06Z</time>
      </trkpt>
      <trkpt lat="40.162150" lon="-5.199400">
        <ele>1200.0</ele>
        <time>2015-05-23T14:08:08Z</time>
      </trkpt>
      <trkpt lat="40.162250" lon="-5.199617">
        <ele>1205.0</ele>
        <time>2015-05-23T14:08:10Z</time>
      </trkpt>
      <trkpt lat="40.162400" lon="-5.199767">
        <ele>1211.0</ele>
        <time>2015-05-23T14:08:12Z</time>
      </trkpt>
      <trkpt lat="40.162600" lon="-5.199850">
        <ele>1214.0</ele>
        <time>2015-05-23T14:08:14Z</time>
      </trkpt>
      <trkpt lat="40.162833" lon="-5.199800">
        <ele>1215.0</ele>
        <time>2015-05-23T14:08:16Z</time>
      </trkpt>
      <trkpt lat="40.163017" lon="-5.199617">
        <ele>1216.0</ele>
        <time>2015-05-23T14:08:18Z</time>
      </trkpt>
      <trkpt lat="40.163100" lon="-5.199417">
        <ele>1220.0</ele>
        <time>2015-05-23T14:08:20Z</time>
      </trkpt>
      <trkpt lat="40.163133" lon="-5.199250">
        <ele>1223.0</ele>
        <time>2015-05-23T14:08:22Z</time>
      </trkpt>
      <trkpt lat="40.163100" lon="-5.199100">
        <ele>1224.0</ele>
        <time>2015-05-23T14:08:24Z</time>
      </trkpt>
      <trkpt lat="40.162983" lon="-5.199067">
        <ele>1224.0</ele>
        <time>2015-05-23T14:08:26Z</time>
      </trkpt>
      <trkpt lat="40.162883" lon="-5.199150">
        <ele>1226.0</ele>
        <time>2015-05-23T14:08:28Z</time>
      </trkpt>
      <trkpt lat="40.162833" lon="-5.199283">
        <ele>1229.0</ele>
        <time>2015-05-23T14:08:30Z</time>
      </trkpt>
      <trkpt lat="40.162817" lon="-5.199467">
        <ele>1230.0</ele>
        <time>2015-05-23T14:08:32Z</time>
      </trkpt>
      <trkpt lat="40.162883" lon="-5.199717">
        <ele>1232.0</ele>
        <time>2015-05-23T14:08:34Z</time>
      </trkpt>
      <trkpt lat="40.163033" lon="-5.199900">
        <ele>1236.0</ele>
        <time>2015-05-23T14:08:36Z</time>
      </trkpt>
      <trkpt lat="40.163217" lon="-5.200033">
        <ele>1239.0</ele>
        <time>2015-05-23T14:08:38Z</time>
      </trkpt>
      <trkpt lat="40.163450" lon="-5.200067">
        <ele>1240.0</ele>
        <time>2015-05-23T14:08:40Z</time>
      </trkpt>
      <trkpt lat="40.163667" lon="-5.200000">
        <ele>1242.0</ele>
        <time>2015-05-23T14:08:42Z</time>
      </trkpt>
      <trkpt lat="40.163850" lon="-5.199850">
        <ele>1245.0</ele>
        <time>2015-05-23T14:08:44Z</time>
      </trkpt>
      <trkpt lat="40.163967" lon="-5.199650">
        <ele>1246.0</ele>
        <time>2015-05-23T14:08:46Z</time>
      </trkpt>
      <trkpt lat="40.164017" lon="-5.199433">
        <ele>1247.0</ele>
        <time>2015-05-23T14:08:48Z</time>
      </trkpt>
      <trkpt lat="40.164017" lon="-5.199233">
        <ele>1249.0</ele>
        <time>2015-05-23T14:08:50Z</time>
      </trkpt>
      <trkpt lat="40.163950" lon="-5.199100">
        <ele>1252.0</ele>
        <time>2015-05-23T14:08:52Z</time>
      </trkpt>
      <trkpt lat="40.163850" lon="-5.199067">
        <ele>1253.0</ele>
        <time>2015-05-23T14:08:54Z</time>
      </trkpt>
      <trkpt lat="40.163750" lon="-5.199133">
        <ele>1254.0</ele>
        <time>2015-05-23T14:08:56Z</time>
      </trkpt>
      <trkpt lat="40.163683" lon="-5.199267">
        <ele>1256.0</ele>
        <time>2015-05-23T14:08:58Z</time>
      </trkpt>
      <trkpt lat="40.163683" lon="-5.199433">
        <ele>1258.0</ele>
        <time>2015-05-23T14:09:00Z</time>
      </trkpt>
      <trkpt lat="40.163750" lon="-5.199667">
        <ele>1258.0</ele>
        <time>2015-05-23T14:09:02Z</time>
      </trkpt>
      <trkpt lat="40.163900" lon="-5.199883">
        <ele>1259.0</ele>
        <time>2015-05-23T14:09:04Z</time>
      </trkpt>
      <trkpt lat="40.164100" lon="-5.199967">
        <ele>1263.0</ele>
        <time>2015-05-23T14:09:06Z</time>
      </trkpt>
      <trkpt lat="40.164333" lon="-5.199950">
        <ele>1265.0</ele>
        <time>2015-05-23T14:09:08Z</time>
      </trkpt>
      <trkpt lat="40.164533" lon="-5.199867">
        <ele>1267.0</ele>
        <time>2015-05-23T14:09:10Z</time>
      </trkpt>
      <trkpt lat="40.164667" lon="-5.199667">
        <ele>1268.0</ele>
        <time>2015-05-23T14:09:12Z</time>
      </trkpt>
      <trkpt lat="40.164733" lon="-5.199467">
        <ele>1268.0</ele>
        <time>2015-05-23T14:09:14Z</time>
      </trkpt>
      <trkpt lat="40.164717" lon="-5.199300">
        <ele>1269.0</ele>
        <time>2015-05-23T14:09:16Z</time>
      </trkpt>
      <trkpt lat="40.164633" lon="-5.199183">
        <ele>1267.0</ele>
        <time>2015-05-23T14:09:18Z</time>
      </trkpt>
      <trkpt lat="40.164533" lon="-5.199150">
        <ele>1267.0</ele>
        <time>2015-05-23T14:09:20Z</time>
      </trkpt>
      <trkpt lat="40.164450" lon="-5.199200">
        <ele>1268.0</ele>
        <time>2015-05-23T14:09:22Z</time>
      </trkpt>
      <trkpt lat="40.164367" lon="-5.199317">
        <ele>1268.0</ele>
        <time>2015-05-23T14:09:24Z</time>
      </trkpt>
      <trkpt lat="40.164317" lon="-5.199467">
        <ele>1269.0</ele>
        <time>2015-05-23T14:09:26Z</time>
      </trkpt>
      <trkpt lat="40.164317" lon="-5.199667">
        <ele>1270.0</ele>
        <time>2015-05-23T14:09:28Z</time>
      </trkpt>
      <trkpt lat="40.164367" lon="-5.199883">
        <ele>1272.0</ele>
        <time>2015-05-23T14:09:30Z</time>
      </trkpt>
      <trkpt lat="40.164483" lon="-5.200067">
        <ele>1274.0</ele>
        <time>2015-05-23T14:09:32Z</time>
      </trkpt>
      <trkpt lat="40.164667" lon="-5.200200">
        <ele>1274.0</ele>
        <time>2015-05-23T14:09:34Z</time>
      </trkpt>
      <trkpt lat="40.164900" lon="-5.200250">
        <ele>1274.0</ele>
        <time>2015-05-23T14:09:36Z</time>
      </trkpt>
      <trkpt lat="40.165150" lon="-5.200200">
        <ele>1273.0</ele>
        <time>2015-05-23T14:09:38Z</time>
      </trkpt>
      <trkpt lat="40.165333" lon="-5.200050">
        <ele>1275.0</ele>
        <time>2015-05-23T14:09:40Z</time>
      </trkpt>
      <trkpt lat="40.165433" lon="-5.199867">
        <ele>1277.0</ele>
        <time>2015-05-23T14:09:42Z</time>
      </trkpt>
      <trkpt lat="40.165500" lon="-5.199667">
        <ele>1276.0</ele>
        <time>2015-05-23T14:09:44Z</time>
      </trkpt>
      <trkpt lat="40.165483" lon="-5.199483">
        <ele>1276.0</ele>
        <time>2015-05-23T14:09:46Z</time>
      </trkpt>
      <trkpt lat="40.165383" lon="-5.199367">
        <ele>1275.0</ele>
        <time>2015-05-23T14:09:48Z</time>
      </trkpt>
      <trkpt lat="40.165283" lon="-5.199350">
        <ele>1276.0</ele>
        <time>2015-05-23T14:09:50Z</time>
      </trkpt>
      <trkpt lat="40.165200" lon="-5.199383">
        <ele>1277.0</ele>
        <time>2015-05-23T14:09:52Z</time>
      </trkpt>
      <trkpt lat="40.165133" lon="-5.199517">
        <ele>1277.0</ele>
        <time>2015-05-23T14:09:54Z</time>
      </trkpt>
      <trkpt lat="40.165117" lon="-5.199700">
        <ele>1277.0</ele>
        <time>2015-05-23T14:09:56Z</time>
      </trkpt>
      <trkpt lat="40.165150" lon="-5.199883">
        <ele>1277.0</ele>
        <time>2015-05-23T14:09:58Z</time>
      </trkpt>
      <trkpt lat="40.165200" lon="-5.200083">
        <ele>1278.0</ele>
        <time>2015-05-23T14:10:00Z</time>
      </trkpt>
      <trkpt lat="40.165317" lon="-5.200267">
        <ele>1278.0</ele>
        <time>2015-05-23T14:10:02Z</time>
      </trkpt>
      <trkpt lat="40.165467" lon="-5.200433">
        <ele>1278.0</ele>
        <time>2015-05-23T14:10:04Z</time>
      </trkpt>
      <trkpt lat="40.165650" lon="-5.200600">
        <ele>1277.0</ele>
        <time>2015-05-23T14:10:06Z</time>
      </trkpt>
      <trkpt lat="40.165867" lon="-5.200683">
        <ele>1278.0</ele>
        <time>2015-05-23T14:10:08Z</time>
      </trkpt>
      <trkpt lat="40.166117" lon="-5.200683">
        <ele>1275.0</ele>
        <time>2015-05-23T14:10:10Z</time>
      </trkpt>
      <trkpt lat="40.166367" lon="-5.200617">
        <ele>1273.0</ele>
        <time>2015-05-23T14:10:12Z</time>
      </trkpt>
      <trkpt lat="40.166583" lon="-5.200483">
        <ele>1272.0</ele>
        <time>2015-05-23T14:10:14Z</time>
      </trkpt>
      <trkpt lat="40.166733" lon="-5.200300">
        <ele>1273.0</ele>
        <time>2015-05-23T14:10:16Z</time>
      </trkpt>
      <trkpt lat="40.166817" lon="-5.200117">
        <ele>1273.0</ele>
        <time>2015-05-23T14:10:18Z</time>
      </trkpt>
      <trkpt lat="40.166833" lon="-5.199900">
        <ele>1269.0</ele>
        <time>2015-05-23T14:10:20Z</time>
      </trkpt>
      <trkpt lat="40.166750" lon="-5.199733">
        <ele>1266.0</ele>
        <time>2015-05-23T14:10:22Z</time>
      </trkpt>
      <trkpt lat="40.166667" lon="-5.199667">
        <ele>1267.0</ele>
        <time>2015-05-23T14:10:24Z</time>
      </trkpt>
      <trkpt lat="40.166567" lon="-5.199650">
        <ele>1267.0</ele>
        <time>2015-05-23T14:10:26Z</time>
      </trkpt>
      <trkpt lat="40.166467" lon="-5.199683">
        <ele>1265.0</ele>
        <time>2015-05-23T14:10:28Z</time>
      </trkpt>
      <trkpt lat="40.166333" lon="-5.199767">
        <ele>1263.0</ele>
        <time>2015-05-23T14:10:30Z</time>
      </trkpt>
      <trkpt lat="40.166217" lon="-5.199800">
        <ele>1264.0</ele>
        <time>2015-05-23T14:10:32Z</time>
      </trkpt>
      <trkpt lat="40.166100" lon="-5.199817">
        <ele>1264.0</ele>
        <time>2015-05-23T14:10:34Z</time>
      </trkpt>
      <trkpt lat="40.165983" lon="-5.199833">
        <ele>1263.0</ele>
        <time>2015-05-23T14:10:36Z</time>
      </trkpt>
      <trkpt lat="40.165850" lon="-5.199783">
        <ele>1262.0</ele>
        <time>2015-05-23T14:10:38Z</time>
      </trkpt>
      <trkpt lat="40.165733" lon="-5.199733">
        <ele>1263.0</ele>
        <time>2015-05-23T14:10:40Z</time>
      </trkpt>
      <trkpt lat="40.165633" lon="-5.199750">
        <ele>1264.0</ele>
        <time>2015-05-23T14:10:42Z</time>
      </trkpt>
      <trkpt lat="40.165550" lon="-5.199833">
        <ele>1264.0</ele>
        <time>2015-05-23T14:10:44Z</time>
      </trkpt>
      <trkpt lat="40.165467" lon="-5.200000">
        <ele>1263.0</ele>
        <time>2015-05-23T14:10:46Z</time>
      </trkpt>
      <trkpt lat="40.165417" lon="-5.200150">
        <ele>1265.0</ele>
        <time>2015-05-23T14:10:48Z</time>
      </trkpt>
      <trkpt lat="40.165350" lon="-5.200283">
        <ele>1266.0</ele>
        <time>2015-05-23T14:10:50Z</time>
      </trkpt>
      <trkpt lat="40.165317" lon="-5.200433">
        <ele>1264.0</ele>
        <time>2015-05-23T14:10:52Z</time>
      </trkpt>
      <trkpt lat="40.165250" lon="-5.200617">
        <ele>1262.0</ele>
        <time>2015-05-23T14:10:54Z</time>
      </trkpt>
      <trkpt lat="40.165200" lon="-5.200750">
        <ele>1264.0</ele>
        <time>2015-05-23T14:10:56Z</time>
      </trkpt>
      <trkpt lat="40.165167" lon="-5.200867">
        <ele>1266.0</ele>
        <time>2015-05-23T14:10:58Z</time>
      </trkpt>
      <trkpt lat="40.165167" lon="-5.201067">
        <ele>1264.0</ele>
        <time>2015-05-23T14:11:00Z</time>
      </trkpt>
      <trkpt lat="40.165150" lon="-5.201267">
        <ele>1263.0</ele>
        <time>2015-05-23T14:11:02Z</time>
      </trkpt>
      <trkpt lat="40.165133" lon="-5.201450">
        <ele>1262.0</ele>
        <time>2015-05-23T14:11:04Z</time>
      </trkpt>
      <trkpt lat="40.165083" lon="-5.201633">
        <ele>1259.0</ele>
        <time>2015-05-23T14:11:06Z</time>
      </trkpt>
      <trkpt lat="40.165033" lon="-5.201817">
        <ele>1257.0</ele>
        <time>2015-05-23T14:11:08Z</time>
      </trkpt>
      <trkpt lat="40.164967" lon="-5.201983">
        <ele>1255.0</ele>
        <time>2015-05-23T14:11:10Z</time>
      </trkpt>
      <trkpt lat="40.164883" lon="-5.202167">
        <ele>1251.0</ele>
        <time>2015-05-23T14:11:12Z</time>
      </trkpt>
      <trkpt lat="40.164817" lon="-5.202333">
        <ele>1251.0</ele>
        <time>2015-05-23T14:11:14Z</time>
      </trkpt>
      <trkpt lat="40.164800" lon="-5.202500">
        <ele>1252.0</ele>
        <time>2015-05-23T14:11:16Z</time>
      </trkpt>
      <trkpt lat="40.164800" lon="-5.202700">
        <ele>1250.0</ele>
        <time>2015-05-23T14:11:18Z</time>
      </trkpt>
      <trkpt lat="40.164833" lon="-5.202933">
        <ele>1251.0</ele>
        <time>2015-05-23T14:11:20Z</time>
      </trkpt>
      <trkpt lat="40.164867" lon="-5.203133">
        <ele>1253.0</ele>
        <time>2015-05-23T14:11:22Z</time>
      </trkpt>
      <trkpt lat="40.164950" lon="-5.203333">
        <ele>1252.0</ele>
        <time>2015-05-23T14:11:24Z</time>
      </trkpt>
      <trkpt lat="40.165067" lon="-5.203550">
        <ele>1250.0</ele>
        <time>2015-05-23T14:11:26Z</time>
      </trkpt>
      <trkpt lat="40.165217" lon="-5.203733">
        <ele>1249.0</ele>
        <time>2015-05-23T14:11:28Z</time>
      </trkpt>
      <trkpt lat="40.165417" lon="-5.203867">
        <ele>1249.0</ele>
        <time>2015-05-23T14:11:30Z</time>
      </trkpt>
      <trkpt lat="40.165617" lon="-5.203983">
        <ele>1247.0</ele>
        <time>2015-05-23T14:11:32Z</time>
      </trkpt>
      <trkpt lat="40.165833" lon="-5.204117">
        <ele>1246.0</ele>
        <time>2015-05-23T14:11:34Z</time>
      </trkpt>
      <trkpt lat="40.166017" lon="-5.204300">
        <ele>1245.0</ele>
        <time>2015-05-23T14:11:36Z</time>
      </trkpt>
      <trkpt lat="40.166150" lon="-5.204533">
        <ele>1244.0</ele>
        <time>2015-05-23T14:11:38Z</time>
      </trkpt>
      <trkpt lat="40.166217" lon="-5.204783">
        <ele>1242.0</ele>
        <time>2015-05-23T14:11:40Z</time>
      </trkpt>
      <trkpt lat="40.166250" lon="-5.205033">
        <ele>1238.0</ele>
        <time>2015-05-23T14:11:42Z</time>
      </trkpt>
      <trkpt lat="40.166250" lon="-5.205283">
        <ele>1235.0</ele>
        <time>2015-05-23T14:11:44Z</time>
      </trkpt>
      <trkpt lat="40.166233" lon="-5.205533">
        <ele>1234.0</ele>
        <time>2015-05-23T14:11:46Z</time>
      </trkpt>
      <trkpt lat="40.166217" lon="-5.205750">
        <ele>1234.0</ele>
        <time>2015-05-23T14:11:48Z</time>
      </trkpt>
      <trkpt lat="40.166283" lon="-5.205967">
        <ele>1230.0</ele>
        <time>2015-05-23T14:11:50Z</time>
      </trkpt>
      <trkpt lat="40.166400" lon="-5.206217">
        <ele>1221.0</ele>
        <time>2015-05-23T14:11:52Z</time>
      </trkpt>
      <trkpt lat="40.166433" lon="-5.206467">
        <ele>1216.0</ele>
        <time>2015-05-23T14:11:54Z</time>
      </trkpt>
      <trkpt lat="40.166433" lon="-5.206667">
        <ele>1210.0</ele>
        <time>2015-05-23T14:11:56Z</time>
      </trkpt>
      <trkpt lat="40.166367" lon="-5.206850">
        <ele>1203.0</ele>
        <time>2015-05-23T14:11:58Z</time>
      </trkpt>
      <trkpt lat="40.166233" lon="-5.206983">
        <ele>1200.0</ele>
        <time>2015-05-23T14:12:00Z</time>
      </trkpt>
      <trkpt lat="40.166150" lon="-5.207067">
        <ele>1199.0</ele>
        <time>2015-05-23T14:12:02Z</time>
      </trkpt>
      <trkpt lat="40.166050" lon="-5.207183">
        <ele>1195.0</ele>
        <time>2015-05-23T14:12:04Z</time>
      </trkpt>
      <trkpt lat="40.165900" lon="-5.207333">
        <ele>1189.0</ele>
        <time>2015-05-23T14:12:06Z</time>
      </trkpt>
      <trkpt lat="40.165783" lon="-5.207467">
        <ele>1188.0</ele>
        <time>2015-05-23T14:12:08Z</time>
      </trkpt>
      <trkpt lat="40.165683" lon="-5.207550">
        <ele>1187.0</ele>
        <time>2015-05-23T14:12:10Z</time>
      </trkpt>
      <trkpt lat="40.165550" lon="-5.207633">
        <ele>1184.0</ele>
        <time>2015-05-23T14:12:12Z</time>
      </trkpt>
      <trkpt lat="40.165400" lon="-5.207717">
        <ele>1181.0</ele>
        <time>2015-05-23T14:12:14Z</time>
      </trkpt>
      <trkpt lat="40.165283" lon="-5.207800">
        <ele>1181.0</ele>
        <time>2015-05-23T14:12:16Z</time>
      </trkpt>
      <trkpt lat="40.165200" lon="-5.207900">
        <ele>1180.0</ele>
        <time>2015-05-23T14:12:18Z</time>
      </trkpt>
      <trkpt lat="40.165100" lon="-5.208067">
        <ele>1176.0</ele>
        <time>2015-05-23T14:12:20Z</time>
      </trkpt>
      <trkpt lat="40.164983" lon="-5.208233">
        <ele>1172.0</ele>
        <time>2015-05-23T14:12:22Z</time>
      </trkpt>
      <trkpt lat="40.164900" lon="-5.208350">
        <ele>1171.0</ele>
        <time>2015-05-23T14:12:24Z</time>
      </trkpt>
      <trkpt lat="40.164800" lon="-5.208483">
        <ele>1169.0</ele>
        <time>2015-05-23T14:12:26Z</time>
      </trkpt>
      <trkpt lat="40.164700" lon="-5.208617">
        <ele>1164.0</ele>
        <time>2015-05-23T14:12:28Z</time>
      </trkpt>
      <trkpt lat="40.164600" lon="-5.208767">
        <ele>1159.0</ele>
        <time>2015-05-23T14:12:30Z</time>
      </trkpt>
      <trkpt lat="40.164483" lon="-5.208900">
        <ele>1155.0</ele>
        <time>2015-05-23T14:12:32Z</time>
      </trkpt>
      <trkpt lat="40.164350" lon="-5.209017">
        <ele>1151.0</ele>
        <time>2015-05-23T14:12:34Z</time>
      </trkpt>
      <trkpt lat="40.164217" lon="-5.209167">
        <ele>1150.0</ele>
        <time>2015-05-23T14:12:36Z</time>
      </trkpt>
      <trkpt lat="40.164150" lon="-5.209300">
        <ele>1153.0</ele>
        <time>2015-05-23T14:12:38Z</time>
      </trkpt>
      <trkpt lat="40.164133" lon="-5.209467">
        <ele>1155.0</ele>
        <time>2015-05-23T14:12:40Z</time>
      </trkpt>
      <trkpt lat="40.164117" lon="-5.209667">
        <ele>1152.0</ele>
        <time>2015-05-23T14:12:42Z</time>
      </trkpt>
      <trkpt lat="40.164083" lon="-5.209883">
        <ele>1152.0</ele>
        <time>2015-05-23T14:12:44Z</time>
      </trkpt>
      <trkpt lat="40.164117" lon="-5.210083">
        <ele>1156.0</ele>
        <time>2015-05-23T14:12:46Z</time>
      </trkpt>
      <trkpt lat="40.164233" lon="-5.210267">
        <ele>1154.0</ele>
        <time>2015-05-23T14:12:48Z</time>
      </trkpt>
      <trkpt lat="40.164317" lon="-5.210500">
        <ele>1151.0</ele>
        <time>2015-05-23T14:12:50Z</time>
      </trkpt>
      <trkpt lat="40.164317" lon="-5.210733">
        <ele>1149.0</ele>
        <time>2015-05-23T14:12:52Z</time>
      </trkpt>
      <trkpt lat="40.164283" lon="-5.210917">
        <ele>1148.0</ele>
        <time>2015-05-23T14:12:54Z</time>
      </trkpt>
      <trkpt lat="40.164217" lon="-5.211117">
        <ele>1145.0</ele>
        <time>2015-05-23T14:12:56Z</time>
      </trkpt>
      <trkpt lat="40.164117" lon="-5.211300">
        <ele>1143.0</ele>
        <time>2015-05-23T14:12:58Z</time>
      </trkpt>
      <trkpt lat="40.164017" lon="-5.211450">
        <ele>1144.0</ele>
        <time>2015-05-23T14:13:00Z</time>
      </trkpt>
      <trkpt lat="40.163933" lon="-5.211617">
        <ele>1145.0</ele>
        <time>2015-05-23T14:13:02Z</time>
      </trkpt>
      <trkpt lat="40.163883" lon="-5.211800">
        <ele>1145.0</ele>
        <time>2015-05-23T14:13:04Z</time>
      </trkpt>
      <trkpt lat="40.163833" lon="-5.212017">
        <ele>1144.0</ele>
        <time>2015-05-23T14:13:06Z</time>
      </trkpt>
      <trkpt lat="40.163817" lon="-5.212233">
        <ele>1146.0</ele>
        <time>2015-05-23T14:13:08Z</time>
      </trkpt>
      <trkpt lat="40.163850" lon="-5.212433">
        <ele>1147.0</ele>
        <time>2015-05-23T14:13:10Z</time>
      </trkpt>
      <trkpt lat="40.163950" lon="-5.212633">
        <ele>1145.0</ele>
        <time>2015-05-23T14:13:12Z</time>
      </trkpt>
      <trkpt lat="40.164100" lon="-5.212800">
        <ele>1143.0</ele>
        <time>2015-05-23T14:13:14Z</time>
      </trkpt>
      <trkpt lat="40.164267" lon="-5.212967">
        <ele>1142.0</ele>
        <time>2015-05-23T14:13:16Z</time>
      </trkpt>
      <trkpt lat="40.164417" lon="-5.213150">
        <ele>1140.0</ele>
        <time>2015-05-23T14:13:18Z</time>
      </trkpt>
      <trkpt lat="40.164550" lon="-5.213400">
        <ele>1139.0</ele>
        <time>2015-05-23T14:13:20Z</time>
      </trkpt>
      <trkpt lat="40.164617" lon="-5.213633">
        <ele>1143.0</ele>
        <time>2015-05-23T14:13:22Z</time>
      </trkpt>
      <trkpt lat="40.164617" lon="-5.213867">
        <ele>1147.0</ele>
        <time>2015-05-23T14:13:24Z</time>
      </trkpt>
      <trkpt lat="40.164550" lon="-5.214067">
        <ele>1149.0</ele>
        <time>2015-05-23T14:13:26Z</time>
      </trkpt>
      <trkpt lat="40.164400" lon="-5.214167">
        <ele>1150.0</ele>
        <time>2015-05-23T14:13:28Z</time>
      </trkpt>
      <trkpt lat="40.164250" lon="-5.214217">
        <ele>1152.0</ele>
        <time>2015-05-23T14:13:30Z</time>
      </trkpt>
      <trkpt lat="40.164117" lon="-5.214200">
        <ele>1156.0</ele>
        <time>2015-05-23T14:13:32Z</time>
      </trkpt>
      <trkpt lat="40.163967" lon="-5.214117">
        <ele>1156.0</ele>
        <time>2015-05-23T14:13:34Z</time>
      </trkpt>
      <trkpt lat="40.163883" lon="-5.213917">
        <ele>1156.0</ele>
        <time>2015-05-23T14:13:36Z</time>
      </trkpt>
      <trkpt lat="40.163900" lon="-5.213700">
        <ele>1156.0</ele>
        <time>2015-05-23T14:13:38Z</time>
      </trkpt>
      <trkpt lat="40.163983" lon="-5.213533">
        <ele>1155.0</ele>
        <time>2015-05-23T14:13:40Z</time>
      </trkpt>
      <trkpt lat="40.164133" lon="-5.213450">
        <ele>1153.0</ele>
        <time>2015-05-23T14:13:42Z</time>
      </trkpt>
      <trkpt lat="40.164333" lon="-5.213467">
        <ele>1149.0</ele>
        <time>2015-05-23T14:13:44Z</time>
      </trkpt>
      <trkpt lat="40.164533" lon="-5.213617">
        <ele>1146.0</ele>
        <time>2015-05-23T14:13:46Z</time>
      </trkpt>
      <trkpt lat="40.164683" lon="-5.213767">
        <ele>1146.0</ele>
        <time>2015-05-23T14:13:48Z</time>
      </trkpt>
      <trkpt lat="40.164833" lon="-5.213967">
        <ele>1147.0</ele>
        <time>2015-05-23T14:13:50Z</time>
      </trkpt>
      <trkpt lat="40.164933" lon="-5.214200">
        <ele>1148.0</ele>
        <time>2015-05-23T14:13:52Z</time>
      </trkpt>
      <trkpt lat="40.164983" lon="-5.214417">
        <ele>1151.0</ele>
        <time>2015-05-23T14:13:54Z</time>
      </trkpt>
      <trkpt lat="40.165000" lon="-5.214617">
        <ele>1153.0</ele>
        <time>2015-05-23T14:13:56Z</time>
      </trkpt>
      <trkpt lat="40.164967" lon="-5.214867">
        <ele>1153.0</ele>
        <time>2015-05-23T14:13:58Z</time>
      </trkpt>
      <trkpt lat="40.164917" lon="-5.215033">
        <ele>1154.0</ele>
        <time>2015-05-23T14:14:00Z</time>
      </trkpt>
      <trkpt lat="40.164800" lon="-5.215150">
        <ele>1154.0</ele>
        <time>2015-05-23T14:14:02Z</time>
      </trkpt>
      <trkpt lat="40.164633" lon="-5.215250">
        <ele>1152.0</ele>
        <time>2015-05-23T14:14:04Z</time>
      </trkpt>
      <trkpt lat="40.164467" lon="-5.215267">
        <ele>1153.0</ele>
        <time>2015-05-23T14:14:06Z</time>
      </trkpt>
      <trkpt lat="40.164300" lon="-5.215200">
        <ele>1154.0</ele>
        <time>2015-05-23T14:14:08Z</time>
      </trkpt>
      <trkpt lat="40.164167" lon="-5.215233">
        <ele>1157.0</ele>
        <time>2015-05-23T14:14:10Z</time>
      </trkpt>
      <trkpt lat="40.164067" lon="-5.215383">
        <ele>1157.0</ele>
        <time>2015-05-23T14:14:12Z</time>
      </trkpt>
      <trkpt lat="40.164000" lon="-5.215583">
        <ele>1156.0</ele>
        <time>2015-05-23T14:14:14Z</time>
      </trkpt>
      <trkpt lat="40.164000" lon="-5.215800">
        <ele>1155.0</ele>
        <time>2015-05-23T14:14:16Z</time>
      </trkpt>
      <trkpt lat="40.164050" lon="-5.216017">
        <ele>1156.0</ele>
        <time>2015-05-23T14:14:18Z</time>
      </trkpt>
      <trkpt lat="40.164133" lon="-5.216217">
        <ele>1155.0</ele>
        <time>2015-05-23T14:14:20Z</time>
      </trkpt>
      <trkpt lat="40.164267" lon="-5.216383">
        <ele>1154.0</ele>
        <time>2015-05-23T14:14:22Z</time>
      </trkpt>
      <trkpt lat="40.164433" lon="-5.216483">
        <ele>1153.0</ele>
        <time>2015-05-23T14:14:24Z</time>
      </trkpt>
      <trkpt lat="40.164600" lon="-5.216500">
        <ele>1152.0</ele>
        <time>2015-05-23T14:14:26Z</time>
      </trkpt>
      <trkpt lat="40.164783" lon="-5.216467">
        <ele>1150.0</ele>
        <time>2015-05-23T14:14:28Z</time>
      </trkpt>
      <trkpt lat="40.164933" lon="-5.216333">
        <ele>1148.0</ele>
        <time>2015-05-23T14:14:30Z</time>
      </trkpt>
      <trkpt lat="40.165067" lon="-5.216183">
        <ele>1149.0</ele>
        <time>2015-05-23T14:14:32Z</time>
      </trkpt>
      <trkpt lat="40.165167" lon="-5.215983">
        <ele>1150.0</ele>
        <time>2015-05-23T14:14:34Z</time>
      </trkpt>
      <trkpt lat="40.165217" lon="-5.215750">
        <ele>1152.0</ele>
        <time>2015-05-23T14:14:36Z</time>
      </trkpt>
      <trkpt lat="40.165183" lon="-5.215517">
        <ele>1152.0</ele>
        <time>2015-05-23T14:14:38Z</time>
      </trkpt>
      <trkpt lat="40.165067" lon="-5.215350">
        <ele>1153.0</ele>
        <time>2015-05-23T14:14:40Z</time>
      </trkpt>
      <trkpt lat="40.164917" lon="-5.215300">
        <ele>1154.0</ele>
        <time>2015-05-23T14:14:42Z</time>
      </trkpt>
      <trkpt lat="40.164783" lon="-5.215350">
        <ele>1154.0</ele>
        <time>2015-05-23T14:14:44Z</time>
      </trkpt>
      <trkpt lat="40.164667" lon="-5.215517">
        <ele>1153.0</ele>
        <time>2015-05-23T14:14:46Z</time>
      </trkpt>
      <trkpt lat="40.164583" lon="-5.215667">
        <ele>1157.0</ele>
        <time>2015-05-23T14:14:48Z</time>
      </trkpt>
      <trkpt lat="40.164533" lon="-5.215833">
        <ele>1161.0</ele>
        <time>2015-05-23T14:14:50Z</time>
      </trkpt>
      <trkpt lat="40.164483" lon="-5.216067">
        <ele>1162.0</ele>
        <time>2015-05-23T14:14:52Z</time>
      </trkpt>
      <trkpt lat="40.164517" lon="-5.216283">
        <ele>1167.0</ele>
        <time>2015-05-23T14:14:54Z</time>
      </trkpt>
      <trkpt lat="40.164633" lon="-5.216417">
        <ele>1171.0</ele>
        <time>2015-05-23T14:14:56Z</time>
      </trkpt>
      <trkpt lat="40.164783" lon="-5.216517">
        <ele>1171.0</ele>
        <time>2015-05-23T14:14:58Z</time>
      </trkpt>
      <trkpt lat="40.164983" lon="-5.216517">
        <ele>1169.0</ele>
        <time>2015-05-23T14:15:00Z</time>
      </trkpt>
      <trkpt lat="40.165167" lon="-5.216400">
        <ele>1169.0</ele>
        <time>2015-05-23T14:15:02Z</time>
      </trkpt>
      <trkpt lat="40.165283" lon="-5.216250">
        <ele>1172.0</ele>
        <time>2015-05-23T14:15:04Z</time>
      </trkpt>
      <trkpt lat="40.165300" lon="-5.216033">
        <ele>1174.0</ele>
        <time>2015-05-23T14:15:06Z</time>
      </trkpt>
      <trkpt lat="40.165183" lon="-5.215833">
        <ele>1177.0</ele>
        <time>2015-05-23T14:15:08Z</time>
      </trkpt>
      <trkpt lat="40.165050" lon="-5.215783">
        <ele>1185.0</ele>
        <time>2015-05-23T14:15:10Z</time>
      </trkpt>
      <trkpt lat="40.164933" lon="-5.215783">
        <ele>1191.0</ele>
        <time>2015-05-23T14:15:12Z</time>
      </trkpt>
      <trkpt lat="40.164767" lon="-5.215900">
        <ele>1193.0</ele>
        <time>2015-05-23T14:15:14Z</time>
      </trkpt>
      <trkpt lat="40.164667" lon="-5.216083">
        <ele>1197.0</ele>
        <time>2015-05-23T14:15:16Z</time>
      </trkpt>
      <trkpt lat="40.164617" lon="-5.216267">
        <ele>1202.0</ele>
        <time>2015-05-23T14:15:18Z</time>
      </trkpt>
      <trkpt lat="40.164633" lon="-5.216483">
        <ele>1204.0</ele>
        <time>2015-05-23T14:15:20Z</time>
      </trkpt>
      <trkpt lat="40.164717" lon="-5.216683">
        <ele>1203.0</ele>
        <time>2015-05-23T14:15:22Z</time>
      </trkpt>
      <trkpt lat="40.164867" lon="-5.216850">
        <ele>1201.0</ele>
        <time>2015-05-23T14:15:24Z</time>
      </trkpt>
      <trkpt lat="40.165033" lon="-5.216933">
        <ele>1202.0</ele>
        <time>2015-05-23T14:15:26Z</time>
      </trkpt>
      <trkpt lat="40.165217" lon="-5.216917">
        <ele>1203.0</ele>
        <time>2015-05-23T14:15:28Z</time>
      </trkpt>
      <trkpt lat="40.165350" lon="-5.216783">
        <ele>1203.0</ele>
        <time>2015-05-23T14:15:30Z</time>
      </trkpt>
      <trkpt lat="40.165450" lon="-5.216583">
        <ele>1201.0</ele>
        <time>2015-05-23T14:15:32Z</time>
      </trkpt>
      <trkpt lat="40.165467" lon="-5.216350">
        <ele>1202.0</ele>
        <time>2015-05-23T14:15:34Z</time>
      </trkpt>
      <trkpt lat="40.165400" lon="-5.216183">
        <ele>1205.0</ele>
        <time>2015-05-23T14:15:36Z</time>
      </trkpt>
      <trkpt lat="40.165283" lon="-5.216083">
        <ele>1209.0</ele>
        <time>2015-05-23T14:15:38Z</time>
      </trkpt>
      <trkpt lat="40.165133" lon="-5.216083">
        <ele>1212.0</ele>
        <time>2015-05-23T14:15:40Z</time>
      </trkpt>
      <trkpt lat="40.165000" lon="-5.216183">
        <ele>1215.0</ele>
        <time>2015-05-23T14:15:42Z</time>
      </trkpt>
      <trkpt lat="40.164900" lon="-5.216333">
        <ele>1218.0</ele>
        <time>2015-05-23T14:15:44Z</time>
      </trkpt>
      <trkpt lat="40.164850" lon="-5.216533">
        <ele>1220.0</ele>
        <time>2015-05-23T14:15:46Z</time>
      </trkpt>
      <trkpt lat="40.164883" lon="-5.216750">
        <ele>1221.0</ele>
        <time>2015-05-23T14:15:48Z</time>
      </trkpt>
      <trkpt lat="40.164983" lon="-5.216933">
        <ele>1220.0</ele>
        <time>2015-05-23T14:15:50Z</time>
      </trkpt>
      <trkpt lat="40.165150" lon="-5.217067">
        <ele>1219.0</ele>
        <time>2015-05-23T14:15:52Z</time>
      </trkpt>
      <trkpt lat="40.165350" lon="-5.217133">
        <ele>1217.0</ele>
        <time>2015-05-23T14:15:54Z</time>
      </trkpt>
      <trkpt lat="40.165550" lon="-5.217100">
        <ele>1218.0</ele>
        <time>2015-05-23T14:15:56Z</time>
      </trkpt>
      <trkpt lat="40.165683" lon="-5.217000">
        <ele>1220.0</ele>
        <time>2015-05-23T14:15:58Z</time>
      </trkpt>
      <trkpt lat="40.165800" lon="-5.216867">
        <ele>1221.0</ele>
        <time>2015-05-23T14:16:00Z</time>
      </trkpt>
      <trkpt lat="40.165883" lon="-5.216683">
        <ele>1221.0</ele>
        <time>2015-05-23T14:16:02Z</time>
      </trkpt>
      <trkpt lat="40.165850" lon="-5.216483">
        <ele>1221.0</ele>
        <time>2015-05-23T14:16:04Z</time>
      </trkpt>
      <trkpt lat="40.165750" lon="-5.216383">
        <ele>1224.0</ele>
        <time>2015-05-23T14:16:06Z</time>
      </trkpt>
      <trkpt lat="40.165650" lon="-5.216333">
        <ele>1229.0</ele>
        <time>2015-05-23T14:16:08Z</time>
      </trkpt>
      <trkpt lat="40.165533" lon="-5.216383">
        <ele>1231.0</ele>
        <time>2015-05-23T14:16:10Z</time>
      </trkpt>
      <trkpt lat="40.165417" lon="-5.216517">
        <ele>1233.0</ele>
        <time>2015-05-23T14:16:12Z</time>
      </trkpt>
      <trkpt lat="40.165350" lon="-5.216717">
        <ele>1237.0</ele>
        <time>2015-05-23T14:16:14Z</time>
      </trkpt>
      <trkpt lat="40.165383" lon="-5.216950">
        <ele>1240.0</ele>
        <time>2015-05-23T14:16:16Z</time>
      </trkpt>
      <trkpt lat="40.165483" lon="-5.217150">
        <ele>1240.0</ele>
        <time>2015-05-23T14:16:18Z</time>
      </trkpt>
      <trkpt lat="40.165650" lon="-5.217300">
        <ele>1242.0</ele>
        <time>2015-05-23T14:16:20Z</time>
      </trkpt>
      <trkpt lat="40.165867" lon="-5.217350">
        <ele>1242.0</ele>
        <time>2015-05-23T14:16:22Z</time>
      </trkpt>
      <trkpt lat="40.166050" lon="-5.217283">
        <ele>1243.0</ele>
        <time>2015-05-23T14:16:24Z</time>
      </trkpt>
      <trkpt lat="40.166167" lon="-5.217150">
        <ele>1245.0</ele>
        <time>2015-05-23T14:16:26Z</time>
      </trkpt>
      <trkpt lat="40.166233" lon="-5.216967">
        <ele>1244.0</ele>
        <time>2015-05-23T14:16:28Z</time>
      </trkpt>
      <trkpt lat="40.166200" lon="-5.216767">
        <ele>1244.0</ele>
        <time>2015-05-23T14:16:30Z</time>
      </trkpt>
      <trkpt lat="40.166100" lon="-5.216633">
        <ele>1247.0</ele>
        <time>2015-05-23T14:16:32Z</time>
      </trkpt>
      <trkpt lat="40.165983" lon="-5.216617">
        <ele>1251.0</ele>
        <time>2015-05-23T14:16:34Z</time>
      </trkpt>
      <trkpt lat="40.165867" lon="-5.216667">
        <ele>1254.0</ele>
        <time>2015-05-23T14:16:36Z</time>
      </trkpt>
      <trkpt lat="40.165783" lon="-5.216850">
        <ele>1255.0</ele>
        <time>2015-05-23T14:16:38Z</time>
      </trkpt>
      <trkpt lat="40.165767" lon="-5.217100">
        <ele>1256.0</ele>
        <time>2015-05-23T14:16:40Z</time>
      </trkpt>
      <trkpt lat="40.165800" lon="-5.217317">
        <ele>1259.0</ele>
        <time>2015-05-23T14:16:42Z</time>
      </trkpt>
      <trkpt lat="40.165917" lon="-5.217517">
        <ele>1258.0</ele>
        <time>2015-05-23T14:16:44Z</time>
      </trkpt>
      <trkpt lat="40.166083" lon="-5.217667">
        <ele>1258.0</ele>
        <time>2015-05-23T14:16:46Z</time>
      </trkpt>
      <trkpt lat="40.166267" lon="-5.217733">
        <ele>1260.0</ele>
        <time>2015-05-23T14:16:48Z</time>
      </trkpt>
      <trkpt lat="40.166450" lon="-5.217717">
        <ele>1259.0</ele>
        <time>2015-05-23T14:16:50Z</time>
      </trkpt>
      <trkpt lat="40.166617" lon="-5.217567">
        <ele>1258.0</ele>
        <time>2015-05-23T14:16:52Z</time>
      </trkpt>
      <trkpt lat="40.166700" lon="-5.217383">
        <ele>1260.0</ele>
        <time>2015-05-23T14:16:54Z</time>
      </trkpt>
      <trkpt lat="40.166683" lon="-5.217200">
        <ele>1260.0</ele>
        <time>2015-05-23T14:16:56Z</time>
      </trkpt>
      <trkpt lat="40.166617" lon="-5.217067">
        <ele>1260.0</ele>
        <time>2015-05-23T14:16:58Z</time>
      </trkpt>
      <trkpt lat="40.166500" lon="-5.216983">
        <ele>1260.0</ele>
        <time>2015-05-23T14:17:00Z</time>
      </trkpt>
      <trkpt lat="40.166350" lon="-5.217017">
        <ele>1259.0</ele>
        <time>2015-05-23T14:17:02Z</time>
      </trkpt>
      <trkpt lat="40.166217" lon="-5.217117">
        <ele>1260.0</ele>
        <time>2015-05-23T14:17:04Z</time>
      </trkpt>
      <trkpt lat="40.166133" lon="-5.217283">
        <ele>1262.0</ele>
        <time>2015-05-23T14:17:06Z</time>
      </trkpt>
      <trkpt lat="40.166083" lon="-5.217483">
        <ele>1262.0</ele>
        <time>2015-05-23T14:17:08Z</time>
      </trkpt>
      <trkpt lat="40.166117" lon="-5.217717">
        <ele>1260.0</ele>
        <time>2015-05-23T14:17:10Z</time>
      </trkpt>
      <trkpt lat="40.166217" lon="-5.217933">
        <ele>1258.0</ele>
        <time>2015-05-23T14:17:12Z</time>
      </trkpt>
      <trkpt lat="40.166350" lon="-5.218100">
        <ele>1258.0</ele>
        <time>2015-05-23T14:17:14Z</time>
      </trkpt>
      <trkpt lat="40.166567" lon="-5.218167">
        <ele>1256.0</ele>
        <time>2015-05-23T14:17:16Z</time>
      </trkpt>
      <trkpt lat="40.166767" lon="-5.218100">
        <ele>1254.0</ele>
        <time>2015-05-23T14:17:18Z</time>
      </trkpt>
      <trkpt lat="40.166917" lon="-5.217950">
        <ele>1254.0</ele>
        <time>2015-05-23T14:17:20Z</time>
      </trkpt>
      <trkpt lat="40.167033" lon="-5.217750">
        <ele>1253.0</ele>
        <time>2015-05-23T14:17:22Z</time>
      </trkpt>
      <trkpt lat="40.167050" lon="-5.217517">
        <ele>1251.0</ele>
        <time>2015-05-23T14:17:24Z</time>
      </trkpt>
      <trkpt lat="40.167000" lon="-5.217317">
        <ele>1252.0</ele>
        <time>2015-05-23T14:17:26Z</time>
      </trkpt>
      <trkpt lat="40.166933" lon="-5.217183">
        <ele>1254.0</ele>
        <time>2015-05-23T14:17:28Z</time>
      </trkpt>
      <trkpt lat="40.166800" lon="-5.217133">
        <ele>1253.0</ele>
        <time>2015-05-23T14:17:30Z</time>
      </trkpt>
      <trkpt lat="40.166650" lon="-5.217167">
        <ele>1252.0</ele>
        <time>2015-05-23T14:17:32Z</time>
      </trkpt>
      <trkpt lat="40.166550" lon="-5.217267">
        <ele>1252.0</ele>
        <time>2015-05-23T14:17:34Z</time>
      </trkpt>
      <trkpt lat="40.166450" lon="-5.217383">
        <ele>1252.0</ele>
        <time>2015-05-23T14:17:36Z</time>
      </trkpt>
      <trkpt lat="40.166400" lon="-5.217567">
        <ele>1250.0</ele>
        <time>2015-05-23T14:17:38Z</time>
      </trkpt>
      <trkpt lat="40.166350" lon="-5.217750">
        <ele>1247.0</ele>
        <time>2015-05-23T14:17:40Z</time>
      </trkpt>
      <trkpt lat="40.166300" lon="-5.217917">
        <ele>1246.0</ele>
        <time>2015-05-23T14:17:42Z</time>
      </trkpt>
      <trkpt lat="40.166250" lon="-5.218100">
        <ele>1243.0</ele>
        <time>2015-05-23T14:17:44Z</time>
      </trkpt>
      <trkpt lat="40.166150" lon="-5.218267">
        <ele>1240.0</ele>
        <time>2015-05-23T14:17:46Z</time>
      </trkpt>
      <trkpt lat="40.166050" lon="-5.218400">
        <ele>1238.0</ele>
        <time>2015-05-23T14:17:48Z</time>
      </trkpt>
      <trkpt lat="40.165983" lon="-5.218533">
        <ele>1238.0</ele>
        <time>2015-05-23T14:17:50Z</time>
      </trkpt>
      <trkpt lat="40.165917" lon="-5.218700">
        <ele>1235.0</ele>
        <time>2015-05-23T14:17:52Z</time>
      </trkpt>
      <trkpt lat="40.165833" lon="-5.218867">
        <ele>1232.0</ele>
        <time>2015-05-23T14:17:54Z</time>
      </trkpt>
      <trkpt lat="40.165733" lon="-5.219017">
        <ele>1231.0</ele>
        <time>2015-05-23T14:17:56Z</time>
      </trkpt>
      <trkpt lat="40.165617" lon="-5.219150">
        <ele>1230.0</ele>
        <time>2015-05-23T14:17:58Z</time>
      </trkpt>
      <trkpt lat="40.165500" lon="-5.219283">
        <ele>1230.0</ele>
        <time>2015-05-23T14:18:00Z</time>
      </trkpt>
      <trkpt lat="40.165400" lon="-5.219417">
        <ele>1228.0</ele>
        <time>2015-05-23T14:18:02Z</time>
      </trkpt>
      <trkpt lat="40.165317" lon="-5.219583">
        <ele>1228.0</ele>
        <time>2015-05-23T14:18:04Z</time>
      </trkpt>
      <trkpt lat="40.165283" lon="-5.219767">
        <ele>1227.0</ele>
        <time>2015-05-23T14:18:06Z</time>
      </trkpt>
      <trkpt lat="40.165233" lon="-5.219967">
        <ele>1223.0</ele>
        <time>2015-05-23T14:18:08Z</time>
      </trkpt>
      <trkpt lat="40.165150" lon="-5.220200">
        <ele>1219.0</ele>
        <time>2015-05-23T14:18:10Z</time>
      </trkpt>
      <trkpt lat="40.165067" lon="-5.220383">
        <ele>1220.0</ele>
        <time>2015-05-23T14:18:12Z</time>
      </trkpt>
      <trkpt lat="40.165000" lon="-5.220550">
        <ele>1221.0</ele>
        <time>2015-05-23T14:18:14Z</time>
      </trkpt>
      <trkpt lat="40.164933" lon="-5.220733">
        <ele>1219.0</ele>
        <time>2015-05-23T14:18:16Z</time>
      </trkpt>
      <trkpt lat="40.164883" lon="-5.220950">
        <ele>1215.0</ele>
        <time>2015-05-23T14:18:18Z</time>
      </trkpt>
      <trkpt lat="40.164817" lon="-5.221150">
        <ele>1213.0</ele>
        <time>2015-05-23T14:18:20Z</time>
      </trkpt>
      <trkpt lat="40.164733" lon="-5.221300">
        <ele>1215.0</ele>
        <time>2015-05-23T14:18:22Z</time>
      </trkpt>
      <trkpt lat="40.164683" lon="-5.221467">
        <ele>1213.0</ele>
        <time>2015-05-23T14:18:24Z</time>
      </trkpt>
      <trkpt lat="40.164650" lon="-5.221633">
        <ele>1211.0</ele>
        <time>2015-05-23T14:18:26Z</time>
      </trkpt>
      <trkpt lat="40.164683" lon="-5.221833">
        <ele>1207.0</ele>
        <time>2015-05-23T14:18:28Z</time>
      </trkpt>
      <trkpt lat="40.164683" lon="-5.222083">
        <ele>1201.0</ele>
        <time>2015-05-23T14:18:30Z</time>
      </trkpt>
      <trkpt lat="40.164650" lon="-5.222300">
        <ele>1197.0</ele>
        <time>2015-05-23T14:18:32Z</time>
      </trkpt>
      <trkpt lat="40.164617" lon="-5.222517">
        <ele>1193.0</ele>
        <time>2015-05-23T14:18:34Z</time>
      </trkpt>
      <trkpt lat="40.164533" lon="-5.222733">
        <ele>1188.0</ele>
        <time>2015-05-23T14:18:36Z</time>
      </trkpt>
      <trkpt lat="40.164433" lon="-5.223000">
        <ele>1185.0</ele>
        <time>2015-05-23T14:18:38Z</time>
      </trkpt>
      <trkpt lat="40.164333" lon="-5.223200">
        <ele>1186.0</ele>
        <time>2015-05-23T14:18:40Z</time>
      </trkpt>
      <trkpt lat="40.164267" lon="-5.223417">
        <ele>1186.0</ele>
        <time>2015-05-23T14:18:42Z</time>
      </trkpt>
      <trkpt lat="40.164267" lon="-5.223667">
        <ele>1185.0</ele>
        <time>2015-05-23T14:18:44Z</time>
      </trkpt>
      <trkpt lat="40.164300" lon="-5.223900">
        <ele>1185.0</ele>
        <time>2015-05-23T14:18:46Z</time>
      </trkpt>
      <trkpt lat="40.164350" lon="-5.224117">
        <ele>1186.0</ele>
        <time>2015-05-23T14:18:48Z</time>
      </trkpt>
      <trkpt lat="40.164483" lon="-5.224367">
        <ele>1185.0</ele>
        <time>2015-05-23T14:18:50Z</time>
      </trkpt>
      <trkpt lat="40.164633" lon="-5.224617">
        <ele>1185.0</ele>
        <time>2015-05-23T14:18:52Z</time>
      </trkpt>
      <trkpt lat="40.164767" lon="-5.224900">
        <ele>1186.0</ele>
        <time>2015-05-23T14:18:54Z</time>
      </trkpt>
      <trkpt lat="40.164783" lon="-5.225183">
        <ele>1189.0</ele>
        <time>2015-05-23T14:18:56Z</time>
      </trkpt>
      <trkpt lat="40.164767" lon="-5.225417">
        <ele>1193.0</ele>
        <time>2015-05-23T14:18:58Z</time>
      </trkpt>
      <trkpt lat="40.164683" lon="-5.225600">
        <ele>1196.0</ele>
        <time>2015-05-23T14:19:00Z</time>
      </trkpt>
      <trkpt lat="40.164567" lon="-5.225683">
        <ele>1196.0</ele>
        <time>2015-05-23T14:19:02Z</time>
      </trkpt>
      <trkpt lat="40.164417" lon="-5.225750">
        <ele>1197.0</ele>
        <time>2015-05-23T14:19:04Z</time>
      </trkpt>
      <trkpt lat="40.164300" lon="-5.225883">
        <ele>1201.0</ele>
        <time>2015-05-23T14:19:06Z</time>
      </trkpt>
      <trkpt lat="40.164200" lon="-5.226050">
        <ele>1205.0</ele>
        <time>2015-05-23T14:19:08Z</time>
      </trkpt>
      <trkpt lat="40.164133" lon="-5.226250">
        <ele>1209.0</ele>
        <time>2015-05-23T14:19:10Z</time>
      </trkpt>
      <trkpt lat="40.164150" lon="-5.226533">
        <ele>1211.0</ele>
        <time>2015-05-23T14:19:12Z</time>
      </trkpt>
      <trkpt lat="40.164267" lon="-5.226817">
        <ele>1212.0</ele>
        <time>2015-05-23T14:19:14Z</time>
      </trkpt>
      <trkpt lat="40.164450" lon="-5.227033">
        <ele>1218.0</ele>
        <time>2015-05-23T14:19:16Z</time>
      </trkpt>
      <trkpt lat="40.164617" lon="-5.227150">
        <ele>1224.0</ele>
        <time>2015-05-23T14:19:18Z</time>
      </trkpt>
      <trkpt lat="40.164783" lon="-5.227167">
        <ele>1224.0</ele>
        <time>2015-05-23T14:19:20Z</time>
      </trkpt>
      <trkpt lat="40.164933" lon="-5.227033">
        <ele>1223.0</ele>
        <time>2015-05-23T14:19:22Z</time>
      </trkpt>
      <trkpt lat="40.164967" lon="-5.226883">
        <ele>1224.0</ele>
        <time>2015-05-23T14:19:24Z</time>
      </trkpt>
      <trkpt lat="40.164917" lon="-5.226767">
        <ele>1226.0</ele>
        <time>2015-05-23T14:19:26Z</time>
      </trkpt>
      <trkpt lat="40.164817" lon="-5.226733">
        <ele>1228.0</ele>
        <time>2015-05-23T14:19:28Z</time>
      </trkpt>
      <trkpt lat="40.164683" lon="-5.226850">
        <ele>1227.0</ele>
        <time>2015-05-23T14:19:30Z</time>
      </trkpt>
      <trkpt lat="40.164533" lon="-5.227067">
        <ele>1228.0</ele>
        <time>2015-05-23T14:19:32Z</time>
      </trkpt>
      <trkpt lat="40.164433" lon="-5.227267">
        <ele>1234.0</ele>
        <time>2015-05-23T14:19:34Z</time>
      </trkpt>
      <trkpt lat="40.164383" lon="-5.227483">
        <ele>1240.0</ele>
        <time>2015-05-23T14:19:36Z</time>
      </trkpt>
      <trkpt lat="40.164350" lon="-5.227767">
        <ele>1242.0</ele>
        <time>2015-05-23T14:19:38Z</time>
      </trkpt>
      <trkpt lat="40.164433" lon="-5.228050">
        <ele>1243.0</ele>
        <time>2015-05-23T14:19:40Z</time>
      </trkpt>
      <trkpt lat="40.164533" lon="-5.228233">
        <ele>1246.0</ele>
        <time>2015-05-23T14:19:42Z</time>
      </trkpt>
      <trkpt lat="40.164667" lon="-5.228383">
        <ele>1245.0</ele>
        <time>2015-05-23T14:19:44Z</time>
      </trkpt>
      <trkpt lat="40.164867" lon="-5.228433">
        <ele>1241.0</ele>
        <time>2015-05-23T14:19:46Z</time>
      </trkpt>
      <trkpt lat="40.165033" lon="-5.228400">
        <ele>1242.0</ele>
        <time>2015-05-23T14:19:48Z</time>
      </trkpt>
      <trkpt lat="40.165117" lon="-5.228333">
        <ele>1247.0</ele>
        <time>2015-05-23T14:19:50Z</time>
      </trkpt>
      <trkpt lat="40.165167" lon="-5.228200">
        <ele>1248.0</ele>
        <time>2015-05-23T14:19:52Z</time>
      </trkpt>
      <trkpt lat="40.165100" lon="-5.228000">
        <ele>1246.0</ele>
        <time>2015-05-23T14:19:54Z</time>
      </trkpt>
      <trkpt lat="40.164933" lon="-5.227900">
        <ele>1247.0</ele>
        <time>2015-05-23T14:19:56Z</time>
      </trkpt>
      <trkpt lat="40.164767" lon="-5.227917">
        <ele>1250.0</ele>
        <time>2015-05-23T14:19:58Z</time>
      </trkpt>
      <trkpt lat="40.164567" lon="-5.228050">
        <ele>1252.0</ele>
        <time>2015-05-23T14:20:00Z</time>
      </trkpt>
      <trkpt lat="40.164400" lon="-5.228267">
        <ele>1257.0</ele>
        <time>2015-05-23T14:20:02Z</time>
      </trkpt>
      <trkpt lat="40.164333" lon="-5.228450">
        <ele>1264.0</ele>
        <time>2015-05-23T14:20:04Z</time>
      </trkpt>
      <trkpt lat="40.164250" lon="-5.228650">
        <ele>1263.0</ele>
        <time>2015-05-23T14:20:06Z</time>
      </trkpt>
      <trkpt lat="40.164183" lon="-5.228933">
        <ele>1260.0</ele>
        <time>2015-05-23T14:20:08Z</time>
      </trkpt>
      <trkpt lat="40.164217" lon="-5.229200">
        <ele>1261.0</ele>
        <time>2015-05-23T14:20:10Z</time>
      </trkpt>
      <trkpt lat="40.164300" lon="-5.229433">
        <ele>1260.0</ele>
        <time>2015-05-23T14:20:12Z</time>
      </trkpt>
      <trkpt lat="40.164483" lon="-5.229633">
        <ele>1259.0</ele>
        <time>2015-05-23T14:20:14Z</time>
      </trkpt>
      <trkpt lat="40.164667" lon="-5.229717">
        <ele>1258.0</ele>
        <time>2015-05-23T14:20:16Z</time>
      </trkpt>
      <trkpt lat="40.164833" lon="-5.229667">
        <ele>1258.0</ele>
        <time>2015-05-23T14:20:18Z</time>
      </trkpt>
      <trkpt lat="40.164900" lon="-5.229567">
        <ele>1257.0</ele>
        <time>2015-05-23T14:20:20Z</time>
      </trkpt>
      <trkpt lat="40.164883" lon="-5.229500">
        <ele>1255.0</ele>
        <time>2015-05-23T14:20:22Z</time>
      </trkpt>
      <trkpt lat="40.164767" lon="-5.229483">
        <ele>1253.0</ele>
        <time>2015-05-23T14:20:24Z</time>
      </trkpt>
      <trkpt lat="40.164617" lon="-5.229517">
        <ele>1252.0</ele>
        <time>2015-05-23T14:20:26Z</time>
      </trkpt>
      <trkpt lat="40.164467" lon="-5.229683">
        <ele>1252.0</ele>
        <time>2015-05-23T14:20:28Z</time>
      </trkpt>
      <trkpt lat="40.164317" lon="-5.229917">
        <ele>1250.0</ele>
        <time>2015-05-23T14:20:30Z</time>
      </trkpt>
      <trkpt lat="40.164233" lon="-5.230117">
        <ele>1250.0</ele>
        <time>2015-05-23T14:20:32Z</time>
      </trkpt>
      <trkpt lat="40.164133" lon="-5.230383">
        <ele>1247.0</ele>
        <time>2015-05-23T14:20:34Z</time>
      </trkpt>
      <trkpt lat="40.164033" lon="-5.230683">
        <ele>1247.0</ele>
        <time>2015-05-23T14:20:36Z</time>
      </trkpt>
      <trkpt lat="40.163967" lon="-5.230900">
        <ele>1252.0</ele>
        <time>2015-05-23T14:20:38Z</time>
      </trkpt>
      <trkpt lat="40.163917" lon="-5.231100">
        <ele>1253.0</ele>
        <time>2015-05-23T14:20:40Z</time>
      </trkpt>
      <trkpt lat="40.163900" lon="-5.231367">
        <ele>1250.0</ele>
        <time>2015-05-23T14:20:42Z</time>
      </trkpt>
      <trkpt lat="40.163867" lon="-5.231633">
        <ele>1251.0</ele>
        <time>2015-05-23T14:20:44Z</time>
      </trkpt>
      <trkpt lat="40.163850" lon="-5.231833">
        <ele>1254.0</ele>
        <time>2015-05-23T14:20:46Z</time>
      </trkpt>
      <trkpt lat="40.163900" lon="-5.232083">
        <ele>1252.0</ele>
        <time>2015-05-23T14:20:48Z</time>
      </trkpt>
      <trkpt lat="40.163917" lon="-5.232367">
        <ele>1248.0</ele>
        <time>2015-05-23T14:20:50Z</time>
      </trkpt>
      <trkpt lat="40.163883" lon="-5.232617">
        <ele>1248.0</ele>
        <time>2015-05-23T14:20:52Z</time>
      </trkpt>
      <trkpt lat="40.163817" lon="-5.232850">
        <ele>1247.0</ele>
        <time>2015-05-23T14:20:54Z</time>
      </trkpt>
      <trkpt lat="40.163733" lon="-5.233100">
        <ele>1243.0</ele>
        <time>2015-05-23T14:20:56Z</time>
      </trkpt>
      <trkpt lat="40.163617" lon="-5.233333">
        <ele>1241.0</ele>
        <time>2015-05-23T14:20:58Z</time>
      </trkpt>
      <trkpt lat="40.163517" lon="-5.233533">
        <ele>1240.0</ele>
        <time>2015-05-23T14:21:00Z</time>
      </trkpt>
      <trkpt lat="40.163450" lon="-5.233767">
        <ele>1239.0</ele>
        <time>2015-05-23T14:21:02Z</time>
      </trkpt>
      <trkpt lat="40.163383" lon="-5.234033">
        <ele>1236.0</ele>
        <time>2015-05-23T14:21:04Z</time>
      </trkpt>
      <trkpt lat="40.163300" lon="-5.234283">
        <ele>1234.0</ele>
        <time>2015-05-23T14:21:06Z</time>
      </trkpt>
      <trkpt lat="40.163233" lon="-5.234500">
        <ele>1233.0</ele>
        <time>2015-05-23T14:21:08Z</time>
      </trkpt>
      <trkpt lat="40.163150" lon="-5.234767">
        <ele>1229.0</ele>
        <time>2015-05-23T14:21:10Z</time>
      </trkpt>
      <trkpt lat="40.163067" lon="-5.235017">
        <ele>1227.0</ele>
        <time>2015-05-23T14:21:12Z</time>
      </trkpt>
      <trkpt lat="40.162983" lon="-5.235267">
        <ele>1227.0</ele>
        <time>2015-05-23T14:21:14Z</time>
      </trkpt>
      <trkpt lat="40.162867" lon="-5.235517">
        <ele>1227.0</ele>
        <time>2015-05-23T14:21:16Z</time>
      </trkpt>
      <trkpt lat="40.162750" lon="-5.235783">
        <ele>1226.0</ele>
        <time>2015-05-23T14:21:18Z</time>
      </trkpt>
      <trkpt lat="40.162633" lon="-5.236000">
        <ele>1227.0</ele>
        <time>2015-05-23T14:21:20Z</time>
      </trkpt>
      <trkpt lat="40.162533" lon="-5.236250">
        <ele>1225.0</ele>
        <time>2015-05-23T14:21:22Z</time>
      </trkpt>
      <trkpt lat="40.162417" lon="-5.236500">
        <ele>1222.0</ele>
        <time>2015-05-23T14:21:24Z</time>
      </trkpt>
      <trkpt lat="40.162300" lon="-5.236750">
        <ele>1218.0</ele>
        <time>2015-05-23T14:21:26Z</time>
      </trkpt>
      <trkpt lat="40.162200" lon="-5.237017">
        <ele>1217.0</ele>
        <time>2015-05-23T14:21:28Z</time>
      </trkpt>
      <trkpt lat="40.162133" lon="-5.237267">
        <ele>1217.0</ele>
        <time>2015-05-23T14:21:30Z</time>
      </trkpt>
      <trkpt lat="40.162067" lon="-5.237483">
        <ele>1217.0</ele>
        <time>2015-05-23T14:21:32Z</time>
      </trkpt>
      <trkpt lat="40.162000" lon="-5.237667">
        <ele>1216.0</ele>
        <time>2015-05-23T14:21:34Z</time>
      </trkpt>
      <trkpt lat="40.161917" lon="-5.237917">
        <ele>1211.0</ele>
        <time>2015-05-23T14:21:36Z</time>
      </trkpt>
      <trkpt lat="40.161867" lon="-5.238250">
        <ele>1210.0</ele>
        <time>2015-05-23T14:21:38Z</time>
      </trkpt>
      <trkpt lat="40.161800" lon="-5.238467">
        <ele>1216.0</ele>
        <time>2015-05-23T14:21:40Z</time>
      </trkpt>
      <trkpt lat="40.161750" lon="-5.238633">
        <ele>1217.0</ele>
        <time>2015-05-23T14:21:42Z</time>
      </trkpt>
      <trkpt lat="40.161733" lon="-5.238867">
        <ele>1216.0</ele>
        <time>2015-05-23T14:21:44Z</time>
      </trkpt>
      <trkpt lat="40.161667" lon="-5.239167">
        <ele>1214.0</ele>
        <time>2015-05-23T14:21:46Z</time>
      </trkpt>
      <trkpt lat="40.161583" lon="-5.239433">
        <ele>1214.0</ele>
        <time>2015-05-23T14:21:48Z</time>
      </trkpt>
      <trkpt lat="40.161483" lon="-5.239633">
        <ele>1211.0</ele>
        <time>2015-05-23T14:21:50Z</time>
      </trkpt>
      <trkpt lat="40.161317" lon="-5.239750">
        <ele>1203.0</ele>
        <time>2015-05-23T14:21:52Z</time>
      </trkpt>
      <trkpt lat="40.161150" lon="-5.239867">
        <ele>1200.0</ele>
        <time>2015-05-23T14:21:54Z</time>
      </trkpt>
      <trkpt lat="40.161033" lon="-5.240000">
        <ele>1198.0</ele>
        <time>2015-05-23T14:21:56Z</time>
      </trkpt>
      <trkpt lat="40.160917" lon="-5.240250">
        <ele>1192.0</ele>
        <time>2015-05-23T14:21:58Z</time>
      </trkpt>
      <trkpt lat="40.160800" lon="-5.240500">
        <ele>1189.0</ele>
        <time>2015-05-23T14:22:00Z</time>
      </trkpt>
      <trkpt lat="40.160683" lon="-5.240717">
        <ele>1188.0</ele>
        <time>2015-05-23T14:22:02Z</time>
      </trkpt>
      <trkpt lat="40.160600" lon="-5.240950">
        <ele>1186.0</ele>
        <time>2015-05-23T14:22:04Z</time>
      </trkpt>
      <trkpt lat="40.160600" lon="-5.241200">
        <ele>1185.0</ele>
        <time>2015-05-23T14:22:06Z</time>
      </trkpt>
      <trkpt lat="40.160633" lon="-5.241483">
        <ele>1182.0</ele>
        <time>2015-05-23T14:22:08Z</time>
      </trkpt>
      <trkpt lat="40.160617" lon="-5.241800">
        <ele>1178.0</ele>
        <time>2015-05-23T14:22:10Z</time>
      </trkpt>
      <trkpt lat="40.160583" lon="-5.242083">
        <ele>1175.0</ele>
        <time>2015-05-23T14:22:12Z</time>
      </trkpt>
      <trkpt lat="40.160533" lon="-5.242350">
        <ele>1171.0</ele>
        <time>2015-05-23T14:22:14Z</time>
      </trkpt>
      <trkpt lat="40.160467" lon="-5.242633">
        <ele>1166.0</ele>
        <time>2015-05-23T14:22:16Z</time>
      </trkpt>
      <trkpt lat="40.160400" lon="-5.242850">
        <ele>1164.0</ele>
        <time>2015-05-23T14:22:18Z</time>
      </trkpt>
      <trkpt lat="40.160333" lon="-5.243067">
        <ele>1161.0</ele>
        <time>2015-05-23T14:22:20Z</time>
      </trkpt>
      <trkpt lat="40.160267" lon="-5.243317">
        <ele>1155.0</ele>
        <time>2015-05-23T14:22:22Z</time>
      </trkpt>
      <trkpt lat="40.160167" lon="-5.243550">
        <ele>1152.0</ele>
        <time>2015-05-23T14:22:24Z</time>
      </trkpt>
      <trkpt lat="40.160100" lon="-5.243750">
        <ele>1148.0</ele>
        <time>2015-05-23T14:22:26Z</time>
      </trkpt>
      <trkpt lat="40.160017" lon="-5.243983">
        <ele>1143.0</ele>
        <time>2015-05-23T14:22:28Z</time>
      </trkpt>
      <trkpt lat="40.159950" lon="-5.244183">
        <ele>1140.0</ele>
        <time>2015-05-23T14:22:30Z</time>
      </trkpt>
      <trkpt lat="40.159883" lon="-5.244400">
        <ele>1135.0</ele>
        <time>2015-05-23T14:22:32Z</time>
      </trkpt>
      <trkpt lat="40.159783" lon="-5.244617">
        <ele>1129.0</ele>
        <time>2015-05-23T14:22:34Z</time>
      </trkpt>
      <trkpt lat="40.159683" lon="-5.244833">
        <ele>1125.0</ele>
        <time>2015-05-23T14:22:36Z</time>
      </trkpt>
      <trkpt lat="40.159617" lon="-5.245033">
        <ele>1122.0</ele>
        <time>2015-05-23T14:22:38Z</time>
      </trkpt>
      <trkpt lat="40.159567" lon="-5.245250">
        <ele>1116.0</ele>
        <time>2015-05-23T14:22:40Z</time>
      </trkpt>
      <trkpt lat="40.159517" lon="-5.245467">
        <ele>1110.0</ele>
        <time>2015-05-23T14:22:42Z</time>
      </trkpt>
      <trkpt lat="40.159450" lon="-5.245683">
        <ele>1106.0</ele>
        <time>2015-05-23T14:22:44Z</time>
      </trkpt>
      <trkpt lat="40.159367" lon="-5.245900">
        <ele>1101.0</ele>
        <time>2015-05-23T14:22:46Z</time>
      </trkpt>
      <trkpt lat="40.159300" lon="-5.246083">
        <ele>1098.0</ele>
        <time>2015-05-23T14:22:48Z</time>
      </trkpt>
      <trkpt lat="40.159233" lon="-5.246250">
        <ele>1094.0</ele>
        <time>2015-05-23T14:22:50Z</time>
      </trkpt>
      <trkpt lat="40.159133" lon="-5.246450">
        <ele>1089.0</ele>
        <time>2015-05-23T14:22:52Z</time>
      </trkpt>
      <trkpt lat="40.159000" lon="-5.246617">
        <ele>1086.0</ele>
        <time>2015-05-23T14:22:54Z</time>
      </trkpt>
      <trkpt lat="40.158883" lon="-5.246767">
        <ele>1083.0</ele>
        <time>2015-05-23T14:22:56Z</time>
      </trkpt>
      <trkpt lat="40.158750" lon="-5.246933">
        <ele>1080.0</ele>
        <time>2015-05-23T14:22:58Z</time>
      </trkpt>
      <trkpt lat="40.158633" lon="-5.247100">
        <ele>1077.0</ele>
        <time>2015-05-23T14:23:00Z</time>
      </trkpt>
      <trkpt lat="40.158550" lon="-5.247300">
        <ele>1074.0</ele>
        <time>2015-05-23T14:23:02Z</time>
      </trkpt>
      <trkpt lat="40.158467" lon="-5.247550">
        <ele>1069.0</ele>
        <time>2015-05-23T14:23:04Z</time>
      </trkpt>
      <trkpt lat="40.158367" lon="-5.247833">
        <ele>1065.0</ele>
        <time>2015-05-23T14:23:06Z</time>
      </trkpt>
      <trkpt lat="40.158267" lon="-5.248050">
        <ele>1066.0</ele>
        <time>2015-05-23T14:23:08Z</time>
      </trkpt>
      <trkpt lat="40.158150" lon="-5.248250">
        <ele>1066.0</ele>
        <time>2015-05-23T14:23:10Z</time>
      </trkpt>
      <trkpt lat="40.158033" lon="-5.248500">
        <ele>1067.0</ele>
        <time>2015-05-23T14:23:12Z</time>
      </trkpt>
      <trkpt lat="40.157900" lon="-5.248700">
        <ele>1069.0</ele>
        <time>2015-05-23T14:23:14Z</time>
      </trkpt>
      <trkpt lat="40.157800" lon="-5.248917">
        <ele>1072.0</ele>
        <time>2015-05-23T14:23:16Z</time>
      </trkpt>
      <trkpt lat="40.157817" lon="-5.249167">
        <ele>1073.0</ele>
        <time>2015-05-23T14:23:18Z</time>
      </trkpt>
      <trkpt lat="40.157867" lon="-5.249350">
        <ele>1076.0</ele>
        <time>2015-05-23T14:23:20Z</time>
      </trkpt>
      <trkpt lat="40.157933" lon="-5.249467">
        <ele>1082.0</ele>
        <time>2015-05-23T14:23:22Z</time>
      </trkpt>
      <trkpt lat="40.158050" lon="-5.249550">
        <ele>1082.0</ele>
        <time>2015-05-23T14:23:24Z</time>
      </trkpt>
      <trkpt lat="40.158217" lon="-5.249550">
        <ele>1081.0</ele>
        <time>2015-05-23T14:23:26Z</time>
      </trkpt>
      <trkpt lat="40.158350" lon="-5.249383">
        <ele>1081.0</ele>
        <time>2015-05-23T14:23:28Z</time>
      </trkpt>
      <trkpt lat="40.158367" lon="-5.249183">
        <ele>1083.0</ele>
        <time>2015-05-23T14:23:30Z</time>
      </trkpt>
      <trkpt lat="40.158283" lon="-5.249033">
        <ele>1086.0</ele>
        <time>2015-05-23T14:23:32Z</time>
      </trkpt>
      <trkpt lat="40.158150" lon="-5.248950">
        <ele>1087.0</ele>
        <time>2015-05-23T14:23:34Z</time>
      </trkpt>
      <trkpt lat="40.158000" lon="-5.248917">
        <ele>1089.0</ele>
        <time>2015-05-23T14:23:36Z</time>
      </trkpt>
      <trkpt lat="40.157833" lon="-5.248933">
        <ele>1090.0</ele>
        <time>2015-05-23T14:23:38Z</time>
      </trkpt>
      <trkpt lat="40.157667" lon="-5.249017">
        <ele>1091.0</ele>
        <time>2015-05-23T14:23:40Z</time>
      </trkpt>
      <trkpt lat="40.157517" lon="-5.249167">
        <ele>1092.0</ele>
        <time>2015-05-23T14:23:42Z</time>
      </trkpt>
      <trkpt lat="40.157400" lon="-5.249350">
        <ele>1093.0</ele>
        <time>2015-05-23T14:23:44Z</time>
      </trkpt>
      <trkpt lat="40.157317" lon="-5.249567">
        <ele>1093.0</ele>
        <time>2015-05-23T14:23:46Z</time>
      </trkpt>
      <trkpt lat="40.157350" lon="-5.249733">
        <ele>1095.0</ele>
        <time>2015-05-23T14:23:48Z</time>
      </trkpt>
      <trkpt lat="40.157417" lon="-5.249883">
        <ele>1095.0</ele>
        <time>2015-05-23T14:23:50Z</time>
      </trkpt>
      <trkpt lat="40.157500" lon="-5.250000">
        <ele>1096.0</ele>
        <time>2015-05-23T14:23:52Z</time>
      </trkpt>
      <trkpt lat="40.157633" lon="-5.250033">
        <ele>1096.0</ele>
        <time>2015-05-23T14:23:54Z</time>
      </trkpt>
      <trkpt lat="40.157783" lon="-5.250033">
        <ele>1095.0</ele>
        <time>2015-05-23T14:23:56Z</time>
      </trkpt>
      <trkpt lat="40.157900" lon="-5.249900">
        <ele>1097.0</ele>
        <time>2015-05-23T14:23:58Z</time>
      </trkpt>
      <trkpt lat="40.157933" lon="-5.249683">
        <ele>1098.0</ele>
        <time>2015-05-23T14:24:00Z</time>
      </trkpt>
      <trkpt lat="40.157900" lon="-5.249467">
        <ele>1098.0</ele>
        <time>2015-05-23T14:24:02Z</time>
      </trkpt>
      <trkpt lat="40.157783" lon="-5.249283">
        <ele>1099.0</ele>
        <time>2015-05-23T14:24:04Z</time>
      </trkpt>
      <trkpt lat="40.157633" lon="-5.249167">
        <ele>1100.0</ele>
        <time>2015-05-23T14:24:06Z</time>
      </trkpt>
      <trkpt lat="40.157433" lon="-5.249133">
        <ele>1099.0</ele>
        <time>2015-05-23T14:24:08Z</time>
      </trkpt>
      <trkpt lat="40.157250" lon="-5.249217">
        <ele>1100.0</ele>
        <time>2015-05-23T14:24:10Z</time>
      </trkpt>
      <trkpt lat="40.157117" lon="-5.249333">
        <ele>1102.0</ele>
        <time>2015-05-23T14:24:12Z</time>
      </trkpt>
      <trkpt lat="40.157033" lon="-5.249450">
        <ele>1103.0</ele>
        <time>2015-05-23T14:24:14Z</time>
      </trkpt>
      <trkpt lat="40.157000" lon="-5.249633">
        <ele>1101.0</ele>
        <time>2015-05-23T14:24:16Z</time>
      </trkpt>
      <trkpt lat="40.157050" lon="-5.249833">
        <ele>1100.0</ele>
        <time>2015-05-23T14:24:18Z</time>
      </trkpt>
      <trkpt lat="40.157217" lon="-5.249950">
        <ele>1098.0</ele>
        <time>2015-05-23T14:24:20Z</time>
      </trkpt>
      <trkpt lat="40.157417" lon="-5.249950">
        <ele>1099.0</ele>
        <time>2015-05-23T14:24:22Z</time>
      </trkpt>
      <trkpt lat="40.157550" lon="-5.249850">
        <ele>1102.0</ele>
        <time>2015-05-23T14:24:24Z</time>
      </trkpt>
      <trkpt lat="40.157633" lon="-5.249667">
        <ele>1101.0</ele>
        <time>2015-05-23T14:24:26Z</time>
      </trkpt>
      <trkpt lat="40.157633" lon="-5.249450">
        <ele>1100.0</ele>
        <time>2015-05-23T14:24:28Z</time>
      </trkpt>
      <trkpt lat="40.157517" lon="-5.249250">
        <ele>1099.0</ele>
        <time>2015-05-23T14:24:30Z</time>
      </trkpt>
      <trkpt lat="40.157367" lon="-5.249117">
        <ele>1099.0</ele>
        <time>2015-05-23T14:24:32Z</time>
      </trkpt>
      <trkpt lat="40.157200" lon="-5.249083">
        <ele>1099.0</ele>
        <time>2015-05-23T14:24:34Z</time>
      </trkpt>
      <trkpt lat="40.157033" lon="-5.249083">
        <ele>1098.0</ele>
        <time>2015-05-23T14:24:36Z</time>
      </trkpt>
      <trkpt lat="40.156867" lon="-5.249150">
        <ele>1097.0</ele>
        <time>2015-05-23T14:24:38Z</time>
      </trkpt>
      <trkpt lat="40.156733" lon="-5.249250">
        <ele>1097.0</ele>
        <time>2015-05-23T14:24:40Z</time>
      </trkpt>
      <trkpt lat="40.156617" lon="-5.249417">
        <ele>1095.0</ele>
        <time>2015-05-23T14:24:42Z</time>
      </trkpt>
      <trkpt lat="40.156533" lon="-5.249617">
        <ele>1092.0</ele>
        <time>2015-05-23T14:24:44Z</time>
      </trkpt>
      <trkpt lat="40.156433" lon="-5.249800">
        <ele>1091.0</ele>
        <time>2015-05-23T14:24:46Z</time>
      </trkpt>
      <trkpt lat="40.156350" lon="-5.249983">
        <ele>1089.0</ele>
        <time>2015-05-23T14:24:48Z</time>
      </trkpt>
      <trkpt lat="40.156267" lon="-5.250183">
        <ele>1086.0</ele>
        <time>2015-05-23T14:24:50Z</time>
      </trkpt>
      <trkpt lat="40.156183" lon="-5.250367">
        <ele>1084.0</ele>
        <time>2015-05-23T14:24:52Z</time>
      </trkpt>
      <trkpt lat="40.156133" lon="-5.250533">
        <ele>1081.0</ele>
        <time>2015-05-23T14:24:54Z</time>
      </trkpt>
      <trkpt lat="40.156067" lon="-5.250717">
        <ele>1076.0</ele>
        <time>2015-05-23T14:24:56Z</time>
      </trkpt>
      <trkpt lat="40.156000" lon="-5.250933">
        <ele>1071.0</ele>
        <time>2015-05-23T14:24:58Z</time>
      </trkpt>
      <trkpt lat="40.155933" lon="-5.251100">
        <ele>1069.0</ele>
        <time>2015-05-23T14:25:00Z</time>
      </trkpt>
      <trkpt lat="40.155867" lon="-5.251300">
        <ele>1065.0</ele>
        <time>2015-05-23T14:25:02Z</time>
      </trkpt>
      <trkpt lat="40.155767" lon="-5.251500">
        <ele>1059.0</ele>
        <time>2015-05-23T14:25:04Z</time>
      </trkpt>
      <trkpt lat="40.155667" lon="-5.251700">
        <ele>1055.0</ele>
        <time>2015-05-23T14:25:06Z</time>
      </trkpt>
      <trkpt lat="40.155567" lon="-5.251867">
        <ele>1053.0</ele>
        <time>2015-05-23T14:25:08Z</time>
      </trkpt>
      <trkpt lat="40.155483" lon="-5.252033">
        <ele>1050.0</ele>
        <time>2015-05-23T14:25:10Z</time>
      </trkpt>
      <trkpt lat="40.155400" lon="-5.252183">
        <ele>1046.0</ele>
        <time>2015-05-23T14:25:12Z</time>
      </trkpt>
      <trkpt lat="40.155317" lon="-5.252333">
        <ele>1041.0</ele>
        <time>2015-05-23T14:25:14Z</time>
      </trkpt>
      <trkpt lat="40.155200" lon="-5.252517">
        <ele>1034.0</ele>
        <time>2015-05-23T14:25:16Z</time>
      </trkpt>
      <trkpt lat="40.155067" lon="-5.252667">
        <ele>1028.0</ele>
        <time>2015-05-23T14:25:18Z</time>
      </trkpt>
      <trkpt lat="40.154933" lon="-5.252800">
        <ele>1024.0</ele>
        <time>2015-05-23T14:25:20Z</time>
      </trkpt>
      <trkpt lat="40.154817" lon="-5.252950">
        <ele>1019.0</ele>
        <time>2015-05-23T14:25:22Z</time>
      </trkpt>
      <trkpt lat="40.154667" lon="-5.253067">
        <ele>1016.0</ele>
        <time>2015-05-23T14:25:24Z</time>
      </trkpt>
      <trkpt lat="40.154533" lon="-5.253167">
        <ele>1013.0</ele>
        <time>2015-05-23T14:25:26Z</time>
      </trkpt>
      <trkpt lat="40.154433" lon="-5.253300">
        <ele>1008.0</ele>
        <time>2015-05-23T14:25:28Z</time>
      </trkpt>
      <trkpt lat="40.154317" lon="-5.253450">
        <ele>1001.0</ele>
        <time>2015-05-23T14:25:30Z</time>
      </trkpt>
      <trkpt lat="40.154217" lon="-5.253617">
        <ele>996.0</ele>
        <time>2015-05-23T14:25:32Z</time>
      </trkpt>
      <trkpt lat="40.154117" lon="-5.253767">
        <ele>992.0</ele>
        <time>2015-05-23T14:25:34Z</time>
      </trkpt>
      <trkpt lat="40.153983" lon="-5.253917">
        <ele>987.0</ele>
        <time>2015-05-23T14:25:36Z</time>
      </trkpt>
      <trkpt lat="40.153833" lon="-5.254100">
        <ele>980.0</ele>
        <time>2015-05-23T14:25:38Z</time>
      </trkpt>
      <trkpt lat="40.153700" lon="-5.254317">
        <ele>975.0</ele>
        <time>2015-05-23T14:25:40Z</time>
      </trkpt>
      <trkpt lat="40.153600" lon="-5.254467">
        <ele>973.0</ele>
        <time>2015-05-23T14:25:42Z</time>
      </trkpt>
      <trkpt lat="40.153517" lon="-5.254600">
        <ele>971.0</ele>
        <time>2015-05-23T14:25:44Z</time>
      </trkpt>
      <trkpt lat="40.153433" lon="-5.254800">
        <ele>964.0</ele>
        <time>2015-05-23T14:25:46Z</time>
      </trkpt>
      <trkpt lat="40.153350" lon="-5.255017">
        <ele>958.0</ele>
        <time>2015-05-23T14:25:48Z</time>
      </trkpt>
      <trkpt lat="40.153317" lon="-5.255233">
        <ele>955.0</ele>
        <time>2015-05-23T14:25:50Z</time>
      </trkpt>
      <trkpt lat="40.153283" lon="-5.255450">
        <ele>950.0</ele>
        <time>2015-05-23T14:25:52Z</time>
      </trkpt>
      <trkpt lat="40.153233" lon="-5.255667">
        <ele>946.0</ele>
        <time>2015-05-23T14:25:54Z</time>
      </trkpt>
      <trkpt lat="40.153183" lon="-5.255883">
        <ele>943.0</ele>
        <time>2015-05-23T14:25:56Z</time>
      </trkpt>
      <trkpt lat="40.153150" lon="-5.256100">
        <ele>940.0</ele>
        <time>2015-05-23T14:25:58Z</time>
      </trkpt>
      <trkpt lat="40.153117" lon="-5.256317">
        <ele>937.0</ele>
        <time>2015-05-23T14:26:00Z</time>
      </trkpt>
      <trkpt lat="40.153067" lon="-5.256533">
        <ele>934.0</ele>
        <time>2015-05-23T14:26:02Z</time>
      </trkpt>
      <trkpt lat="40.152983" lon="-5.256733">
        <ele>928.0</ele>
        <time>2015-05-23T14:26:04Z</time>
      </trkpt>
      <trkpt lat="40.152867" lon="-5.256967">
        <ele>922.0</ele>
        <time>2015-05-23T14:26:06Z</time>
      </trkpt>
      <trkpt lat="40.152833" lon="-5.257183">
        <ele>919.0</ele>
        <time>2015-05-23T14:26:08Z</time>
      </trkpt>
      <trkpt lat="40.152800" lon="-5.257400">
        <ele>914.0</ele>
        <time>2015-05-23T14:26:10Z</time>
      </trkpt>
      <trkpt lat="40.152717" lon="-5.257650">
        <ele>908.0</ele>
        <time>2015-05-23T14:26:12Z</time>
      </trkpt>
      <trkpt lat="40.152633" lon="-5.257883">
        <ele>904.0</ele>
        <time>2015-05-23T14:26:14Z</time>
      </trkpt>
      <trkpt lat="40.152567" lon="-5.258100">
        <ele>902.0</ele>
        <time>2015-05-23T14:26:16Z</time>
      </trkpt>
      <trkpt lat="40.152500" lon="-5.258317">
        <ele>898.0</ele>
        <time>2015-05-23T14:26:18Z</time>
      </trkpt>
      <trkpt lat="40.152433" lon="-5.258533">
        <ele>895.0</ele>
        <time>2015-05-23T14:26:20Z</time>
      </trkpt>
      <trkpt lat="40.152350" lon="-5.258683">
        <ele>892.0</ele>
        <time>2015-05-23T14:26:22Z</time>
      </trkpt>
      <trkpt lat="40.152267" lon="-5.258867">
        <ele>886.0</ele>
        <time>2015-05-23T14:26:24Z</time>
      </trkpt>
      <trkpt lat="40.152183" lon="-5.259083">
        <ele>879.0</ele>
        <time>2015-05-23T14:26:26Z</time>
      </trkpt>
      <trkpt lat="40.152067" lon="-5.259283">
        <ele>874.0</ele>
        <time>2015-05-23T14:26:28Z</time>
      </trkpt>
      <trkpt lat="40.151983" lon="-5.259483">
        <ele>870.0</ele>
        <time>2015-05-23T14:26:30Z</time>
      </trkpt>
      <trkpt lat="40.151883" lon="-5.259650">
        <ele>866.0</ele>
        <time>2015-05-23T14:26:32Z</time>
      </trkpt>
      <trkpt lat="40.151800" lon="-5.259833">
        <ele>861.0</ele>
        <time>2015-05-23T14:26:34Z</time>
      </trkpt>
      <trkpt lat="40.151733" lon="-5.260050">
        <ele>854.0</ele>
        <time>2015-05-23T14:26:36Z</time>
      </trkpt>
      <trkpt lat="40.151633" lon="-5.260233">
        <ele>848.0</ele>
        <time>2015-05-23T14:26:38Z</time>
      </trkpt>
      <trkpt lat="40.151517" lon="-5.260400">
        <ele>842.0</ele>
        <time>2015-05-23T14:26:40Z</time>
      </trkpt>
      <trkpt lat="40.151433" lon="-5.260567">
        <ele>836.0</ele>
        <time>2015-05-23T14:26:42Z</time>
      </trkpt>
      <trkpt lat="40.151350" lon="-5.260733">
        <ele>829.0</ele>
        <time>2015-05-23T14:26:44Z</time>
      </trkpt>
      <trkpt lat="40.151267" lon="-5.260917">
        <ele>822.0</ele>
        <time>2015-05-23T14:26:46Z</time>
      </trkpt>
      <trkpt lat="40.151183" lon="-5.261100">
        <ele>814.0</ele>
        <time>2015-05-23T14:26:48Z</time>
      </trkpt>
      <trkpt lat="40.151100" lon="-5.261317">
        <ele>805.0</ele>
        <time>2015-05-23T14:26:50Z</time>
      </trkpt>
      <trkpt lat="40.151083" lon="-5.261500">
        <ele>802.0</ele>
        <time>2015-05-23T14:26:52Z</time>
      </trkpt>
      <trkpt lat="40.151100" lon="-5.261650">
        <ele>800.0</ele>
        <time>2015-05-23T14:26:54Z</time>
      </trkpt>
      <trkpt lat="40.151133" lon="-5.261867">
        <ele>795.0</ele>
        <time>2015-05-23T14:26:56Z</time>
      </trkpt>
      <trkpt lat="40.151200" lon="-5.262067">
        <ele>792.0</ele>
        <time>2015-05-23T14:26:58Z</time>
      </trkpt>
      <trkpt lat="40.151200" lon="-5.262250">
        <ele>789.0</ele>
        <time>2015-05-23T14:27:00Z</time>
      </trkpt>
      <trkpt lat="40.151167" lon="-5.262433">
        <ele>784.0</ele>
        <time>2015-05-23T14:27:02Z</time>
      </trkpt>
      <trkpt lat="40.151133" lon="-5.262633">
        <ele>778.0</ele>
        <time>2015-05-23T14:27:04Z</time>
      </trkpt>
      <trkpt lat="40.151083" lon="-5.262817">
        <ele>774.0</ele>
        <time>2015-05-23T14:27:06Z</time>
      </trkpt>
      <trkpt lat="40.151050" lon="-5.262983">
        <ele>770.0</ele>
        <time>2015-05-23T14:27:08Z</time>
      </trkpt>
      <trkpt lat="40.151017" lon="-5.263183">
        <ele>765.0</ele>
        <time>2015-05-23T14:27:10Z</time>
      </trkpt>
      <trkpt lat="40.150983" lon="-5.263367">
        <ele>761.0</ele>
        <time>2015-05-23T14:27:12Z</time>
      </trkpt>
      <trkpt lat="40.150933" lon="-5.263533">
        <ele>758.0</ele>
        <time>2015-05-23T14:27:14Z</time>
      </trkpt>
      <trkpt lat="40.150883" lon="-5.263700">
        <ele>752.0</ele>
        <time>2015-05-23T14:27:16Z</time>
      </trkpt>
      <trkpt lat="40.150833" lon="-5.263883">
        <ele>748.0</ele>
        <time>2015-05-23T14:27:18Z</time>
      </trkpt>
      <trkpt lat="40.150750" lon="-5.264033">
        <ele>747.0</ele>
        <time>2015-05-23T14:27:20Z</time>
      </trkpt>
      <trkpt lat="40.150683" lon="-5.264167">
        <ele>745.0</ele>
        <time>2015-05-23T14:27:22Z</time>
      </trkpt>
      <trkpt lat="40.150600" lon="-5.264350">
        <ele>740.0</ele>
        <time>2015-05-23T14:27:24Z</time>
      </trkpt>
      <trkpt lat="40.150533" lon="-5.264550">
        <ele>734.0</ele>
        <time>2015-05-23T14:27:26Z</time>
      </trkpt>
      <trkpt lat="40.150517" lon="-5.264733">
        <ele>732.0</ele>
        <time>2015-05-23T14:27:28Z</time>
      </trkpt>
      <trkpt lat="40.150500" lon="-5.264917">
        <ele>727.0</ele>
        <time>2015-05-23T14:27:30Z</time>
      </trkpt>
      <trkpt lat="40.150467" lon="-5.265167">
        <ele>720.0</ele>
        <time>2015-05-23T14:27:32Z</time>
      </trkpt>
      <trkpt lat="40.150433" lon="-5.265400">
        <ele>715.0</ele>
        <time>2015-05-23T14:27:34Z</time>
      </trkpt>
      <trkpt lat="40.150400" lon="-5.265617">
        <ele>710.0</ele>
        <time>2015-05-23T14:27:36Z</time>
      </trkpt>
      <trkpt lat="40.150333" lon="-5.265817">
        <ele>703.0</ele>
        <time>2015-05-23T14:27:38Z</time>
      </trkpt>
      <trkpt lat="40.150283" lon="-5.266033">
        <ele>696.0</ele>
        <time>2015-05-23T14:27:40Z</time>
      </trkpt>
      <trkpt lat="40.150233" lon="-5.266217">
        <ele>690.0</ele>
        <time>2015-05-23T14:27:42Z</time>
      </trkpt>
      <trkpt lat="40.150167" lon="-5.266400">
        <ele>683.0</ele>
        <time>2015-05-23T14:27:44Z</time>
      </trkpt>
      <trkpt lat="40.150117" lon="-5.266617">
        <ele>675.0</ele>
        <time>2015-05-23T14:27:46Z</time>
      </trkpt>
      <trkpt lat="40.150067" lon="-5.266800">
        <ele>670.0</ele>
        <time>2015-05-23T14:27:48Z</time>
      </trkpt>
      <trkpt lat="40.150017" lon="-5.266967">
        <ele>664.0</ele>
        <time>2015-05-23T14:27:50Z</time>
      </trkpt>
      <trkpt lat="40.149967" lon="-5.267150">
        <ele>656.0</ele>
        <time>2015-05-23T14:27:52Z</time>
      </trkpt>
      <trkpt lat="40.149900" lon="-5.267317">
        <ele>649.0</ele>
        <time>2015-05-23T14:27:54Z</time>
      </trkpt>
      <trkpt lat="40.149817" lon="-5.267500">
        <ele>642.0</ele>
        <time>2015-05-23T14:27:56Z</time>
      </trkpt>
      <trkpt lat="40.149750" lon="-5.267667">
        <ele>636.0</ele>
        <time>2015-05-23T14:27:58Z</time>
      </trkpt>
      <trkpt lat="40.149683" lon="-5.267817">
        <ele>630.0</ele>
        <time>2015-05-23T14:28:00Z</time>
      </trkpt>
      <trkpt lat="40.149600" lon="-5.268017">
        <ele>623.0</ele>
        <time>2015-05-23T14:28:02Z</time>
      </trkpt>
      <trkpt lat="40.149533" lon="-5.268217">
        <ele>621.0</ele>
        <time>2015-05-23T14:28:04Z</time>
      </trkpt>
      <trkpt lat="40.149483" lon="-5.268383">
        <ele>620.0</ele>
        <time>2015-05-23T14:28:06Z</time>
      </trkpt>
      <trkpt lat="40.149433" lon="-5.268600">
        <ele>615.0</ele>
        <time>2015-05-23T14:28:08Z</time>
      </trkpt>
      <trkpt lat="40.149383" lon="-5.268817">
        <ele>610.0</ele>
        <time>2015-05-23T14:28:10Z</time>
      </trkpt>
      <trkpt lat="40.149317" lon="-5.269017">
        <ele>608.0</ele>
        <time>2015-05-23T14:28:12Z</time>
      </trkpt>
      <trkpt lat="40.149250" lon="-5.269217">
        <ele>604.0</ele>
        <time>2015-05-23T14:28:14Z</time>
      </trkpt>
      <trkpt lat="40.149150" lon="-5.269433">
        <ele>600.0</ele>
        <time>2015-05-23T14:28:16Z</time>
      </trkpt>
      <trkpt lat="40.149067" lon="-5.269617">
        <ele>598.0</ele>
        <time>2015-05-23T14:28:18Z</time>
      </trkpt>
      <trkpt lat="40.148967" lon="-5.269817">
        <ele>595.0</ele>
        <time>2015-05-23T14:28:20Z</time>
      </trkpt>
      <trkpt lat="40.148900" lon="-5.270000">
        <ele>593.0</ele>
        <time>2015-05-23T14:28:22Z</time>
      </trkpt>
      <trkpt lat="40.148850" lon="-5.270183">
        <ele>590.0</ele>
        <time>2015-05-23T14:28:24Z</time>
      </trkpt>
      <trkpt lat="40.148800" lon="-5.270417">
        <ele>587.0</ele>
        <time>2015-05-23T14:28:26Z</time>
      </trkpt>
      <trkpt lat="40.148733" lon="-5.270633">
        <ele>583.0</ele>
        <time>2015-05-23T14:28:28Z</time>
      </trkpt>
      <trkpt lat="40.148667" lon="-5.270817">
        <ele>581.0</ele>
        <time>2015-05-23T14:28:30Z</time>
      </trkpt>
      <trkpt lat="40.148617" lon="-5.271000">
        <ele>578.0</ele>
        <time>2015-05-23T14:28:32Z</time>
      </trkpt>
      <trkpt lat="40.148567" lon="-5.271200">
        <ele>573.0</ele>
        <time>2015-05-23T14:28:34Z</time>
      </trkpt>
      <trkpt lat="40.148533" lon="-5.271433">
        <ele>566.0</ele>
        <time>2015-05-23T14:28:36Z</time>
      </trkpt>
      <trkpt lat="40.148483" lon="-5.271650">
        <ele>562.0</ele>
        <time>2015-05-23T14:28:38Z</time>
      </trkpt>
      <trkpt lat="40.148417" lon="-5.271850">
        <ele>558.0</ele>
        <time>2015-05-23T14:28:40Z</time>
      </trkpt>
      <trkpt lat="40.148333" lon="-5.272083">
        <ele>552.0</ele>
        <time>2015-05-23T14:28:42Z</time>
      </trkpt>
      <trkpt lat="40.148267" lon="-5.272283">
        <ele>547.0</ele>
        <time>2015-05-23T14:28:44Z</time>
      </trkpt>
      <trkpt lat="40.148200" lon="-5.272517">
        <ele>540.0</ele>
        <time>2015-05-23T14:28:46Z</time>
      </trkpt>
      <trkpt lat="40.148167" lon="-5.272767">
        <ele>533.0</ele>
        <time>2015-05-23T14:28:48Z</time>
      </trkpt>
      <trkpt lat="40.148167" lon="-5.272983">
        <ele>532.0</ele>
        <time>2015-05-23T14:28:50Z</time>
      </trkpt>
      <trkpt lat="40.148233" lon="-5.273167">
        <ele>531.0</ele>
        <time>2015-05-23T14:28:52Z</time>
      </trkpt>
      <trkpt lat="40.148317" lon="-5.273317">
        <ele>528.0</ele>
        <time>2015-05-23T14:28:54Z</time>
      </trkpt>
      <trkpt lat="40.148383" lon="-5.273500">
        <ele>524.0</ele>
        <time>2015-05-23T14:28:56Z</time>
      </trkpt>
      <trkpt lat="40.148433" lon="-5.273667">
        <ele>522.0</ele>
        <time>2015-05-23T14:28:58Z</time>
      </trkpt>
      <trkpt lat="40.148500" lon="-5.273850">
        <ele>519.0</ele>
        <time>2015-05-23T14:29:00Z</time>
      </trkpt>
      <trkpt lat="40.148533" lon="-5.274050">
        <ele>514.0</ele>
        <time>2015-05-23T14:29:02Z</time>
      </trkpt>
      <trkpt lat="40.148533" lon="-5.274250">
        <ele>511.0</ele>
        <time>2015-05-23T14:29:04Z</time>
      </trkpt>
      <trkpt lat="40.148517" lon="-5.274433">
        <ele>507.0</ele>
        <time>2015-05-23T14:29:06Z</time>
      </trkpt>
      <trkpt lat="40.148500" lon="-5.274683">
        <ele>500.0</ele>
        <time>2015-05-23T14:29:08Z</time>
      </trkpt>
      <trkpt lat="40.148450" lon="-5.274917">
        <ele>496.0</ele>
        <time>2015-05-23T14:29:10Z</time>
      </trkpt>
      <trkpt lat="40.148383" lon="-5.275033">
        <ele>495.0</ele>
        <time>2015-05-23T14:29:12Z</time>
      </trkpt>
      <trkpt lat="40.148333" lon="-5.275167">
        <ele>492.0</ele>
        <time>2015-05-23T14:29:14Z</time>
      </trkpt>
      <trkpt lat="40.148250" lon="-5.275367">
        <ele>489.0</ele>
        <time>2015-05-23T14:29:16Z</time>
      </trkpt>
      <trkpt lat="40.148233" lon="-5.275533">
        <ele>492.0</ele>
        <time>2015-05-23T14:29:18Z</time>
      </trkpt>
      <trkpt lat="40.148250" lon="-5.275717">
        <ele>493.0</ele>
        <time>2015-05-23T14:29:20Z</time>
      </trkpt>
      <trkpt lat="40.148333" lon="-5.275933">
        <ele>491.0</ele>
        <time>2015-05-23T14:29:22Z</time>
      </trkpt>
      <trkpt lat="40.148450" lon="-5.276100">
        <ele>490.0</ele>
        <time>2015-05-23T14:29:24Z</time>
      </trkpt>
      <trkpt lat="40.148567" lon="-5.276300">
        <ele>488.0</ele>
        <time>2015-05-23T14:29:26Z</time>
      </trkpt>
      <trkpt lat="40.148617" lon="-5.276533">
        <ele>485.0</ele>
        <time>2015-05-23T14:29:28Z</time>
      </trkpt>
      <trkpt lat="40.148600" lon="-5.276717">
        <ele>485.0</ele>
        <time>2015-05-23T14:29:30Z</time>
      </trkpt>
      <trkpt lat="40.148517" lon="-5.276883">
        <ele>480.0</ele>
        <time>2015-05-23T14:29:32Z</time>
      </trkpt>
      <trkpt lat="40.148367" lon="-5.277033">
        <ele>475.0</ele>
        <time>2015-05-23T14:29:34Z</time>
      </trkpt>
      <trkpt lat="40.148217" lon="-5.277100">
        <ele>473.0</ele>
        <time>2015-05-23T14:29:36Z</time>
      </trkpt>
      <trkpt lat="40.148083" lon="-5.277150">
        <ele>471.0</ele>
        <time>2015-05-23T14:29:38Z</time>
      </trkpt>
      <trkpt lat="40.147917" lon="-5.277233">
        <ele>467.0</ele>
        <time>2015-05-23T14:29:40Z</time>
      </trkpt>
      <trkpt lat="40.147767" lon="-5.277300">
        <ele>465.0</ele>
        <time>2015-05-23T14:29:42Z</time>
      </trkpt>
      <trkpt lat="40.147617" lon="-5.277367">
        <ele>462.0</ele>
        <time>2015-05-23T14:29:44Z</time>
      </trkpt>
      <trkpt lat="40.147433" lon="-5.277417">
        <ele>457.0</ele>
        <time>2015-05-23T14:29:46Z</time>
      </trkpt>
      <trkpt lat="40.147267" lon="-5.277500">
        <ele>454.0</ele>
        <time>2015-05-23T14:29:48Z</time>
      </trkpt>
      <trkpt lat="40.147133" lon="-5.277583">
        <ele>453.0</ele>
        <time>2015-05-23T14:29:50Z</time>
      </trkpt>
      <trkpt lat="40.147000" lon="-5.277700">
        <ele>450.0</ele>
        <time>2015-05-23T14:29:52Z</time>
      </trkpt>
      <trkpt lat="40.146950" lon="-5.277917">
        <ele>446.0</ele>
        <time>2015-05-23T14:29:54Z</time>
      </trkpt>
      <trkpt lat="40.147017" lon="-5.278117">
        <ele>442.0</ele>
        <time>2015-05-23T14:29:56Z</time>
      </trkpt>
      <trkpt lat="40.147133" lon="-5.278250">
        <ele>440.0</ele>
        <time>2015-05-23T14:29:58Z</time>
      </trkpt>
      <trkpt lat="40.147167" lon="-5.278400">
        <ele>437.0</ele>
        <time>2015-05-23T14:30:00Z</time>
      </trkpt>
      <trkpt lat="40.147050" lon="-5.278567">
        <ele>430.0</ele>
        <time>2015-05-23T14:30:02Z</time>
      </trkpt>
      <trkpt lat="40.146867" lon="-5.278483">
        <ele>424.0</ele>
        <time>2015-05-23T14:30:04Z</time>
      </trkpt>
      <trkpt lat="40.146800" lon="-5.278283">
        <ele>420.0</ele>
        <time>2015-05-23T14:30:06Z</time>
      </trkpt>
      <trkpt lat="40.146717" lon="-5.278117">
        <ele>419.0</ele>
        <time>2015-05-23T14:30:08Z</time>
      </trkpt>
      <trkpt lat="40.146550" lon="-5.278033">
        <ele>415.0</ele>
        <time>2015-05-23T14:30:10Z</time>
      </trkpt>
      <trkpt lat="40.146400" lon="-5.278000">
        <ele>413.0</ele>
        <time>2015-05-23T14:30:12Z</time>
      </trkpt>
      <trkpt lat="40.146283" lon="-5.278117">
        <ele>410.0</ele>
        <time>2015-05-23T14:30:14Z</time>
      </trkpt>
      <trkpt lat="40.146300" lon="-5.278333">
        <ele>405.0</ele>
        <time>2015-05-23T14:30:16Z</time>
      </trkpt>
      <trkpt lat="40.146450" lon="-5.278433">
        <ele>401.0</ele>
        <time>2015-05-23T14:30:18Z</time>
      </trkpt>
      <trkpt lat="40.146600" lon="-5.278450">
        <ele>397.0</ele>
        <time>2015-05-23T14:30:20Z</time>
      </trkpt>
      <trkpt lat="40.146767" lon="-5.278567">
        <ele>392.0</ele>
        <time>2015-05-23T14:30:22Z</time>
      </trkpt>
      <trkpt lat="40.146800" lon="-5.278783">
        <ele>389.0</ele>
        <time>2015-05-23T14:30:24Z</time>
      </trkpt>
      <trkpt lat="40.146633" lon="-5.278933">
        <ele>383.0</ele>
        <time>2015-05-23T14:30:26Z</time>
      </trkpt>
      <trkpt lat="40.146417" lon="-5.278950">
        <ele>377.0</ele>
        <time>2015-05-23T14:30:28Z</time>
      </trkpt>
      <trkpt lat="40.146233" lon="-5.278917">
        <ele>377.0</ele>
        <time>2015-05-23T14:30:30Z</time>
      </trkpt>
      <trkpt lat="40.146100" lon="-5.279067">
        <ele>376.0</ele>
        <time>2015-05-23T14:30:32Z</time>
      </trkpt>
      <trkpt lat="40.146067" lon="-5.279300">
        <ele>373.0</ele>
        <time>2015-05-23T14:30:34Z</time>
      </trkpt>
      <trkpt lat="40.146150" lon="-5.279450">
        <ele>375.0</ele>
        <time>2015-05-23T14:30:36Z</time>
      </trkpt>
      <trkpt lat="40.146283" lon="-5.279567">
        <ele>374.0</ele>
        <time>2015-05-23T14:30:38Z</time>
      </trkpt>
      <trkpt lat="40.146350" lon="-5.279700">
        <ele>375.0</ele>
        <time>2015-05-23T14:30:40Z</time>
      </trkpt>
      <trkpt lat="40.146383" lon="-5.279883">
        <ele>373.0</ele>
        <time>2015-05-23T14:30:42Z</time>
      </trkpt>
      <trkpt lat="40.146333" lon="-5.280117">
        <ele>370.0</ele>
        <time>2015-05-23T14:30:44Z</time>
      </trkpt>
      <trkpt lat="40.146200" lon="-5.280217">
        <ele>369.0</ele>
        <time>2015-05-23T14:30:46Z</time>
      </trkpt>
      <trkpt lat="40.146033" lon="-5.280183">
        <ele>365.0</ele>
        <time>2015-05-23T14:30:48Z</time>
      </trkpt>
      <trkpt lat="40.145883" lon="-5.280150">
        <ele>363.0</ele>
        <time>2015-05-23T14:30:50Z</time>
      </trkpt>
      <trkpt lat="40.145767" lon="-5.280267">
        <ele>360.0</ele>
        <time>2015-05-23T14:30:52Z</time>
      </trkpt>
      <trkpt lat="40.145733" lon="-5.280450">
        <ele>356.0</ele>
        <time>2015-05-23T14:30:54Z</time>
      </trkpt>
      <trkpt lat="40.145783" lon="-5.280583">
        <ele>355.0</ele>
        <time>2015-05-23T14:30:56Z</time>
      </trkpt>
      <trkpt lat="40.145833" lon="-5.280700">
        <ele>353.0</ele>
        <time>2015-05-23T14:30:58Z</time>
      </trkpt>
      <trkpt lat="40.145883" lon="-5.280783">
        <ele>350.0</ele>
        <time>2015-05-23T14:31:00Z</time>
      </trkpt>
      <trkpt lat="40.145900" lon="-5.280817">
        <ele>347.0</ele>
        <time>2015-05-23T14:31:02Z</time>
      </trkpt>
      <trkpt lat="40.145917" lon="-5.280800">
        <ele>346.0</ele>
        <time>2015-05-23T14:31:04Z</time>
      </trkpt>
      <trkpt lat="40.145917" lon="-5.280800">
        <ele>345.0</ele>
        <time>2015-05-23T14:31:06Z</time>
      </trkpt>
      <trkpt lat="40.145917" lon="-5.280800">
        <ele>345.0</ele>
        <time>2015-05-23T14:31:08Z</time>
      </trkpt>
      <trkpt lat="40.145917" lon="-5.280817">
        <ele>344.0</ele>
        <time>2015-05-23T14:31:10Z</time>
      </trkpt>
      <trkpt lat="40.145917" lon="-5.280817">
        <ele>344.0</ele>
        <time>2015-05-23T14:31:12Z</time>
      </trkpt>
      <trkpt lat="40.145917" lon="-5.280817">
        <ele>345.0</ele>
        <time>2015-05-23T14:31:14Z</time>
      </trkpt>
      <trkpt lat="40.145917" lon="-5.280817">
        <ele>345.0</ele>
        <time>2015-05-23T14:31:16Z</time>
      </trkpt>
      <trkpt lat="40.145917" lon="-5.280817">
        <ele>346.0</ele>
        <time>2015-05-23T14:31:18Z</time>
      </trkpt>
      <trkpt lat="40.145917" lon="-5.280817">
        <ele>346.0</ele>
        <time>2015-05-23T14:31:20Z</time>
      </trkpt>
      <trkpt lat="40.145917" lon="-5.280817">
        <ele>345.0</ele>
        <time>2015-05-23T14:31:22Z</time>
      </trkpt>
      <trkpt lat="40.145917" lon="-5.280817">
        <ele>345.0</ele>
        <time>2015-05-23T14:31:24Z</time>
      </trkpt>
      <trkpt lat="40.145917" lon="-5.280817">
        <ele>346.0</ele>
        <time>2015-05-23T14:31:26Z</time>
      </trkpt>
      <trkpt lat="40.145917" lon="-5.280800">
        <ele>346.0</ele>
        <time>2015-05-23T14:31:28Z</time>
      </trkpt>
      <trkpt lat="40.145917" lon="-5.280817">
        <ele>347.0</ele>
        <time>2015-05-23T14:31:30Z</time>
      </trkpt>
      <trkpt lat="40.145917" lon="-5.280817">
        <ele>346.0</ele>
        <time>2015-05-23T14:31:32Z</time>
      </trkpt>
      <trkpt lat="40.145917" lon="-5.280817">
        <ele>346.0</ele>
        <time>2015-05-23T14:31:34Z</time>
      </trkpt>
      <trkpt lat="40.145917" lon="-5.280817">
        <ele>346.0</ele>
        <time>2015-05-23T14:31:36Z</time>
      </trkpt>
      <trkpt lat="40.145933" lon="-5.280817">
        <ele>345.0</ele>
        <time>2015-05-23T14:31:38Z</time>
      </trkpt>
      <trkpt lat="40.145933" lon="-5.280817">
        <ele>346.0</ele>
        <time>2015-05-23T14:31:40Z</time>
      </trkpt>
      <trkpt lat="40.145933" lon="-5.280817">
        <ele>347.0</ele>
        <time>2015-05-23T14:31:42Z</time>
      </trkpt>
      <trkpt lat="40.145933" lon="-5.280817">
        <ele>346.0</ele>
        <time>2015-05-23T14:31:44Z</time>
      </trkpt>
      <trkpt lat="40.145933" lon="-5.280817">
        <ele>346.0</ele>
        <time>2015-05-23T14:31:46Z</time>
      </trkpt>
      <trkpt lat="40.145933" lon="-5.280817">
        <ele>346.0</ele>
        <time>2015-05-23T14:31:48Z</time>
      </trkpt>
      <trkpt lat="40.145933" lon="-5.280817">
        <ele>346.0</ele>
        <time>2015-05-23T14:31:50Z</time>
      </trkpt>
      <trkpt lat="40.145933" lon="-5.280817">
        <ele>347.0</ele>
        <time>2015-05-23T14:31:52Z</time>
      </trkpt>
      <trkpt lat="40.145933" lon="-5.280817">
        <ele>346.0</ele>
        <time>2015-05-23T14:31:54Z</time>
      </trkpt>
    </trkseg>
  </trk>
</gpx>
